<?xml version="1.0" encoding="UTF-8" standalone="no" ?>
<gpx xmlns="http://www.topografix.com/GPX/1/1" xmlns:xsi="http://www.w3.org/2001/XMLSchema-instance" xsi:schemaLocation="http://www.topografix.com/GPX/1/1 http://www.topografix.com/GPX/1/1/gpx.xsd" version="1.1" creator="VisuGPX - https://www.visugpx.com">
  <metadata>
    <name>Randonnée du Pilat 2009 - Lorette 42 -</name>
    <desc><![CDATA[Randonnée du Pilat 2009 - Lorette 42 -
samedi 12 septembre -]]></desc>
  </metadata>
  <trk>
    <name><![CDATA[Randonnée du Pilat]]></name>
    <cmt><![CDATA[avec lionel
à refaire]]></cmt>
    <trkseg>
      <trkpt lat="45.51087" lon="4.58099">
        <ele>338.04077148438</ele>
        <time>2009-09-12T06:39:37Z</time>
      </trkpt>
      <trkpt lat="45.51082" lon="4.58095">
        <ele>264.98059082031</ele>
        <time>2009-09-12T06:39:39Z</time>
      </trkpt>
      <trkpt lat="45.51077" lon="4.58091">
        <ele>338.04077148438</ele>
        <time>2009-09-12T06:39:41Z</time>
      </trkpt>
      <trkpt lat="45.51073" lon="4.58089">
        <ele>338.04077148438</ele>
        <time>2009-09-12T06:39:42Z</time>
      </trkpt>
      <trkpt lat="45.51051" lon="4.58077">
        <ele>338.521484375</ele>
        <time>2009-09-12T06:39:49Z</time>
      </trkpt>
      <trkpt lat="45.5103" lon="4.58067">
        <ele>338.521484375</ele>
        <time>2009-09-12T06:39:56Z</time>
      </trkpt>
      <trkpt lat="45.51008" lon="4.58063">
        <ele>339.00207519531</ele>
        <time>2009-09-12T06:40:03Z</time>
      </trkpt>
      <trkpt lat="45.50982" lon="4.58055">
        <ele>339.48266601562</ele>
        <time>2009-09-12T06:40:11Z</time>
      </trkpt>
      <trkpt lat="45.50951" lon="4.58046">
        <ele>340.44409179688</ele>
        <time>2009-09-12T06:40:20Z</time>
      </trkpt>
      <trkpt lat="45.50918" lon="4.58039">
        <ele>340.44409179688</ele>
        <time>2009-09-12T06:40:29Z</time>
      </trkpt>
      <trkpt lat="45.50893" lon="4.58035">
        <ele>340.92468261719</ele>
        <time>2009-09-12T06:40:36Z</time>
      </trkpt>
      <trkpt lat="45.50857" lon="4.58029">
        <ele>341.4052734375</ele>
        <time>2009-09-12T06:40:46Z</time>
      </trkpt>
      <trkpt lat="45.50822" lon="4.58013">
        <ele>340.92468261719</ele>
        <time>2009-09-12T06:40:55Z</time>
      </trkpt>
      <trkpt lat="45.50814" lon="4.58008">
        <ele>339.96337890625</ele>
        <time>2009-09-12T06:40:57Z</time>
      </trkpt>
      <trkpt lat="45.50785" lon="4.57977">
        <ele>339.00207519531</ele>
        <time>2009-09-12T06:41:05Z</time>
      </trkpt>
      <trkpt lat="45.50764" lon="4.57955">
        <ele>339.00207519531</ele>
        <time>2009-09-12T06:41:10Z</time>
      </trkpt>
      <trkpt lat="45.50746" lon="4.57944">
        <ele>339.00207519531</ele>
        <time>2009-09-12T06:41:14Z</time>
      </trkpt>
      <trkpt lat="45.50704" lon="4.57932">
        <ele>338.521484375</ele>
        <time>2009-09-12T06:41:23Z</time>
      </trkpt>
      <trkpt lat="45.5067" lon="4.57928">
        <ele>339.00207519531</ele>
        <time>2009-09-12T06:41:31Z</time>
      </trkpt>
      <trkpt lat="45.50635" lon="4.57929">
        <ele>339.96337890625</ele>
        <time>2009-09-12T06:41:39Z</time>
      </trkpt>
      <trkpt lat="45.50583" lon="4.57925">
        <ele>340.92468261719</ele>
        <time>2009-09-12T06:41:51Z</time>
      </trkpt>
      <trkpt lat="45.50534" lon="4.57918">
        <ele>340.92468261719</ele>
        <time>2009-09-12T06:42:02Z</time>
      </trkpt>
      <trkpt lat="45.50484" lon="4.57909">
        <ele>341.4052734375</ele>
        <time>2009-09-12T06:42:13Z</time>
      </trkpt>
      <trkpt lat="45.50437" lon="4.57902">
        <ele>341.4052734375</ele>
        <time>2009-09-12T06:42:23Z</time>
      </trkpt>
      <trkpt lat="45.50428" lon="4.57902">
        <ele>341.4052734375</ele>
        <time>2009-09-12T06:42:25Z</time>
      </trkpt>
      <trkpt lat="45.50388" lon="4.57912">
        <ele>342.36669921875</ele>
        <time>2009-09-12T06:42:34Z</time>
      </trkpt>
      <trkpt lat="45.5035" lon="4.57921">
        <ele>342.84729003906</ele>
        <time>2009-09-12T06:42:43Z</time>
      </trkpt>
      <trkpt lat="45.50307" lon="4.57933">
        <ele>342.84729003906</ele>
        <time>2009-09-12T06:42:53Z</time>
      </trkpt>
      <trkpt lat="45.50266" lon="4.57943">
        <ele>343.32788085938</ele>
        <time>2009-09-12T06:43:02Z</time>
      </trkpt>
      <trkpt lat="45.50226" lon="4.57948">
        <ele>343.80859375</ele>
        <time>2009-09-12T06:43:11Z</time>
      </trkpt>
      <trkpt lat="45.50202" lon="4.5794">
        <ele>344.77001953125</ele>
        <time>2009-09-12T06:43:17Z</time>
      </trkpt>
      <trkpt lat="45.50185" lon="4.57922">
        <ele>344.77001953125</ele>
        <time>2009-09-12T06:43:22Z</time>
      </trkpt>
      <trkpt lat="45.50172" lon="4.57904">
        <ele>344.77001953125</ele>
        <time>2009-09-12T06:43:26Z</time>
      </trkpt>
      <trkpt lat="45.50152" lon="4.57895">
        <ele>345.73132324219</ele>
        <time>2009-09-12T06:43:31Z</time>
      </trkpt>
      <trkpt lat="45.50121" lon="4.579">
        <ele>346.21203613281</ele>
        <time>2009-09-12T06:43:39Z</time>
      </trkpt>
      <trkpt lat="45.50087" lon="4.57905">
        <ele>347.65393066406</ele>
        <time>2009-09-12T06:43:48Z</time>
      </trkpt>
      <trkpt lat="45.50062" lon="4.57912">
        <ele>348.13464355469</ele>
        <time>2009-09-12T06:43:55Z</time>
      </trkpt>
      <trkpt lat="45.50032" lon="4.57921">
        <ele>349.09582519531</ele>
        <time>2009-09-12T06:44:03Z</time>
      </trkpt>
      <trkpt lat="45.49996" lon="4.57932">
        <ele>350.53784179688</ele>
        <time>2009-09-12T06:44:13Z</time>
      </trkpt>
      <trkpt lat="45.49975" lon="4.57941">
        <ele>351.49914550781</ele>
        <time>2009-09-12T06:44:19Z</time>
      </trkpt>
      <trkpt lat="45.4995" lon="4.57951">
        <ele>351.97985839844</ele>
        <time>2009-09-12T06:44:26Z</time>
      </trkpt>
      <trkpt lat="45.49911" lon="4.57967">
        <ele>352.94116210938</ele>
        <time>2009-09-12T06:44:36Z</time>
      </trkpt>
      <trkpt lat="45.4988" lon="4.57976">
        <ele>353.90258789062</ele>
        <time>2009-09-12T06:44:44Z</time>
      </trkpt>
      <trkpt lat="45.49844" lon="4.57983">
        <ele>354.38317871094</ele>
        <time>2009-09-12T06:44:53Z</time>
      </trkpt>
      <trkpt lat="45.49814" lon="4.5799">
        <ele>354.86376953125</ele>
        <time>2009-09-12T06:45:01Z</time>
      </trkpt>
      <trkpt lat="45.49805" lon="4.58012">
        <ele>354.38317871094</ele>
        <time>2009-09-12T06:45:06Z</time>
      </trkpt>
      <trkpt lat="45.49802" lon="4.5805">
        <ele>355.34448242188</ele>
        <time>2009-09-12T06:45:13Z</time>
      </trkpt>
      <trkpt lat="45.49797" lon="4.58086">
        <ele>356.78637695312</ele>
        <time>2009-09-12T06:45:20Z</time>
      </trkpt>
      <trkpt lat="45.49788" lon="4.58114">
        <ele>359.18969726562</ele>
        <time>2009-09-12T06:45:27Z</time>
      </trkpt>
      <trkpt lat="45.49773" lon="4.58136">
        <ele>361.11242675781</ele>
        <time>2009-09-12T06:45:35Z</time>
      </trkpt>
      <trkpt lat="45.4976" lon="4.58139">
        <ele>362.07373046875</ele>
        <time>2009-09-12T06:45:40Z</time>
      </trkpt>
      <trkpt lat="45.4974" lon="4.58143">
        <ele>363.99633789062</ele>
        <time>2009-09-12T06:45:48Z</time>
      </trkpt>
      <trkpt lat="45.49714" lon="4.58149">
        <ele>366.88024902344</ele>
        <time>2009-09-12T06:45:58Z</time>
      </trkpt>
      <trkpt lat="45.49687" lon="4.58153">
        <ele>367.36096191406</ele>
        <time>2009-09-12T06:46:07Z</time>
      </trkpt>
      <trkpt lat="45.4966" lon="4.58155">
        <ele>365.9189453125</ele>
        <time>2009-09-12T06:46:13Z</time>
      </trkpt>
      <trkpt lat="45.49626" lon="4.58154">
        <ele>366.39953613281</ele>
        <time>2009-09-12T06:46:21Z</time>
      </trkpt>
      <trkpt lat="45.49596" lon="4.58155">
        <ele>367.84155273438</ele>
        <time>2009-09-12T06:46:29Z</time>
      </trkpt>
      <trkpt lat="45.49565" lon="4.58159">
        <ele>369.76428222656</ele>
        <time>2009-09-12T06:46:38Z</time>
      </trkpt>
      <trkpt lat="45.49558" lon="4.58162">
        <ele>369.28369140625</ele>
        <time>2009-09-12T06:46:40Z</time>
      </trkpt>
      <trkpt lat="45.4954" lon="4.58174">
        <ele>368.322265625</ele>
        <time>2009-09-12T06:46:45Z</time>
      </trkpt>
      <trkpt lat="45.49532" lon="4.58172">
        <ele>368.322265625</ele>
        <time>2009-09-12T06:46:47Z</time>
      </trkpt>
      <trkpt lat="45.4952" lon="4.58162">
        <ele>367.36096191406</ele>
        <time>2009-09-12T06:46:50Z</time>
      </trkpt>
      <trkpt lat="45.49504" lon="4.58165">
        <ele>367.36096191406</ele>
        <time>2009-09-12T06:46:54Z</time>
      </trkpt>
      <trkpt lat="45.49484" lon="4.58192">
        <ele>369.28369140625</ele>
        <time>2009-09-12T06:47:02Z</time>
      </trkpt>
      <trkpt lat="45.49471" lon="4.58209">
        <ele>370.24487304688</ele>
        <time>2009-09-12T06:47:09Z</time>
      </trkpt>
      <trkpt lat="45.49459" lon="4.58226">
        <ele>371.68688964844</ele>
        <time>2009-09-12T06:47:17Z</time>
      </trkpt>
      <trkpt lat="45.49448" lon="4.5824">
        <ele>373.60949707031</ele>
        <time>2009-09-12T06:47:24Z</time>
      </trkpt>
      <trkpt lat="45.49439" lon="4.58255">
        <ele>376.01281738281</ele>
        <time>2009-09-12T06:47:31Z</time>
      </trkpt>
      <trkpt lat="45.49429" lon="4.58268">
        <ele>377.93542480469</ele>
        <time>2009-09-12T06:47:38Z</time>
      </trkpt>
      <trkpt lat="45.49414" lon="4.58281">
        <ele>379.37744140625</ele>
        <time>2009-09-12T06:47:47Z</time>
      </trkpt>
      <trkpt lat="45.494" lon="4.58294">
        <ele>381.30004882812</ele>
        <time>2009-09-12T06:47:56Z</time>
      </trkpt>
      <trkpt lat="45.49385" lon="4.58306">
        <ele>382.26135253906</ele>
        <time>2009-09-12T06:48:04Z</time>
      </trkpt>
      <trkpt lat="45.4937" lon="4.58316">
        <ele>384.18408203125</ele>
        <time>2009-09-12T06:48:12Z</time>
      </trkpt>
      <trkpt lat="45.49356" lon="4.58326">
        <ele>385.6259765625</ele>
        <time>2009-09-12T06:48:20Z</time>
      </trkpt>
      <trkpt lat="45.49337" lon="4.58339">
        <ele>387.06799316406</ele>
        <time>2009-09-12T06:48:30Z</time>
      </trkpt>
      <trkpt lat="45.49317" lon="4.58354">
        <ele>388.029296875</ele>
        <time>2009-09-12T06:48:40Z</time>
      </trkpt>
      <trkpt lat="45.49296" lon="4.58372">
        <ele>389.47119140625</ele>
        <time>2009-09-12T06:48:51Z</time>
      </trkpt>
      <trkpt lat="45.49274" lon="4.5839">
        <ele>391.87451171875</ele>
        <time>2009-09-12T06:49:02Z</time>
      </trkpt>
      <trkpt lat="45.49259" lon="4.58402">
        <ele>392.35534667969</ele>
        <time>2009-09-12T06:49:09Z</time>
      </trkpt>
      <trkpt lat="45.49241" lon="4.58415">
        <ele>393.79724121094</ele>
        <time>2009-09-12T06:49:18Z</time>
      </trkpt>
      <trkpt lat="45.49226" lon="4.58425">
        <ele>394.75854492188</ele>
        <time>2009-09-12T06:49:26Z</time>
      </trkpt>
      <trkpt lat="45.49218" lon="4.58429">
        <ele>396.68115234375</ele>
        <time>2009-09-12T06:49:30Z</time>
      </trkpt>
      <trkpt lat="45.49203" lon="4.58437">
        <ele>397.64245605469</ele>
        <time>2009-09-12T06:49:39Z</time>
      </trkpt>
      <trkpt lat="45.49193" lon="4.58442">
        <ele>399.08435058594</ele>
        <time>2009-09-12T06:49:45Z</time>
      </trkpt>
      <trkpt lat="45.49187" lon="4.58458">
        <ele>399.56506347656</ele>
        <time>2009-09-12T06:49:51Z</time>
      </trkpt>
      <trkpt lat="45.49183" lon="4.58483">
        <ele>400.52648925781</ele>
        <time>2009-09-12T06:49:59Z</time>
      </trkpt>
      <trkpt lat="45.4918" lon="4.58506">
        <ele>401.00708007812</ele>
        <time>2009-09-12T06:50:06Z</time>
      </trkpt>
      <trkpt lat="45.49173" lon="4.58536">
        <ele>401.96850585938</ele>
        <time>2009-09-12T06:50:15Z</time>
      </trkpt>
      <trkpt lat="45.49163" lon="4.58564">
        <ele>402.44909667969</ele>
        <time>2009-09-12T06:50:23Z</time>
      </trkpt>
      <trkpt lat="45.49151" lon="4.58605">
        <ele>403.41040039062</ele>
        <time>2009-09-12T06:50:34Z</time>
      </trkpt>
      <trkpt lat="45.49142" lon="4.58643">
        <ele>403.41040039062</ele>
        <time>2009-09-12T06:50:44Z</time>
      </trkpt>
      <trkpt lat="45.49138" lon="4.58656">
        <ele>402.9296875</ele>
        <time>2009-09-12T06:50:47Z</time>
      </trkpt>
      <trkpt lat="45.49133" lon="4.58701">
        <ele>401.96850585938</ele>
        <time>2009-09-12T06:50:55Z</time>
      </trkpt>
      <trkpt lat="45.49136" lon="4.58738">
        <ele>402.44909667969</ele>
        <time>2009-09-12T06:51:02Z</time>
      </trkpt>
      <trkpt lat="45.49145" lon="4.58774">
        <ele>403.41040039062</ele>
        <time>2009-09-12T06:51:10Z</time>
      </trkpt>
      <trkpt lat="45.49153" lon="4.588">
        <ele>404.37170410156</ele>
        <time>2009-09-12T06:51:17Z</time>
      </trkpt>
      <trkpt lat="45.49152" lon="4.58823">
        <ele>405.3330078125</ele>
        <time>2009-09-12T06:51:22Z</time>
      </trkpt>
      <trkpt lat="45.49147" lon="4.58852">
        <ele>405.81372070312</ele>
        <time>2009-09-12T06:51:29Z</time>
      </trkpt>
      <trkpt lat="45.49145" lon="4.58881">
        <ele>407.25561523438</ele>
        <time>2009-09-12T06:51:36Z</time>
      </trkpt>
      <trkpt lat="45.49143" lon="4.58915">
        <ele>407.736328125</ele>
        <time>2009-09-12T06:51:44Z</time>
      </trkpt>
      <trkpt lat="45.49142" lon="4.58947">
        <ele>408.21704101562</ele>
        <time>2009-09-12T06:51:51Z</time>
      </trkpt>
      <trkpt lat="45.49141" lon="4.58989">
        <ele>410.62023925781</ele>
        <time>2009-09-12T06:52:01Z</time>
      </trkpt>
      <trkpt lat="45.49139" lon="4.59025">
        <ele>413.02355957031</ele>
        <time>2009-09-12T06:52:10Z</time>
      </trkpt>
      <trkpt lat="45.49136" lon="4.59047">
        <ele>413.98486328125</ele>
        <time>2009-09-12T06:52:16Z</time>
      </trkpt>
      <trkpt lat="45.49134" lon="4.59072">
        <ele>415.42687988281</ele>
        <time>2009-09-12T06:52:24Z</time>
      </trkpt>
      <trkpt lat="45.49135" lon="4.59091">
        <ele>416.38818359375</ele>
        <time>2009-09-12T06:52:31Z</time>
      </trkpt>
      <trkpt lat="45.49137" lon="4.59105">
        <ele>418.31079101562</ele>
        <time>2009-09-12T06:52:36Z</time>
      </trkpt>
      <trkpt lat="45.49137" lon="4.59121">
        <ele>418.79150390625</ele>
        <time>2009-09-12T06:52:42Z</time>
      </trkpt>
      <trkpt lat="45.49138" lon="4.59147">
        <ele>419.75280761719</ele>
        <time>2009-09-12T06:52:50Z</time>
      </trkpt>
      <trkpt lat="45.49139" lon="4.59166">
        <ele>421.19482421875</ele>
        <time>2009-09-12T06:52:57Z</time>
      </trkpt>
      <trkpt lat="45.49142" lon="4.59183">
        <ele>423.11743164062</ele>
        <time>2009-09-12T06:53:02Z</time>
      </trkpt>
      <trkpt lat="45.49145" lon="4.59195">
        <ele>424.07873535156</ele>
        <time>2009-09-12T06:53:08Z</time>
      </trkpt>
      <trkpt lat="45.49149" lon="4.5921">
        <ele>425.04016113281</ele>
        <time>2009-09-12T06:53:15Z</time>
      </trkpt>
      <trkpt lat="45.49155" lon="4.5923">
        <ele>426.96276855469</ele>
        <time>2009-09-12T06:53:24Z</time>
      </trkpt>
      <trkpt lat="45.49159" lon="4.59243">
        <ele>427.443359375</ele>
        <time>2009-09-12T06:53:31Z</time>
      </trkpt>
      <trkpt lat="45.49163" lon="4.5926">
        <ele>429.36596679688</ele>
        <time>2009-09-12T06:53:39Z</time>
      </trkpt>
      <trkpt lat="45.4917" lon="4.5928">
        <ele>431.28857421875</ele>
        <time>2009-09-12T06:53:49Z</time>
      </trkpt>
      <trkpt lat="45.49176" lon="4.59298">
        <ele>433.21130371094</ele>
        <time>2009-09-12T06:53:58Z</time>
      </trkpt>
      <trkpt lat="45.49181" lon="4.59316">
        <ele>433.69189453125</ele>
        <time>2009-09-12T06:54:07Z</time>
      </trkpt>
      <trkpt lat="45.49186" lon="4.59324">
        <ele>433.69189453125</ele>
        <time>2009-09-12T06:54:11Z</time>
      </trkpt>
      <trkpt lat="45.49184" lon="4.59331">
        <ele>434.6533203125</ele>
        <time>2009-09-12T06:54:16Z</time>
      </trkpt>
      <trkpt lat="45.49178" lon="4.59343">
        <ele>437.05651855469</ele>
        <time>2009-09-12T06:54:24Z</time>
      </trkpt>
      <trkpt lat="45.49172" lon="4.59352">
        <ele>437.537109375</ele>
        <time>2009-09-12T06:54:29Z</time>
      </trkpt>
      <trkpt lat="45.49171" lon="4.59354">
        <ele>437.537109375</ele>
        <time>2009-09-12T06:54:30Z</time>
      </trkpt>
      <trkpt lat="45.49164" lon="4.59376">
        <ele>440.42126464844</ele>
        <time>2009-09-12T06:54:41Z</time>
      </trkpt>
      <trkpt lat="45.4916" lon="4.59391">
        <ele>440.90185546875</ele>
        <time>2009-09-12T06:54:49Z</time>
      </trkpt>
      <trkpt lat="45.49152" lon="4.59412">
        <ele>442.34387207031</ele>
        <time>2009-09-12T06:55:00Z</time>
      </trkpt>
      <trkpt lat="45.49148" lon="4.59423">
        <ele>444.7470703125</ele>
        <time>2009-09-12T06:55:06Z</time>
      </trkpt>
      <trkpt lat="45.49147" lon="4.59428">
        <ele>444.7470703125</ele>
        <time>2009-09-12T06:55:09Z</time>
      </trkpt>
      <trkpt lat="45.49146" lon="4.59434">
        <ele>445.70837402344</ele>
        <time>2009-09-12T06:55:13Z</time>
      </trkpt>
      <trkpt lat="45.49149" lon="4.59443">
        <ele>446.66967773438</ele>
        <time>2009-09-12T06:55:19Z</time>
      </trkpt>
      <trkpt lat="45.49151" lon="4.59453">
        <ele>447.15026855469</ele>
        <time>2009-09-12T06:55:24Z</time>
      </trkpt>
      <trkpt lat="45.49162" lon="4.59469">
        <ele>449.07299804688</ele>
        <time>2009-09-12T06:55:34Z</time>
      </trkpt>
      <trkpt lat="45.49172" lon="4.59483">
        <ele>450.99560546875</ele>
        <time>2009-09-12T06:55:43Z</time>
      </trkpt>
      <trkpt lat="45.49182" lon="4.59498">
        <ele>452.43762207031</ele>
        <time>2009-09-12T06:55:52Z</time>
      </trkpt>
      <trkpt lat="45.49191" lon="4.59512">
        <ele>453.87963867188</ele>
        <time>2009-09-12T06:56:00Z</time>
      </trkpt>
      <trkpt lat="45.49198" lon="4.59523">
        <ele>455.32153320312</ele>
        <time>2009-09-12T06:56:06Z</time>
      </trkpt>
      <trkpt lat="45.49195" lon="4.59533">
        <ele>456.28295898438</ele>
        <time>2009-09-12T06:56:12Z</time>
      </trkpt>
      <trkpt lat="45.49192" lon="4.59537">
        <ele>457.72497558594</ele>
        <time>2009-09-12T06:56:15Z</time>
      </trkpt>
      <trkpt lat="45.4919" lon="4.59542">
        <ele>459.16687011719</ele>
        <time>2009-09-12T06:56:18Z</time>
      </trkpt>
      <trkpt lat="45.49184" lon="4.59556">
        <ele>462.05078125</ele>
        <time>2009-09-12T06:56:27Z</time>
      </trkpt>
      <trkpt lat="45.49181" lon="4.59568">
        <ele>462.53137207031</ele>
        <time>2009-09-12T06:56:34Z</time>
      </trkpt>
      <trkpt lat="45.49183" lon="4.59577">
        <ele>463.49279785156</ele>
        <time>2009-09-12T06:56:38Z</time>
      </trkpt>
      <trkpt lat="45.49184" lon="4.59585">
        <ele>463.97338867188</ele>
        <time>2009-09-12T06:56:42Z</time>
      </trkpt>
      <trkpt lat="45.49179" lon="4.59597">
        <ele>465.89611816406</ele>
        <time>2009-09-12T06:56:49Z</time>
      </trkpt>
      <trkpt lat="45.49173" lon="4.59612">
        <ele>467.33813476562</ele>
        <time>2009-09-12T06:56:57Z</time>
      </trkpt>
      <trkpt lat="45.49168" lon="4.59624">
        <ele>468.78002929688</ele>
        <time>2009-09-12T06:57:04Z</time>
      </trkpt>
      <trkpt lat="45.49163" lon="4.5964">
        <ele>469.74133300781</ele>
        <time>2009-09-12T06:57:12Z</time>
      </trkpt>
      <trkpt lat="45.49157" lon="4.59658">
        <ele>470.70263671875</ele>
        <time>2009-09-12T06:57:21Z</time>
      </trkpt>
      <trkpt lat="45.49152" lon="4.59674">
        <ele>471.18334960938</ele>
        <time>2009-09-12T06:57:28Z</time>
      </trkpt>
      <trkpt lat="45.49146" lon="4.59695">
        <ele>470.70263671875</ele>
        <time>2009-09-12T06:57:35Z</time>
      </trkpt>
      <trkpt lat="45.49141" lon="4.59705">
        <ele>470.70263671875</ele>
        <time>2009-09-12T06:57:38Z</time>
      </trkpt>
      <trkpt lat="45.49129" lon="4.59705">
        <ele>470.70263671875</ele>
        <time>2009-09-12T06:57:42Z</time>
      </trkpt>
      <trkpt lat="45.49101" lon="4.59694">
        <ele>471.66394042969</ele>
        <time>2009-09-12T06:57:53Z</time>
      </trkpt>
      <trkpt lat="45.49077" lon="4.59687">
        <ele>472.14465332031</ele>
        <time>2009-09-12T06:58:02Z</time>
      </trkpt>
      <trkpt lat="45.49049" lon="4.59683">
        <ele>473.58666992188</ele>
        <time>2009-09-12T06:58:12Z</time>
      </trkpt>
      <trkpt lat="45.49025" lon="4.59681">
        <ele>474.54797363281</ele>
        <time>2009-09-12T06:58:21Z</time>
      </trkpt>
      <trkpt lat="45.49005" lon="4.59671">
        <ele>475.50927734375</ele>
        <time>2009-09-12T06:58:29Z</time>
      </trkpt>
      <trkpt lat="45.48992" lon="4.59665">
        <ele>476.47058105469</ele>
        <time>2009-09-12T06:58:35Z</time>
      </trkpt>
      <trkpt lat="45.48989" lon="4.59641">
        <ele>477.91247558594</ele>
        <time>2009-09-12T06:58:42Z</time>
      </trkpt>
      <trkpt lat="45.48985" lon="4.59618">
        <ele>477.91247558594</ele>
        <time>2009-09-12T06:58:48Z</time>
      </trkpt>
      <trkpt lat="45.48977" lon="4.59591">
        <ele>477.43188476562</ele>
        <time>2009-09-12T06:58:54Z</time>
      </trkpt>
      <trkpt lat="45.4897" lon="4.59577">
        <ele>476.95129394531</ele>
        <time>2009-09-12T06:58:57Z</time>
      </trkpt>
      <trkpt lat="45.48951" lon="4.59538">
        <ele>476.47058105469</ele>
        <time>2009-09-12T06:59:04Z</time>
      </trkpt>
      <trkpt lat="45.48932" lon="4.59509">
        <ele>476.95129394531</ele>
        <time>2009-09-12T06:59:11Z</time>
      </trkpt>
      <trkpt lat="45.4891" lon="4.59479">
        <ele>477.43188476562</ele>
        <time>2009-09-12T06:59:19Z</time>
      </trkpt>
      <trkpt lat="45.48891" lon="4.5945">
        <ele>477.91247558594</ele>
        <time>2009-09-12T06:59:27Z</time>
      </trkpt>
      <trkpt lat="45.48864" lon="4.59414">
        <ele>479.3544921875</ele>
        <time>2009-09-12T06:59:37Z</time>
      </trkpt>
      <trkpt lat="45.48846" lon="4.59389">
        <ele>479.83508300781</ele>
        <time>2009-09-12T06:59:45Z</time>
      </trkpt>
      <trkpt lat="45.48825" lon="4.59371">
        <ele>481.7578125</ele>
        <time>2009-09-12T06:59:53Z</time>
      </trkpt>
      <trkpt lat="45.48802" lon="4.5936">
        <ele>481.7578125</ele>
        <time>2009-09-12T07:00:01Z</time>
      </trkpt>
      <trkpt lat="45.48785" lon="4.59361">
        <ele>483.68041992188</ele>
        <time>2009-09-12T07:00:08Z</time>
      </trkpt>
      <trkpt lat="45.48772" lon="4.59361">
        <ele>484.1611328125</ele>
        <time>2009-09-12T07:00:14Z</time>
      </trkpt>
      <trkpt lat="45.48756" lon="4.59357">
        <ele>485.12243652344</ele>
        <time>2009-09-12T07:00:21Z</time>
      </trkpt>
      <trkpt lat="45.48735" lon="4.59348">
        <ele>485.60302734375</ele>
        <time>2009-09-12T07:00:30Z</time>
      </trkpt>
      <trkpt lat="45.48713" lon="4.59335">
        <ele>487.52563476562</ele>
        <time>2009-09-12T07:00:40Z</time>
      </trkpt>
      <trkpt lat="45.48696" lon="4.5932">
        <ele>487.52563476562</ele>
        <time>2009-09-12T07:00:48Z</time>
      </trkpt>
      <trkpt lat="45.48682" lon="4.59306">
        <ele>488.00646972656</ele>
        <time>2009-09-12T07:00:55Z</time>
      </trkpt>
      <trkpt lat="45.48666" lon="4.5929">
        <ele>488.9677734375</ele>
        <time>2009-09-12T07:01:03Z</time>
      </trkpt>
      <trkpt lat="45.48649" lon="4.59271">
        <ele>489.92907714844</ele>
        <time>2009-09-12T07:01:12Z</time>
      </trkpt>
      <trkpt lat="45.48634" lon="4.59255">
        <ele>490.40979003906</ele>
        <time>2009-09-12T07:01:20Z</time>
      </trkpt>
      <trkpt lat="45.48616" lon="4.59237">
        <ele>492.81298828125</ele>
        <time>2009-09-12T07:01:30Z</time>
      </trkpt>
      <trkpt lat="45.486" lon="4.5922">
        <ele>493.29357910156</ele>
        <time>2009-09-12T07:01:39Z</time>
      </trkpt>
      <trkpt lat="45.4859" lon="4.59208">
        <ele>494.73559570312</ele>
        <time>2009-09-12T07:01:45Z</time>
      </trkpt>
      <trkpt lat="45.48573" lon="4.59186">
        <ele>494.73559570312</ele>
        <time>2009-09-12T07:01:54Z</time>
      </trkpt>
      <trkpt lat="45.48559" lon="4.59166">
        <ele>495.21618652344</ele>
        <time>2009-09-12T07:02:01Z</time>
      </trkpt>
      <trkpt lat="45.48546" lon="4.59143">
        <ele>495.69689941406</ele>
        <time>2009-09-12T07:02:09Z</time>
      </trkpt>
      <trkpt lat="45.48544" lon="4.59135">
        <ele>495.69689941406</ele>
        <time>2009-09-12T07:02:11Z</time>
      </trkpt>
      <trkpt lat="45.48539" lon="4.59119">
        <ele>495.69689941406</ele>
        <time>2009-09-12T07:02:15Z</time>
      </trkpt>
      <trkpt lat="45.48528" lon="4.59083">
        <ele>495.69689941406</ele>
        <time>2009-09-12T07:02:23Z</time>
      </trkpt>
      <trkpt lat="45.48518" lon="4.59054">
        <ele>495.69689941406</ele>
        <time>2009-09-12T07:02:29Z</time>
      </trkpt>
      <trkpt lat="45.48507" lon="4.59038">
        <ele>495.21618652344</ele>
        <time>2009-09-12T07:02:34Z</time>
      </trkpt>
      <trkpt lat="45.48492" lon="4.59032">
        <ele>496.177734375</ele>
        <time>2009-09-12T07:02:40Z</time>
      </trkpt>
      <trkpt lat="45.48475" lon="4.59023">
        <ele>497.61962890625</ele>
        <time>2009-09-12T07:02:47Z</time>
      </trkpt>
      <trkpt lat="45.48452" lon="4.59015">
        <ele>498.10034179688</ele>
        <time>2009-09-12T07:02:56Z</time>
      </trkpt>
      <trkpt lat="45.48434" lon="4.5901">
        <ele>498.58093261719</ele>
        <time>2009-09-12T07:03:03Z</time>
      </trkpt>
      <trkpt lat="45.48408" lon="4.59004">
        <ele>499.54223632812</ele>
        <time>2009-09-12T07:03:12Z</time>
      </trkpt>
      <trkpt lat="45.48387" lon="4.59006">
        <ele>499.0615234375</ele>
        <time>2009-09-12T07:03:19Z</time>
      </trkpt>
      <trkpt lat="45.48369" lon="4.59013">
        <ele>498.58093261719</ele>
        <time>2009-09-12T07:03:25Z</time>
      </trkpt>
      <trkpt lat="45.4834" lon="4.59026">
        <ele>498.58093261719</ele>
        <time>2009-09-12T07:03:35Z</time>
      </trkpt>
      <trkpt lat="45.48314" lon="4.59037">
        <ele>499.0615234375</ele>
        <time>2009-09-12T07:03:44Z</time>
      </trkpt>
      <trkpt lat="45.48286" lon="4.5905">
        <ele>498.10034179688</ele>
        <time>2009-09-12T07:03:53Z</time>
      </trkpt>
      <trkpt lat="45.48257" lon="4.59062">
        <ele>497.61962890625</ele>
        <time>2009-09-12T07:04:00Z</time>
      </trkpt>
      <trkpt lat="45.48227" lon="4.59073">
        <ele>495.69689941406</ele>
        <time>2009-09-12T07:04:06Z</time>
      </trkpt>
      <trkpt lat="45.4819" lon="4.59084">
        <ele>491.85168457031</ele>
        <time>2009-09-12T07:04:12Z</time>
      </trkpt>
      <trkpt lat="45.48183" lon="4.59086">
        <ele>492.33239746094</ele>
        <time>2009-09-12T07:04:13Z</time>
      </trkpt>
      <trkpt lat="45.48132" lon="4.59091">
        <ele>488.9677734375</ele>
        <time>2009-09-12T07:04:20Z</time>
      </trkpt>
      <trkpt lat="45.48098" lon="4.59097">
        <ele>487.52563476562</ele>
        <time>2009-09-12T07:04:25Z</time>
      </trkpt>
      <trkpt lat="45.48062" lon="4.591">
        <ele>487.52563476562</ele>
        <time>2009-09-12T07:04:31Z</time>
      </trkpt>
      <trkpt lat="45.48032" lon="4.59105">
        <ele>486.564453125</ele>
        <time>2009-09-12T07:04:37Z</time>
      </trkpt>
      <trkpt lat="45.47997" lon="4.59114">
        <ele>487.52563476562</ele>
        <time>2009-09-12T07:04:45Z</time>
      </trkpt>
      <trkpt lat="45.47984" lon="4.59118">
        <ele>486.564453125</ele>
        <time>2009-09-12T07:04:48Z</time>
      </trkpt>
      <trkpt lat="45.47967" lon="4.59131">
        <ele>485.60302734375</ele>
        <time>2009-09-12T07:04:53Z</time>
      </trkpt>
      <trkpt lat="45.47963" lon="4.59141">
        <ele>484.64184570312</ele>
        <time>2009-09-12T07:04:55Z</time>
      </trkpt>
      <trkpt lat="45.47961" lon="4.59151">
        <ele>484.64184570312</ele>
        <time>2009-09-12T07:04:57Z</time>
      </trkpt>
      <trkpt lat="45.4796" lon="4.59163">
        <ele>483.68041992188</ele>
        <time>2009-09-12T07:04:59Z</time>
      </trkpt>
      <trkpt lat="45.47959" lon="4.59201">
        <ele>482.71923828125</ele>
        <time>2009-09-12T07:05:04Z</time>
      </trkpt>
      <trkpt lat="45.47958" lon="4.59243">
        <ele>481.7578125</ele>
        <time>2009-09-12T07:05:09Z</time>
      </trkpt>
      <trkpt lat="45.47952" lon="4.59269">
        <ele>481.7578125</ele>
        <time>2009-09-12T07:05:13Z</time>
      </trkpt>
      <trkpt lat="45.47946" lon="4.5927">
        <ele>481.7578125</ele>
        <time>2009-09-12T07:05:15Z</time>
      </trkpt>
      <trkpt lat="45.47919" lon="4.59269">
        <ele>482.23852539062</ele>
        <time>2009-09-12T07:05:22Z</time>
      </trkpt>
      <trkpt lat="45.47907" lon="4.59277">
        <ele>483.19982910156</ele>
        <time>2009-09-12T07:05:27Z</time>
      </trkpt>
      <trkpt lat="45.47893" lon="4.59294">
        <ele>483.68041992188</ele>
        <time>2009-09-12T07:05:34Z</time>
      </trkpt>
      <trkpt lat="45.47878" lon="4.59309">
        <ele>484.64184570312</ele>
        <time>2009-09-12T07:05:41Z</time>
      </trkpt>
      <trkpt lat="45.47855" lon="4.59317">
        <ele>484.64184570312</ele>
        <time>2009-09-12T07:05:49Z</time>
      </trkpt>
      <trkpt lat="45.47833" lon="4.59327">
        <ele>486.564453125</ele>
        <time>2009-09-12T07:05:57Z</time>
      </trkpt>
      <trkpt lat="45.47813" lon="4.5934">
        <ele>487.52563476562</ele>
        <time>2009-09-12T07:06:05Z</time>
      </trkpt>
      <trkpt lat="45.47791" lon="4.59357">
        <ele>488.00646972656</ele>
        <time>2009-09-12T07:06:13Z</time>
      </trkpt>
      <trkpt lat="45.47776" lon="4.59372">
        <ele>488.00646972656</ele>
        <time>2009-09-12T07:06:19Z</time>
      </trkpt>
      <trkpt lat="45.4776" lon="4.59397">
        <ele>488.00646972656</ele>
        <time>2009-09-12T07:06:26Z</time>
      </trkpt>
      <trkpt lat="45.47746" lon="4.59425">
        <ele>488.48718261719</ele>
        <time>2009-09-12T07:06:33Z</time>
      </trkpt>
      <trkpt lat="45.47734" lon="4.59436">
        <ele>487.52563476562</ele>
        <time>2009-09-12T07:06:37Z</time>
      </trkpt>
      <trkpt lat="45.47728" lon="4.59425">
        <ele>488.00646972656</ele>
        <time>2009-09-12T07:06:40Z</time>
      </trkpt>
      <trkpt lat="45.47726" lon="4.59408">
        <ele>489.44836425781</ele>
        <time>2009-09-12T07:06:45Z</time>
      </trkpt>
      <trkpt lat="45.4772" lon="4.59385">
        <ele>490.40979003906</ele>
        <time>2009-09-12T07:06:52Z</time>
      </trkpt>
      <trkpt lat="45.47713" lon="4.5937">
        <ele>490.89038085938</ele>
        <time>2009-09-12T07:06:57Z</time>
      </trkpt>
      <trkpt lat="45.47705" lon="4.59353">
        <ele>490.89038085938</ele>
        <time>2009-09-12T07:07:02Z</time>
      </trkpt>
      <trkpt lat="45.47681" lon="4.59315">
        <ele>492.81298828125</ele>
        <time>2009-09-12T07:07:11Z</time>
      </trkpt>
      <trkpt lat="45.4766" lon="4.5929">
        <ele>492.81298828125</ele>
        <time>2009-09-12T07:07:19Z</time>
      </trkpt>
      <trkpt lat="45.47648" lon="4.59276">
        <ele>493.29357910156</ele>
        <time>2009-09-12T07:07:24Z</time>
      </trkpt>
      <trkpt lat="45.47637" lon="4.59267">
        <ele>494.25500488281</ele>
        <time>2009-09-12T07:07:29Z</time>
      </trkpt>
      <trkpt lat="45.47628" lon="4.59251">
        <ele>494.25500488281</ele>
        <time>2009-09-12T07:07:34Z</time>
      </trkpt>
      <trkpt lat="45.47617" lon="4.59228">
        <ele>496.177734375</ele>
        <time>2009-09-12T07:07:41Z</time>
      </trkpt>
      <trkpt lat="45.47614" lon="4.59199">
        <ele>496.65832519531</ele>
        <time>2009-09-12T07:07:47Z</time>
      </trkpt>
      <trkpt lat="45.47607" lon="4.59157">
        <ele>496.65832519531</ele>
        <time>2009-09-12T07:07:55Z</time>
      </trkpt>
      <trkpt lat="45.47601" lon="4.59136">
        <ele>497.13891601562</ele>
        <time>2009-09-12T07:08:00Z</time>
      </trkpt>
      <trkpt lat="45.47593" lon="4.59117">
        <ele>497.13891601562</ele>
        <time>2009-09-12T07:08:05Z</time>
      </trkpt>
      <trkpt lat="45.47581" lon="4.59098">
        <ele>498.58093261719</ele>
        <time>2009-09-12T07:08:11Z</time>
      </trkpt>
      <trkpt lat="45.47572" lon="4.59088">
        <ele>500.02294921875</ele>
        <time>2009-09-12T07:08:16Z</time>
      </trkpt>
      <trkpt lat="45.47566" lon="4.59084">
        <ele>500.50354003906</ele>
        <time>2009-09-12T07:08:22Z</time>
      </trkpt>
      <trkpt lat="45.47565" lon="4.59085">
        <ele>500.98413085938</ele>
        <time>2009-09-12T07:08:24Z</time>
      </trkpt>
      <trkpt lat="45.47554" lon="4.59086">
        <ele>502.42614746094</ele>
        <time>2009-09-12T07:08:32Z</time>
      </trkpt>
      <trkpt lat="45.47543" lon="4.5909">
        <ele>504.34887695312</ele>
        <time>2009-09-12T07:08:41Z</time>
      </trkpt>
      <trkpt lat="45.47534" lon="4.59098">
        <ele>505.31018066406</ele>
        <time>2009-09-12T07:08:47Z</time>
      </trkpt>
      <trkpt lat="45.47531" lon="4.59104">
        <ele>506.271484375</ele>
        <time>2009-09-12T07:08:50Z</time>
      </trkpt>
      <trkpt lat="45.47531" lon="4.59115">
        <ele>507.71350097656</ele>
        <time>2009-09-12T07:08:55Z</time>
      </trkpt>
      <trkpt lat="45.4753" lon="4.59128">
        <ele>508.67468261719</ele>
        <time>2009-09-12T07:09:01Z</time>
      </trkpt>
      <trkpt lat="45.47525" lon="4.59135">
        <ele>510.11669921875</ele>
        <time>2009-09-12T07:09:06Z</time>
      </trkpt>
      <trkpt lat="45.47517" lon="4.59131">
        <ele>510.59729003906</ele>
        <time>2009-09-12T07:09:10Z</time>
      </trkpt>
      <trkpt lat="45.47505" lon="4.5912">
        <ele>512.03942871094</ele>
        <time>2009-09-12T07:09:19Z</time>
      </trkpt>
      <trkpt lat="45.47494" lon="4.59117">
        <ele>513.00073242188</ele>
        <time>2009-09-12T07:09:26Z</time>
      </trkpt>
      <trkpt lat="45.47485" lon="4.59117">
        <ele>513.96203613281</ele>
        <time>2009-09-12T07:09:32Z</time>
      </trkpt>
      <trkpt lat="45.47474" lon="4.59119">
        <ele>515.40405273438</ele>
        <time>2009-09-12T07:09:39Z</time>
      </trkpt>
      <trkpt lat="45.47464" lon="4.59123">
        <ele>516.365234375</ele>
        <time>2009-09-12T07:09:47Z</time>
      </trkpt>
      <trkpt lat="45.47455" lon="4.5913">
        <ele>517.80725097656</ele>
        <time>2009-09-12T07:09:54Z</time>
      </trkpt>
      <trkpt lat="45.47449" lon="4.59141">
        <ele>518.7685546875</ele>
        <time>2009-09-12T07:10:01Z</time>
      </trkpt>
      <trkpt lat="45.47443" lon="4.59153">
        <ele>519.72985839844</ele>
        <time>2009-09-12T07:10:08Z</time>
      </trkpt>
      <trkpt lat="45.47438" lon="4.59167">
        <ele>521.65258789062</ele>
        <time>2009-09-12T07:10:15Z</time>
      </trkpt>
      <trkpt lat="45.47434" lon="4.5918">
        <ele>522.61389160156</ele>
        <time>2009-09-12T07:10:22Z</time>
      </trkpt>
      <trkpt lat="45.47432" lon="4.59195">
        <ele>523.5751953125</ele>
        <time>2009-09-12T07:10:29Z</time>
      </trkpt>
      <trkpt lat="45.4743" lon="4.59214">
        <ele>524.53649902344</ele>
        <time>2009-09-12T07:10:37Z</time>
      </trkpt>
      <trkpt lat="45.4743" lon="4.59236">
        <ele>525.01721191406</ele>
        <time>2009-09-12T07:10:44Z</time>
      </trkpt>
      <trkpt lat="45.4743" lon="4.59258">
        <ele>525.49780273438</ele>
        <time>2009-09-12T07:10:51Z</time>
      </trkpt>
      <trkpt lat="45.47428" lon="4.59285">
        <ele>526.45910644531</ele>
        <time>2009-09-12T07:11:00Z</time>
      </trkpt>
      <trkpt lat="45.47429" lon="4.59316">
        <ele>527.42041015625</ele>
        <time>2009-09-12T07:11:09Z</time>
      </trkpt>
      <trkpt lat="45.4743" lon="4.59344">
        <ele>526.93981933594</ele>
        <time>2009-09-12T07:11:16Z</time>
      </trkpt>
      <trkpt lat="45.47435" lon="4.59372">
        <ele>526.93981933594</ele>
        <time>2009-09-12T07:11:22Z</time>
      </trkpt>
      <trkpt lat="45.47438" lon="4.59408">
        <ele>527.42041015625</ele>
        <time>2009-09-12T07:11:30Z</time>
      </trkpt>
      <trkpt lat="45.47445" lon="4.59427">
        <ele>528.3818359375</ele>
        <time>2009-09-12T07:11:36Z</time>
      </trkpt>
      <trkpt lat="45.47455" lon="4.59433">
        <ele>529.34313964844</ele>
        <time>2009-09-12T07:11:41Z</time>
      </trkpt>
      <trkpt lat="45.47467" lon="4.59436">
        <ele>530.78515625</ele>
        <time>2009-09-12T07:11:48Z</time>
      </trkpt>
      <trkpt lat="45.47477" lon="4.59441">
        <ele>531.74633789062</ele>
        <time>2009-09-12T07:11:55Z</time>
      </trkpt>
      <trkpt lat="45.4749" lon="4.59446">
        <ele>532.70776367188</ele>
        <time>2009-09-12T07:12:02Z</time>
      </trkpt>
      <trkpt lat="45.47507" lon="4.59454">
        <ele>533.6689453125</ele>
        <time>2009-09-12T07:12:11Z</time>
      </trkpt>
      <trkpt lat="45.47516" lon="4.59463">
        <ele>534.63037109375</ele>
        <time>2009-09-12T07:12:18Z</time>
      </trkpt>
      <trkpt lat="45.47525" lon="4.59479">
        <ele>536.55310058594</ele>
        <time>2009-09-12T07:12:27Z</time>
      </trkpt>
      <trkpt lat="45.47531" lon="4.59489">
        <ele>537.99499511719</ele>
        <time>2009-09-12T07:12:32Z</time>
      </trkpt>
      <trkpt lat="45.47536" lon="4.59502">
        <ele>538.95629882812</ele>
        <time>2009-09-12T07:12:39Z</time>
      </trkpt>
      <trkpt lat="45.47541" lon="4.59515">
        <ele>540.87890625</ele>
        <time>2009-09-12T07:12:46Z</time>
      </trkpt>
      <trkpt lat="45.47536" lon="4.59526">
        <ele>542.32092285156</ele>
        <time>2009-09-12T07:12:53Z</time>
      </trkpt>
      <trkpt lat="45.47535" lon="4.59527">
        <ele>541.84020996094</ele>
        <time>2009-09-12T07:12:55Z</time>
      </trkpt>
      <trkpt lat="45.47528" lon="4.59527">
        <ele>543.76281738281</ele>
        <time>2009-09-12T07:13:00Z</time>
      </trkpt>
      <trkpt lat="45.47514" lon="4.59531">
        <ele>546.16625976562</ele>
        <time>2009-09-12T07:13:10Z</time>
      </trkpt>
      <trkpt lat="45.47504" lon="4.59536">
        <ele>548.0888671875</ele>
        <time>2009-09-12T07:13:17Z</time>
      </trkpt>
      <trkpt lat="45.47495" lon="4.59545">
        <ele>549.53076171875</ele>
        <time>2009-09-12T07:13:25Z</time>
      </trkpt>
      <trkpt lat="45.47485" lon="4.59556">
        <ele>550.4921875</ele>
        <time>2009-09-12T07:13:32Z</time>
      </trkpt>
      <trkpt lat="45.4748" lon="4.59569">
        <ele>550.97265625</ele>
        <time>2009-09-12T07:13:40Z</time>
      </trkpt>
      <trkpt lat="45.4748" lon="4.59581">
        <ele>552.41455078125</ele>
        <time>2009-09-12T07:13:46Z</time>
      </trkpt>
      <trkpt lat="45.47482" lon="4.59597">
        <ele>553.85668945312</ele>
        <time>2009-09-12T07:13:54Z</time>
      </trkpt>
      <trkpt lat="45.47485" lon="4.5961">
        <ele>555.29858398438</ele>
        <time>2009-09-12T07:14:01Z</time>
      </trkpt>
      <trkpt lat="45.4749" lon="4.59625">
        <ele>556.74072265625</ele>
        <time>2009-09-12T07:14:10Z</time>
      </trkpt>
      <trkpt lat="45.47497" lon="4.59639">
        <ele>558.18286132812</ele>
        <time>2009-09-12T07:14:18Z</time>
      </trkpt>
      <trkpt lat="45.47502" lon="4.59654">
        <ele>560.10522460938</ele>
        <time>2009-09-12T07:14:25Z</time>
      </trkpt>
      <trkpt lat="45.47507" lon="4.59666">
        <ele>562.02807617188</ele>
        <time>2009-09-12T07:14:30Z</time>
      </trkpt>
      <trkpt lat="45.47512" lon="4.59682">
        <ele>564.43115234375</ele>
        <time>2009-09-12T07:14:35Z</time>
      </trkpt>
      <trkpt lat="45.47519" lon="4.597">
        <ele>566.35375976562</ele>
        <time>2009-09-12T07:14:41Z</time>
      </trkpt>
      <trkpt lat="45.47526" lon="4.59719">
        <ele>569.23779296875</ele>
        <time>2009-09-12T07:14:48Z</time>
      </trkpt>
      <trkpt lat="45.4753" lon="4.5973">
        <ele>569.71850585938</ele>
        <time>2009-09-12T07:14:54Z</time>
      </trkpt>
      <trkpt lat="45.47535" lon="4.59743">
        <ele>571.64086914062</ele>
        <time>2009-09-12T07:15:00Z</time>
      </trkpt>
      <trkpt lat="45.4754" lon="4.59758">
        <ele>573.08325195312</ele>
        <time>2009-09-12T07:15:06Z</time>
      </trkpt>
      <trkpt lat="45.47545" lon="4.59775">
        <ele>574.52514648438</ele>
        <time>2009-09-12T07:15:13Z</time>
      </trkpt>
      <trkpt lat="45.47552" lon="4.59796">
        <ele>576.92846679688</ele>
        <time>2009-09-12T07:15:22Z</time>
      </trkpt>
      <trkpt lat="45.47556" lon="4.59809">
        <ele>578.37036132812</ele>
        <time>2009-09-12T07:15:28Z</time>
      </trkpt>
      <trkpt lat="45.47558" lon="4.59824">
        <ele>579.81225585938</ele>
        <time>2009-09-12T07:15:34Z</time>
      </trkpt>
      <trkpt lat="45.47561" lon="4.5984">
        <ele>581.25439453125</ele>
        <time>2009-09-12T07:15:41Z</time>
      </trkpt>
      <trkpt lat="45.47564" lon="4.59858">
        <ele>583.1767578125</ele>
        <time>2009-09-12T07:15:49Z</time>
      </trkpt>
      <trkpt lat="45.47565" lon="4.59871">
        <ele>584.61889648438</ele>
        <time>2009-09-12T07:15:55Z</time>
      </trkpt>
      <trkpt lat="45.47567" lon="4.59893">
        <ele>587.02197265625</ele>
        <time>2009-09-12T07:16:04Z</time>
      </trkpt>
      <trkpt lat="45.4757" lon="4.59911">
        <ele>588.94506835938</ele>
        <time>2009-09-12T07:16:11Z</time>
      </trkpt>
      <trkpt lat="45.47569" lon="4.59915">
        <ele>589.42553710938</ele>
        <time>2009-09-12T07:16:13Z</time>
      </trkpt>
      <trkpt lat="45.47565" lon="4.59932">
        <ele>592.3095703125</ele>
        <time>2009-09-12T07:16:21Z</time>
      </trkpt>
      <trkpt lat="45.47562" lon="4.59952">
        <ele>593.75146484375</ele>
        <time>2009-09-12T07:16:30Z</time>
      </trkpt>
      <trkpt lat="45.47558" lon="4.59968">
        <ele>595.67407226562</ele>
        <time>2009-09-12T07:16:38Z</time>
      </trkpt>
      <trkpt lat="45.47554" lon="4.59984">
        <ele>597.5966796875</ele>
        <time>2009-09-12T07:16:45Z</time>
      </trkpt>
      <trkpt lat="45.47549" lon="4.60007">
        <ele>600.48071289062</ele>
        <time>2009-09-12T07:16:54Z</time>
      </trkpt>
      <trkpt lat="45.47546" lon="4.60024">
        <ele>601.44189453125</ele>
        <time>2009-09-12T07:17:00Z</time>
      </trkpt>
      <trkpt lat="45.47543" lon="4.60043">
        <ele>602.40307617188</ele>
        <time>2009-09-12T07:17:07Z</time>
      </trkpt>
      <trkpt lat="45.4754" lon="4.60057">
        <ele>602.8837890625</ele>
        <time>2009-09-12T07:17:13Z</time>
      </trkpt>
      <trkpt lat="45.47538" lon="4.60063">
        <ele>603.36450195312</ele>
        <time>2009-09-12T07:17:18Z</time>
      </trkpt>
      <trkpt lat="45.47538" lon="4.60063">
        <ele>602.8837890625</ele>
        <time>2009-09-12T07:17:22Z</time>
      </trkpt>
      <trkpt lat="45.47538" lon="4.60062">
        <ele>603.36450195312</ele>
        <time>2009-09-12T07:17:27Z</time>
      </trkpt>
      <trkpt lat="45.47536" lon="4.60062">
        <ele>603.36450195312</ele>
        <time>2009-09-12T07:18:18Z</time>
      </trkpt>
      <trkpt lat="45.47533" lon="4.60062">
        <ele>604.326171875</ele>
        <time>2009-09-12T07:20:19Z</time>
      </trkpt>
      <trkpt lat="45.47529" lon="4.60057">
        <ele>604.326171875</ele>
        <time>2009-09-12T07:20:26Z</time>
      </trkpt>
      <trkpt lat="45.47528" lon="4.60056">
        <ele>604.806640625</ele>
        <time>2009-09-12T07:20:27Z</time>
      </trkpt>
      <trkpt lat="45.47519" lon="4.60059">
        <ele>604.806640625</ele>
        <time>2009-09-12T07:20:34Z</time>
      </trkpt>
      <trkpt lat="45.47514" lon="4.60059">
        <ele>604.806640625</ele>
        <time>2009-09-12T07:20:37Z</time>
      </trkpt>
      <trkpt lat="45.47504" lon="4.60058">
        <ele>604.326171875</ele>
        <time>2009-09-12T07:20:44Z</time>
      </trkpt>
      <trkpt lat="45.47503" lon="4.60057">
        <ele>603.84521484375</ele>
        <time>2009-09-12T07:20:46Z</time>
      </trkpt>
      <trkpt lat="45.47497" lon="4.60056">
        <ele>604.326171875</ele>
        <time>2009-09-12T07:20:52Z</time>
      </trkpt>
      <trkpt lat="45.47495" lon="4.60055">
        <ele>604.326171875</ele>
        <time>2009-09-12T07:20:54Z</time>
      </trkpt>
      <trkpt lat="45.47486" lon="4.60056">
        <ele>604.806640625</ele>
        <time>2009-09-12T07:21:01Z</time>
      </trkpt>
      <trkpt lat="45.47484" lon="4.60057">
        <ele>605.28735351562</ele>
        <time>2009-09-12T07:21:03Z</time>
      </trkpt>
      <trkpt lat="45.4748" lon="4.60052">
        <ele>605.28735351562</ele>
        <time>2009-09-12T07:21:07Z</time>
      </trkpt>
      <trkpt lat="45.47483" lon="4.60051">
        <ele>604.806640625</ele>
        <time>2009-09-12T07:21:09Z</time>
      </trkpt>
      <trkpt lat="45.47489" lon="4.60054">
        <ele>604.326171875</ele>
        <time>2009-09-12T07:21:18Z</time>
      </trkpt>
      <trkpt lat="45.47491" lon="4.60055">
        <ele>604.326171875</ele>
        <time>2009-09-12T07:21:20Z</time>
      </trkpt>
      <trkpt lat="45.47486" lon="4.60058">
        <ele>605.28735351562</ele>
        <time>2009-09-12T07:21:25Z</time>
      </trkpt>
      <trkpt lat="45.47481" lon="4.60057">
        <ele>604.806640625</ele>
        <time>2009-09-12T07:21:27Z</time>
      </trkpt>
      <trkpt lat="45.47458" lon="4.60058">
        <ele>605.76806640625</ele>
        <time>2009-09-12T07:21:35Z</time>
      </trkpt>
      <trkpt lat="45.47431" lon="4.60058">
        <ele>606.24853515625</ele>
        <time>2009-09-12T07:21:44Z</time>
      </trkpt>
      <trkpt lat="45.47407" lon="4.60059">
        <ele>606.24853515625</ele>
        <time>2009-09-12T07:21:52Z</time>
      </trkpt>
      <trkpt lat="45.47382" lon="4.60058">
        <ele>607.2099609375</ele>
        <time>2009-09-12T07:22:01Z</time>
      </trkpt>
      <trkpt lat="45.47364" lon="4.60065">
        <ele>606.24853515625</ele>
        <time>2009-09-12T07:22:06Z</time>
      </trkpt>
      <trkpt lat="45.47341" lon="4.60076">
        <ele>604.806640625</ele>
        <time>2009-09-12T07:22:10Z</time>
      </trkpt>
      <trkpt lat="45.47293" lon="4.60091">
        <ele>603.36450195312</ele>
        <time>2009-09-12T07:22:18Z</time>
      </trkpt>
      <trkpt lat="45.47271" lon="4.60097">
        <ele>604.326171875</ele>
        <time>2009-09-12T07:22:23Z</time>
      </trkpt>
      <trkpt lat="45.47246" lon="4.60108">
        <ele>605.76806640625</ele>
        <time>2009-09-12T07:22:30Z</time>
      </trkpt>
      <trkpt lat="45.47233" lon="4.60126">
        <ele>604.806640625</ele>
        <time>2009-09-12T07:22:34Z</time>
      </trkpt>
      <trkpt lat="45.47219" lon="4.60174">
        <ele>601.92260742188</ele>
        <time>2009-09-12T07:22:40Z</time>
      </trkpt>
      <trkpt lat="45.47216" lon="4.60192">
        <ele>600.96118164062</ele>
        <time>2009-09-12T07:22:42Z</time>
      </trkpt>
      <trkpt lat="45.47206" lon="4.60227">
        <ele>598.55786132812</ele>
        <time>2009-09-12T07:22:46Z</time>
      </trkpt>
      <trkpt lat="45.47204" lon="4.60234">
        <ele>597.5966796875</ele>
        <time>2009-09-12T07:22:47Z</time>
      </trkpt>
      <trkpt lat="45.47206" lon="4.60261">
        <ele>596.15478515625</ele>
        <time>2009-09-12T07:22:51Z</time>
      </trkpt>
      <trkpt lat="45.47215" lon="4.60269">
        <ele>595.67407226562</ele>
        <time>2009-09-12T07:22:53Z</time>
      </trkpt>
      <trkpt lat="45.47245" lon="4.60296">
        <ele>594.23217773438</ele>
        <time>2009-09-12T07:22:59Z</time>
      </trkpt>
      <trkpt lat="45.4725" lon="4.60301">
        <ele>594.23217773438</ele>
        <time>2009-09-12T07:23:00Z</time>
      </trkpt>
      <trkpt lat="45.47281" lon="4.6033">
        <ele>593.27075195312</ele>
        <time>2009-09-12T07:23:07Z</time>
      </trkpt>
      <trkpt lat="45.47304" lon="4.6035">
        <ele>592.79028320312</ele>
        <time>2009-09-12T07:23:11Z</time>
      </trkpt>
      <trkpt lat="45.47321" lon="4.60369">
        <ele>591.34814453125</ele>
        <time>2009-09-12T07:23:14Z</time>
      </trkpt>
      <trkpt lat="45.47337" lon="4.60385">
        <ele>589.90625</ele>
        <time>2009-09-12T07:23:17Z</time>
      </trkpt>
      <trkpt lat="45.47346" lon="4.60396">
        <ele>588.46435546875</ele>
        <time>2009-09-12T07:23:19Z</time>
      </trkpt>
      <trkpt lat="45.47364" lon="4.60426">
        <ele>586.06079101562</ele>
        <time>2009-09-12T07:23:24Z</time>
      </trkpt>
      <trkpt lat="45.47367" lon="4.6044">
        <ele>585.580078125</ele>
        <time>2009-09-12T07:23:26Z</time>
      </trkpt>
      <trkpt lat="45.47374" lon="4.6047">
        <ele>581.73486328125</ele>
        <time>2009-09-12T07:23:30Z</time>
      </trkpt>
      <trkpt lat="45.47376" lon="4.60477">
        <ele>580.77368164062</ele>
        <time>2009-09-12T07:23:31Z</time>
      </trkpt>
      <trkpt lat="45.47375" lon="4.60505">
        <ele>577.8896484375</ele>
        <time>2009-09-12T07:23:35Z</time>
      </trkpt>
      <trkpt lat="45.47368" lon="4.60538">
        <ele>575.486328125</ele>
        <time>2009-09-12T07:23:39Z</time>
      </trkpt>
      <trkpt lat="45.47354" lon="4.60566">
        <ele>573.56396484375</ele>
        <time>2009-09-12T07:23:43Z</time>
      </trkpt>
      <trkpt lat="45.47332" lon="4.60596">
        <ele>570.19897460938</ele>
        <time>2009-09-12T07:23:48Z</time>
      </trkpt>
      <trkpt lat="45.47319" lon="4.60614">
        <ele>567.79565429688</ele>
        <time>2009-09-12T07:23:51Z</time>
      </trkpt>
      <trkpt lat="45.4731" lon="4.60625">
        <ele>565.392578125</ele>
        <time>2009-09-12T07:23:53Z</time>
      </trkpt>
      <trkpt lat="45.47302" lon="4.60638">
        <ele>563.46997070312</ele>
        <time>2009-09-12T07:23:55Z</time>
      </trkpt>
      <trkpt lat="45.47295" lon="4.60649">
        <ele>562.50854492188</ele>
        <time>2009-09-12T07:23:57Z</time>
      </trkpt>
      <trkpt lat="45.47287" lon="4.6066">
        <ele>561.06665039062</ele>
        <time>2009-09-12T07:23:59Z</time>
      </trkpt>
      <trkpt lat="45.47272" lon="4.60682">
        <ele>558.18286132812</ele>
        <time>2009-09-12T07:24:03Z</time>
      </trkpt>
      <trkpt lat="45.47257" lon="4.60701">
        <ele>556.26000976562</ele>
        <time>2009-09-12T07:24:07Z</time>
      </trkpt>
      <trkpt lat="45.47235" lon="4.60726">
        <ele>552.89526367188</ele>
        <time>2009-09-12T07:24:13Z</time>
      </trkpt>
      <trkpt lat="45.47231" lon="4.6073">
        <ele>552.41455078125</ele>
        <time>2009-09-12T07:24:14Z</time>
      </trkpt>
      <trkpt lat="45.47226" lon="4.60749">
        <ele>551.93408203125</ele>
        <time>2009-09-12T07:24:18Z</time>
      </trkpt>
      <trkpt lat="45.47229" lon="4.60752">
        <ele>552.41455078125</ele>
        <time>2009-09-12T07:24:19Z</time>
      </trkpt>
      <trkpt lat="45.47262" lon="4.6077">
        <ele>550.4921875</ele>
        <time>2009-09-12T07:24:27Z</time>
      </trkpt>
      <trkpt lat="45.47301" lon="4.60787">
        <ele>549.05004882812</ele>
        <time>2009-09-12T07:24:34Z</time>
      </trkpt>
      <trkpt lat="45.47312" lon="4.60794">
        <ele>549.05004882812</ele>
        <time>2009-09-12T07:24:36Z</time>
      </trkpt>
      <trkpt lat="45.47342" lon="4.60823">
        <ele>548.5693359375</ele>
        <time>2009-09-12T07:24:42Z</time>
      </trkpt>
      <trkpt lat="45.47353" lon="4.60827">
        <ele>548.5693359375</ele>
        <time>2009-09-12T07:24:44Z</time>
      </trkpt>
      <trkpt lat="45.47364" lon="4.6083">
        <ele>549.05004882812</ele>
        <time>2009-09-12T07:24:46Z</time>
      </trkpt>
      <trkpt lat="45.47398" lon="4.60855">
        <ele>550.01147460938</ele>
        <time>2009-09-12T07:24:54Z</time>
      </trkpt>
      <trkpt lat="45.47425" lon="4.60886">
        <ele>551.45336914062</ele>
        <time>2009-09-12T07:25:02Z</time>
      </trkpt>
      <trkpt lat="45.47434" lon="4.60894">
        <ele>552.89526367188</ele>
        <time>2009-09-12T07:25:05Z</time>
      </trkpt>
      <trkpt lat="45.47457" lon="4.60913">
        <ele>554.33740234375</ele>
        <time>2009-09-12T07:25:13Z</time>
      </trkpt>
      <trkpt lat="45.47458" lon="4.60922">
        <ele>554.33740234375</ele>
        <time>2009-09-12T07:25:17Z</time>
      </trkpt>
      <trkpt lat="45.47451" lon="4.60928">
        <ele>555.29858398438</ele>
        <time>2009-09-12T07:25:21Z</time>
      </trkpt>
      <trkpt lat="45.47439" lon="4.6096">
        <ele>555.779296875</ele>
        <time>2009-09-12T07:25:29Z</time>
      </trkpt>
      <trkpt lat="45.47431" lon="4.60981">
        <ele>555.779296875</ele>
        <time>2009-09-12T07:25:33Z</time>
      </trkpt>
      <trkpt lat="45.47427" lon="4.61026">
        <ele>555.779296875</ele>
        <time>2009-09-12T07:25:40Z</time>
      </trkpt>
      <trkpt lat="45.47432" lon="4.61049">
        <ele>556.26000976562</ele>
        <time>2009-09-12T07:25:44Z</time>
      </trkpt>
      <trkpt lat="45.47443" lon="4.61072">
        <ele>557.22143554688</ele>
        <time>2009-09-12T07:25:51Z</time>
      </trkpt>
      <trkpt lat="45.47451" lon="4.61094">
        <ele>559.62475585938</ele>
        <time>2009-09-12T07:26:00Z</time>
      </trkpt>
      <trkpt lat="45.47455" lon="4.61108">
        <ele>561.06665039062</ele>
        <time>2009-09-12T07:26:07Z</time>
      </trkpt>
      <trkpt lat="45.4746" lon="4.61121">
        <ele>563.95043945312</ele>
        <time>2009-09-12T07:26:15Z</time>
      </trkpt>
      <trkpt lat="45.47464" lon="4.6113">
        <ele>565.392578125</ele>
        <time>2009-09-12T07:26:22Z</time>
      </trkpt>
      <trkpt lat="45.47469" lon="4.6114">
        <ele>566.83447265625</ele>
        <time>2009-09-12T07:26:29Z</time>
      </trkpt>
      <trkpt lat="45.47471" lon="4.61143">
        <ele>567.79565429688</ele>
        <time>2009-09-12T07:26:31Z</time>
      </trkpt>
      <trkpt lat="45.47474" lon="4.61153">
        <ele>569.23779296875</ele>
        <time>2009-09-12T07:26:38Z</time>
      </trkpt>
      <trkpt lat="45.4748" lon="4.6117">
        <ele>570.6796875</ele>
        <time>2009-09-12T07:26:47Z</time>
      </trkpt>
      <trkpt lat="45.47482" lon="4.61178">
        <ele>572.6025390625</ele>
        <time>2009-09-12T07:26:52Z</time>
      </trkpt>
      <trkpt lat="45.47485" lon="4.61191">
        <ele>573.56396484375</ele>
        <time>2009-09-12T07:26:59Z</time>
      </trkpt>
      <trkpt lat="45.47489" lon="4.61202">
        <ele>575.486328125</ele>
        <time>2009-09-12T07:27:06Z</time>
      </trkpt>
      <trkpt lat="45.47492" lon="4.61214">
        <ele>577.4091796875</ele>
        <time>2009-09-12T07:27:14Z</time>
      </trkpt>
      <trkpt lat="45.47494" lon="4.61224">
        <ele>578.85107421875</ele>
        <time>2009-09-12T07:27:21Z</time>
      </trkpt>
      <trkpt lat="45.47494" lon="4.61226">
        <ele>578.85107421875</ele>
        <time>2009-09-12T07:27:22Z</time>
      </trkpt>
      <trkpt lat="45.47491" lon="4.61229">
        <ele>579.81225585938</ele>
        <time>2009-09-12T07:27:28Z</time>
      </trkpt>
      <trkpt lat="45.47489" lon="4.61229">
        <ele>581.25439453125</ele>
        <time>2009-09-12T07:27:31Z</time>
      </trkpt>
      <trkpt lat="45.47484" lon="4.61226">
        <ele>582.21557617188</ele>
        <time>2009-09-12T07:27:37Z</time>
      </trkpt>
      <trkpt lat="45.47482" lon="4.61222">
        <ele>583.1767578125</ele>
        <time>2009-09-12T07:27:40Z</time>
      </trkpt>
      <trkpt lat="45.47474" lon="4.61215">
        <ele>584.61889648438</ele>
        <time>2009-09-12T07:27:48Z</time>
      </trkpt>
      <trkpt lat="45.47462" lon="4.6121">
        <ele>587.02197265625</ele>
        <time>2009-09-12T07:27:57Z</time>
      </trkpt>
      <trkpt lat="45.47459" lon="4.61208">
        <ele>587.50268554688</ele>
        <time>2009-09-12T07:28:00Z</time>
      </trkpt>
      <trkpt lat="45.47448" lon="4.61205">
        <ele>588.46435546875</ele>
        <time>2009-09-12T07:28:09Z</time>
      </trkpt>
      <trkpt lat="45.47436" lon="4.61202">
        <ele>590.38696289062</ele>
        <time>2009-09-12T07:28:18Z</time>
      </trkpt>
      <trkpt lat="45.47429" lon="4.61198">
        <ele>591.82885742188</ele>
        <time>2009-09-12T07:28:25Z</time>
      </trkpt>
      <trkpt lat="45.47416" lon="4.61189">
        <ele>592.3095703125</ele>
        <time>2009-09-12T07:28:33Z</time>
      </trkpt>
      <trkpt lat="45.47403" lon="4.61183">
        <ele>593.27075195312</ele>
        <time>2009-09-12T07:28:40Z</time>
      </trkpt>
      <trkpt lat="45.47387" lon="4.61175">
        <ele>593.27075195312</ele>
        <time>2009-09-12T07:28:46Z</time>
      </trkpt>
      <trkpt lat="45.47371" lon="4.61165">
        <ele>592.3095703125</ele>
        <time>2009-09-12T07:28:51Z</time>
      </trkpt>
      <trkpt lat="45.47359" lon="4.61154">
        <ele>591.82885742188</ele>
        <time>2009-09-12T07:28:54Z</time>
      </trkpt>
      <trkpt lat="45.47338" lon="4.61122">
        <ele>590.38696289062</ele>
        <time>2009-09-12T07:28:59Z</time>
      </trkpt>
      <trkpt lat="45.47318" lon="4.61104">
        <ele>591.82885742188</ele>
        <time>2009-09-12T07:29:04Z</time>
      </trkpt>
      <trkpt lat="45.47303" lon="4.61094">
        <ele>592.79028320312</ele>
        <time>2009-09-12T07:29:09Z</time>
      </trkpt>
      <trkpt lat="45.47286" lon="4.61084">
        <ele>594.71264648438</ele>
        <time>2009-09-12T07:29:16Z</time>
      </trkpt>
      <trkpt lat="45.4727" lon="4.61084">
        <ele>595.67407226562</ele>
        <time>2009-09-12T07:29:22Z</time>
      </trkpt>
      <trkpt lat="45.4726" lon="4.6109">
        <ele>597.5966796875</ele>
        <time>2009-09-12T07:29:27Z</time>
      </trkpt>
      <trkpt lat="45.47253" lon="4.61091">
        <ele>599.03857421875</ele>
        <time>2009-09-12T07:29:30Z</time>
      </trkpt>
      <trkpt lat="45.47242" lon="4.61093">
        <ele>600.48071289062</ele>
        <time>2009-09-12T07:29:36Z</time>
      </trkpt>
      <trkpt lat="45.47234" lon="4.61093">
        <ele>602.40307617188</ele>
        <time>2009-09-12T07:29:42Z</time>
      </trkpt>
      <trkpt lat="45.47229" lon="4.61093">
        <ele>603.36450195312</ele>
        <time>2009-09-12T07:29:46Z</time>
      </trkpt>
      <trkpt lat="45.47223" lon="4.61094">
        <ele>604.806640625</ele>
        <time>2009-09-12T07:29:51Z</time>
      </trkpt>
      <trkpt lat="45.47217" lon="4.61098">
        <ele>606.72924804688</ele>
        <time>2009-09-12T07:29:58Z</time>
      </trkpt>
      <trkpt lat="45.47215" lon="4.61111">
        <ele>608.65185546875</ele>
        <time>2009-09-12T07:30:06Z</time>
      </trkpt>
      <trkpt lat="45.47216" lon="4.61115">
        <ele>609.61328125</ele>
        <time>2009-09-12T07:30:09Z</time>
      </trkpt>
      <trkpt lat="45.47224" lon="4.61126">
        <ele>611.05517578125</ele>
        <time>2009-09-12T07:30:17Z</time>
      </trkpt>
      <trkpt lat="45.47231" lon="4.6114">
        <ele>612.97778320312</ele>
        <time>2009-09-12T07:30:24Z</time>
      </trkpt>
      <trkpt lat="45.47239" lon="4.61154">
        <ele>614.900390625</ele>
        <time>2009-09-12T07:30:31Z</time>
      </trkpt>
      <trkpt lat="45.47249" lon="4.6117">
        <ele>616.34228515625</ele>
        <time>2009-09-12T07:30:40Z</time>
      </trkpt>
      <trkpt lat="45.47256" lon="4.61186">
        <ele>617.7841796875</ele>
        <time>2009-09-12T07:30:48Z</time>
      </trkpt>
      <trkpt lat="45.47262" lon="4.61197">
        <ele>619.70703125</ele>
        <time>2009-09-12T07:30:55Z</time>
      </trkpt>
      <trkpt lat="45.47267" lon="4.61206">
        <ele>621.14916992188</ele>
        <time>2009-09-12T07:31:02Z</time>
      </trkpt>
      <trkpt lat="45.47272" lon="4.61216">
        <ele>622.59106445312</ele>
        <time>2009-09-12T07:31:08Z</time>
      </trkpt>
      <trkpt lat="45.47279" lon="4.61226">
        <ele>624.03295898438</ele>
        <time>2009-09-12T07:31:15Z</time>
      </trkpt>
      <trkpt lat="45.47287" lon="4.61239">
        <ele>625.95556640625</ele>
        <time>2009-09-12T07:31:21Z</time>
      </trkpt>
      <trkpt lat="45.47293" lon="4.61254">
        <ele>628.35888671875</ele>
        <time>2009-09-12T07:31:28Z</time>
      </trkpt>
      <trkpt lat="45.47295" lon="4.6127">
        <ele>630.28149414062</ele>
        <time>2009-09-12T07:31:34Z</time>
      </trkpt>
      <trkpt lat="45.47301" lon="4.61282">
        <ele>631.72338867188</ele>
        <time>2009-09-12T07:31:41Z</time>
      </trkpt>
      <trkpt lat="45.47306" lon="4.61292">
        <ele>633.16528320312</ele>
        <time>2009-09-12T07:31:46Z</time>
      </trkpt>
      <trkpt lat="45.47311" lon="4.61304">
        <ele>635.08813476562</ele>
        <time>2009-09-12T07:31:53Z</time>
      </trkpt>
      <trkpt lat="45.47314" lon="4.61314">
        <ele>636.5302734375</ele>
        <time>2009-09-12T07:31:58Z</time>
      </trkpt>
      <trkpt lat="45.47316" lon="4.61324">
        <ele>637.49145507812</ele>
        <time>2009-09-12T07:32:03Z</time>
      </trkpt>
      <trkpt lat="45.47318" lon="4.61332">
        <ele>638.93359375</ele>
        <time>2009-09-12T07:32:08Z</time>
      </trkpt>
      <trkpt lat="45.47322" lon="4.6134">
        <ele>639.4140625</ele>
        <time>2009-09-12T07:32:13Z</time>
      </trkpt>
      <trkpt lat="45.47327" lon="4.61353">
        <ele>641.33666992188</ele>
        <time>2009-09-12T07:32:20Z</time>
      </trkpt>
      <trkpt lat="45.47337" lon="4.61367">
        <ele>642.77880859375</ele>
        <time>2009-09-12T07:32:28Z</time>
      </trkpt>
      <trkpt lat="45.4734" lon="4.61378">
        <ele>644.220703125</ele>
        <time>2009-09-12T07:32:34Z</time>
      </trkpt>
      <trkpt lat="45.47341" lon="4.61379">
        <ele>644.701171875</ele>
        <time>2009-09-12T07:32:35Z</time>
      </trkpt>
      <trkpt lat="45.47345" lon="4.61396">
        <ele>645.18188476562</ele>
        <time>2009-09-12T07:32:43Z</time>
      </trkpt>
      <trkpt lat="45.47348" lon="4.61416">
        <ele>645.66259765625</ele>
        <time>2009-09-12T07:32:49Z</time>
      </trkpt>
      <trkpt lat="45.4735" lon="4.61436">
        <ele>648.06591796875</ele>
        <time>2009-09-12T07:32:57Z</time>
      </trkpt>
      <trkpt lat="45.4735" lon="4.61446">
        <ele>648.54638671875</ele>
        <time>2009-09-12T07:33:01Z</time>
      </trkpt>
      <trkpt lat="45.47351" lon="4.61462">
        <ele>649.98852539062</ele>
        <time>2009-09-12T07:33:07Z</time>
      </trkpt>
      <trkpt lat="45.47354" lon="4.61478">
        <ele>651.9111328125</ele>
        <time>2009-09-12T07:33:12Z</time>
      </trkpt>
      <trkpt lat="45.47355" lon="4.61489">
        <ele>651.9111328125</ele>
        <time>2009-09-12T07:33:16Z</time>
      </trkpt>
      <trkpt lat="45.47358" lon="4.61506">
        <ele>653.35327148438</ele>
        <time>2009-09-12T07:33:22Z</time>
      </trkpt>
      <trkpt lat="45.47359" lon="4.61521">
        <ele>654.31469726562</ele>
        <time>2009-09-12T07:33:27Z</time>
      </trkpt>
      <trkpt lat="45.4736" lon="4.61525">
        <ele>654.79516601562</ele>
        <time>2009-09-12T07:33:29Z</time>
      </trkpt>
      <trkpt lat="45.4736" lon="4.61531">
        <ele>655.75659179688</ele>
        <time>2009-09-12T07:33:31Z</time>
      </trkpt>
      <trkpt lat="45.47359" lon="4.61541">
        <ele>656.7177734375</ele>
        <time>2009-09-12T07:33:34Z</time>
      </trkpt>
      <trkpt lat="45.47357" lon="4.61548">
        <ele>657.19848632812</ele>
        <time>2009-09-12T07:33:37Z</time>
      </trkpt>
      <trkpt lat="45.47354" lon="4.6157">
        <ele>658.64038085938</ele>
        <time>2009-09-12T07:33:44Z</time>
      </trkpt>
      <trkpt lat="45.47351" lon="4.61587">
        <ele>660.56298828125</ele>
        <time>2009-09-12T07:33:50Z</time>
      </trkpt>
      <trkpt lat="45.4735" lon="4.61599">
        <ele>661.5244140625</ele>
        <time>2009-09-12T07:33:55Z</time>
      </trkpt>
      <trkpt lat="45.47346" lon="4.61608">
        <ele>662.00512695312</ele>
        <time>2009-09-12T07:34:00Z</time>
      </trkpt>
      <trkpt lat="45.47346" lon="4.61612">
        <ele>662.00512695312</ele>
        <time>2009-09-12T07:34:02Z</time>
      </trkpt>
      <trkpt lat="45.47344" lon="4.61618">
        <ele>662.96630859375</ele>
        <time>2009-09-12T07:34:05Z</time>
      </trkpt>
      <trkpt lat="45.47345" lon="4.61629">
        <ele>663.44702148438</ele>
        <time>2009-09-12T07:34:10Z</time>
      </trkpt>
      <trkpt lat="45.47342" lon="4.61643">
        <ele>664.408203125</ele>
        <time>2009-09-12T07:34:17Z</time>
      </trkpt>
      <trkpt lat="45.47338" lon="4.61656">
        <ele>664.408203125</ele>
        <time>2009-09-12T07:34:23Z</time>
      </trkpt>
      <trkpt lat="45.47335" lon="4.61661">
        <ele>665.36962890625</ele>
        <time>2009-09-12T07:34:25Z</time>
      </trkpt>
      <trkpt lat="45.4733" lon="4.61676">
        <ele>666.33081054688</ele>
        <time>2009-09-12T07:34:32Z</time>
      </trkpt>
      <trkpt lat="45.47329" lon="4.61678">
        <ele>665.85034179688</ele>
        <time>2009-09-12T07:34:33Z</time>
      </trkpt>
      <trkpt lat="45.47324" lon="4.61688">
        <ele>666.8115234375</ele>
        <time>2009-09-12T07:34:38Z</time>
      </trkpt>
      <trkpt lat="45.47317" lon="4.617">
        <ele>668.25366210938</ele>
        <time>2009-09-12T07:34:44Z</time>
      </trkpt>
      <trkpt lat="45.47309" lon="4.61714">
        <ele>669.21508789062</ele>
        <time>2009-09-12T07:34:51Z</time>
      </trkpt>
      <trkpt lat="45.47304" lon="4.61724">
        <ele>669.69580078125</ele>
        <time>2009-09-12T07:34:55Z</time>
      </trkpt>
      <trkpt lat="45.473" lon="4.61738">
        <ele>670.17626953125</ele>
        <time>2009-09-12T07:35:02Z</time>
      </trkpt>
      <trkpt lat="45.47293" lon="4.61753">
        <ele>670.17626953125</ele>
        <time>2009-09-12T07:35:08Z</time>
      </trkpt>
      <trkpt lat="45.47286" lon="4.61772">
        <ele>670.65698242188</ele>
        <time>2009-09-12T07:35:15Z</time>
      </trkpt>
      <trkpt lat="45.47278" lon="4.61792">
        <ele>670.65698242188</ele>
        <time>2009-09-12T07:35:22Z</time>
      </trkpt>
      <trkpt lat="45.47271" lon="4.61799">
        <ele>670.65698242188</ele>
        <time>2009-09-12T07:35:27Z</time>
      </trkpt>
      <trkpt lat="45.47266" lon="4.61811">
        <ele>670.65698242188</ele>
        <time>2009-09-12T07:35:34Z</time>
      </trkpt>
      <trkpt lat="45.47259" lon="4.61822">
        <ele>671.1376953125</ele>
        <time>2009-09-12T07:35:41Z</time>
      </trkpt>
      <trkpt lat="45.47249" lon="4.61835">
        <ele>670.65698242188</ele>
        <time>2009-09-12T07:35:47Z</time>
      </trkpt>
      <trkpt lat="45.47238" lon="4.61851">
        <ele>670.65698242188</ele>
        <time>2009-09-12T07:35:52Z</time>
      </trkpt>
      <trkpt lat="45.47235" lon="4.61867">
        <ele>670.65698242188</ele>
        <time>2009-09-12T07:35:57Z</time>
      </trkpt>
      <trkpt lat="45.47239" lon="4.61879">
        <ele>670.65698242188</ele>
        <time>2009-09-12T07:36:01Z</time>
      </trkpt>
      <trkpt lat="45.47241" lon="4.61892">
        <ele>671.6181640625</ele>
        <time>2009-09-12T07:36:06Z</time>
      </trkpt>
      <trkpt lat="45.47242" lon="4.61913">
        <ele>673.541015625</ele>
        <time>2009-09-12T07:36:13Z</time>
      </trkpt>
      <trkpt lat="45.47243" lon="4.6193">
        <ele>674.50219726562</ele>
        <time>2009-09-12T07:36:19Z</time>
      </trkpt>
      <trkpt lat="45.47246" lon="4.61943">
        <ele>675.46337890625</ele>
        <time>2009-09-12T07:36:25Z</time>
      </trkpt>
      <trkpt lat="45.47248" lon="4.61957">
        <ele>675.94409179688</ele>
        <time>2009-09-12T07:36:31Z</time>
      </trkpt>
      <trkpt lat="45.47247" lon="4.61973">
        <ele>676.4248046875</ele>
        <time>2009-09-12T07:36:37Z</time>
      </trkpt>
      <trkpt lat="45.47242" lon="4.61999">
        <ele>676.4248046875</ele>
        <time>2009-09-12T07:36:46Z</time>
      </trkpt>
      <trkpt lat="45.47235" lon="4.62024">
        <ele>675.46337890625</ele>
        <time>2009-09-12T07:36:52Z</time>
      </trkpt>
      <trkpt lat="45.47219" lon="4.6205">
        <ele>675.94409179688</ele>
        <time>2009-09-12T07:36:59Z</time>
      </trkpt>
      <trkpt lat="45.47215" lon="4.62053">
        <ele>675.46337890625</ele>
        <time>2009-09-12T07:37:01Z</time>
      </trkpt>
      <trkpt lat="45.47206" lon="4.62056">
        <ele>676.4248046875</ele>
        <time>2009-09-12T07:37:06Z</time>
      </trkpt>
      <trkpt lat="45.47189" lon="4.62064">
        <ele>678.34741210938</ele>
        <time>2009-09-12T07:37:16Z</time>
      </trkpt>
      <trkpt lat="45.4718" lon="4.62068">
        <ele>679.30859375</ele>
        <time>2009-09-12T07:37:22Z</time>
      </trkpt>
      <trkpt lat="45.47173" lon="4.62072">
        <ele>680.27001953125</ele>
        <time>2009-09-12T07:37:28Z</time>
      </trkpt>
      <trkpt lat="45.47165" lon="4.62076">
        <ele>681.2314453125</ele>
        <time>2009-09-12T07:37:32Z</time>
      </trkpt>
      <trkpt lat="45.47157" lon="4.6208">
        <ele>682.19262695312</ele>
        <time>2009-09-12T07:37:36Z</time>
      </trkpt>
      <trkpt lat="45.47147" lon="4.62086">
        <ele>683.15380859375</ele>
        <time>2009-09-12T07:37:43Z</time>
      </trkpt>
      <trkpt lat="45.47141" lon="4.62092">
        <ele>683.63452148438</ele>
        <time>2009-09-12T07:37:48Z</time>
      </trkpt>
      <trkpt lat="45.47131" lon="4.62099">
        <ele>683.63452148438</ele>
        <time>2009-09-12T07:37:53Z</time>
      </trkpt>
      <trkpt lat="45.47122" lon="4.62105">
        <ele>684.11547851562</ele>
        <time>2009-09-12T07:37:58Z</time>
      </trkpt>
      <trkpt lat="45.47105" lon="4.62115">
        <ele>686.0380859375</ele>
        <time>2009-09-12T07:38:06Z</time>
      </trkpt>
      <trkpt lat="45.47092" lon="4.62122">
        <ele>687.47998046875</ele>
        <time>2009-09-12T07:38:12Z</time>
      </trkpt>
      <trkpt lat="45.47083" lon="4.62128">
        <ele>687.96069335938</ele>
        <time>2009-09-12T07:38:18Z</time>
      </trkpt>
      <trkpt lat="45.47072" lon="4.62134">
        <ele>688.44140625</ele>
        <time>2009-09-12T07:38:23Z</time>
      </trkpt>
      <trkpt lat="45.4706" lon="4.62141">
        <ele>689.40258789062</ele>
        <time>2009-09-12T07:38:29Z</time>
      </trkpt>
      <trkpt lat="45.47049" lon="4.62147">
        <ele>689.88330078125</ele>
        <time>2009-09-12T07:38:35Z</time>
      </trkpt>
      <trkpt lat="45.47039" lon="4.62151">
        <ele>690.36401367188</ele>
        <time>2009-09-12T07:38:40Z</time>
      </trkpt>
      <trkpt lat="45.47027" lon="4.62156">
        <ele>691.80590820312</ele>
        <time>2009-09-12T07:38:47Z</time>
      </trkpt>
      <trkpt lat="45.47018" lon="4.6216">
        <ele>692.28662109375</ele>
        <time>2009-09-12T07:38:52Z</time>
      </trkpt>
      <trkpt lat="45.47006" lon="4.62163">
        <ele>693.24780273438</ele>
        <time>2009-09-12T07:38:58Z</time>
      </trkpt>
      <trkpt lat="45.46994" lon="4.62166">
        <ele>694.20922851562</ele>
        <time>2009-09-12T07:39:04Z</time>
      </trkpt>
      <trkpt lat="45.46981" lon="4.6217">
        <ele>695.65112304688</ele>
        <time>2009-09-12T07:39:11Z</time>
      </trkpt>
      <trkpt lat="45.46962" lon="4.62172">
        <ele>697.09301757812</ele>
        <time>2009-09-12T07:39:20Z</time>
      </trkpt>
      <trkpt lat="45.46947" lon="4.62172">
        <ele>699.015625</ele>
        <time>2009-09-12T07:39:28Z</time>
      </trkpt>
      <trkpt lat="45.46929" lon="4.62175">
        <ele>699.97705078125</ele>
        <time>2009-09-12T07:39:37Z</time>
      </trkpt>
      <trkpt lat="45.46912" lon="4.62177">
        <ele>700.9384765625</ele>
        <time>2009-09-12T07:39:44Z</time>
      </trkpt>
      <trkpt lat="45.46891" lon="4.62179">
        <ele>700.9384765625</ele>
        <time>2009-09-12T07:39:52Z</time>
      </trkpt>
      <trkpt lat="45.46872" lon="4.6218">
        <ele>700.4580078125</ele>
        <time>2009-09-12T07:39:59Z</time>
      </trkpt>
      <trkpt lat="45.46848" lon="4.62181">
        <ele>699.97705078125</ele>
        <time>2009-09-12T07:40:07Z</time>
      </trkpt>
      <trkpt lat="45.46824" lon="4.62181">
        <ele>699.49633789062</ele>
        <time>2009-09-12T07:40:15Z</time>
      </trkpt>
      <trkpt lat="45.46795" lon="4.62177">
        <ele>698.53491210938</ele>
        <time>2009-09-12T07:40:23Z</time>
      </trkpt>
      <trkpt lat="45.46767" lon="4.62162">
        <ele>698.05444335938</ele>
        <time>2009-09-12T07:40:31Z</time>
      </trkpt>
      <trkpt lat="45.46741" lon="4.62137">
        <ele>698.05444335938</ele>
        <time>2009-09-12T07:40:39Z</time>
      </trkpt>
      <trkpt lat="45.46721" lon="4.62114">
        <ele>698.53491210938</ele>
        <time>2009-09-12T07:40:46Z</time>
      </trkpt>
      <trkpt lat="45.46702" lon="4.62095">
        <ele>699.015625</ele>
        <time>2009-09-12T07:40:52Z</time>
      </trkpt>
      <trkpt lat="45.46671" lon="4.62069">
        <ele>698.53491210938</ele>
        <time>2009-09-12T07:41:00Z</time>
      </trkpt>
      <trkpt lat="45.46654" lon="4.62054">
        <ele>698.05444335938</ele>
        <time>2009-09-12T07:41:05Z</time>
      </trkpt>
      <trkpt lat="45.4663" lon="4.62032">
        <ele>698.53491210938</ele>
        <time>2009-09-12T07:41:12Z</time>
      </trkpt>
      <trkpt lat="45.466" lon="4.62001">
        <ele>698.05444335938</ele>
        <time>2009-09-12T07:41:20Z</time>
      </trkpt>
      <trkpt lat="45.46579" lon="4.61976">
        <ele>697.57373046875</ele>
        <time>2009-09-12T07:41:26Z</time>
      </trkpt>
      <trkpt lat="45.4656" lon="4.61962">
        <ele>698.53491210938</ele>
        <time>2009-09-12T07:41:31Z</time>
      </trkpt>
      <trkpt lat="45.46536" lon="4.61954">
        <ele>700.9384765625</ele>
        <time>2009-09-12T07:41:38Z</time>
      </trkpt>
      <trkpt lat="45.46516" lon="4.61951">
        <ele>701.41918945312</ele>
        <time>2009-09-12T07:41:44Z</time>
      </trkpt>
      <trkpt lat="45.4649" lon="4.61955">
        <ele>699.97705078125</ele>
        <time>2009-09-12T07:41:51Z</time>
      </trkpt>
      <trkpt lat="45.46476" lon="4.61956">
        <ele>698.53491210938</ele>
        <time>2009-09-12T07:41:54Z</time>
      </trkpt>
      <trkpt lat="45.46465" lon="4.61958">
        <ele>697.09301757812</ele>
        <time>2009-09-12T07:41:56Z</time>
      </trkpt>
      <trkpt lat="45.46439" lon="4.61961">
        <ele>695.17041015625</ele>
        <time>2009-09-12T07:42:00Z</time>
      </trkpt>
      <trkpt lat="45.46402" lon="4.61962">
        <ele>691.80590820312</ele>
        <time>2009-09-12T07:42:05Z</time>
      </trkpt>
      <trkpt lat="45.46352" lon="4.61967">
        <ele>689.40258789062</ele>
        <time>2009-09-12T07:42:11Z</time>
      </trkpt>
      <trkpt lat="45.46303" lon="4.6197">
        <ele>685.07690429688</ele>
        <time>2009-09-12T07:42:17Z</time>
      </trkpt>
      <trkpt lat="45.4627" lon="4.6197">
        <ele>683.15380859375</ele>
        <time>2009-09-12T07:42:21Z</time>
      </trkpt>
      <trkpt lat="45.46232" lon="4.61964">
        <ele>680.27001953125</ele>
        <time>2009-09-12T07:42:26Z</time>
      </trkpt>
      <trkpt lat="45.46224" lon="4.61963">
        <ele>680.27001953125</ele>
        <time>2009-09-12T07:42:27Z</time>
      </trkpt>
      <trkpt lat="45.46177" lon="4.61952">
        <ele>677.38623046875</ele>
        <time>2009-09-12T07:42:33Z</time>
      </trkpt>
      <trkpt lat="45.46147" lon="4.61946">
        <ele>674.98291015625</ele>
        <time>2009-09-12T07:42:37Z</time>
      </trkpt>
      <trkpt lat="45.46125" lon="4.61942">
        <ele>673.06030273438</ele>
        <time>2009-09-12T07:42:40Z</time>
      </trkpt>
      <trkpt lat="45.4611" lon="4.61941">
        <ele>672.09887695312</ele>
        <time>2009-09-12T07:42:42Z</time>
      </trkpt>
      <trkpt lat="45.46097" lon="4.61938">
        <ele>669.69580078125</ele>
        <time>2009-09-12T07:42:44Z</time>
      </trkpt>
      <trkpt lat="45.46074" lon="4.61943">
        <ele>667.77270507812</ele>
        <time>2009-09-12T07:42:48Z</time>
      </trkpt>
      <trkpt lat="45.46056" lon="4.61958">
        <ele>666.33081054688</ele>
        <time>2009-09-12T07:42:52Z</time>
      </trkpt>
      <trkpt lat="45.46044" lon="4.61961">
        <ele>664.408203125</ele>
        <time>2009-09-12T07:42:56Z</time>
      </trkpt>
      <trkpt lat="45.46042" lon="4.61958">
        <ele>664.88891601562</ele>
        <time>2009-09-12T07:43:02Z</time>
      </trkpt>
      <trkpt lat="45.46043" lon="4.61958">
        <ele>664.408203125</ele>
        <time>2009-09-12T07:43:04Z</time>
      </trkpt>
      <trkpt lat="45.46049" lon="4.6196">
        <ele>664.408203125</ele>
        <time>2009-09-12T07:43:10Z</time>
      </trkpt>
      <trkpt lat="45.46051" lon="4.61957">
        <ele>664.408203125</ele>
        <time>2009-09-12T07:43:14Z</time>
      </trkpt>
      <trkpt lat="45.46048" lon="4.61954">
        <ele>664.88891601562</ele>
        <time>2009-09-12T07:43:20Z</time>
      </trkpt>
      <trkpt lat="45.46048" lon="4.61953">
        <ele>663.92749023438</ele>
        <time>2009-09-12T07:43:24Z</time>
      </trkpt>
      <trkpt lat="45.46051" lon="4.61953">
        <ele>663.92749023438</ele>
        <time>2009-09-12T07:45:10Z</time>
      </trkpt>
      <trkpt lat="45.4604" lon="4.61972">
        <ele>663.92749023438</ele>
        <time>2009-09-12T07:51:26Z</time>
      </trkpt>
      <trkpt lat="45.46038" lon="4.61973">
        <ele>664.408203125</ele>
        <time>2009-09-12T07:51:31Z</time>
      </trkpt>
      <trkpt lat="45.4603" lon="4.61964">
        <ele>663.92749023438</ele>
        <time>2009-09-12T07:51:37Z</time>
      </trkpt>
      <trkpt lat="45.46023" lon="4.6195">
        <ele>663.44702148438</ele>
        <time>2009-09-12T07:51:42Z</time>
      </trkpt>
      <trkpt lat="45.46008" lon="4.61932">
        <ele>662.48559570312</ele>
        <time>2009-09-12T07:51:48Z</time>
      </trkpt>
      <trkpt lat="45.45983" lon="4.61916">
        <ele>661.5244140625</ele>
        <time>2009-09-12T07:51:55Z</time>
      </trkpt>
      <trkpt lat="45.45955" lon="4.61906">
        <ele>660.08227539062</ele>
        <time>2009-09-12T07:52:01Z</time>
      </trkpt>
      <trkpt lat="45.45918" lon="4.61893">
        <ele>659.12109375</ele>
        <time>2009-09-12T07:52:08Z</time>
      </trkpt>
      <trkpt lat="45.45885" lon="4.61881">
        <ele>657.67919921875</ele>
        <time>2009-09-12T07:52:14Z</time>
      </trkpt>
      <trkpt lat="45.45857" lon="4.61872">
        <ele>656.23706054688</ele>
        <time>2009-09-12T07:52:19Z</time>
      </trkpt>
      <trkpt lat="45.45816" lon="4.61859">
        <ele>655.27587890625</ele>
        <time>2009-09-12T07:52:26Z</time>
      </trkpt>
      <trkpt lat="45.45765" lon="4.61844">
        <ele>653.35327148438</ele>
        <time>2009-09-12T07:52:34Z</time>
      </trkpt>
      <trkpt lat="45.45719" lon="4.61832">
        <ele>651.43041992188</ele>
        <time>2009-09-12T07:52:41Z</time>
      </trkpt>
      <trkpt lat="45.45677" lon="4.61841">
        <ele>649.98852539062</ele>
        <time>2009-09-12T07:52:47Z</time>
      </trkpt>
      <trkpt lat="45.45651" lon="4.61867">
        <ele>648.54638671875</ele>
        <time>2009-09-12T07:52:51Z</time>
      </trkpt>
      <trkpt lat="45.45609" lon="4.61928">
        <ele>646.6240234375</ele>
        <time>2009-09-12T07:52:58Z</time>
      </trkpt>
      <trkpt lat="45.45576" lon="4.61951">
        <ele>645.18188476562</ele>
        <time>2009-09-12T07:53:02Z</time>
      </trkpt>
      <trkpt lat="45.45549" lon="4.61947">
        <ele>644.220703125</ele>
        <time>2009-09-12T07:53:05Z</time>
      </trkpt>
      <trkpt lat="45.45541" lon="4.61942">
        <ele>644.701171875</ele>
        <time>2009-09-12T07:53:06Z</time>
      </trkpt>
      <trkpt lat="45.45495" lon="4.61905">
        <ele>642.77880859375</ele>
        <time>2009-09-12T07:53:12Z</time>
      </trkpt>
      <trkpt lat="45.4547" lon="4.61867">
        <ele>641.33666992188</ele>
        <time>2009-09-12T07:53:16Z</time>
      </trkpt>
      <trkpt lat="45.45464" lon="4.61842">
        <ele>640.37548828125</ele>
        <time>2009-09-12T07:53:18Z</time>
      </trkpt>
      <trkpt lat="45.45458" lon="4.61817">
        <ele>640.37548828125</ele>
        <time>2009-09-12T07:53:20Z</time>
      </trkpt>
      <trkpt lat="45.45433" lon="4.61776">
        <ele>638.45288085938</ele>
        <time>2009-09-12T07:53:24Z</time>
      </trkpt>
      <trkpt lat="45.45425" lon="4.61769">
        <ele>637.97216796875</ele>
        <time>2009-09-12T07:53:25Z</time>
      </trkpt>
      <trkpt lat="45.45407" lon="4.61757">
        <ele>637.0107421875</ele>
        <time>2009-09-12T07:53:27Z</time>
      </trkpt>
      <trkpt lat="45.45371" lon="4.61732">
        <ele>635.56860351562</ele>
        <time>2009-09-12T07:53:31Z</time>
      </trkpt>
      <trkpt lat="45.45343" lon="4.61691">
        <ele>634.12670898438</ele>
        <time>2009-09-12T07:53:35Z</time>
      </trkpt>
      <trkpt lat="45.45338" lon="4.61678">
        <ele>633.16528320312</ele>
        <time>2009-09-12T07:53:36Z</time>
      </trkpt>
      <trkpt lat="45.45327" lon="4.61639">
        <ele>632.68481445312</ele>
        <time>2009-09-12T07:53:39Z</time>
      </trkpt>
      <trkpt lat="45.45305" lon="4.61601">
        <ele>630.28149414062</ele>
        <time>2009-09-12T07:53:43Z</time>
      </trkpt>
      <trkpt lat="45.45293" lon="4.61597">
        <ele>629.32006835938</ele>
        <time>2009-09-12T07:53:45Z</time>
      </trkpt>
      <trkpt lat="45.45277" lon="4.61597">
        <ele>630.76220703125</ele>
        <time>2009-09-12T07:53:49Z</time>
      </trkpt>
      <trkpt lat="45.4527" lon="4.61599">
        <ele>631.72338867188</ele>
        <time>2009-09-12T07:53:54Z</time>
      </trkpt>
      <trkpt lat="45.45267" lon="4.61601">
        <ele>632.68481445312</ele>
        <time>2009-09-12T07:53:56Z</time>
      </trkpt>
      <trkpt lat="45.45259" lon="4.61612">
        <ele>634.12670898438</ele>
        <time>2009-09-12T07:54:03Z</time>
      </trkpt>
      <trkpt lat="45.4525" lon="4.61623">
        <ele>635.56860351562</ele>
        <time>2009-09-12T07:54:10Z</time>
      </trkpt>
      <trkpt lat="45.45236" lon="4.61636">
        <ele>637.0107421875</ele>
        <time>2009-09-12T07:54:20Z</time>
      </trkpt>
      <trkpt lat="45.45219" lon="4.61646">
        <ele>637.97216796875</ele>
        <time>2009-09-12T07:54:30Z</time>
      </trkpt>
      <trkpt lat="45.45206" lon="4.61655">
        <ele>638.93359375</ele>
        <time>2009-09-12T07:54:39Z</time>
      </trkpt>
      <trkpt lat="45.45192" lon="4.61666">
        <ele>639.4140625</ele>
        <time>2009-09-12T07:54:46Z</time>
      </trkpt>
      <trkpt lat="45.45175" lon="4.61682">
        <ele>638.93359375</ele>
        <time>2009-09-12T07:54:53Z</time>
      </trkpt>
      <trkpt lat="45.45159" lon="4.61699">
        <ele>639.4140625</ele>
        <time>2009-09-12T07:54:59Z</time>
      </trkpt>
      <trkpt lat="45.45138" lon="4.61722">
        <ele>639.89477539062</ele>
        <time>2009-09-12T07:55:06Z</time>
      </trkpt>
      <trkpt lat="45.45119" lon="4.61742">
        <ele>640.37548828125</ele>
        <time>2009-09-12T07:55:14Z</time>
      </trkpt>
      <trkpt lat="45.45093" lon="4.61778">
        <ele>639.89477539062</ele>
        <time>2009-09-12T07:55:23Z</time>
      </trkpt>
      <trkpt lat="45.45073" lon="4.61806">
        <ele>639.4140625</ele>
        <time>2009-09-12T07:55:30Z</time>
      </trkpt>
      <trkpt lat="45.45057" lon="4.61834">
        <ele>641.33666992188</ele>
        <time>2009-09-12T07:55:37Z</time>
      </trkpt>
      <trkpt lat="45.45052" lon="4.61848">
        <ele>641.33666992188</ele>
        <time>2009-09-12T07:55:42Z</time>
      </trkpt>
      <trkpt lat="45.45045" lon="4.61868">
        <ele>642.29809570312</ele>
        <time>2009-09-12T07:55:48Z</time>
      </trkpt>
      <trkpt lat="45.45043" lon="4.61886">
        <ele>643.73999023438</ele>
        <time>2009-09-12T07:55:55Z</time>
      </trkpt>
      <trkpt lat="45.45036" lon="4.61902">
        <ele>644.701171875</ele>
        <time>2009-09-12T07:56:01Z</time>
      </trkpt>
      <trkpt lat="45.45029" lon="4.61912">
        <ele>646.14331054688</ele>
        <time>2009-09-12T07:56:06Z</time>
      </trkpt>
      <trkpt lat="45.45028" lon="4.61913">
        <ele>646.14331054688</ele>
        <time>2009-09-12T07:56:07Z</time>
      </trkpt>
      <trkpt lat="45.45024" lon="4.61917">
        <ele>646.14331054688</ele>
        <time>2009-09-12T07:56:11Z</time>
      </trkpt>
      <trkpt lat="45.45028" lon="4.61906">
        <ele>645.18188476562</ele>
        <time>2009-09-12T07:56:16Z</time>
      </trkpt>
      <trkpt lat="45.45026" lon="4.61903">
        <ele>644.701171875</ele>
        <time>2009-09-12T07:56:18Z</time>
      </trkpt>
      <trkpt lat="45.45017" lon="4.61904">
        <ele>643.73999023438</ele>
        <time>2009-09-12T07:56:23Z</time>
      </trkpt>
      <trkpt lat="45.45011" lon="4.61897">
        <ele>643.73999023438</ele>
        <time>2009-09-12T07:56:27Z</time>
      </trkpt>
      <trkpt lat="45.45006" lon="4.61881">
        <ele>643.25927734375</ele>
        <time>2009-09-12T07:56:32Z</time>
      </trkpt>
      <trkpt lat="45.45005" lon="4.61861">
        <ele>643.25927734375</ele>
        <time>2009-09-12T07:56:37Z</time>
      </trkpt>
      <trkpt lat="45.45002" lon="4.61845">
        <ele>642.77880859375</ele>
        <time>2009-09-12T07:56:42Z</time>
      </trkpt>
      <trkpt lat="45.44998" lon="4.61834">
        <ele>644.220703125</ele>
        <time>2009-09-12T07:56:47Z</time>
      </trkpt>
      <trkpt lat="45.44992" lon="4.61819">
        <ele>645.66259765625</ele>
        <time>2009-09-12T07:56:52Z</time>
      </trkpt>
      <trkpt lat="45.44989" lon="4.61813">
        <ele>646.6240234375</ele>
        <time>2009-09-12T07:56:54Z</time>
      </trkpt>
      <trkpt lat="45.44984" lon="4.61801">
        <ele>647.58520507812</ele>
        <time>2009-09-12T07:56:58Z</time>
      </trkpt>
      <trkpt lat="45.44981" lon="4.61792">
        <ele>648.06591796875</ele>
        <time>2009-09-12T07:57:01Z</time>
      </trkpt>
      <trkpt lat="45.44967" lon="4.61773">
        <ele>649.98852539062</ele>
        <time>2009-09-12T07:57:07Z</time>
      </trkpt>
      <trkpt lat="45.44963" lon="4.61762">
        <ele>651.43041992188</ele>
        <time>2009-09-12T07:57:11Z</time>
      </trkpt>
      <trkpt lat="45.44962" lon="4.61746">
        <ele>651.9111328125</ele>
        <time>2009-09-12T07:57:17Z</time>
      </trkpt>
      <trkpt lat="45.44966" lon="4.61732">
        <ele>651.9111328125</ele>
        <time>2009-09-12T07:57:23Z</time>
      </trkpt>
      <trkpt lat="45.44966" lon="4.61728">
        <ele>651.9111328125</ele>
        <time>2009-09-12T07:57:25Z</time>
      </trkpt>
      <trkpt lat="45.44968" lon="4.61711">
        <ele>651.43041992188</ele>
        <time>2009-09-12T07:57:31Z</time>
      </trkpt>
      <trkpt lat="45.44968" lon="4.61705">
        <ele>651.9111328125</ele>
        <time>2009-09-12T07:57:33Z</time>
      </trkpt>
      <trkpt lat="45.44969" lon="4.61687">
        <ele>652.39184570312</ele>
        <time>2009-09-12T07:57:38Z</time>
      </trkpt>
      <trkpt lat="45.4497" lon="4.6167">
        <ele>651.9111328125</ele>
        <time>2009-09-12T07:57:42Z</time>
      </trkpt>
      <trkpt lat="45.44973" lon="4.61648">
        <ele>650.94970703125</ele>
        <time>2009-09-12T07:57:45Z</time>
      </trkpt>
      <trkpt lat="45.44976" lon="4.61626">
        <ele>650.94970703125</ele>
        <time>2009-09-12T07:57:48Z</time>
      </trkpt>
      <trkpt lat="45.44974" lon="4.61598">
        <ele>650.46923828125</ele>
        <time>2009-09-12T07:57:52Z</time>
      </trkpt>
      <trkpt lat="45.44963" lon="4.61573">
        <ele>649.98852539062</ele>
        <time>2009-09-12T07:57:56Z</time>
      </trkpt>
      <trkpt lat="45.4496" lon="4.61534">
        <ele>649.02709960938</ele>
        <time>2009-09-12T07:58:01Z</time>
      </trkpt>
      <trkpt lat="45.44962" lon="4.61526">
        <ele>648.54638671875</ele>
        <time>2009-09-12T07:58:02Z</time>
      </trkpt>
      <trkpt lat="45.4497" lon="4.61484">
        <ele>649.02709960938</ele>
        <time>2009-09-12T07:58:08Z</time>
      </trkpt>
      <trkpt lat="45.44977" lon="4.61436">
        <ele>647.58520507812</ele>
        <time>2009-09-12T07:58:14Z</time>
      </trkpt>
      <trkpt lat="45.44979" lon="4.61418">
        <ele>646.6240234375</ele>
        <time>2009-09-12T07:58:16Z</time>
      </trkpt>
      <trkpt lat="45.44981" lon="4.61373">
        <ele>645.18188476562</ele>
        <time>2009-09-12T07:58:21Z</time>
      </trkpt>
      <trkpt lat="45.4498" lon="4.61365">
        <ele>645.18188476562</ele>
        <time>2009-09-12T07:58:22Z</time>
      </trkpt>
      <trkpt lat="45.44973" lon="4.61306">
        <ele>644.701171875</ele>
        <time>2009-09-12T07:58:29Z</time>
      </trkpt>
      <trkpt lat="45.4497" lon="4.61272">
        <ele>644.220703125</ele>
        <time>2009-09-12T07:58:33Z</time>
      </trkpt>
      <trkpt lat="45.44969" lon="4.61234">
        <ele>643.73999023438</ele>
        <time>2009-09-12T07:58:39Z</time>
      </trkpt>
      <trkpt lat="45.44968" lon="4.61215">
        <ele>642.77880859375</ele>
        <time>2009-09-12T07:58:42Z</time>
      </trkpt>
      <trkpt lat="45.4497" lon="4.61199">
        <ele>640.85595703125</ele>
        <time>2009-09-12T07:58:44Z</time>
      </trkpt>
      <trkpt lat="45.44992" lon="4.61135">
        <ele>639.4140625</ele>
        <time>2009-09-12T07:58:51Z</time>
      </trkpt>
      <trkpt lat="45.45012" lon="4.61043">
        <ele>635.56860351562</ele>
        <time>2009-09-12T07:59:01Z</time>
      </trkpt>
      <trkpt lat="45.45012" lon="4.61033">
        <ele>635.56860351562</ele>
        <time>2009-09-12T07:59:02Z</time>
      </trkpt>
      <trkpt lat="45.45012" lon="4.60982">
        <ele>633.16528320312</ele>
        <time>2009-09-12T07:59:07Z</time>
      </trkpt>
      <trkpt lat="45.4501" lon="4.60963">
        <ele>630.76220703125</ele>
        <time>2009-09-12T07:59:09Z</time>
      </trkpt>
      <trkpt lat="45.45007" lon="4.60945">
        <ele>629.80078125</ele>
        <time>2009-09-12T07:59:11Z</time>
      </trkpt>
      <trkpt lat="45.45002" lon="4.60908">
        <ele>625.47485351562</ele>
        <time>2009-09-12T07:59:15Z</time>
      </trkpt>
      <trkpt lat="45.44999" lon="4.60887">
        <ele>624.03295898438</ele>
        <time>2009-09-12T07:59:17Z</time>
      </trkpt>
      <trkpt lat="45.44992" lon="4.60853">
        <ele>622.1103515625</ele>
        <time>2009-09-12T07:59:20Z</time>
      </trkpt>
      <trkpt lat="45.44991" lon="4.60842">
        <ele>621.14916992188</ele>
        <time>2009-09-12T07:59:21Z</time>
      </trkpt>
      <trkpt lat="45.44986" lon="4.60794">
        <ele>618.74560546875</ele>
        <time>2009-09-12T07:59:25Z</time>
      </trkpt>
      <trkpt lat="45.44986" lon="4.60775">
        <ele>617.3037109375</ele>
        <time>2009-09-12T07:59:27Z</time>
      </trkpt>
      <trkpt lat="45.44988" lon="4.60755">
        <ele>616.34228515625</ele>
        <time>2009-09-12T07:59:29Z</time>
      </trkpt>
      <trkpt lat="45.44991" lon="4.60734">
        <ele>615.38110351562</ele>
        <time>2009-09-12T07:59:31Z</time>
      </trkpt>
      <trkpt lat="45.45002" lon="4.60694">
        <ele>612.97778320312</ele>
        <time>2009-09-12T07:59:35Z</time>
      </trkpt>
      <trkpt lat="45.4501" lon="4.6067">
        <ele>611.05517578125</ele>
        <time>2009-09-12T07:59:38Z</time>
      </trkpt>
      <trkpt lat="45.45023" lon="4.60638">
        <ele>608.17138671875</ele>
        <time>2009-09-12T07:59:42Z</time>
      </trkpt>
      <trkpt lat="45.45026" lon="4.60632">
        <ele>608.17138671875</ele>
        <time>2009-09-12T07:59:43Z</time>
      </trkpt>
      <trkpt lat="45.45032" lon="4.60621">
        <ele>608.65185546875</ele>
        <time>2009-09-12T07:59:45Z</time>
      </trkpt>
      <trkpt lat="45.45036" lon="4.60598">
        <ele>608.65185546875</ele>
        <time>2009-09-12T07:59:49Z</time>
      </trkpt>
      <trkpt lat="45.45039" lon="4.60565">
        <ele>609.61328125</ele>
        <time>2009-09-12T07:59:55Z</time>
      </trkpt>
      <trkpt lat="45.45033" lon="4.60532">
        <ele>611.05517578125</ele>
        <time>2009-09-12T08:00:01Z</time>
      </trkpt>
      <trkpt lat="45.45024" lon="4.60497">
        <ele>611.53588867188</ele>
        <time>2009-09-12T08:00:08Z</time>
      </trkpt>
      <trkpt lat="45.45021" lon="4.60484">
        <ele>612.4970703125</ele>
        <time>2009-09-12T08:00:12Z</time>
      </trkpt>
      <trkpt lat="45.4502" lon="4.60477">
        <ele>612.0166015625</ele>
        <time>2009-09-12T08:00:14Z</time>
      </trkpt>
      <trkpt lat="45.45016" lon="4.60468">
        <ele>611.05517578125</ele>
        <time>2009-09-12T08:00:16Z</time>
      </trkpt>
      <trkpt lat="45.44996" lon="4.60437">
        <ele>609.13256835938</ele>
        <time>2009-09-12T08:00:22Z</time>
      </trkpt>
      <trkpt lat="45.44974" lon="4.60409">
        <ele>608.17138671875</ele>
        <time>2009-09-12T08:00:27Z</time>
      </trkpt>
      <trkpt lat="45.44947" lon="4.60366">
        <ele>607.2099609375</ele>
        <time>2009-09-12T08:00:34Z</time>
      </trkpt>
      <trkpt lat="45.44938" lon="4.60353">
        <ele>606.72924804688</ele>
        <time>2009-09-12T08:00:36Z</time>
      </trkpt>
      <trkpt lat="45.44924" lon="4.60326">
        <ele>605.76806640625</ele>
        <time>2009-09-12T08:00:40Z</time>
      </trkpt>
      <trkpt lat="45.44918" lon="4.60309">
        <ele>605.76806640625</ele>
        <time>2009-09-12T08:00:42Z</time>
      </trkpt>
      <trkpt lat="45.44904" lon="4.60274">
        <ele>606.24853515625</ele>
        <time>2009-09-12T08:00:47Z</time>
      </trkpt>
      <trkpt lat="45.44891" lon="4.60242">
        <ele>606.72924804688</ele>
        <time>2009-09-12T08:00:52Z</time>
      </trkpt>
      <trkpt lat="45.44875" lon="4.60204">
        <ele>608.65185546875</ele>
        <time>2009-09-12T08:00:59Z</time>
      </trkpt>
      <trkpt lat="45.44871" lon="4.60179">
        <ele>609.61328125</ele>
        <time>2009-09-12T08:01:05Z</time>
      </trkpt>
      <trkpt lat="45.44869" lon="4.60166">
        <ele>611.53588867188</ele>
        <time>2009-09-12T08:01:09Z</time>
      </trkpt>
      <trkpt lat="45.44867" lon="4.60148">
        <ele>612.4970703125</ele>
        <time>2009-09-12T08:01:15Z</time>
      </trkpt>
      <trkpt lat="45.44865" lon="4.60131">
        <ele>613.93896484375</ele>
        <time>2009-09-12T08:01:22Z</time>
      </trkpt>
      <trkpt lat="45.44861" lon="4.60117">
        <ele>614.900390625</ele>
        <time>2009-09-12T08:01:27Z</time>
      </trkpt>
      <trkpt lat="45.44856" lon="4.60094">
        <ele>617.3037109375</ele>
        <time>2009-09-12T08:01:35Z</time>
      </trkpt>
      <trkpt lat="45.44847" lon="4.6007">
        <ele>619.22631835938</ele>
        <time>2009-09-12T08:01:43Z</time>
      </trkpt>
      <trkpt lat="45.44842" lon="4.60053">
        <ele>620.66845703125</ele>
        <time>2009-09-12T08:01:49Z</time>
      </trkpt>
      <trkpt lat="45.44835" lon="4.60036">
        <ele>621.62963867188</ele>
        <time>2009-09-12T08:01:55Z</time>
      </trkpt>
      <trkpt lat="45.44825" lon="4.60027">
        <ele>621.62963867188</ele>
        <time>2009-09-12T08:02:00Z</time>
      </trkpt>
      <trkpt lat="45.44818" lon="4.60025">
        <ele>622.59106445312</ele>
        <time>2009-09-12T08:02:04Z</time>
      </trkpt>
      <trkpt lat="45.44812" lon="4.60033">
        <ele>623.07177734375</ele>
        <time>2009-09-12T08:02:09Z</time>
      </trkpt>
      <trkpt lat="45.44809" lon="4.60036">
        <ele>623.07177734375</ele>
        <time>2009-09-12T08:02:11Z</time>
      </trkpt>
      <trkpt lat="45.44801" lon="4.60056">
        <ele>624.99438476562</ele>
        <time>2009-09-12T08:02:20Z</time>
      </trkpt>
      <trkpt lat="45.44796" lon="4.60072">
        <ele>625.47485351562</ele>
        <time>2009-09-12T08:02:27Z</time>
      </trkpt>
      <trkpt lat="45.44792" lon="4.60093">
        <ele>626.9169921875</ele>
        <time>2009-09-12T08:02:35Z</time>
      </trkpt>
      <trkpt lat="45.44787" lon="4.60117">
        <ele>628.35888671875</ele>
        <time>2009-09-12T08:02:44Z</time>
      </trkpt>
      <trkpt lat="45.44781" lon="4.60133">
        <ele>629.32006835938</ele>
        <time>2009-09-12T08:02:50Z</time>
      </trkpt>
      <trkpt lat="45.44775" lon="4.60153">
        <ele>629.80078125</ele>
        <time>2009-09-12T08:02:57Z</time>
      </trkpt>
      <trkpt lat="45.4477" lon="4.6017">
        <ele>630.28149414062</ele>
        <time>2009-09-12T08:03:02Z</time>
      </trkpt>
      <trkpt lat="45.44764" lon="4.60189">
        <ele>631.24291992188</ele>
        <time>2009-09-12T08:03:08Z</time>
      </trkpt>
      <trkpt lat="45.44759" lon="4.60215">
        <ele>632.68481445312</ele>
        <time>2009-09-12T08:03:16Z</time>
      </trkpt>
      <trkpt lat="45.44756" lon="4.60233">
        <ele>634.12670898438</ele>
        <time>2009-09-12T08:03:22Z</time>
      </trkpt>
      <trkpt lat="45.4475" lon="4.60254">
        <ele>635.08813476562</ele>
        <time>2009-09-12T08:03:29Z</time>
      </trkpt>
      <trkpt lat="45.44749" lon="4.60257">
        <ele>635.08813476562</ele>
        <time>2009-09-12T08:03:30Z</time>
      </trkpt>
      <trkpt lat="45.44746" lon="4.60261">
        <ele>636.04956054688</ele>
        <time>2009-09-12T08:03:32Z</time>
      </trkpt>
      <trkpt lat="45.44745" lon="4.60272">
        <ele>636.5302734375</ele>
        <time>2009-09-12T08:03:36Z</time>
      </trkpt>
      <trkpt lat="45.44749" lon="4.60291">
        <ele>637.49145507812</ele>
        <time>2009-09-12T08:03:44Z</time>
      </trkpt>
      <trkpt lat="45.44754" lon="4.60308">
        <ele>639.4140625</ele>
        <time>2009-09-12T08:03:51Z</time>
      </trkpt>
      <trkpt lat="45.44756" lon="4.6031">
        <ele>639.4140625</ele>
        <time>2009-09-12T08:03:52Z</time>
      </trkpt>
      <trkpt lat="45.44767" lon="4.60329">
        <ele>640.37548828125</ele>
        <time>2009-09-12T08:04:00Z</time>
      </trkpt>
      <trkpt lat="45.44773" lon="4.60347">
        <ele>642.29809570312</ele>
        <time>2009-09-12T08:04:07Z</time>
      </trkpt>
      <trkpt lat="45.44777" lon="4.60362">
        <ele>642.77880859375</ele>
        <time>2009-09-12T08:04:13Z</time>
      </trkpt>
      <trkpt lat="45.44783" lon="4.60379">
        <ele>643.73999023438</ele>
        <time>2009-09-12T08:04:20Z</time>
      </trkpt>
      <trkpt lat="45.44787" lon="4.60393">
        <ele>644.701171875</ele>
        <time>2009-09-12T08:04:26Z</time>
      </trkpt>
      <trkpt lat="45.44794" lon="4.60413">
        <ele>646.14331054688</ele>
        <time>2009-09-12T08:04:34Z</time>
      </trkpt>
      <trkpt lat="45.44798" lon="4.60425">
        <ele>647.1044921875</ele>
        <time>2009-09-12T08:04:39Z</time>
      </trkpt>
      <trkpt lat="45.44801" lon="4.60434">
        <ele>648.06591796875</ele>
        <time>2009-09-12T08:04:43Z</time>
      </trkpt>
      <trkpt lat="45.44806" lon="4.60454">
        <ele>649.5078125</ele>
        <time>2009-09-12T08:04:51Z</time>
      </trkpt>
      <trkpt lat="45.44811" lon="4.60472">
        <ele>650.94970703125</ele>
        <time>2009-09-12T08:04:58Z</time>
      </trkpt>
      <trkpt lat="45.44817" lon="4.60488">
        <ele>651.43041992188</ele>
        <time>2009-09-12T08:05:04Z</time>
      </trkpt>
      <trkpt lat="45.44824" lon="4.60508">
        <ele>652.87255859375</ele>
        <time>2009-09-12T08:05:12Z</time>
      </trkpt>
      <trkpt lat="45.4483" lon="4.60525">
        <ele>654.31469726562</ele>
        <time>2009-09-12T08:05:19Z</time>
      </trkpt>
      <trkpt lat="45.44835" lon="4.60542">
        <ele>655.75659179688</ele>
        <time>2009-09-12T08:05:26Z</time>
      </trkpt>
      <trkpt lat="45.44841" lon="4.60561">
        <ele>656.7177734375</ele>
        <time>2009-09-12T08:05:34Z</time>
      </trkpt>
      <trkpt lat="45.44844" lon="4.6057">
        <ele>658.15991210938</ele>
        <time>2009-09-12T08:05:38Z</time>
      </trkpt>
      <trkpt lat="45.44838" lon="4.60574">
        <ele>660.08227539062</ele>
        <time>2009-09-12T08:05:43Z</time>
      </trkpt>
      <trkpt lat="45.44831" lon="4.60567">
        <ele>660.56298828125</ele>
        <time>2009-09-12T08:05:48Z</time>
      </trkpt>
      <trkpt lat="45.44823" lon="4.60556">
        <ele>660.56298828125</ele>
        <time>2009-09-12T08:05:54Z</time>
      </trkpt>
      <trkpt lat="45.44813" lon="4.60544">
        <ele>662.48559570312</ele>
        <time>2009-09-12T08:06:02Z</time>
      </trkpt>
      <trkpt lat="45.44803" lon="4.60537">
        <ele>663.44702148438</ele>
        <time>2009-09-12T08:06:09Z</time>
      </trkpt>
      <trkpt lat="45.44793" lon="4.60532">
        <ele>663.92749023438</ele>
        <time>2009-09-12T08:06:16Z</time>
      </trkpt>
      <trkpt lat="45.4478" lon="4.60526">
        <ele>665.36962890625</ele>
        <time>2009-09-12T08:06:23Z</time>
      </trkpt>
      <trkpt lat="45.4477" lon="4.60523">
        <ele>665.85034179688</ele>
        <time>2009-09-12T08:06:29Z</time>
      </trkpt>
      <trkpt lat="45.44758" lon="4.60521">
        <ele>666.8115234375</ele>
        <time>2009-09-12T08:06:35Z</time>
      </trkpt>
      <trkpt lat="45.44746" lon="4.60515">
        <ele>668.25366210938</ele>
        <time>2009-09-12T08:06:42Z</time>
      </trkpt>
      <trkpt lat="45.44735" lon="4.60514">
        <ele>669.21508789062</ele>
        <time>2009-09-12T08:06:48Z</time>
      </trkpt>
      <trkpt lat="45.44724" lon="4.60509">
        <ele>670.17626953125</ele>
        <time>2009-09-12T08:06:54Z</time>
      </trkpt>
      <trkpt lat="45.4472" lon="4.60512">
        <ele>670.17626953125</ele>
        <time>2009-09-12T08:06:57Z</time>
      </trkpt>
      <trkpt lat="45.44706" lon="4.60524">
        <ele>672.09887695312</ele>
        <time>2009-09-12T08:07:06Z</time>
      </trkpt>
      <trkpt lat="45.44702" lon="4.60528">
        <ele>672.57958984375</ele>
        <time>2009-09-12T08:07:09Z</time>
      </trkpt>
      <trkpt lat="45.44701" lon="4.60537">
        <ele>674.021484375</ele>
        <time>2009-09-12T08:07:13Z</time>
      </trkpt>
      <trkpt lat="45.44701" lon="4.60544">
        <ele>674.98291015625</ele>
        <time>2009-09-12T08:07:17Z</time>
      </trkpt>
      <trkpt lat="45.44704" lon="4.60554">
        <ele>676.90551757812</ele>
        <time>2009-09-12T08:07:23Z</time>
      </trkpt>
      <trkpt lat="45.44704" lon="4.60561">
        <ele>678.34741210938</ele>
        <time>2009-09-12T08:07:26Z</time>
      </trkpt>
      <trkpt lat="45.44703" lon="4.60564">
        <ele>678.34741210938</ele>
        <time>2009-09-12T08:07:27Z</time>
      </trkpt>
      <trkpt lat="45.44706" lon="4.6058">
        <ele>679.78930664062</ele>
        <time>2009-09-12T08:07:33Z</time>
      </trkpt>
      <trkpt lat="45.44711" lon="4.60591">
        <ele>680.75073242188</ele>
        <time>2009-09-12T08:07:38Z</time>
      </trkpt>
      <trkpt lat="45.44714" lon="4.60602">
        <ele>682.19262695312</ele>
        <time>2009-09-12T08:07:44Z</time>
      </trkpt>
      <trkpt lat="45.44718" lon="4.60616">
        <ele>683.63452148438</ele>
        <time>2009-09-12T08:07:50Z</time>
      </trkpt>
      <trkpt lat="45.44719" lon="4.60626">
        <ele>684.59619140625</ele>
        <time>2009-09-12T08:07:55Z</time>
      </trkpt>
      <trkpt lat="45.44719" lon="4.60631">
        <ele>684.59619140625</ele>
        <time>2009-09-12T08:07:57Z</time>
      </trkpt>
      <trkpt lat="45.44715" lon="4.60648">
        <ele>686.99926757812</ele>
        <time>2009-09-12T08:08:05Z</time>
      </trkpt>
      <trkpt lat="45.44719" lon="4.60664">
        <ele>687.47998046875</ele>
        <time>2009-09-12T08:08:11Z</time>
      </trkpt>
      <trkpt lat="45.44721" lon="4.60681">
        <ele>689.40258789062</ele>
        <time>2009-09-12T08:08:18Z</time>
      </trkpt>
      <trkpt lat="45.44721" lon="4.60697">
        <ele>690.36401367188</ele>
        <time>2009-09-12T08:08:25Z</time>
      </trkpt>
      <trkpt lat="45.44719" lon="4.60714">
        <ele>691.80590820312</ele>
        <time>2009-09-12T08:08:32Z</time>
      </trkpt>
      <trkpt lat="45.44718" lon="4.6073">
        <ele>693.24780273438</ele>
        <time>2009-09-12T08:08:38Z</time>
      </trkpt>
      <trkpt lat="45.44714" lon="4.60745">
        <ele>694.68969726562</ele>
        <time>2009-09-12T08:08:45Z</time>
      </trkpt>
      <trkpt lat="45.44709" lon="4.60762">
        <ele>695.17041015625</ele>
        <time>2009-09-12T08:08:53Z</time>
      </trkpt>
      <trkpt lat="45.44706" lon="4.60778">
        <ele>696.61254882812</ele>
        <time>2009-09-12T08:09:01Z</time>
      </trkpt>
      <trkpt lat="45.44698" lon="4.60797">
        <ele>697.09301757812</ele>
        <time>2009-09-12T08:09:10Z</time>
      </trkpt>
      <trkpt lat="45.44694" lon="4.60809">
        <ele>698.53491210938</ele>
        <time>2009-09-12T08:09:16Z</time>
      </trkpt>
      <trkpt lat="45.44692" lon="4.60818">
        <ele>699.015625</ele>
        <time>2009-09-12T08:09:21Z</time>
      </trkpt>
      <trkpt lat="45.44685" lon="4.6084">
        <ele>700.4580078125</ele>
        <time>2009-09-12T08:09:30Z</time>
      </trkpt>
      <trkpt lat="45.44677" lon="4.60863">
        <ele>703.341796875</ele>
        <time>2009-09-12T08:09:40Z</time>
      </trkpt>
      <trkpt lat="45.44671" lon="4.60882">
        <ele>705.7451171875</ele>
        <time>2009-09-12T08:09:48Z</time>
      </trkpt>
      <trkpt lat="45.44665" lon="4.60903">
        <ele>707.66772460938</ele>
        <time>2009-09-12T08:09:57Z</time>
      </trkpt>
      <trkpt lat="45.4466" lon="4.6092">
        <ele>710.55151367188</ele>
        <time>2009-09-12T08:10:05Z</time>
      </trkpt>
      <trkpt lat="45.44654" lon="4.60933">
        <ele>712.47412109375</ele>
        <time>2009-09-12T08:10:12Z</time>
      </trkpt>
      <trkpt lat="45.44648" lon="4.60942">
        <ele>713.916015625</ele>
        <time>2009-09-12T08:10:19Z</time>
      </trkpt>
      <trkpt lat="45.44643" lon="4.60954">
        <ele>715.35815429688</ele>
        <time>2009-09-12T08:10:25Z</time>
      </trkpt>
      <trkpt lat="45.44637" lon="4.60971">
        <ele>717.28100585938</ele>
        <time>2009-09-12T08:10:35Z</time>
      </trkpt>
      <trkpt lat="45.44635" lon="4.60975">
        <ele>717.76147460938</ele>
        <time>2009-09-12T08:10:37Z</time>
      </trkpt>
      <trkpt lat="45.4463" lon="4.60992">
        <ele>720.16479492188</ele>
        <time>2009-09-12T08:10:46Z</time>
      </trkpt>
      <trkpt lat="45.44623" lon="4.61009">
        <ele>723.048828125</ele>
        <time>2009-09-12T08:10:55Z</time>
      </trkpt>
      <trkpt lat="45.44616" lon="4.61019">
        <ele>725.45190429688</ele>
        <time>2009-09-12T08:11:01Z</time>
      </trkpt>
      <trkpt lat="45.44615" lon="4.61022">
        <ele>725.45190429688</ele>
        <time>2009-09-12T08:11:02Z</time>
      </trkpt>
      <trkpt lat="45.4461" lon="4.61036">
        <ele>727.85522460938</ele>
        <time>2009-09-12T08:11:08Z</time>
      </trkpt>
      <trkpt lat="45.44604" lon="4.61044">
        <ele>729.77783203125</ele>
        <time>2009-09-12T08:11:12Z</time>
      </trkpt>
      <trkpt lat="45.44602" lon="4.61049">
        <ele>730.7392578125</ele>
        <time>2009-09-12T08:11:14Z</time>
      </trkpt>
      <trkpt lat="45.446" lon="4.61062">
        <ele>732.662109375</ele>
        <time>2009-09-12T08:11:20Z</time>
      </trkpt>
      <trkpt lat="45.44598" lon="4.61077">
        <ele>734.10400390625</ele>
        <time>2009-09-12T08:11:27Z</time>
      </trkpt>
      <trkpt lat="45.44596" lon="4.61089">
        <ele>736.02661132812</ele>
        <time>2009-09-12T08:11:32Z</time>
      </trkpt>
      <trkpt lat="45.44593" lon="4.61095">
        <ele>737.46850585938</ele>
        <time>2009-09-12T08:11:35Z</time>
      </trkpt>
      <trkpt lat="45.44591" lon="4.61102">
        <ele>738.42993164062</ele>
        <time>2009-09-12T08:11:39Z</time>
      </trkpt>
      <trkpt lat="45.44589" lon="4.61113">
        <ele>739.87182617188</ele>
        <time>2009-09-12T08:11:44Z</time>
      </trkpt>
      <trkpt lat="45.4459" lon="4.61119">
        <ele>741.31372070312</ele>
        <time>2009-09-12T08:11:47Z</time>
      </trkpt>
      <trkpt lat="45.4459" lon="4.61134">
        <ele>744.19775390625</ele>
        <time>2009-09-12T08:11:54Z</time>
      </trkpt>
      <trkpt lat="45.44592" lon="4.61143">
        <ele>745.6396484375</ele>
        <time>2009-09-12T08:11:58Z</time>
      </trkpt>
      <trkpt lat="45.44597" lon="4.61162">
        <ele>748.52368164062</ele>
        <time>2009-09-12T08:12:07Z</time>
      </trkpt>
      <trkpt lat="45.44597" lon="4.61166">
        <ele>749.48510742188</ele>
        <time>2009-09-12T08:12:13Z</time>
      </trkpt>
      <trkpt lat="45.44597" lon="4.61171">
        <ele>749.9658203125</ele>
        <time>2009-09-12T08:12:24Z</time>
      </trkpt>
      <trkpt lat="45.44597" lon="4.61176">
        <ele>750.92700195312</ele>
        <time>2009-09-12T08:12:31Z</time>
      </trkpt>
      <trkpt lat="45.44595" lon="4.61184">
        <ele>751.88842773438</ele>
        <time>2009-09-12T08:12:39Z</time>
      </trkpt>
      <trkpt lat="45.44595" lon="4.61189">
        <ele>753.33032226562</ele>
        <time>2009-09-12T08:12:44Z</time>
      </trkpt>
      <trkpt lat="45.44592" lon="4.61195">
        <ele>753.81103515625</ele>
        <time>2009-09-12T08:12:49Z</time>
      </trkpt>
      <trkpt lat="45.44592" lon="4.61201">
        <ele>754.77221679688</ele>
        <time>2009-09-12T08:12:54Z</time>
      </trkpt>
      <trkpt lat="45.44591" lon="4.61207">
        <ele>755.73364257812</ele>
        <time>2009-09-12T08:12:59Z</time>
      </trkpt>
      <trkpt lat="45.4459" lon="4.61215">
        <ele>757.17553710938</ele>
        <time>2009-09-12T08:13:08Z</time>
      </trkpt>
      <trkpt lat="45.4459" lon="4.61223">
        <ele>758.13696289062</ele>
        <time>2009-09-12T08:13:15Z</time>
      </trkpt>
      <trkpt lat="45.44588" lon="4.61232">
        <ele>759.09814453125</ele>
        <time>2009-09-12T08:13:23Z</time>
      </trkpt>
      <trkpt lat="45.44587" lon="4.61244">
        <ele>761.50146484375</ele>
        <time>2009-09-12T08:13:32Z</time>
      </trkpt>
      <trkpt lat="45.44586" lon="4.6125">
        <ele>762.46264648438</ele>
        <time>2009-09-12T08:13:40Z</time>
      </trkpt>
      <trkpt lat="45.44586" lon="4.61252">
        <ele>762.46264648438</ele>
        <time>2009-09-12T08:13:47Z</time>
      </trkpt>
      <trkpt lat="45.44586" lon="4.61253">
        <ele>762.46264648438</ele>
        <time>2009-09-12T08:13:50Z</time>
      </trkpt>
      <trkpt lat="45.44585" lon="4.61263">
        <ele>764.38549804688</ele>
        <time>2009-09-12T08:13:55Z</time>
      </trkpt>
      <trkpt lat="45.44586" lon="4.61277">
        <ele>765.82763671875</ele>
        <time>2009-09-12T08:14:01Z</time>
      </trkpt>
      <trkpt lat="45.44589" lon="4.61295">
        <ele>767.75</ele>
        <time>2009-09-12T08:14:09Z</time>
      </trkpt>
      <trkpt lat="45.44589" lon="4.61309">
        <ele>769.6728515625</ele>
        <time>2009-09-12T08:14:16Z</time>
      </trkpt>
      <trkpt lat="45.44589" lon="4.61323">
        <ele>771.59521484375</ele>
        <time>2009-09-12T08:14:21Z</time>
      </trkpt>
      <trkpt lat="45.44592" lon="4.61348">
        <ele>773.03735351562</ele>
        <time>2009-09-12T08:14:28Z</time>
      </trkpt>
      <trkpt lat="45.44592" lon="4.61374">
        <ele>774.47924804688</ele>
        <time>2009-09-12T08:14:35Z</time>
      </trkpt>
      <trkpt lat="45.44587" lon="4.61395">
        <ele>774.9599609375</ele>
        <time>2009-09-12T08:14:42Z</time>
      </trkpt>
      <trkpt lat="45.44584" lon="4.61409">
        <ele>774.9599609375</ele>
        <time>2009-09-12T08:14:48Z</time>
      </trkpt>
      <trkpt lat="45.44581" lon="4.61423">
        <ele>774.9599609375</ele>
        <time>2009-09-12T08:14:53Z</time>
      </trkpt>
      <trkpt lat="45.4458" lon="4.61425">
        <ele>775.4404296875</ele>
        <time>2009-09-12T08:14:54Z</time>
      </trkpt>
      <trkpt lat="45.44578" lon="4.61437">
        <ele>775.92114257812</ele>
        <time>2009-09-12T08:14:59Z</time>
      </trkpt>
      <trkpt lat="45.44572" lon="4.61455">
        <ele>775.92114257812</ele>
        <time>2009-09-12T08:15:05Z</time>
      </trkpt>
      <trkpt lat="45.44567" lon="4.61476">
        <ele>776.40185546875</ele>
        <time>2009-09-12T08:15:11Z</time>
      </trkpt>
      <trkpt lat="45.44566" lon="4.61485">
        <ele>777.36328125</ele>
        <time>2009-09-12T08:15:15Z</time>
      </trkpt>
      <trkpt lat="45.44565" lon="4.61497">
        <ele>776.88256835938</ele>
        <time>2009-09-12T08:15:20Z</time>
      </trkpt>
      <trkpt lat="45.44564" lon="4.61499">
        <ele>776.88256835938</ele>
        <time>2009-09-12T08:15:21Z</time>
      </trkpt>
      <trkpt lat="45.44559" lon="4.61515">
        <ele>777.36328125</ele>
        <time>2009-09-12T08:15:27Z</time>
      </trkpt>
      <trkpt lat="45.44555" lon="4.61529">
        <ele>778.32446289062</ele>
        <time>2009-09-12T08:15:33Z</time>
      </trkpt>
      <trkpt lat="45.4455" lon="4.61543">
        <ele>778.32446289062</ele>
        <time>2009-09-12T08:15:38Z</time>
      </trkpt>
      <trkpt lat="45.44546" lon="4.61549">
        <ele>778.80517578125</ele>
        <time>2009-09-12T08:15:42Z</time>
      </trkpt>
      <trkpt lat="45.44547" lon="4.61548">
        <ele>778.32446289062</ele>
        <time>2009-09-12T08:15:44Z</time>
      </trkpt>
      <trkpt lat="45.44552" lon="4.61539">
        <ele>777.84375</ele>
        <time>2009-09-12T08:15:48Z</time>
      </trkpt>
      <trkpt lat="45.44562" lon="4.61514">
        <ele>777.36328125</ele>
        <time>2009-09-12T08:15:54Z</time>
      </trkpt>
      <trkpt lat="45.44568" lon="4.61497">
        <ele>776.88256835938</ele>
        <time>2009-09-12T08:15:59Z</time>
      </trkpt>
      <trkpt lat="45.44574" lon="4.61481">
        <ele>776.40185546875</ele>
        <time>2009-09-12T08:16:04Z</time>
      </trkpt>
      <trkpt lat="45.44581" lon="4.61466">
        <ele>776.40185546875</ele>
        <time>2009-09-12T08:16:08Z</time>
      </trkpt>
      <trkpt lat="45.44582" lon="4.61464">
        <ele>776.88256835938</ele>
        <time>2009-09-12T08:16:09Z</time>
      </trkpt>
      <trkpt lat="45.44585" lon="4.61458">
        <ele>776.88256835938</ele>
        <time>2009-09-12T08:16:13Z</time>
      </trkpt>
      <trkpt lat="45.44591" lon="4.61441">
        <ele>775.92114257812</ele>
        <time>2009-09-12T08:16:19Z</time>
      </trkpt>
      <trkpt lat="45.44592" lon="4.61438">
        <ele>775.92114257812</ele>
        <time>2009-09-12T08:16:20Z</time>
      </trkpt>
      <trkpt lat="45.44595" lon="4.61416">
        <ele>775.92114257812</ele>
        <time>2009-09-12T08:16:26Z</time>
      </trkpt>
      <trkpt lat="45.44594" lon="4.61406">
        <ele>775.92114257812</ele>
        <time>2009-09-12T08:16:28Z</time>
      </trkpt>
      <trkpt lat="45.446" lon="4.61372">
        <ele>774.47924804688</ele>
        <time>2009-09-12T08:16:34Z</time>
      </trkpt>
      <trkpt lat="45.44599" lon="4.6134">
        <ele>773.99853515625</ele>
        <time>2009-09-12T08:16:40Z</time>
      </trkpt>
      <trkpt lat="45.44598" lon="4.61321">
        <ele>772.07592773438</ele>
        <time>2009-09-12T08:16:44Z</time>
      </trkpt>
      <trkpt lat="45.44596" lon="4.61319">
        <ele>771.11474609375</ele>
        <time>2009-09-12T08:16:48Z</time>
      </trkpt>
      <trkpt lat="45.44596" lon="4.6132">
        <ele>771.59521484375</ele>
        <time>2009-09-12T08:16:53Z</time>
      </trkpt>
      <trkpt lat="45.44595" lon="4.61324">
        <ele>772.07592773438</ele>
        <time>2009-09-12T08:16:59Z</time>
      </trkpt>
      <trkpt lat="45.44591" lon="4.61325">
        <ele>772.07592773438</ele>
        <time>2009-09-12T08:17:34Z</time>
      </trkpt>
      <trkpt lat="45.4459" lon="4.61326">
        <ele>772.07592773438</ele>
        <time>2009-09-12T08:17:41Z</time>
      </trkpt>
      <trkpt lat="45.44591" lon="4.61332">
        <ele>773.03735351562</ele>
        <time>2009-09-12T08:17:45Z</time>
      </trkpt>
      <trkpt lat="45.44592" lon="4.61346">
        <ele>773.99853515625</ele>
        <time>2009-09-12T08:17:52Z</time>
      </trkpt>
      <trkpt lat="45.44593" lon="4.61362">
        <ele>774.47924804688</ele>
        <time>2009-09-12T08:17:59Z</time>
      </trkpt>
      <trkpt lat="45.44592" lon="4.61377">
        <ele>774.47924804688</ele>
        <time>2009-09-12T08:18:05Z</time>
      </trkpt>
      <trkpt lat="45.44587" lon="4.61396">
        <ele>775.4404296875</ele>
        <time>2009-09-12T08:18:12Z</time>
      </trkpt>
      <trkpt lat="45.44584" lon="4.61412">
        <ele>775.92114257812</ele>
        <time>2009-09-12T08:18:18Z</time>
      </trkpt>
      <trkpt lat="45.44582" lon="4.61426">
        <ele>775.92114257812</ele>
        <time>2009-09-12T08:18:23Z</time>
      </trkpt>
      <trkpt lat="45.44575" lon="4.61443">
        <ele>776.40185546875</ele>
        <time>2009-09-12T08:18:30Z</time>
      </trkpt>
      <trkpt lat="45.4457" lon="4.61465">
        <ele>776.88256835938</ele>
        <time>2009-09-12T08:18:38Z</time>
      </trkpt>
      <trkpt lat="45.44567" lon="4.61484">
        <ele>777.36328125</ele>
        <time>2009-09-12T08:18:44Z</time>
      </trkpt>
      <trkpt lat="45.44566" lon="4.61487">
        <ele>777.84375</ele>
        <time>2009-09-12T08:18:45Z</time>
      </trkpt>
      <trkpt lat="45.44562" lon="4.61507">
        <ele>778.32446289062</ele>
        <time>2009-09-12T08:18:51Z</time>
      </trkpt>
      <trkpt lat="45.44558" lon="4.61518">
        <ele>778.32446289062</ele>
        <time>2009-09-12T08:18:55Z</time>
      </trkpt>
      <trkpt lat="45.4455" lon="4.61541">
        <ele>779.28564453125</ele>
        <time>2009-09-12T08:19:02Z</time>
      </trkpt>
      <trkpt lat="45.44541" lon="4.61563">
        <ele>779.76635742188</ele>
        <time>2009-09-12T08:19:09Z</time>
      </trkpt>
      <trkpt lat="45.44535" lon="4.61583">
        <ele>780.24731445312</ele>
        <time>2009-09-12T08:19:15Z</time>
      </trkpt>
      <trkpt lat="45.44535" lon="4.61597">
        <ele>780.24731445312</ele>
        <time>2009-09-12T08:19:20Z</time>
      </trkpt>
      <trkpt lat="45.44537" lon="4.61611">
        <ele>780.24731445312</ele>
        <time>2009-09-12T08:19:24Z</time>
      </trkpt>
      <trkpt lat="45.44535" lon="4.61632">
        <ele>781.20874023438</ele>
        <time>2009-09-12T08:19:31Z</time>
      </trkpt>
      <trkpt lat="45.44533" lon="4.61641">
        <ele>781.20874023438</ele>
        <time>2009-09-12T08:19:35Z</time>
      </trkpt>
      <trkpt lat="45.44531" lon="4.61651">
        <ele>782.169921875</ele>
        <time>2009-09-12T08:19:39Z</time>
      </trkpt>
      <trkpt lat="45.44531" lon="4.61658">
        <ele>782.65063476562</ele>
        <time>2009-09-12T08:19:42Z</time>
      </trkpt>
      <trkpt lat="45.44533" lon="4.61674">
        <ele>783.61181640625</ele>
        <time>2009-09-12T08:19:49Z</time>
      </trkpt>
      <trkpt lat="45.44537" lon="4.61691">
        <ele>784.5732421875</ele>
        <time>2009-09-12T08:19:55Z</time>
      </trkpt>
      <trkpt lat="45.4454" lon="4.61698">
        <ele>785.05395507812</ele>
        <time>2009-09-12T08:19:58Z</time>
      </trkpt>
      <trkpt lat="45.44542" lon="4.61716">
        <ele>786.49584960938</ele>
        <time>2009-09-12T08:20:05Z</time>
      </trkpt>
      <trkpt lat="45.4454" lon="4.6173">
        <ele>787.45703125</ele>
        <time>2009-09-12T08:20:11Z</time>
      </trkpt>
      <trkpt lat="45.4454" lon="4.61742">
        <ele>788.89916992188</ele>
        <time>2009-09-12T08:20:17Z</time>
      </trkpt>
      <trkpt lat="45.44539" lon="4.61749">
        <ele>789.37963867188</ele>
        <time>2009-09-12T08:20:21Z</time>
      </trkpt>
      <trkpt lat="45.4454" lon="4.6176">
        <ele>789.8603515625</ele>
        <time>2009-09-12T08:20:27Z</time>
      </trkpt>
      <trkpt lat="45.4454" lon="4.61763">
        <ele>789.8603515625</ele>
        <time>2009-09-12T08:20:28Z</time>
      </trkpt>
      <trkpt lat="45.4454" lon="4.61773">
        <ele>790.82153320312</ele>
        <time>2009-09-12T08:20:33Z</time>
      </trkpt>
      <trkpt lat="45.44541" lon="4.61788">
        <ele>791.78295898438</ele>
        <time>2009-09-12T08:20:41Z</time>
      </trkpt>
      <trkpt lat="45.44544" lon="4.61796">
        <ele>792.263671875</ele>
        <time>2009-09-12T08:20:45Z</time>
      </trkpt>
      <trkpt lat="45.44545" lon="4.6181">
        <ele>793.22485351562</ele>
        <time>2009-09-12T08:20:51Z</time>
      </trkpt>
      <trkpt lat="45.44544" lon="4.61814">
        <ele>793.22485351562</ele>
        <time>2009-09-12T08:20:53Z</time>
      </trkpt>
      <trkpt lat="45.44541" lon="4.61829">
        <ele>794.66674804688</ele>
        <time>2009-09-12T08:21:00Z</time>
      </trkpt>
      <trkpt lat="45.44538" lon="4.61841">
        <ele>795.62817382812</ele>
        <time>2009-09-12T08:21:07Z</time>
      </trkpt>
      <trkpt lat="45.44538" lon="4.61848">
        <ele>796.10913085938</ele>
        <time>2009-09-12T08:21:12Z</time>
      </trkpt>
      <trkpt lat="45.44539" lon="4.61859">
        <ele>797.55102539062</ele>
        <time>2009-09-12T08:21:18Z</time>
      </trkpt>
      <trkpt lat="45.44539" lon="4.61872">
        <ele>798.99291992188</ele>
        <time>2009-09-12T08:21:26Z</time>
      </trkpt>
      <trkpt lat="45.44539" lon="4.61873">
        <ele>798.99291992188</ele>
        <time>2009-09-12T08:21:27Z</time>
      </trkpt>
      <trkpt lat="45.4454" lon="4.61877">
        <ele>798.99291992188</ele>
        <time>2009-09-12T08:21:29Z</time>
      </trkpt>
      <trkpt lat="45.44539" lon="4.61891">
        <ele>800.43505859375</ele>
        <time>2009-09-12T08:21:37Z</time>
      </trkpt>
      <trkpt lat="45.44538" lon="4.61902">
        <ele>801.39624023438</ele>
        <time>2009-09-12T08:21:44Z</time>
      </trkpt>
      <trkpt lat="45.44537" lon="4.61917">
        <ele>803.79956054688</ele>
        <time>2009-09-12T08:21:53Z</time>
      </trkpt>
      <trkpt lat="45.44537" lon="4.61927">
        <ele>805.24145507812</ele>
        <time>2009-09-12T08:21:59Z</time>
      </trkpt>
      <trkpt lat="45.44537" lon="4.6194">
        <ele>806.68334960938</ele>
        <time>2009-09-12T08:22:06Z</time>
      </trkpt>
      <trkpt lat="45.44535" lon="4.61951">
        <ele>808.60595703125</ele>
        <time>2009-09-12T08:22:13Z</time>
      </trkpt>
      <trkpt lat="45.44531" lon="4.61965">
        <ele>809.5673828125</ele>
        <time>2009-09-12T08:22:21Z</time>
      </trkpt>
      <trkpt lat="45.44529" lon="4.61979">
        <ele>810.52856445312</ele>
        <time>2009-09-12T08:22:28Z</time>
      </trkpt>
      <trkpt lat="45.44526" lon="4.61993">
        <ele>810.52856445312</ele>
        <time>2009-09-12T08:22:36Z</time>
      </trkpt>
      <trkpt lat="45.44522" lon="4.62003">
        <ele>811.00927734375</ele>
        <time>2009-09-12T08:22:43Z</time>
      </trkpt>
      <trkpt lat="45.44519" lon="4.62011">
        <ele>811.48999023438</ele>
        <time>2009-09-12T08:22:49Z</time>
      </trkpt>
      <trkpt lat="45.44517" lon="4.62023">
        <ele>813.41284179688</ele>
        <time>2009-09-12T08:22:56Z</time>
      </trkpt>
      <trkpt lat="45.44517" lon="4.62031">
        <ele>813.89331054688</ele>
        <time>2009-09-12T08:23:01Z</time>
      </trkpt>
      <trkpt lat="45.44518" lon="4.62035">
        <ele>814.3740234375</ele>
        <time>2009-09-12T08:23:03Z</time>
      </trkpt>
      <trkpt lat="45.44518" lon="4.62045">
        <ele>815.81616210938</ele>
        <time>2009-09-12T08:23:08Z</time>
      </trkpt>
      <trkpt lat="45.44519" lon="4.62058">
        <ele>816.77734375</ele>
        <time>2009-09-12T08:23:15Z</time>
      </trkpt>
      <trkpt lat="45.44519" lon="4.6206">
        <ele>817.25805664062</ele>
        <time>2009-09-12T08:23:16Z</time>
      </trkpt>
      <trkpt lat="45.44519" lon="4.62074">
        <ele>817.73852539062</ele>
        <time>2009-09-12T08:23:22Z</time>
      </trkpt>
      <trkpt lat="45.44519" lon="4.6208">
        <ele>818.21923828125</ele>
        <time>2009-09-12T08:23:25Z</time>
      </trkpt>
      <trkpt lat="45.44521" lon="4.62102">
        <ele>819.66137695312</ele>
        <time>2009-09-12T08:23:34Z</time>
      </trkpt>
      <trkpt lat="45.44522" lon="4.62115">
        <ele>820.14184570312</ele>
        <time>2009-09-12T08:23:40Z</time>
      </trkpt>
      <trkpt lat="45.44521" lon="4.62127">
        <ele>820.62255859375</ele>
        <time>2009-09-12T08:23:45Z</time>
      </trkpt>
      <trkpt lat="45.44519" lon="4.62143">
        <ele>821.10327148438</ele>
        <time>2009-09-12T08:23:51Z</time>
      </trkpt>
      <trkpt lat="45.44516" lon="4.62166">
        <ele>822.54516601562</ele>
        <time>2009-09-12T08:23:59Z</time>
      </trkpt>
      <trkpt lat="45.44515" lon="4.62187">
        <ele>823.50659179688</ele>
        <time>2009-09-12T08:24:06Z</time>
      </trkpt>
      <trkpt lat="45.44515" lon="4.6219">
        <ele>823.50659179688</ele>
        <time>2009-09-12T08:24:07Z</time>
      </trkpt>
      <trkpt lat="45.44516" lon="4.62196">
        <ele>823.50659179688</ele>
        <time>2009-09-12T08:24:09Z</time>
      </trkpt>
      <trkpt lat="45.44519" lon="4.62219">
        <ele>823.98706054688</ele>
        <time>2009-09-12T08:24:15Z</time>
      </trkpt>
      <trkpt lat="45.44522" lon="4.62241">
        <ele>823.50659179688</ele>
        <time>2009-09-12T08:24:20Z</time>
      </trkpt>
      <trkpt lat="45.44521" lon="4.62265">
        <ele>823.50659179688</ele>
        <time>2009-09-12T08:24:25Z</time>
      </trkpt>
      <trkpt lat="45.4452" lon="4.62287">
        <ele>823.50659179688</ele>
        <time>2009-09-12T08:24:31Z</time>
      </trkpt>
      <trkpt lat="45.44524" lon="4.62309">
        <ele>824.94848632812</ele>
        <time>2009-09-12T08:24:38Z</time>
      </trkpt>
      <trkpt lat="45.44527" lon="4.62328">
        <ele>825.90966796875</ele>
        <time>2009-09-12T08:24:45Z</time>
      </trkpt>
      <trkpt lat="45.4453" lon="4.62342">
        <ele>826.39038085938</ele>
        <time>2009-09-12T08:24:50Z</time>
      </trkpt>
      <trkpt lat="45.44532" lon="4.62353">
        <ele>826.39038085938</ele>
        <time>2009-09-12T08:24:54Z</time>
      </trkpt>
      <trkpt lat="45.44535" lon="4.62364">
        <ele>827.35180664062</ele>
        <time>2009-09-12T08:24:58Z</time>
      </trkpt>
      <trkpt lat="45.4454" lon="4.62379">
        <ele>827.83227539062</ele>
        <time>2009-09-12T08:25:03Z</time>
      </trkpt>
      <trkpt lat="45.44543" lon="4.62393">
        <ele>828.7939453125</ele>
        <time>2009-09-12T08:25:07Z</time>
      </trkpt>
      <trkpt lat="45.44552" lon="4.62413">
        <ele>829.2744140625</ele>
        <time>2009-09-12T08:25:13Z</time>
      </trkpt>
      <trkpt lat="45.4456" lon="4.62432">
        <ele>829.75512695312</ele>
        <time>2009-09-12T08:25:19Z</time>
      </trkpt>
      <trkpt lat="45.44567" lon="4.62451">
        <ele>829.2744140625</ele>
        <time>2009-09-12T08:25:24Z</time>
      </trkpt>
      <trkpt lat="45.44577" lon="4.62475">
        <ele>830.23583984375</ele>
        <time>2009-09-12T08:25:30Z</time>
      </trkpt>
      <trkpt lat="45.4459" lon="4.62501">
        <ele>830.71655273438</ele>
        <time>2009-09-12T08:25:37Z</time>
      </trkpt>
      <trkpt lat="45.44602" lon="4.62525">
        <ele>831.197265625</ele>
        <time>2009-09-12T08:25:44Z</time>
      </trkpt>
      <trkpt lat="45.44618" lon="4.62559">
        <ele>830.71655273438</ele>
        <time>2009-09-12T08:25:53Z</time>
      </trkpt>
      <trkpt lat="45.44628" lon="4.6258">
        <ele>830.71655273438</ele>
        <time>2009-09-12T08:25:59Z</time>
      </trkpt>
      <trkpt lat="45.4464" lon="4.62606">
        <ele>831.197265625</ele>
        <time>2009-09-12T08:26:06Z</time>
      </trkpt>
      <trkpt lat="45.44648" lon="4.62625">
        <ele>831.197265625</ele>
        <time>2009-09-12T08:26:11Z</time>
      </trkpt>
      <trkpt lat="45.44658" lon="4.62648">
        <ele>831.677734375</ele>
        <time>2009-09-12T08:26:17Z</time>
      </trkpt>
      <trkpt lat="45.44673" lon="4.62683">
        <ele>831.677734375</ele>
        <time>2009-09-12T08:26:25Z</time>
      </trkpt>
      <trkpt lat="45.44688" lon="4.62711">
        <ele>832.63916015625</ele>
        <time>2009-09-12T08:26:33Z</time>
      </trkpt>
      <trkpt lat="45.44696" lon="4.62731">
        <ele>833.60034179688</ele>
        <time>2009-09-12T08:26:40Z</time>
      </trkpt>
      <trkpt lat="45.44696" lon="4.62748">
        <ele>834.0810546875</ele>
        <time>2009-09-12T08:26:46Z</time>
      </trkpt>
      <trkpt lat="45.44694" lon="4.62774">
        <ele>834.0810546875</ele>
        <time>2009-09-12T08:26:54Z</time>
      </trkpt>
      <trkpt lat="45.44694" lon="4.62807">
        <ele>834.56176757812</ele>
        <time>2009-09-12T08:27:02Z</time>
      </trkpt>
      <trkpt lat="45.44695" lon="4.62836">
        <ele>834.56176757812</ele>
        <time>2009-09-12T08:27:09Z</time>
      </trkpt>
      <trkpt lat="45.44696" lon="4.62868">
        <ele>834.0810546875</ele>
        <time>2009-09-12T08:27:17Z</time>
      </trkpt>
      <trkpt lat="45.44692" lon="4.62894">
        <ele>833.11962890625</ele>
        <time>2009-09-12T08:27:22Z</time>
      </trkpt>
      <trkpt lat="45.44691" lon="4.62907">
        <ele>832.63916015625</ele>
        <time>2009-09-12T08:27:24Z</time>
      </trkpt>
      <trkpt lat="45.44687" lon="4.62964">
        <ele>830.23583984375</ele>
        <time>2009-09-12T08:27:32Z</time>
      </trkpt>
      <trkpt lat="45.4469" lon="4.63015">
        <ele>829.2744140625</ele>
        <time>2009-09-12T08:27:39Z</time>
      </trkpt>
      <trkpt lat="45.4469" lon="4.63039">
        <ele>829.75512695312</ele>
        <time>2009-09-12T08:27:42Z</time>
      </trkpt>
      <trkpt lat="45.44692" lon="4.63062">
        <ele>828.31323242188</ele>
        <time>2009-09-12T08:27:45Z</time>
      </trkpt>
      <trkpt lat="45.44687" lon="4.63101">
        <ele>826.87109375</ele>
        <time>2009-09-12T08:27:50Z</time>
      </trkpt>
      <trkpt lat="45.44674" lon="4.63115">
        <ele>826.39038085938</ele>
        <time>2009-09-12T08:27:53Z</time>
      </trkpt>
      <trkpt lat="45.44657" lon="4.63125">
        <ele>824.94848632812</ele>
        <time>2009-09-12T08:27:56Z</time>
      </trkpt>
      <trkpt lat="45.44617" lon="4.63148">
        <ele>823.98706054688</ele>
        <time>2009-09-12T08:28:03Z</time>
      </trkpt>
      <trkpt lat="45.44597" lon="4.63164">
        <ele>823.50659179688</ele>
        <time>2009-09-12T08:28:07Z</time>
      </trkpt>
      <trkpt lat="45.44564" lon="4.63202">
        <ele>823.02587890625</ele>
        <time>2009-09-12T08:28:15Z</time>
      </trkpt>
      <trkpt lat="45.44554" lon="4.63215">
        <ele>823.50659179688</ele>
        <time>2009-09-12T08:28:18Z</time>
      </trkpt>
      <trkpt lat="45.4454" lon="4.63227">
        <ele>823.02587890625</ele>
        <time>2009-09-12T08:28:22Z</time>
      </trkpt>
      <trkpt lat="45.4453" lon="4.63238">
        <ele>822.54516601562</ele>
        <time>2009-09-12T08:28:26Z</time>
      </trkpt>
      <trkpt lat="45.44523" lon="4.63238">
        <ele>823.50659179688</ele>
        <time>2009-09-12T08:28:31Z</time>
      </trkpt>
      <trkpt lat="45.44519" lon="4.63237">
        <ele>822.54516601562</ele>
        <time>2009-09-12T08:28:34Z</time>
      </trkpt>
      <trkpt lat="45.44511" lon="4.63236">
        <ele>822.064453125</ele>
        <time>2009-09-12T08:28:40Z</time>
      </trkpt>
      <trkpt lat="45.44505" lon="4.63234">
        <ele>822.54516601562</ele>
        <time>2009-09-12T08:28:45Z</time>
      </trkpt>
      <trkpt lat="45.44493" lon="4.63234">
        <ele>823.50659179688</ele>
        <time>2009-09-12T08:28:53Z</time>
      </trkpt>
      <trkpt lat="45.4449" lon="4.63233">
        <ele>824.4677734375</ele>
        <time>2009-09-12T08:28:55Z</time>
      </trkpt>
      <trkpt lat="45.4448" lon="4.63231">
        <ele>825.42895507812</ele>
        <time>2009-09-12T08:29:01Z</time>
      </trkpt>
      <trkpt lat="45.44467" lon="4.63229">
        <ele>826.39038085938</ele>
        <time>2009-09-12T08:29:08Z</time>
      </trkpt>
      <trkpt lat="45.44453" lon="4.63228">
        <ele>827.83227539062</ele>
        <time>2009-09-12T08:29:15Z</time>
      </trkpt>
      <trkpt lat="45.44437" lon="4.63226">
        <ele>829.2744140625</ele>
        <time>2009-09-12T08:29:23Z</time>
      </trkpt>
      <trkpt lat="45.44421" lon="4.63224">
        <ele>830.71655273438</ele>
        <time>2009-09-12T08:29:31Z</time>
      </trkpt>
      <trkpt lat="45.44406" lon="4.63225">
        <ele>832.15844726562</ele>
        <time>2009-09-12T08:29:39Z</time>
      </trkpt>
      <trkpt lat="45.4439" lon="4.63228">
        <ele>834.0810546875</ele>
        <time>2009-09-12T08:29:48Z</time>
      </trkpt>
      <trkpt lat="45.44376" lon="4.63232">
        <ele>836.484375</ele>
        <time>2009-09-12T08:29:55Z</time>
      </trkpt>
      <trkpt lat="45.4436" lon="4.63238">
        <ele>838.40698242188</ele>
        <time>2009-09-12T08:30:03Z</time>
      </trkpt>
      <trkpt lat="45.44342" lon="4.63242">
        <ele>838.40698242188</ele>
        <time>2009-09-12T08:30:12Z</time>
      </trkpt>
      <trkpt lat="45.44322" lon="4.63242">
        <ele>839.84887695312</ele>
        <time>2009-09-12T08:30:20Z</time>
      </trkpt>
      <trkpt lat="45.44303" lon="4.63238">
        <ele>839.3681640625</ele>
        <time>2009-09-12T08:30:28Z</time>
      </trkpt>
      <trkpt lat="45.44289" lon="4.63241">
        <ele>839.3681640625</ele>
        <time>2009-09-12T08:30:34Z</time>
      </trkpt>
      <trkpt lat="45.44281" lon="4.63255">
        <ele>838.8876953125</ele>
        <time>2009-09-12T08:30:40Z</time>
      </trkpt>
      <trkpt lat="45.44276" lon="4.63267">
        <ele>838.40698242188</ele>
        <time>2009-09-12T08:30:43Z</time>
      </trkpt>
      <trkpt lat="45.44256" lon="4.6329">
        <ele>836.484375</ele>
        <time>2009-09-12T08:30:48Z</time>
      </trkpt>
      <trkpt lat="45.44246" lon="4.63301">
        <ele>836.00366210938</ele>
        <time>2009-09-12T08:30:50Z</time>
      </trkpt>
      <trkpt lat="45.44221" lon="4.63315">
        <ele>835.04248046875</ele>
        <time>2009-09-12T08:30:54Z</time>
      </trkpt>
      <trkpt lat="45.44201" lon="4.63321">
        <ele>836.484375</ele>
        <time>2009-09-12T08:30:59Z</time>
      </trkpt>
      <trkpt lat="45.44186" lon="4.63326">
        <ele>837.44555664062</ele>
        <time>2009-09-12T08:31:05Z</time>
      </trkpt>
      <trkpt lat="45.44176" lon="4.63331">
        <ele>838.40698242188</ele>
        <time>2009-09-12T08:31:10Z</time>
      </trkpt>
      <trkpt lat="45.44165" lon="4.63335">
        <ele>840.32958984375</ele>
        <time>2009-09-12T08:31:17Z</time>
      </trkpt>
      <trkpt lat="45.44154" lon="4.6334">
        <ele>841.771484375</ele>
        <time>2009-09-12T08:31:24Z</time>
      </trkpt>
      <trkpt lat="45.44144" lon="4.63346">
        <ele>844.17504882812</ele>
        <time>2009-09-12T08:31:32Z</time>
      </trkpt>
      <trkpt lat="45.44144" lon="4.63347">
        <ele>844.17504882812</ele>
        <time>2009-09-12T08:31:33Z</time>
      </trkpt>
      <trkpt lat="45.44134" lon="4.63359">
        <ele>845.61694335938</ele>
        <time>2009-09-12T08:31:42Z</time>
      </trkpt>
      <trkpt lat="45.44124" lon="4.63367">
        <ele>847.05883789062</ele>
        <time>2009-09-12T08:31:50Z</time>
      </trkpt>
      <trkpt lat="45.44117" lon="4.63372">
        <ele>848.50073242188</ele>
        <time>2009-09-12T08:31:56Z</time>
      </trkpt>
      <trkpt lat="45.44115" lon="4.63375">
        <ele>848.50073242188</ele>
        <time>2009-09-12T08:31:58Z</time>
      </trkpt>
      <trkpt lat="45.44104" lon="4.63384">
        <ele>849.94287109375</ele>
        <time>2009-09-12T08:32:07Z</time>
      </trkpt>
      <trkpt lat="45.44096" lon="4.6339">
        <ele>850.90405273438</ele>
        <time>2009-09-12T08:32:14Z</time>
      </trkpt>
      <trkpt lat="45.44088" lon="4.63397">
        <ele>853.30737304688</ele>
        <time>2009-09-12T08:32:21Z</time>
      </trkpt>
      <trkpt lat="45.44079" lon="4.63404">
        <ele>854.74926757812</ele>
        <time>2009-09-12T08:32:29Z</time>
      </trkpt>
      <trkpt lat="45.44069" lon="4.63413">
        <ele>855.71069335938</ele>
        <time>2009-09-12T08:32:38Z</time>
      </trkpt>
      <trkpt lat="45.44061" lon="4.63417">
        <ele>857.15258789062</ele>
        <time>2009-09-12T08:32:45Z</time>
      </trkpt>
      <trkpt lat="45.44054" lon="4.63423">
        <ele>859.0751953125</ele>
        <time>2009-09-12T08:32:51Z</time>
      </trkpt>
      <trkpt lat="45.44044" lon="4.63425">
        <ele>860.998046875</ele>
        <time>2009-09-12T08:32:58Z</time>
      </trkpt>
      <trkpt lat="45.44038" lon="4.63427">
        <ele>862.92065429688</ele>
        <time>2009-09-12T08:33:03Z</time>
      </trkpt>
      <trkpt lat="45.44031" lon="4.63435">
        <ele>864.84326171875</ele>
        <time>2009-09-12T08:33:11Z</time>
      </trkpt>
      <trkpt lat="45.44029" lon="4.63437">
        <ele>865.32397460938</ele>
        <time>2009-09-12T08:33:13Z</time>
      </trkpt>
      <trkpt lat="45.44028" lon="4.63441">
        <ele>865.32397460938</ele>
        <time>2009-09-12T08:33:16Z</time>
      </trkpt>
      <trkpt lat="45.44028" lon="4.63456">
        <ele>866.28515625</ele>
        <time>2009-09-12T08:33:25Z</time>
      </trkpt>
      <trkpt lat="45.44027" lon="4.63459">
        <ele>866.28515625</ele>
        <time>2009-09-12T08:33:27Z</time>
      </trkpt>
      <trkpt lat="45.44026" lon="4.63462">
        <ele>866.28515625</ele>
        <time>2009-09-12T08:33:29Z</time>
      </trkpt>
      <trkpt lat="45.44027" lon="4.63469">
        <ele>865.8046875</ele>
        <time>2009-09-12T08:33:34Z</time>
      </trkpt>
      <trkpt lat="45.44025" lon="4.63483">
        <ele>867.24658203125</ele>
        <time>2009-09-12T08:33:42Z</time>
      </trkpt>
      <trkpt lat="45.44024" lon="4.63488">
        <ele>866.76586914062</ele>
        <time>2009-09-12T08:33:45Z</time>
      </trkpt>
      <trkpt lat="45.44024" lon="4.63494">
        <ele>867.72705078125</ele>
        <time>2009-09-12T08:33:49Z</time>
      </trkpt>
      <trkpt lat="45.4402" lon="4.63506">
        <ele>867.72705078125</ele>
        <time>2009-09-12T08:33:57Z</time>
      </trkpt>
      <trkpt lat="45.44019" lon="4.63509">
        <ele>867.72705078125</ele>
        <time>2009-09-12T08:33:59Z</time>
      </trkpt>
      <trkpt lat="45.44014" lon="4.63525">
        <ele>868.20776367188</ele>
        <time>2009-09-12T08:34:08Z</time>
      </trkpt>
      <trkpt lat="45.44006" lon="4.63537">
        <ele>869.16918945312</ele>
        <time>2009-09-12T08:34:16Z</time>
      </trkpt>
      <trkpt lat="45.43997" lon="4.63551">
        <ele>870.13037109375</ele>
        <time>2009-09-12T08:34:24Z</time>
      </trkpt>
      <trkpt lat="45.43989" lon="4.63561">
        <ele>871.572265625</ele>
        <time>2009-09-12T08:34:30Z</time>
      </trkpt>
      <trkpt lat="45.43975" lon="4.63577">
        <ele>872.53369140625</ele>
        <time>2009-09-12T08:34:40Z</time>
      </trkpt>
      <trkpt lat="45.43961" lon="4.63589">
        <ele>873.4951171875</ele>
        <time>2009-09-12T08:34:50Z</time>
      </trkpt>
      <trkpt lat="45.43949" lon="4.636">
        <ele>873.9755859375</ele>
        <time>2009-09-12T08:34:59Z</time>
      </trkpt>
      <trkpt lat="45.43937" lon="4.63608">
        <ele>876.37915039062</ele>
        <time>2009-09-12T08:35:07Z</time>
      </trkpt>
      <trkpt lat="45.43924" lon="4.63617">
        <ele>876.85986328125</ele>
        <time>2009-09-12T08:35:15Z</time>
      </trkpt>
      <trkpt lat="45.43913" lon="4.63624">
        <ele>877.82104492188</ele>
        <time>2009-09-12T08:35:22Z</time>
      </trkpt>
      <trkpt lat="45.439" lon="4.63635">
        <ele>879.26293945312</ele>
        <time>2009-09-12T08:35:30Z</time>
      </trkpt>
      <trkpt lat="45.43883" lon="4.63647">
        <ele>880.705078125</ele>
        <time>2009-09-12T08:35:39Z</time>
      </trkpt>
      <trkpt lat="45.4386" lon="4.63652">
        <ele>881.18579101562</ele>
        <time>2009-09-12T08:35:49Z</time>
      </trkpt>
      <trkpt lat="45.43839" lon="4.63658">
        <ele>882.14697265625</ele>
        <time>2009-09-12T08:35:57Z</time>
      </trkpt>
      <trkpt lat="45.43819" lon="4.63661">
        <ele>880.705078125</ele>
        <time>2009-09-12T08:36:04Z</time>
      </trkpt>
      <trkpt lat="45.43808" lon="4.6366">
        <ele>880.705078125</ele>
        <time>2009-09-12T08:36:07Z</time>
      </trkpt>
      <trkpt lat="45.43786" lon="4.63652">
        <ele>879.74365234375</ele>
        <time>2009-09-12T08:36:12Z</time>
      </trkpt>
      <trkpt lat="45.43753" lon="4.63633">
        <ele>877.82104492188</ele>
        <time>2009-09-12T08:36:19Z</time>
      </trkpt>
      <trkpt lat="45.43748" lon="4.63631">
        <ele>877.82104492188</ele>
        <time>2009-09-12T08:36:20Z</time>
      </trkpt>
      <trkpt lat="45.43715" lon="4.63612">
        <ele>875.89819335938</ele>
        <time>2009-09-12T08:36:26Z</time>
      </trkpt>
      <trkpt lat="45.43683" lon="4.63595">
        <ele>874.45629882812</ele>
        <time>2009-09-12T08:36:31Z</time>
      </trkpt>
      <trkpt lat="45.43669" lon="4.63591">
        <ele>873.4951171875</ele>
        <time>2009-09-12T08:36:33Z</time>
      </trkpt>
      <trkpt lat="45.4363" lon="4.63582">
        <ele>871.572265625</ele>
        <time>2009-09-12T08:36:38Z</time>
      </trkpt>
      <trkpt lat="45.436" lon="4.63579">
        <ele>872.05297851562</ele>
        <time>2009-09-12T08:36:42Z</time>
      </trkpt>
      <trkpt lat="45.43577" lon="4.63585">
        <ele>872.05297851562</ele>
        <time>2009-09-12T08:36:46Z</time>
      </trkpt>
      <trkpt lat="45.43552" lon="4.63592">
        <ele>872.53369140625</ele>
        <time>2009-09-12T08:36:52Z</time>
      </trkpt>
      <trkpt lat="45.43541" lon="4.63601">
        <ele>873.01440429688</ele>
        <time>2009-09-12T08:36:56Z</time>
      </trkpt>
      <trkpt lat="45.43537" lon="4.63607">
        <ele>873.01440429688</ele>
        <time>2009-09-12T08:36:59Z</time>
      </trkpt>
      <trkpt lat="45.43528" lon="4.63608">
        <ele>873.4951171875</ele>
        <time>2009-09-12T08:37:03Z</time>
      </trkpt>
      <trkpt lat="45.43526" lon="4.63609">
        <ele>873.01440429688</ele>
        <time>2009-09-12T08:37:04Z</time>
      </trkpt>
      <trkpt lat="45.43507" lon="4.63623">
        <ele>873.9755859375</ele>
        <time>2009-09-12T08:37:11Z</time>
      </trkpt>
      <trkpt lat="45.43493" lon="4.63633">
        <ele>873.9755859375</ele>
        <time>2009-09-12T08:37:15Z</time>
      </trkpt>
      <trkpt lat="45.43467" lon="4.63649">
        <ele>874.45629882812</ele>
        <time>2009-09-12T08:37:21Z</time>
      </trkpt>
      <trkpt lat="45.43458" lon="4.63654">
        <ele>873.9755859375</ele>
        <time>2009-09-12T08:37:23Z</time>
      </trkpt>
      <trkpt lat="45.43451" lon="4.63661">
        <ele>873.9755859375</ele>
        <time>2009-09-12T08:37:25Z</time>
      </trkpt>
      <trkpt lat="45.43433" lon="4.63678">
        <ele>873.9755859375</ele>
        <time>2009-09-12T08:37:30Z</time>
      </trkpt>
      <trkpt lat="45.43426" lon="4.63685">
        <ele>873.9755859375</ele>
        <time>2009-09-12T08:37:32Z</time>
      </trkpt>
      <trkpt lat="45.43402" lon="4.63716">
        <ele>873.01440429688</ele>
        <time>2009-09-12T08:37:39Z</time>
      </trkpt>
      <trkpt lat="45.43389" lon="4.63745">
        <ele>872.05297851562</ele>
        <time>2009-09-12T08:37:44Z</time>
      </trkpt>
      <trkpt lat="45.4338" lon="4.63772">
        <ele>871.091796875</ele>
        <time>2009-09-12T08:37:48Z</time>
      </trkpt>
      <trkpt lat="45.43357" lon="4.63832">
        <ele>870.13037109375</ele>
        <time>2009-09-12T08:37:56Z</time>
      </trkpt>
      <trkpt lat="45.4334" lon="4.63877">
        <ele>870.13037109375</ele>
        <time>2009-09-12T08:38:02Z</time>
      </trkpt>
      <trkpt lat="45.43324" lon="4.63918">
        <ele>871.091796875</ele>
        <time>2009-09-12T08:38:08Z</time>
      </trkpt>
      <trkpt lat="45.43312" lon="4.63943">
        <ele>873.01440429688</ele>
        <time>2009-09-12T08:38:13Z</time>
      </trkpt>
      <trkpt lat="45.43297" lon="4.63972">
        <ele>874.45629882812</ele>
        <time>2009-09-12T08:38:19Z</time>
      </trkpt>
      <trkpt lat="45.43282" lon="4.64">
        <ele>875.41748046875</ele>
        <time>2009-09-12T08:38:25Z</time>
      </trkpt>
      <trkpt lat="45.43277" lon="4.6401">
        <ele>875.89819335938</ele>
        <time>2009-09-12T08:38:27Z</time>
      </trkpt>
      <trkpt lat="45.43253" lon="4.64039">
        <ele>877.34057617188</ele>
        <time>2009-09-12T08:38:35Z</time>
      </trkpt>
      <trkpt lat="45.43232" lon="4.64059">
        <ele>879.74365234375</ele>
        <time>2009-09-12T08:38:42Z</time>
      </trkpt>
      <trkpt lat="45.43215" lon="4.64073">
        <ele>880.705078125</ele>
        <time>2009-09-12T08:38:49Z</time>
      </trkpt>
      <trkpt lat="45.43203" lon="4.64075">
        <ele>882.62768554688</ele>
        <time>2009-09-12T08:38:53Z</time>
      </trkpt>
      <trkpt lat="45.43182" lon="4.64068">
        <ele>883.10815429688</ele>
        <time>2009-09-12T08:39:01Z</time>
      </trkpt>
      <trkpt lat="45.43164" lon="4.64068">
        <ele>884.06958007812</ele>
        <time>2009-09-12T08:39:08Z</time>
      </trkpt>
      <trkpt lat="45.43148" lon="4.6407">
        <ele>885.03100585938</ele>
        <time>2009-09-12T08:39:15Z</time>
      </trkpt>
      <trkpt lat="45.43132" lon="4.64068">
        <ele>885.51147460938</ele>
        <time>2009-09-12T08:39:22Z</time>
      </trkpt>
      <trkpt lat="45.43116" lon="4.64064">
        <ele>886.47290039062</ele>
        <time>2009-09-12T08:39:29Z</time>
      </trkpt>
      <trkpt lat="45.43111" lon="4.64062">
        <ele>886.95336914062</ele>
        <time>2009-09-12T08:39:32Z</time>
      </trkpt>
      <trkpt lat="45.43095" lon="4.64053">
        <ele>887.91479492188</ele>
        <time>2009-09-12T08:39:39Z</time>
      </trkpt>
      <trkpt lat="45.43077" lon="4.64045">
        <ele>889.35668945312</ele>
        <time>2009-09-12T08:39:46Z</time>
      </trkpt>
      <trkpt lat="45.43061" lon="4.64038">
        <ele>889.83740234375</ele>
        <time>2009-09-12T08:39:53Z</time>
      </trkpt>
      <trkpt lat="45.43039" lon="4.64032">
        <ele>891.76000976562</ele>
        <time>2009-09-12T08:40:01Z</time>
      </trkpt>
      <trkpt lat="45.43018" lon="4.64032">
        <ele>892.7216796875</ele>
        <time>2009-09-12T08:40:09Z</time>
      </trkpt>
      <trkpt lat="45.43003" lon="4.64028">
        <ele>893.2021484375</ele>
        <time>2009-09-12T08:40:15Z</time>
      </trkpt>
      <trkpt lat="45.42987" lon="4.64027">
        <ele>893.68286132812</ele>
        <time>2009-09-12T08:40:21Z</time>
      </trkpt>
      <trkpt lat="45.42968" lon="4.6403">
        <ele>894.16357421875</ele>
        <time>2009-09-12T08:40:29Z</time>
      </trkpt>
      <trkpt lat="45.4295" lon="4.64028">
        <ele>895.60546875</ele>
        <time>2009-09-12T08:40:36Z</time>
      </trkpt>
      <trkpt lat="45.42933" lon="4.64025">
        <ele>896.56689453125</ele>
        <time>2009-09-12T08:40:43Z</time>
      </trkpt>
      <trkpt lat="45.42913" lon="4.6402">
        <ele>897.52807617188</ele>
        <time>2009-09-12T08:40:51Z</time>
      </trkpt>
      <trkpt lat="45.42891" lon="4.64009">
        <ele>898.4892578125</ele>
        <time>2009-09-12T08:41:00Z</time>
      </trkpt>
      <trkpt lat="45.42876" lon="4.63992">
        <ele>899.45068359375</ele>
        <time>2009-09-12T08:41:07Z</time>
      </trkpt>
      <trkpt lat="45.42872" lon="4.63982">
        <ele>900.892578125</ele>
        <time>2009-09-12T08:41:10Z</time>
      </trkpt>
      <trkpt lat="45.42867" lon="4.63963">
        <ele>900.892578125</ele>
        <time>2009-09-12T08:41:16Z</time>
      </trkpt>
      <trkpt lat="45.42864" lon="4.63948">
        <ele>901.85400390625</ele>
        <time>2009-09-12T08:41:21Z</time>
      </trkpt>
      <trkpt lat="45.42857" lon="4.63923">
        <ele>903.2958984375</ele>
        <time>2009-09-12T08:41:29Z</time>
      </trkpt>
      <trkpt lat="45.4285" lon="4.639">
        <ele>903.77661132812</ele>
        <time>2009-09-12T08:41:36Z</time>
      </trkpt>
      <trkpt lat="45.42844" lon="4.63876">
        <ele>904.25732421875</ele>
        <time>2009-09-12T08:41:44Z</time>
      </trkpt>
      <trkpt lat="45.42842" lon="4.63859">
        <ele>905.21850585938</ele>
        <time>2009-09-12T08:41:49Z</time>
      </trkpt>
      <trkpt lat="45.42839" lon="4.63835">
        <ele>905.69921875</ele>
        <time>2009-09-12T08:41:56Z</time>
      </trkpt>
      <trkpt lat="45.42837" lon="4.63814">
        <ele>906.66040039062</ele>
        <time>2009-09-12T08:42:02Z</time>
      </trkpt>
      <trkpt lat="45.42836" lon="4.63796">
        <ele>907.62182617188</ele>
        <time>2009-09-12T08:42:07Z</time>
      </trkpt>
      <trkpt lat="45.42836" lon="4.6378">
        <ele>908.10278320312</ele>
        <time>2009-09-12T08:42:12Z</time>
      </trkpt>
      <trkpt lat="45.42834" lon="4.63757">
        <ele>908.58325195312</ele>
        <time>2009-09-12T08:42:18Z</time>
      </trkpt>
      <trkpt lat="45.42833" lon="4.63726">
        <ele>909.54467773438</ele>
        <time>2009-09-12T08:42:26Z</time>
      </trkpt>
      <trkpt lat="45.42833" lon="4.63684">
        <ele>910.505859375</ele>
        <time>2009-09-12T08:42:37Z</time>
      </trkpt>
      <trkpt lat="45.42833" lon="4.63655">
        <ele>910.98657226562</ele>
        <time>2009-09-12T08:42:44Z</time>
      </trkpt>
      <trkpt lat="45.42833" lon="4.63636">
        <ele>911.94799804688</ele>
        <time>2009-09-12T08:42:49Z</time>
      </trkpt>
      <trkpt lat="45.42833" lon="4.63599">
        <ele>911.94799804688</ele>
        <time>2009-09-12T08:42:58Z</time>
      </trkpt>
      <trkpt lat="45.42833" lon="4.63571">
        <ele>913.38989257812</ele>
        <time>2009-09-12T08:43:05Z</time>
      </trkpt>
      <trkpt lat="45.4283" lon="4.63547">
        <ele>914.35107421875</ele>
        <time>2009-09-12T08:43:11Z</time>
      </trkpt>
      <trkpt lat="45.42829" lon="4.63521">
        <ele>913.87036132812</ele>
        <time>2009-09-12T08:43:17Z</time>
      </trkpt>
      <trkpt lat="45.42826" lon="4.635">
        <ele>913.87036132812</ele>
        <time>2009-09-12T08:43:22Z</time>
      </trkpt>
      <trkpt lat="45.42823" lon="4.63472">
        <ele>914.83178710938</ele>
        <time>2009-09-12T08:43:28Z</time>
      </trkpt>
      <trkpt lat="45.42818" lon="4.6344">
        <ele>914.83178710938</ele>
        <time>2009-09-12T08:43:35Z</time>
      </trkpt>
      <trkpt lat="45.42815" lon="4.63418">
        <ele>915.79321289062</ele>
        <time>2009-09-12T08:43:40Z</time>
      </trkpt>
      <trkpt lat="45.42812" lon="4.63388">
        <ele>916.75439453125</ele>
        <time>2009-09-12T08:43:47Z</time>
      </trkpt>
      <trkpt lat="45.42805" lon="4.6335">
        <ele>917.23510742188</ele>
        <time>2009-09-12T08:43:55Z</time>
      </trkpt>
      <trkpt lat="45.42801" lon="4.63328">
        <ele>917.23510742188</ele>
        <time>2009-09-12T08:44:00Z</time>
      </trkpt>
      <trkpt lat="45.42796" lon="4.63297">
        <ele>918.1962890625</ele>
        <time>2009-09-12T08:44:07Z</time>
      </trkpt>
      <trkpt lat="45.42792" lon="4.63271">
        <ele>919.63842773438</ele>
        <time>2009-09-12T08:44:13Z</time>
      </trkpt>
      <trkpt lat="45.42787" lon="4.63242">
        <ele>919.63842773438</ele>
        <time>2009-09-12T08:44:20Z</time>
      </trkpt>
      <trkpt lat="45.42782" lon="4.6321">
        <ele>920.599609375</ele>
        <time>2009-09-12T08:44:28Z</time>
      </trkpt>
      <trkpt lat="45.42779" lon="4.63195">
        <ele>920.599609375</ele>
        <time>2009-09-12T08:44:32Z</time>
      </trkpt>
      <trkpt lat="45.42775" lon="4.6318">
        <ele>921.08032226562</ele>
        <time>2009-09-12T08:44:36Z</time>
      </trkpt>
      <trkpt lat="45.42773" lon="4.63148">
        <ele>922.04150390625</ele>
        <time>2009-09-12T08:44:43Z</time>
      </trkpt>
      <trkpt lat="45.4277" lon="4.63118">
        <ele>922.04150390625</ele>
        <time>2009-09-12T08:44:50Z</time>
      </trkpt>
      <trkpt lat="45.42766" lon="4.63097">
        <ele>923.0029296875</ele>
        <time>2009-09-12T08:44:55Z</time>
      </trkpt>
      <trkpt lat="45.42758" lon="4.63068">
        <ele>923.48364257812</ele>
        <time>2009-09-12T08:45:02Z</time>
      </trkpt>
      <trkpt lat="45.42747" lon="4.63035">
        <ele>923.96411132812</ele>
        <time>2009-09-12T08:45:11Z</time>
      </trkpt>
      <trkpt lat="45.42741" lon="4.63013">
        <ele>924.44506835938</ele>
        <time>2009-09-12T08:45:17Z</time>
      </trkpt>
      <trkpt lat="45.42734" lon="4.62982">
        <ele>923.96411132812</ele>
        <time>2009-09-12T08:45:24Z</time>
      </trkpt>
      <trkpt lat="45.42731" lon="4.6295">
        <ele>925.40625</ele>
        <time>2009-09-12T08:45:31Z</time>
      </trkpt>
      <trkpt lat="45.42728" lon="4.62925">
        <ele>927.3291015625</ele>
        <time>2009-09-12T08:45:37Z</time>
      </trkpt>
      <trkpt lat="45.42726" lon="4.62896">
        <ele>927.3291015625</ele>
        <time>2009-09-12T08:45:44Z</time>
      </trkpt>
      <trkpt lat="45.42727" lon="4.62862">
        <ele>928.29028320312</ele>
        <time>2009-09-12T08:45:52Z</time>
      </trkpt>
      <trkpt lat="45.42729" lon="4.62818">
        <ele>929.25146484375</ele>
        <time>2009-09-12T08:46:02Z</time>
      </trkpt>
      <trkpt lat="45.42735" lon="4.62778">
        <ele>930.212890625</ele>
        <time>2009-09-12T08:46:12Z</time>
      </trkpt>
      <trkpt lat="45.4274" lon="4.62755">
        <ele>929.73217773438</ele>
        <time>2009-09-12T08:46:18Z</time>
      </trkpt>
      <trkpt lat="45.42745" lon="4.62731">
        <ele>929.73217773438</ele>
        <time>2009-09-12T08:46:24Z</time>
      </trkpt>
      <trkpt lat="45.42753" lon="4.62693">
        <ele>931.17431640625</ele>
        <time>2009-09-12T08:46:34Z</time>
      </trkpt>
      <trkpt lat="45.42756" lon="4.62657">
        <ele>931.65478515625</ele>
        <time>2009-09-12T08:46:43Z</time>
      </trkpt>
      <trkpt lat="45.42752" lon="4.62628">
        <ele>932.13549804688</ele>
        <time>2009-09-12T08:46:50Z</time>
      </trkpt>
      <trkpt lat="45.42748" lon="4.62608">
        <ele>932.6162109375</ele>
        <time>2009-09-12T08:46:55Z</time>
      </trkpt>
      <trkpt lat="45.42742" lon="4.62574">
        <ele>933.57739257812</ele>
        <time>2009-09-12T08:47:03Z</time>
      </trkpt>
      <trkpt lat="45.42739" lon="4.6255">
        <ele>934.53881835938</ele>
        <time>2009-09-12T08:47:09Z</time>
      </trkpt>
      <trkpt lat="45.42733" lon="4.62529">
        <ele>935.01953125</ele>
        <time>2009-09-12T08:47:15Z</time>
      </trkpt>
      <trkpt lat="45.42729" lon="4.62508">
        <ele>935.01953125</ele>
        <time>2009-09-12T08:47:20Z</time>
      </trkpt>
      <trkpt lat="45.42724" lon="4.62477">
        <ele>935.5</ele>
        <time>2009-09-12T08:47:27Z</time>
      </trkpt>
      <trkpt lat="45.42721" lon="4.62447">
        <ele>935.98071289062</ele>
        <time>2009-09-12T08:47:34Z</time>
      </trkpt>
      <trkpt lat="45.42722" lon="4.62426">
        <ele>936.46142578125</ele>
        <time>2009-09-12T08:47:39Z</time>
      </trkpt>
      <trkpt lat="45.42724" lon="4.62407">
        <ele>936.94189453125</ele>
        <time>2009-09-12T08:47:43Z</time>
      </trkpt>
      <trkpt lat="45.42723" lon="4.62377">
        <ele>937.9033203125</ele>
        <time>2009-09-12T08:47:49Z</time>
      </trkpt>
      <trkpt lat="45.4272" lon="4.62344">
        <ele>938.86474609375</ele>
        <time>2009-09-12T08:47:57Z</time>
      </trkpt>
      <trkpt lat="45.4272" lon="4.62324">
        <ele>939.34521484375</ele>
        <time>2009-09-12T08:48:02Z</time>
      </trkpt>
      <trkpt lat="45.42719" lon="4.62302">
        <ele>940.30688476562</ele>
        <time>2009-09-12T08:48:08Z</time>
      </trkpt>
      <trkpt lat="45.42714" lon="4.62277">
        <ele>941.26806640625</ele>
        <time>2009-09-12T08:48:14Z</time>
      </trkpt>
      <trkpt lat="45.42713" lon="4.62246">
        <ele>940.78735351562</ele>
        <time>2009-09-12T08:48:21Z</time>
      </trkpt>
      <trkpt lat="45.42712" lon="4.62221">
        <ele>942.71020507812</ele>
        <time>2009-09-12T08:48:27Z</time>
      </trkpt>
      <trkpt lat="45.4271" lon="4.6219">
        <ele>943.19067382812</ele>
        <time>2009-09-12T08:48:34Z</time>
      </trkpt>
      <trkpt lat="45.42705" lon="4.62161">
        <ele>944.15209960938</ele>
        <time>2009-09-12T08:48:41Z</time>
      </trkpt>
      <trkpt lat="45.427" lon="4.62132">
        <ele>946.07470703125</ele>
        <time>2009-09-12T08:48:48Z</time>
      </trkpt>
      <trkpt lat="45.42695" lon="4.62109">
        <ele>946.07470703125</ele>
        <time>2009-09-12T08:48:54Z</time>
      </trkpt>
      <trkpt lat="45.42688" lon="4.62089">
        <ele>946.55541992188</ele>
        <time>2009-09-12T08:49:00Z</time>
      </trkpt>
      <trkpt lat="45.42679" lon="4.62064">
        <ele>947.03588867188</ele>
        <time>2009-09-12T08:49:06Z</time>
      </trkpt>
      <trkpt lat="45.42673" lon="4.62045">
        <ele>947.5166015625</ele>
        <time>2009-09-12T08:49:11Z</time>
      </trkpt>
      <trkpt lat="45.42668" lon="4.62031">
        <ele>947.5166015625</ele>
        <time>2009-09-12T08:49:16Z</time>
      </trkpt>
      <trkpt lat="45.42658" lon="4.62008">
        <ele>947.99731445312</ele>
        <time>2009-09-12T08:49:22Z</time>
      </trkpt>
      <trkpt lat="45.42648" lon="4.61987">
        <ele>948.47778320312</ele>
        <time>2009-09-12T08:49:27Z</time>
      </trkpt>
      <trkpt lat="45.42637" lon="4.61966">
        <ele>948.47778320312</ele>
        <time>2009-09-12T08:49:33Z</time>
      </trkpt>
      <trkpt lat="45.42627" lon="4.6195">
        <ele>948.95849609375</ele>
        <time>2009-09-12T08:49:38Z</time>
      </trkpt>
      <trkpt lat="45.42612" lon="4.61926">
        <ele>949.43920898438</ele>
        <time>2009-09-12T08:49:45Z</time>
      </trkpt>
      <trkpt lat="45.42601" lon="4.61911">
        <ele>950.40063476562</ele>
        <time>2009-09-12T08:49:50Z</time>
      </trkpt>
      <trkpt lat="45.42591" lon="4.61899">
        <ele>950.40063476562</ele>
        <time>2009-09-12T08:49:55Z</time>
      </trkpt>
      <trkpt lat="45.42572" lon="4.61879">
        <ele>951.36181640625</ele>
        <time>2009-09-12T08:50:03Z</time>
      </trkpt>
      <trkpt lat="45.42548" lon="4.61857">
        <ele>952.8037109375</ele>
        <time>2009-09-12T08:50:12Z</time>
      </trkpt>
      <trkpt lat="45.42532" lon="4.61841">
        <ele>952.8037109375</ele>
        <time>2009-09-12T08:50:18Z</time>
      </trkpt>
      <trkpt lat="45.42526" lon="4.6184">
        <ele>953.28442382812</ele>
        <time>2009-09-12T08:50:20Z</time>
      </trkpt>
      <trkpt lat="45.42519" lon="4.61831">
        <ele>953.28442382812</ele>
        <time>2009-09-12T08:50:25Z</time>
      </trkpt>
      <trkpt lat="45.42518" lon="4.61831">
        <ele>953.28442382812</ele>
        <time>2009-09-12T08:50:26Z</time>
      </trkpt>
      <trkpt lat="45.42514" lon="4.61831">
        <ele>952.8037109375</ele>
        <time>2009-09-12T08:50:31Z</time>
      </trkpt>
      <trkpt lat="45.42512" lon="4.6183">
        <ele>953.28442382812</ele>
        <time>2009-09-12T08:50:43Z</time>
      </trkpt>
      <trkpt lat="45.42509" lon="4.61829">
        <ele>952.8037109375</ele>
        <time>2009-09-12T08:51:03Z</time>
      </trkpt>
      <trkpt lat="45.42506" lon="4.61827">
        <ele>954.24584960938</ele>
        <time>2009-09-12T08:51:09Z</time>
      </trkpt>
      <trkpt lat="45.42498" lon="4.61821">
        <ele>953.28442382812</ele>
        <time>2009-09-12T08:51:15Z</time>
      </trkpt>
      <trkpt lat="45.42488" lon="4.61814">
        <ele>952.8037109375</ele>
        <time>2009-09-12T08:51:22Z</time>
      </trkpt>
      <trkpt lat="45.42485" lon="4.61808">
        <ele>953.76513671875</ele>
        <time>2009-09-12T08:51:26Z</time>
      </trkpt>
      <trkpt lat="45.42492" lon="4.61799">
        <ele>955.20703125</ele>
        <time>2009-09-12T08:51:32Z</time>
      </trkpt>
      <trkpt lat="45.42493" lon="4.61794">
        <ele>954.72631835938</ele>
        <time>2009-09-12T08:51:34Z</time>
      </trkpt>
      <trkpt lat="45.42499" lon="4.61778">
        <ele>956.16845703125</ele>
        <time>2009-09-12T08:51:40Z</time>
      </trkpt>
      <trkpt lat="45.42504" lon="4.61768">
        <ele>956.16845703125</ele>
        <time>2009-09-12T08:51:44Z</time>
      </trkpt>
      <trkpt lat="45.42502" lon="4.61756">
        <ele>957.1298828125</ele>
        <time>2009-09-12T08:51:49Z</time>
      </trkpt>
      <trkpt lat="45.42504" lon="4.61745">
        <ele>957.61059570312</ele>
        <time>2009-09-12T08:51:55Z</time>
      </trkpt>
      <trkpt lat="45.42511" lon="4.61741">
        <ele>957.61059570312</ele>
        <time>2009-09-12T08:52:00Z</time>
      </trkpt>
      <trkpt lat="45.4251" lon="4.6174">
        <ele>957.1298828125</ele>
        <time>2009-09-12T08:52:01Z</time>
      </trkpt>
      <trkpt lat="45.42507" lon="4.61727">
        <ele>956.64916992188</ele>
        <time>2009-09-12T08:52:08Z</time>
      </trkpt>
      <trkpt lat="45.42508" lon="4.61727">
        <ele>956.64916992188</ele>
        <time>2009-09-12T08:52:19Z</time>
      </trkpt>
      <trkpt lat="45.42509" lon="4.61727">
        <ele>956.64916992188</ele>
        <time>2009-09-12T08:52:42Z</time>
      </trkpt>
      <trkpt lat="45.42505" lon="4.61727">
        <ele>957.1298828125</ele>
        <time>2009-09-12T08:53:40Z</time>
      </trkpt>
      <trkpt lat="45.42506" lon="4.61729">
        <ele>956.64916992188</ele>
        <time>2009-09-12T08:54:04Z</time>
      </trkpt>
      <trkpt lat="45.42506" lon="4.61727">
        <ele>957.1298828125</ele>
        <time>2009-09-12T08:54:19Z</time>
      </trkpt>
      <trkpt lat="45.42499" lon="4.61728">
        <ele>957.1298828125</ele>
        <time>2009-09-12T08:54:26Z</time>
      </trkpt>
      <trkpt lat="45.42496" lon="4.61729">
        <ele>957.61059570312</ele>
        <time>2009-09-12T08:54:28Z</time>
      </trkpt>
      <trkpt lat="45.42488" lon="4.61726">
        <ele>958.09130859375</ele>
        <time>2009-09-12T08:54:33Z</time>
      </trkpt>
      <trkpt lat="45.42487" lon="4.61711">
        <ele>958.09130859375</ele>
        <time>2009-09-12T08:54:39Z</time>
      </trkpt>
      <trkpt lat="45.42488" lon="4.61701">
        <ele>957.61059570312</ele>
        <time>2009-09-12T08:54:41Z</time>
      </trkpt>
      <trkpt lat="45.42478" lon="4.61661">
        <ele>955.68774414062</ele>
        <time>2009-09-12T08:54:49Z</time>
      </trkpt>
      <trkpt lat="45.42466" lon="4.61636">
        <ele>955.68774414062</ele>
        <time>2009-09-12T08:54:55Z</time>
      </trkpt>
      <trkpt lat="45.42454" lon="4.61611">
        <ele>955.20703125</ele>
        <time>2009-09-12T08:55:00Z</time>
      </trkpt>
      <trkpt lat="45.42446" lon="4.6159">
        <ele>955.68774414062</ele>
        <time>2009-09-12T08:55:04Z</time>
      </trkpt>
      <trkpt lat="45.42443" lon="4.61583">
        <ele>955.20703125</ele>
        <time>2009-09-12T08:55:05Z</time>
      </trkpt>
      <trkpt lat="45.42437" lon="4.61564">
        <ele>954.72631835938</ele>
        <time>2009-09-12T08:55:08Z</time>
      </trkpt>
      <trkpt lat="45.42426" lon="4.6153">
        <ele>954.72631835938</ele>
        <time>2009-09-12T08:55:13Z</time>
      </trkpt>
      <trkpt lat="45.42424" lon="4.61523">
        <ele>954.72631835938</ele>
        <time>2009-09-12T08:55:14Z</time>
      </trkpt>
      <trkpt lat="45.42416" lon="4.61493">
        <ele>955.20703125</ele>
        <time>2009-09-12T08:55:18Z</time>
      </trkpt>
      <trkpt lat="45.4241" lon="4.61475">
        <ele>954.72631835938</ele>
        <time>2009-09-12T08:55:21Z</time>
      </trkpt>
      <trkpt lat="45.42405" lon="4.61453">
        <ele>955.20703125</ele>
        <time>2009-09-12T08:55:25Z</time>
      </trkpt>
      <trkpt lat="45.42397" lon="4.6142">
        <ele>955.20703125</ele>
        <time>2009-09-12T08:55:31Z</time>
      </trkpt>
      <trkpt lat="45.42387" lon="4.61386">
        <ele>953.76513671875</ele>
        <time>2009-09-12T08:55:36Z</time>
      </trkpt>
      <trkpt lat="45.42372" lon="4.61343">
        <ele>952.8037109375</ele>
        <time>2009-09-12T08:55:43Z</time>
      </trkpt>
      <trkpt lat="45.42357" lon="4.61311">
        <ele>952.32299804688</ele>
        <time>2009-09-12T08:55:48Z</time>
      </trkpt>
      <trkpt lat="45.42343" lon="4.61287">
        <ele>952.32299804688</ele>
        <time>2009-09-12T08:55:52Z</time>
      </trkpt>
      <trkpt lat="45.42323" lon="4.61248">
        <ele>951.36181640625</ele>
        <time>2009-09-12T08:55:58Z</time>
      </trkpt>
      <trkpt lat="45.42305" lon="4.61211">
        <ele>951.36181640625</ele>
        <time>2009-09-12T08:56:04Z</time>
      </trkpt>
      <trkpt lat="45.42289" lon="4.61183">
        <ele>951.36181640625</ele>
        <time>2009-09-12T08:56:09Z</time>
      </trkpt>
      <trkpt lat="45.42281" lon="4.61165">
        <ele>950.88110351562</ele>
        <time>2009-09-12T08:56:13Z</time>
      </trkpt>
      <trkpt lat="45.42273" lon="4.61142">
        <ele>950.40063476562</ele>
        <time>2009-09-12T08:56:17Z</time>
      </trkpt>
      <trkpt lat="45.42265" lon="4.61119">
        <ele>948.95849609375</ele>
        <time>2009-09-12T08:56:22Z</time>
      </trkpt>
      <trkpt lat="45.42259" lon="4.61103">
        <ele>949.919921875</ele>
        <time>2009-09-12T08:56:26Z</time>
      </trkpt>
      <trkpt lat="45.42258" lon="4.61099">
        <ele>950.40063476562</ele>
        <time>2009-09-12T08:56:27Z</time>
      </trkpt>
      <trkpt lat="45.42248" lon="4.6108">
        <ele>950.40063476562</ele>
        <time>2009-09-12T08:56:32Z</time>
      </trkpt>
      <trkpt lat="45.42235" lon="4.61057">
        <ele>951.36181640625</ele>
        <time>2009-09-12T08:56:37Z</time>
      </trkpt>
      <trkpt lat="45.4222" lon="4.61038">
        <ele>951.84252929688</ele>
        <time>2009-09-12T08:56:42Z</time>
      </trkpt>
      <trkpt lat="45.42208" lon="4.61022">
        <ele>951.36181640625</ele>
        <time>2009-09-12T08:56:46Z</time>
      </trkpt>
      <trkpt lat="45.42198" lon="4.60998">
        <ele>951.84252929688</ele>
        <time>2009-09-12T08:56:52Z</time>
      </trkpt>
      <trkpt lat="45.42198" lon="4.60974">
        <ele>952.32299804688</ele>
        <time>2009-09-12T08:56:57Z</time>
      </trkpt>
      <trkpt lat="45.42201" lon="4.60956">
        <ele>951.84252929688</ele>
        <time>2009-09-12T08:57:01Z</time>
      </trkpt>
      <trkpt lat="45.42204" lon="4.60939">
        <ele>953.28442382812</ele>
        <time>2009-09-12T08:57:06Z</time>
      </trkpt>
      <trkpt lat="45.42205" lon="4.60914">
        <ele>954.24584960938</ele>
        <time>2009-09-12T08:57:12Z</time>
      </trkpt>
      <trkpt lat="45.42207" lon="4.60895">
        <ele>954.72631835938</ele>
        <time>2009-09-12T08:57:17Z</time>
      </trkpt>
      <trkpt lat="45.42208" lon="4.60879">
        <ele>955.68774414062</ele>
        <time>2009-09-12T08:57:23Z</time>
      </trkpt>
      <trkpt lat="45.42211" lon="4.60862">
        <ele>956.64916992188</ele>
        <time>2009-09-12T08:57:29Z</time>
      </trkpt>
      <trkpt lat="45.42212" lon="4.60846">
        <ele>957.1298828125</ele>
        <time>2009-09-12T08:57:37Z</time>
      </trkpt>
      <trkpt lat="45.42216" lon="4.60835">
        <ele>958.09130859375</ele>
        <time>2009-09-12T08:57:44Z</time>
      </trkpt>
      <trkpt lat="45.42221" lon="4.60826">
        <ele>958.57177734375</ele>
        <time>2009-09-12T08:57:51Z</time>
      </trkpt>
      <trkpt lat="45.42227" lon="4.60814">
        <ele>960.97509765625</ele>
        <time>2009-09-12T08:57:57Z</time>
      </trkpt>
      <trkpt lat="45.42229" lon="4.60806">
        <ele>960.97509765625</ele>
        <time>2009-09-12T08:58:00Z</time>
      </trkpt>
      <trkpt lat="45.42236" lon="4.6079">
        <ele>962.4169921875</ele>
        <time>2009-09-12T08:58:07Z</time>
      </trkpt>
      <trkpt lat="45.42236" lon="4.60788">
        <ele>961.9365234375</ele>
        <time>2009-09-12T08:58:08Z</time>
      </trkpt>
      <trkpt lat="45.42239" lon="4.60779">
        <ele>963.37841796875</ele>
        <time>2009-09-12T08:58:12Z</time>
      </trkpt>
      <trkpt lat="45.42241" lon="4.60775">
        <ele>964.33959960938</ele>
        <time>2009-09-12T08:58:14Z</time>
      </trkpt>
      <trkpt lat="45.42245" lon="4.60763">
        <ele>964.8203125</ele>
        <time>2009-09-12T08:58:20Z</time>
      </trkpt>
      <trkpt lat="45.42255" lon="4.60749">
        <ele>966.26220703125</ele>
        <time>2009-09-12T08:58:26Z</time>
      </trkpt>
      <trkpt lat="45.42264" lon="4.60734">
        <ele>968.66552734375</ele>
        <time>2009-09-12T08:58:32Z</time>
      </trkpt>
      <trkpt lat="45.42269" lon="4.60727">
        <ele>969.626953125</ele>
        <time>2009-09-12T08:58:36Z</time>
      </trkpt>
      <trkpt lat="45.42278" lon="4.60708">
        <ele>971.54931640625</ele>
        <time>2009-09-12T08:58:44Z</time>
      </trkpt>
      <trkpt lat="45.42279" lon="4.60705">
        <ele>972.0302734375</ele>
        <time>2009-09-12T08:58:45Z</time>
      </trkpt>
      <trkpt lat="45.4228" lon="4.60691">
        <ele>972.51098632812</ele>
        <time>2009-09-12T08:58:53Z</time>
      </trkpt>
      <trkpt lat="45.42284" lon="4.60677">
        <ele>972.51098632812</ele>
        <time>2009-09-12T08:58:59Z</time>
      </trkpt>
      <trkpt lat="45.42288" lon="4.60672">
        <ele>970.58813476562</ele>
        <time>2009-09-12T08:59:01Z</time>
      </trkpt>
      <trkpt lat="45.42302" lon="4.60655">
        <ele>967.7041015625</ele>
        <time>2009-09-12T08:59:06Z</time>
      </trkpt>
      <trkpt lat="45.4231" lon="4.60641">
        <ele>964.8203125</ele>
        <time>2009-09-12T08:59:10Z</time>
      </trkpt>
      <trkpt lat="45.4232" lon="4.60616">
        <ele>960.97509765625</ele>
        <time>2009-09-12T08:59:15Z</time>
      </trkpt>
      <trkpt lat="45.42323" lon="4.60611">
        <ele>960.97509765625</ele>
        <time>2009-09-12T08:59:16Z</time>
      </trkpt>
      <trkpt lat="45.42325" lon="4.60608">
        <ele>960.49438476562</ele>
        <time>2009-09-12T08:59:17Z</time>
      </trkpt>
      <trkpt lat="45.42333" lon="4.60585">
        <ele>956.16845703125</ele>
        <time>2009-09-12T08:59:22Z</time>
      </trkpt>
      <trkpt lat="45.42337" lon="4.60576">
        <ele>954.72631835938</ele>
        <time>2009-09-12T08:59:24Z</time>
      </trkpt>
      <trkpt lat="45.42347" lon="4.60546">
        <ele>950.88110351562</ele>
        <time>2009-09-12T08:59:29Z</time>
      </trkpt>
      <trkpt lat="45.42351" lon="4.60533">
        <ele>947.5166015625</ele>
        <time>2009-09-12T08:59:31Z</time>
      </trkpt>
      <trkpt lat="45.42355" lon="4.60502">
        <ele>944.15209960938</ele>
        <time>2009-09-12T08:59:36Z</time>
      </trkpt>
      <trkpt lat="45.42356" lon="4.60486">
        <ele>941.74877929688</ele>
        <time>2009-09-12T08:59:39Z</time>
      </trkpt>
      <trkpt lat="45.42359" lon="4.6047">
        <ele>939.82592773438</ele>
        <time>2009-09-12T08:59:42Z</time>
      </trkpt>
      <trkpt lat="45.42363" lon="4.60454">
        <ele>936.46142578125</ele>
        <time>2009-09-12T08:59:46Z</time>
      </trkpt>
      <trkpt lat="45.42368" lon="4.6043">
        <ele>933.0966796875</ele>
        <time>2009-09-12T08:59:51Z</time>
      </trkpt>
      <trkpt lat="45.42371" lon="4.60418">
        <ele>931.17431640625</ele>
        <time>2009-09-12T08:59:54Z</time>
      </trkpt>
      <trkpt lat="45.42376" lon="4.60404">
        <ele>927.8095703125</ele>
        <time>2009-09-12T08:59:57Z</time>
      </trkpt>
      <trkpt lat="45.42377" lon="4.60391">
        <ele>926.36767578125</ele>
        <time>2009-09-12T09:00:01Z</time>
      </trkpt>
      <trkpt lat="45.42382" lon="4.6037">
        <ele>921.56079101562</ele>
        <time>2009-09-12T09:00:07Z</time>
      </trkpt>
      <trkpt lat="45.42387" lon="4.60354">
        <ele>918.1962890625</ele>
        <time>2009-09-12T09:00:11Z</time>
      </trkpt>
      <trkpt lat="45.42391" lon="4.6033">
        <ele>915.79321289062</ele>
        <time>2009-09-12T09:00:16Z</time>
      </trkpt>
      <trkpt lat="45.42391" lon="4.60325">
        <ele>915.3125</ele>
        <time>2009-09-12T09:00:17Z</time>
      </trkpt>
      <trkpt lat="45.42393" lon="4.60309">
        <ele>911.94799804688</ele>
        <time>2009-09-12T09:00:21Z</time>
      </trkpt>
      <trkpt lat="45.42393" lon="4.60303">
        <ele>910.98657226562</ele>
        <time>2009-09-12T09:00:22Z</time>
      </trkpt>
      <trkpt lat="45.42395" lon="4.60265">
        <ele>906.1796875</ele>
        <time>2009-09-12T09:00:27Z</time>
      </trkpt>
      <trkpt lat="45.42393" lon="4.6025">
        <ele>905.21850585938</ele>
        <time>2009-09-12T09:00:29Z</time>
      </trkpt>
      <trkpt lat="45.42393" lon="4.6023">
        <ele>902.81518554688</ele>
        <time>2009-09-12T09:00:32Z</time>
      </trkpt>
      <trkpt lat="45.42395" lon="4.60213">
        <ele>900.892578125</ele>
        <time>2009-09-12T09:00:35Z</time>
      </trkpt>
      <trkpt lat="45.42402" lon="4.60183">
        <ele>897.04736328125</ele>
        <time>2009-09-12T09:00:40Z</time>
      </trkpt>
      <trkpt lat="45.42403" lon="4.60169">
        <ele>894.64404296875</ele>
        <time>2009-09-12T09:00:43Z</time>
      </trkpt>
      <trkpt lat="45.424" lon="4.60158">
        <ele>894.16357421875</ele>
        <time>2009-09-12T09:00:45Z</time>
      </trkpt>
      <trkpt lat="45.42394" lon="4.6015">
        <ele>894.64404296875</ele>
        <time>2009-09-12T09:00:47Z</time>
      </trkpt>
      <trkpt lat="45.42385" lon="4.60138">
        <ele>895.12475585938</ele>
        <time>2009-09-12T09:00:50Z</time>
      </trkpt>
      <trkpt lat="45.42366" lon="4.60096">
        <ele>896.08618164062</ele>
        <time>2009-09-12T09:00:57Z</time>
      </trkpt>
      <trkpt lat="45.42353" lon="4.60063">
        <ele>897.04736328125</ele>
        <time>2009-09-12T09:01:01Z</time>
      </trkpt>
      <trkpt lat="45.42321" lon="4.60007">
        <ele>898.96997070312</ele>
        <time>2009-09-12T09:01:08Z</time>
      </trkpt>
      <trkpt lat="45.42298" lon="4.59964">
        <ele>899.93139648438</ele>
        <time>2009-09-12T09:01:14Z</time>
      </trkpt>
      <trkpt lat="45.42277" lon="4.59927">
        <ele>900.412109375</ele>
        <time>2009-09-12T09:01:21Z</time>
      </trkpt>
      <trkpt lat="45.42265" lon="4.59905">
        <ele>900.412109375</ele>
        <time>2009-09-12T09:01:26Z</time>
      </trkpt>
      <trkpt lat="45.42268" lon="4.59891">
        <ele>899.45068359375</ele>
        <time>2009-09-12T09:01:29Z</time>
      </trkpt>
      <trkpt lat="45.42265" lon="4.59876">
        <ele>897.52807617188</ele>
        <time>2009-09-12T09:01:32Z</time>
      </trkpt>
      <trkpt lat="45.42247" lon="4.59853">
        <ele>898.96997070312</ele>
        <time>2009-09-12T09:01:38Z</time>
      </trkpt>
      <trkpt lat="45.42244" lon="4.59852">
        <ele>898.96997070312</ele>
        <time>2009-09-12T09:01:39Z</time>
      </trkpt>
      <trkpt lat="45.42229" lon="4.59841">
        <ele>900.892578125</ele>
        <time>2009-09-12T09:01:45Z</time>
      </trkpt>
      <trkpt lat="45.42225" lon="4.59827">
        <ele>900.892578125</ele>
        <time>2009-09-12T09:01:49Z</time>
      </trkpt>
      <trkpt lat="45.42223" lon="4.59814">
        <ele>898.96997070312</ele>
        <time>2009-09-12T09:01:54Z</time>
      </trkpt>
      <trkpt lat="45.42223" lon="4.59815">
        <ele>898.96997070312</ele>
        <time>2009-09-12T09:02:05Z</time>
      </trkpt>
      <trkpt lat="45.42225" lon="4.59808">
        <ele>898.0087890625</ele>
        <time>2009-09-12T09:03:25Z</time>
      </trkpt>
      <trkpt lat="45.42225" lon="4.59804">
        <ele>897.52807617188</ele>
        <time>2009-09-12T09:03:26Z</time>
      </trkpt>
      <trkpt lat="45.42225" lon="4.59772">
        <ele>893.2021484375</ele>
        <time>2009-09-12T09:03:31Z</time>
      </trkpt>
      <trkpt lat="45.42225" lon="4.59734">
        <ele>889.83740234375</ele>
        <time>2009-09-12T09:03:35Z</time>
      </trkpt>
      <trkpt lat="45.42224" lon="4.59717">
        <ele>888.3955078125</ele>
        <time>2009-09-12T09:03:37Z</time>
      </trkpt>
      <trkpt lat="45.42222" lon="4.59701">
        <ele>885.9921875</ele>
        <time>2009-09-12T09:03:39Z</time>
      </trkpt>
      <trkpt lat="45.42217" lon="4.59679">
        <ele>883.10815429688</ele>
        <time>2009-09-12T09:03:42Z</time>
      </trkpt>
      <trkpt lat="45.42207" lon="4.59654">
        <ele>879.74365234375</ele>
        <time>2009-09-12T09:03:46Z</time>
      </trkpt>
      <trkpt lat="45.42205" lon="4.59648">
        <ele>878.78247070312</ele>
        <time>2009-09-12T09:03:47Z</time>
      </trkpt>
      <trkpt lat="45.42194" lon="4.59617">
        <ele>874.93701171875</ele>
        <time>2009-09-12T09:03:52Z</time>
      </trkpt>
      <trkpt lat="45.42189" lon="4.596">
        <ele>871.091796875</ele>
        <time>2009-09-12T09:03:55Z</time>
      </trkpt>
      <trkpt lat="45.42183" lon="4.59578">
        <ele>867.72705078125</ele>
        <time>2009-09-12T09:03:59Z</time>
      </trkpt>
      <trkpt lat="45.42182" lon="4.59561">
        <ele>864.36254882812</ele>
        <time>2009-09-12T09:04:02Z</time>
      </trkpt>
      <trkpt lat="45.42181" lon="4.59553">
        <ele>863.4013671875</ele>
        <time>2009-09-12T09:04:03Z</time>
      </trkpt>
      <trkpt lat="45.42178" lon="4.59539">
        <ele>862.43994140625</ele>
        <time>2009-09-12T09:04:05Z</time>
      </trkpt>
      <trkpt lat="45.42165" lon="4.59522">
        <ele>860.03662109375</ele>
        <time>2009-09-12T09:04:09Z</time>
      </trkpt>
      <trkpt lat="45.42159" lon="4.59512">
        <ele>858.59448242188</ele>
        <time>2009-09-12T09:04:11Z</time>
      </trkpt>
      <trkpt lat="45.42152" lon="4.595">
        <ele>857.15258789062</ele>
        <time>2009-09-12T09:04:13Z</time>
      </trkpt>
      <trkpt lat="45.42127" lon="4.59484">
        <ele>855.71069335938</ele>
        <time>2009-09-12T09:04:17Z</time>
      </trkpt>
      <trkpt lat="45.42118" lon="4.59475">
        <ele>854.74926757812</ele>
        <time>2009-09-12T09:04:20Z</time>
      </trkpt>
      <trkpt lat="45.42123" lon="4.59473">
        <ele>853.7880859375</ele>
        <time>2009-09-12T09:04:22Z</time>
      </trkpt>
      <trkpt lat="45.42129" lon="4.59475">
        <ele>852.82666015625</ele>
        <time>2009-09-12T09:04:24Z</time>
      </trkpt>
      <trkpt lat="45.42133" lon="4.59472">
        <ele>851.384765625</ele>
        <time>2009-09-12T09:04:26Z</time>
      </trkpt>
      <trkpt lat="45.42139" lon="4.59458">
        <ele>850.42358398438</ele>
        <time>2009-09-12T09:04:29Z</time>
      </trkpt>
      <trkpt lat="45.42149" lon="4.59448">
        <ele>848.50073242188</ele>
        <time>2009-09-12T09:04:32Z</time>
      </trkpt>
      <trkpt lat="45.42157" lon="4.5945">
        <ele>848.02026367188</ele>
        <time>2009-09-12T09:04:34Z</time>
      </trkpt>
      <trkpt lat="45.42179" lon="4.59461">
        <ele>846.09765625</ele>
        <time>2009-09-12T09:04:40Z</time>
      </trkpt>
      <trkpt lat="45.42179" lon="4.59461">
        <ele>846.09765625</ele>
        <time>2009-09-12T09:04:43Z</time>
      </trkpt>
      <trkpt lat="45.42188" lon="4.5946">
        <ele>844.17504882812</ele>
        <time>2009-09-12T09:04:47Z</time>
      </trkpt>
      <trkpt lat="45.42197" lon="4.59459">
        <ele>842.25219726562</ele>
        <time>2009-09-12T09:04:49Z</time>
      </trkpt>
      <trkpt lat="45.42205" lon="4.59456">
        <ele>840.32958984375</ele>
        <time>2009-09-12T09:04:52Z</time>
      </trkpt>
      <trkpt lat="45.42222" lon="4.59453">
        <ele>836.96484375</ele>
        <time>2009-09-12T09:04:57Z</time>
      </trkpt>
      <trkpt lat="45.42239" lon="4.59449">
        <ele>833.60034179688</ele>
        <time>2009-09-12T09:05:01Z</time>
      </trkpt>
      <trkpt lat="45.42246" lon="4.59448">
        <ele>831.197265625</ele>
        <time>2009-09-12T09:05:03Z</time>
      </trkpt>
      <trkpt lat="45.42268" lon="4.5945">
        <ele>826.39038085938</ele>
        <time>2009-09-12T09:05:07Z</time>
      </trkpt>
      <trkpt lat="45.42273" lon="4.59451">
        <ele>825.90966796875</ele>
        <time>2009-09-12T09:05:08Z</time>
      </trkpt>
      <trkpt lat="45.42301" lon="4.59445">
        <ele>821.10327148438</ele>
        <time>2009-09-12T09:05:13Z</time>
      </trkpt>
      <trkpt lat="45.42329" lon="4.59447">
        <ele>816.77734375</ele>
        <time>2009-09-12T09:05:17Z</time>
      </trkpt>
      <trkpt lat="45.42356" lon="4.59452">
        <ele>814.3740234375</ele>
        <time>2009-09-12T09:05:21Z</time>
      </trkpt>
      <trkpt lat="45.42381" lon="4.59451">
        <ele>810.52856445312</ele>
        <time>2009-09-12T09:05:25Z</time>
      </trkpt>
      <trkpt lat="45.42402" lon="4.59449">
        <ele>806.20263671875</ele>
        <time>2009-09-12T09:05:28Z</time>
      </trkpt>
      <trkpt lat="45.42413" lon="4.59449">
        <ele>804.7607421875</ele>
        <time>2009-09-12T09:05:30Z</time>
      </trkpt>
      <trkpt lat="45.42437" lon="4.59463">
        <ele>799.4736328125</ele>
        <time>2009-09-12T09:05:35Z</time>
      </trkpt>
      <trkpt lat="45.42455" lon="4.59475">
        <ele>796.10913085938</ele>
        <time>2009-09-12T09:05:39Z</time>
      </trkpt>
      <trkpt lat="45.4246" lon="4.59478">
        <ele>795.1474609375</ele>
        <time>2009-09-12T09:05:40Z</time>
      </trkpt>
      <trkpt lat="45.42478" lon="4.59493">
        <ele>791.78295898438</ele>
        <time>2009-09-12T09:05:44Z</time>
      </trkpt>
      <trkpt lat="45.42485" lon="4.59502">
        <ele>789.37963867188</ele>
        <time>2009-09-12T09:05:46Z</time>
      </trkpt>
      <trkpt lat="45.4249" lon="4.59513">
        <ele>787.93774414062</ele>
        <time>2009-09-12T09:05:48Z</time>
      </trkpt>
      <trkpt lat="45.42496" lon="4.59523">
        <ele>786.49584960938</ele>
        <time>2009-09-12T09:05:50Z</time>
      </trkpt>
      <trkpt lat="45.42512" lon="4.59535">
        <ele>783.13110351562</ele>
        <time>2009-09-12T09:05:54Z</time>
      </trkpt>
      <trkpt lat="45.42526" lon="4.59546">
        <ele>778.32446289062</ele>
        <time>2009-09-12T09:05:58Z</time>
      </trkpt>
      <trkpt lat="45.42539" lon="4.59555">
        <ele>774.9599609375</ele>
        <time>2009-09-12T09:06:01Z</time>
      </trkpt>
      <trkpt lat="45.42555" lon="4.59564">
        <ele>771.11474609375</ele>
        <time>2009-09-12T09:06:04Z</time>
      </trkpt>
      <trkpt lat="45.42569" lon="4.59572">
        <ele>768.71142578125</ele>
        <time>2009-09-12T09:06:07Z</time>
      </trkpt>
      <trkpt lat="45.42584" lon="4.59583">
        <ele>766.78881835938</ele>
        <time>2009-09-12T09:06:10Z</time>
      </trkpt>
      <trkpt lat="45.42604" lon="4.59593">
        <ele>762.46264648438</ele>
        <time>2009-09-12T09:06:14Z</time>
      </trkpt>
      <trkpt lat="45.42616" lon="4.59598">
        <ele>759.09814453125</ele>
        <time>2009-09-12T09:06:17Z</time>
      </trkpt>
      <trkpt lat="45.42621" lon="4.596">
        <ele>758.13696289062</ele>
        <time>2009-09-12T09:06:19Z</time>
      </trkpt>
      <trkpt lat="45.42623" lon="4.59601">
        <ele>757.65625</ele>
        <time>2009-09-12T09:06:20Z</time>
      </trkpt>
      <trkpt lat="45.4263" lon="4.59628">
        <ele>751.88842773438</ele>
        <time>2009-09-12T09:06:25Z</time>
      </trkpt>
      <trkpt lat="45.42632" lon="4.59643">
        <ele>749.9658203125</ele>
        <time>2009-09-12T09:06:27Z</time>
      </trkpt>
      <trkpt lat="45.42637" lon="4.59661">
        <ele>748.04321289062</ele>
        <time>2009-09-12T09:06:29Z</time>
      </trkpt>
      <trkpt lat="45.4265" lon="4.59712">
        <ele>746.12036132812</ele>
        <time>2009-09-12T09:06:34Z</time>
      </trkpt>
      <trkpt lat="45.42654" lon="4.59719">
        <ele>746.12036132812</ele>
        <time>2009-09-12T09:06:35Z</time>
      </trkpt>
      <trkpt lat="45.42664" lon="4.59733">
        <ele>744.19775390625</ele>
        <time>2009-09-12T09:06:37Z</time>
      </trkpt>
      <trkpt lat="45.42674" lon="4.59748">
        <ele>744.19775390625</ele>
        <time>2009-09-12T09:06:39Z</time>
      </trkpt>
      <trkpt lat="45.42689" lon="4.59763">
        <ele>740.3525390625</ele>
        <time>2009-09-12T09:06:42Z</time>
      </trkpt>
      <trkpt lat="45.42693" lon="4.59766">
        <ele>738.91064453125</ele>
        <time>2009-09-12T09:06:43Z</time>
      </trkpt>
      <trkpt lat="45.42701" lon="4.59774">
        <ele>736.50732421875</ele>
        <time>2009-09-12T09:06:45Z</time>
      </trkpt>
      <trkpt lat="45.42714" lon="4.598">
        <ele>731.70043945312</ele>
        <time>2009-09-12T09:06:49Z</time>
      </trkpt>
      <trkpt lat="45.42717" lon="4.59809">
        <ele>731.70043945312</ele>
        <time>2009-09-12T09:06:50Z</time>
      </trkpt>
      <trkpt lat="45.42733" lon="4.59843">
        <ele>728.81665039062</ele>
        <time>2009-09-12T09:06:54Z</time>
      </trkpt>
      <trkpt lat="45.42747" lon="4.59882">
        <ele>727.85522460938</ele>
        <time>2009-09-12T09:06:58Z</time>
      </trkpt>
      <trkpt lat="45.42759" lon="4.59913">
        <ele>727.37475585938</ele>
        <time>2009-09-12T09:07:01Z</time>
      </trkpt>
      <trkpt lat="45.42781" lon="4.5996">
        <ele>724.97143554688</ele>
        <time>2009-09-12T09:07:06Z</time>
      </trkpt>
      <trkpt lat="45.42788" lon="4.59973">
        <ele>723.52954101562</ele>
        <time>2009-09-12T09:07:08Z</time>
      </trkpt>
      <trkpt lat="45.42806" lon="4.59993">
        <ele>719.68432617188</ele>
        <time>2009-09-12T09:07:12Z</time>
      </trkpt>
      <trkpt lat="45.42822" lon="4.60006">
        <ele>715.8388671875</ele>
        <time>2009-09-12T09:07:15Z</time>
      </trkpt>
      <trkpt lat="45.42842" lon="4.60016">
        <ele>715.35815429688</ele>
        <time>2009-09-12T09:07:18Z</time>
      </trkpt>
      <trkpt lat="45.42857" lon="4.60007">
        <ele>716.31958007812</ele>
        <time>2009-09-12T09:07:22Z</time>
      </trkpt>
      <trkpt lat="45.42861" lon="4.59994">
        <ele>717.28100585938</ele>
        <time>2009-09-12T09:07:26Z</time>
      </trkpt>
      <trkpt lat="45.42869" lon="4.59968">
        <ele>720.16479492188</ele>
        <time>2009-09-12T09:07:35Z</time>
      </trkpt>
      <trkpt lat="45.42874" lon="4.59947">
        <ele>720.6455078125</ele>
        <time>2009-09-12T09:07:43Z</time>
      </trkpt>
      <trkpt lat="45.42877" lon="4.59926">
        <ele>722.08740234375</ele>
        <time>2009-09-12T09:07:51Z</time>
      </trkpt>
      <trkpt lat="45.42879" lon="4.59906">
        <ele>724.01000976562</ele>
        <time>2009-09-12T09:07:58Z</time>
      </trkpt>
      <trkpt lat="45.42883" lon="4.59883">
        <ele>724.97143554688</ele>
        <time>2009-09-12T09:08:05Z</time>
      </trkpt>
      <trkpt lat="45.42885" lon="4.59854">
        <ele>726.89404296875</ele>
        <time>2009-09-12T09:08:13Z</time>
      </trkpt>
      <trkpt lat="45.42885" lon="4.59836">
        <ele>727.85522460938</ele>
        <time>2009-09-12T09:08:19Z</time>
      </trkpt>
      <trkpt lat="45.42885" lon="4.59832">
        <ele>727.85522460938</ele>
        <time>2009-09-12T09:08:22Z</time>
      </trkpt>
      <trkpt lat="45.42887" lon="4.59826">
        <ele>727.37475585938</ele>
        <time>2009-09-12T09:08:29Z</time>
      </trkpt>
      <trkpt lat="45.42888" lon="4.59825">
        <ele>727.37475585938</ele>
        <time>2009-09-12T09:08:45Z</time>
      </trkpt>
      <trkpt lat="45.42889" lon="4.59808">
        <ele>726.89404296875</ele>
        <time>2009-09-12T09:08:49Z</time>
      </trkpt>
      <trkpt lat="45.42891" lon="4.59771">
        <ele>725.9326171875</ele>
        <time>2009-09-12T09:08:55Z</time>
      </trkpt>
      <trkpt lat="45.42892" lon="4.59738">
        <ele>725.9326171875</ele>
        <time>2009-09-12T09:09:01Z</time>
      </trkpt>
      <trkpt lat="45.42896" lon="4.59703">
        <ele>724.49072265625</ele>
        <time>2009-09-12T09:09:08Z</time>
      </trkpt>
      <trkpt lat="45.42907" lon="4.59649">
        <ele>724.01000976562</ele>
        <time>2009-09-12T09:09:17Z</time>
      </trkpt>
      <trkpt lat="45.42916" lon="4.59594">
        <ele>723.52954101562</ele>
        <time>2009-09-12T09:09:26Z</time>
      </trkpt>
      <trkpt lat="45.42924" lon="4.59535">
        <ele>723.52954101562</ele>
        <time>2009-09-12T09:09:36Z</time>
      </trkpt>
      <trkpt lat="45.42929" lon="4.59484">
        <ele>723.048828125</ele>
        <time>2009-09-12T09:09:44Z</time>
      </trkpt>
      <trkpt lat="45.4293" lon="4.59452">
        <ele>723.048828125</ele>
        <time>2009-09-12T09:09:49Z</time>
      </trkpt>
      <trkpt lat="45.42935" lon="4.59396">
        <ele>722.56811523438</ele>
        <time>2009-09-12T09:09:57Z</time>
      </trkpt>
      <trkpt lat="45.42938" lon="4.59338">
        <ele>722.56811523438</ele>
        <time>2009-09-12T09:10:05Z</time>
      </trkpt>
      <trkpt lat="45.42931" lon="4.59311">
        <ele>723.048828125</ele>
        <time>2009-09-12T09:10:09Z</time>
      </trkpt>
      <trkpt lat="45.42918" lon="4.59271">
        <ele>724.49072265625</ele>
        <time>2009-09-12T09:10:17Z</time>
      </trkpt>
      <trkpt lat="45.42914" lon="4.59249">
        <ele>725.45190429688</ele>
        <time>2009-09-12T09:10:22Z</time>
      </trkpt>
      <trkpt lat="45.42923" lon="4.5924">
        <ele>725.9326171875</ele>
        <time>2009-09-12T09:10:27Z</time>
      </trkpt>
      <trkpt lat="45.42925" lon="4.59242">
        <ele>726.41333007812</ele>
        <time>2009-09-12T09:10:28Z</time>
      </trkpt>
      <trkpt lat="45.42932" lon="4.59246">
        <ele>726.41333007812</ele>
        <time>2009-09-12T09:10:34Z</time>
      </trkpt>
      <trkpt lat="45.42941" lon="4.59254">
        <ele>727.37475585938</ele>
        <time>2009-09-12T09:10:40Z</time>
      </trkpt>
      <trkpt lat="45.42952" lon="4.59256">
        <ele>728.3359375</ele>
        <time>2009-09-12T09:10:47Z</time>
      </trkpt>
      <trkpt lat="45.42963" lon="4.59257">
        <ele>729.29711914062</ele>
        <time>2009-09-12T09:10:53Z</time>
      </trkpt>
      <trkpt lat="45.42973" lon="4.59258">
        <ele>730.7392578125</ele>
        <time>2009-09-12T09:10:58Z</time>
      </trkpt>
      <trkpt lat="45.42984" lon="4.59258">
        <ele>732.18139648438</ele>
        <time>2009-09-12T09:11:04Z</time>
      </trkpt>
      <trkpt lat="45.42999" lon="4.59253">
        <ele>734.10400390625</ele>
        <time>2009-09-12T09:11:11Z</time>
      </trkpt>
      <trkpt lat="45.43015" lon="4.59245">
        <ele>735.0654296875</ele>
        <time>2009-09-12T09:11:19Z</time>
      </trkpt>
      <trkpt lat="45.43021" lon="4.59242">
        <ele>735.5458984375</ele>
        <time>2009-09-12T09:11:25Z</time>
      </trkpt>
      <trkpt lat="45.43027" lon="4.59237">
        <ele>736.02661132812</ele>
        <time>2009-09-12T09:11:31Z</time>
      </trkpt>
      <trkpt lat="45.43032" lon="4.59234">
        <ele>736.02661132812</ele>
        <time>2009-09-12T09:11:35Z</time>
      </trkpt>
      <trkpt lat="45.43049" lon="4.59226">
        <ele>736.02661132812</ele>
        <time>2009-09-12T09:11:44Z</time>
      </trkpt>
      <trkpt lat="45.43063" lon="4.59221">
        <ele>736.02661132812</ele>
        <time>2009-09-12T09:11:50Z</time>
      </trkpt>
      <trkpt lat="45.43087" lon="4.59214">
        <ele>737.46850585938</ele>
        <time>2009-09-12T09:11:59Z</time>
      </trkpt>
      <trkpt lat="45.43102" lon="4.59203">
        <ele>737.46850585938</ele>
        <time>2009-09-12T09:12:04Z</time>
      </trkpt>
      <trkpt lat="45.43124" lon="4.59187">
        <ele>737.46850585938</ele>
        <time>2009-09-12T09:12:10Z</time>
      </trkpt>
      <trkpt lat="45.43148" lon="4.59168">
        <ele>736.50732421875</ele>
        <time>2009-09-12T09:12:18Z</time>
      </trkpt>
      <trkpt lat="45.43175" lon="4.59146">
        <ele>736.98779296875</ele>
        <time>2009-09-12T09:12:27Z</time>
      </trkpt>
      <trkpt lat="45.43206" lon="4.59125">
        <ele>736.50732421875</ele>
        <time>2009-09-12T09:12:35Z</time>
      </trkpt>
      <trkpt lat="45.43231" lon="4.59106">
        <ele>737.46850585938</ele>
        <time>2009-09-12T09:12:43Z</time>
      </trkpt>
      <trkpt lat="45.43252" lon="4.59088">
        <ele>738.91064453125</ele>
        <time>2009-09-12T09:12:51Z</time>
      </trkpt>
      <trkpt lat="45.43274" lon="4.59074">
        <ele>740.3525390625</ele>
        <time>2009-09-12T09:12:59Z</time>
      </trkpt>
      <trkpt lat="45.43288" lon="4.5907">
        <ele>741.79443359375</ele>
        <time>2009-09-12T09:13:05Z</time>
      </trkpt>
      <trkpt lat="45.43298" lon="4.59066">
        <ele>741.79443359375</ele>
        <time>2009-09-12T09:13:12Z</time>
      </trkpt>
      <trkpt lat="45.43302" lon="4.59056">
        <ele>740.8330078125</ele>
        <time>2009-09-12T09:13:18Z</time>
      </trkpt>
      <trkpt lat="45.43304" lon="4.59049">
        <ele>740.3525390625</ele>
        <time>2009-09-12T09:13:23Z</time>
      </trkpt>
      <trkpt lat="45.43304" lon="4.5905">
        <ele>740.8330078125</ele>
        <time>2009-09-12T09:13:39Z</time>
      </trkpt>
      <trkpt lat="45.43304" lon="4.59051">
        <ele>740.8330078125</ele>
        <time>2009-09-12T09:13:55Z</time>
      </trkpt>
      <trkpt lat="45.43304" lon="4.59051">
        <ele>740.3525390625</ele>
        <time>2009-09-12T09:14:10Z</time>
      </trkpt>
      <trkpt lat="45.43304" lon="4.59052">
        <ele>740.3525390625</ele>
        <time>2009-09-12T09:14:17Z</time>
      </trkpt>
      <trkpt lat="45.43303" lon="4.59052">
        <ele>740.8330078125</ele>
        <time>2009-09-12T09:14:28Z</time>
      </trkpt>
      <trkpt lat="45.43302" lon="4.59052">
        <ele>740.3525390625</ele>
        <time>2009-09-12T09:14:37Z</time>
      </trkpt>
      <trkpt lat="45.43302" lon="4.59053">
        <ele>740.3525390625</ele>
        <time>2009-09-12T09:14:52Z</time>
      </trkpt>
      <trkpt lat="45.43302" lon="4.59053">
        <ele>740.3525390625</ele>
        <time>2009-09-12T09:15:18Z</time>
      </trkpt>
      <trkpt lat="45.43303" lon="4.59052">
        <ele>739.87182617188</ele>
        <time>2009-09-12T09:15:36Z</time>
      </trkpt>
      <trkpt lat="45.43303" lon="4.59052">
        <ele>739.87182617188</ele>
        <time>2009-09-12T09:15:48Z</time>
      </trkpt>
      <trkpt lat="45.43304" lon="4.59049">
        <ele>739.87182617188</ele>
        <time>2009-09-12T09:16:22Z</time>
      </trkpt>
      <trkpt lat="45.43309" lon="4.59031">
        <ele>738.91064453125</ele>
        <time>2009-09-12T09:16:26Z</time>
      </trkpt>
      <trkpt lat="45.4332" lon="4.58987">
        <ele>737.46850585938</ele>
        <time>2009-09-12T09:16:33Z</time>
      </trkpt>
      <trkpt lat="45.43334" lon="4.58943">
        <ele>734.10400390625</ele>
        <time>2009-09-12T09:16:39Z</time>
      </trkpt>
      <trkpt lat="45.43345" lon="4.58902">
        <ele>731.21997070312</ele>
        <time>2009-09-12T09:16:44Z</time>
      </trkpt>
      <trkpt lat="45.43348" lon="4.58894">
        <ele>730.7392578125</ele>
        <time>2009-09-12T09:16:45Z</time>
      </trkpt>
      <trkpt lat="45.43361" lon="4.58856">
        <ele>728.3359375</ele>
        <time>2009-09-12T09:16:50Z</time>
      </trkpt>
      <trkpt lat="45.43368" lon="4.58821">
        <ele>725.45190429688</ele>
        <time>2009-09-12T09:16:55Z</time>
      </trkpt>
      <trkpt lat="45.43371" lon="4.58801">
        <ele>722.08740234375</ele>
        <time>2009-09-12T09:16:58Z</time>
      </trkpt>
      <trkpt lat="45.43372" lon="4.58794">
        <ele>721.60668945312</ele>
        <time>2009-09-12T09:16:59Z</time>
      </trkpt>
      <trkpt lat="45.43377" lon="4.58765">
        <ele>718.72290039062</ele>
        <time>2009-09-12T09:17:04Z</time>
      </trkpt>
      <trkpt lat="45.43377" lon="4.5876">
        <ele>718.72290039062</ele>
        <time>2009-09-12T09:17:05Z</time>
      </trkpt>
      <trkpt lat="45.4338" lon="4.58741">
        <ele>715.35815429688</ele>
        <time>2009-09-12T09:17:08Z</time>
      </trkpt>
      <trkpt lat="45.43386" lon="4.58701">
        <ele>711.99365234375</ele>
        <time>2009-09-12T09:17:15Z</time>
      </trkpt>
      <trkpt lat="45.43393" lon="4.58671">
        <ele>710.55151367188</ele>
        <time>2009-09-12T09:17:21Z</time>
      </trkpt>
      <trkpt lat="45.43399" lon="4.5864">
        <ele>708.1484375</ele>
        <time>2009-09-12T09:17:26Z</time>
      </trkpt>
      <trkpt lat="45.43407" lon="4.58611">
        <ele>704.78369140625</ele>
        <time>2009-09-12T09:17:32Z</time>
      </trkpt>
      <trkpt lat="45.43408" lon="4.58606">
        <ele>704.78369140625</ele>
        <time>2009-09-12T09:17:33Z</time>
      </trkpt>
      <trkpt lat="45.43412" lon="4.58592">
        <ele>702.86108398438</ele>
        <time>2009-09-12T09:17:38Z</time>
      </trkpt>
      <trkpt lat="45.43413" lon="4.58586">
        <ele>701.89990234375</ele>
        <time>2009-09-12T09:17:40Z</time>
      </trkpt>
      <trkpt lat="45.43419" lon="4.5856">
        <ele>699.97705078125</ele>
        <time>2009-09-12T09:17:46Z</time>
      </trkpt>
      <trkpt lat="45.43421" lon="4.58548">
        <ele>698.05444335938</ele>
        <time>2009-09-12T09:17:48Z</time>
      </trkpt>
      <trkpt lat="45.43423" lon="4.58541">
        <ele>697.09301757812</ele>
        <time>2009-09-12T09:17:49Z</time>
      </trkpt>
      <trkpt lat="45.43425" lon="4.58512">
        <ele>694.68969726562</ele>
        <time>2009-09-12T09:17:54Z</time>
      </trkpt>
      <trkpt lat="45.4343" lon="4.58497">
        <ele>690.36401367188</ele>
        <time>2009-09-12T09:17:57Z</time>
      </trkpt>
      <trkpt lat="45.43449" lon="4.58468">
        <ele>685.07690429688</ele>
        <time>2009-09-12T09:18:03Z</time>
      </trkpt>
      <trkpt lat="45.43465" lon="4.5845">
        <ele>682.67333984375</ele>
        <time>2009-09-12T09:18:06Z</time>
      </trkpt>
      <trkpt lat="45.4348" lon="4.58435">
        <ele>679.78930664062</ele>
        <time>2009-09-12T09:18:08Z</time>
      </trkpt>
      <trkpt lat="45.43515" lon="4.58413">
        <ele>674.50219726562</ele>
        <time>2009-09-12T09:18:12Z</time>
      </trkpt>
      <trkpt lat="45.43542" lon="4.58401">
        <ele>669.69580078125</ele>
        <time>2009-09-12T09:18:15Z</time>
      </trkpt>
      <trkpt lat="45.43571" lon="4.58394">
        <ele>665.85034179688</ele>
        <time>2009-09-12T09:18:18Z</time>
      </trkpt>
      <trkpt lat="45.43593" lon="4.58391">
        <ele>661.04370117188</ele>
        <time>2009-09-12T09:18:20Z</time>
      </trkpt>
      <trkpt lat="45.43617" lon="4.58387">
        <ele>657.19848632812</ele>
        <time>2009-09-12T09:18:22Z</time>
      </trkpt>
      <trkpt lat="45.43642" lon="4.58381">
        <ele>653.833984375</ele>
        <time>2009-09-12T09:18:24Z</time>
      </trkpt>
      <trkpt lat="45.43667" lon="4.58375">
        <ele>649.98852539062</ele>
        <time>2009-09-12T09:18:26Z</time>
      </trkpt>
      <trkpt lat="45.43701" lon="4.58367">
        <ele>646.14331054688</ele>
        <time>2009-09-12T09:18:29Z</time>
      </trkpt>
      <trkpt lat="45.43726" lon="4.58364">
        <ele>641.8173828125</ele>
        <time>2009-09-12T09:18:31Z</time>
      </trkpt>
      <trkpt lat="45.43753" lon="4.58362">
        <ele>637.0107421875</ele>
        <time>2009-09-12T09:18:33Z</time>
      </trkpt>
      <trkpt lat="45.43781" lon="4.58361">
        <ele>633.16528320312</ele>
        <time>2009-09-12T09:18:35Z</time>
      </trkpt>
      <trkpt lat="45.43807" lon="4.58362">
        <ele>629.32006835938</ele>
        <time>2009-09-12T09:18:37Z</time>
      </trkpt>
      <trkpt lat="45.43831" lon="4.58365">
        <ele>625.95556640625</ele>
        <time>2009-09-12T09:18:39Z</time>
      </trkpt>
      <trkpt lat="45.4384" lon="4.58367">
        <ele>625.47485351562</ele>
        <time>2009-09-12T09:18:40Z</time>
      </trkpt>
      <trkpt lat="45.43859" lon="4.5837">
        <ele>623.07177734375</ele>
        <time>2009-09-12T09:18:43Z</time>
      </trkpt>
      <trkpt lat="45.43886" lon="4.58381">
        <ele>620.66845703125</ele>
        <time>2009-09-12T09:18:47Z</time>
      </trkpt>
      <trkpt lat="45.43914" lon="4.58394">
        <ele>617.3037109375</ele>
        <time>2009-09-12T09:18:51Z</time>
      </trkpt>
      <trkpt lat="45.43946" lon="4.58408">
        <ele>613.93896484375</ele>
        <time>2009-09-12T09:18:55Z</time>
      </trkpt>
      <trkpt lat="45.43983" lon="4.58421">
        <ele>610.57446289062</ele>
        <time>2009-09-12T09:18:59Z</time>
      </trkpt>
      <trkpt lat="45.44025" lon="4.58434">
        <ele>607.2099609375</ele>
        <time>2009-09-12T09:19:03Z</time>
      </trkpt>
      <trkpt lat="45.44062" lon="4.58452">
        <ele>604.326171875</ele>
        <time>2009-09-12T09:19:07Z</time>
      </trkpt>
      <trkpt lat="45.44077" lon="4.58457">
        <ele>602.8837890625</ele>
        <time>2009-09-12T09:19:09Z</time>
      </trkpt>
      <trkpt lat="45.44114" lon="4.58463">
        <ele>600.48071289062</ele>
        <time>2009-09-12T09:19:14Z</time>
      </trkpt>
      <trkpt lat="45.44147" lon="4.58466">
        <ele>597.5966796875</ele>
        <time>2009-09-12T09:19:19Z</time>
      </trkpt>
      <trkpt lat="45.44174" lon="4.58468">
        <ele>594.23217773438</ele>
        <time>2009-09-12T09:19:23Z</time>
      </trkpt>
      <trkpt lat="45.44204" lon="4.58468">
        <ele>591.82885742188</ele>
        <time>2009-09-12T09:19:28Z</time>
      </trkpt>
      <trkpt lat="45.44212" lon="4.58467">
        <ele>591.34814453125</ele>
        <time>2009-09-12T09:19:30Z</time>
      </trkpt>
      <trkpt lat="45.44218" lon="4.58464">
        <ele>590.38696289062</ele>
        <time>2009-09-12T09:19:33Z</time>
      </trkpt>
      <trkpt lat="45.44226" lon="4.58456">
        <ele>588.94506835938</ele>
        <time>2009-09-12T09:19:39Z</time>
      </trkpt>
      <trkpt lat="45.44233" lon="4.58452">
        <ele>587.50268554688</ele>
        <time>2009-09-12T09:19:41Z</time>
      </trkpt>
      <trkpt lat="45.44254" lon="4.58448">
        <ele>583.1767578125</ele>
        <time>2009-09-12T09:19:47Z</time>
      </trkpt>
      <trkpt lat="45.44266" lon="4.58448">
        <ele>580.29296875</ele>
        <time>2009-09-12T09:19:51Z</time>
      </trkpt>
      <trkpt lat="45.44279" lon="4.58451">
        <ele>577.4091796875</ele>
        <time>2009-09-12T09:19:56Z</time>
      </trkpt>
      <trkpt lat="45.44291" lon="4.5845">
        <ele>574.04443359375</ele>
        <time>2009-09-12T09:20:02Z</time>
      </trkpt>
      <trkpt lat="45.44293" lon="4.5845">
        <ele>574.04443359375</ele>
        <time>2009-09-12T09:20:03Z</time>
      </trkpt>
      <trkpt lat="45.44306" lon="4.58452">
        <ele>570.19897460938</ele>
        <time>2009-09-12T09:20:08Z</time>
      </trkpt>
      <trkpt lat="45.44318" lon="4.58452">
        <ele>566.35375976562</ele>
        <time>2009-09-12T09:20:12Z</time>
      </trkpt>
      <trkpt lat="45.44332" lon="4.58452">
        <ele>562.9892578125</ele>
        <time>2009-09-12T09:20:17Z</time>
      </trkpt>
      <trkpt lat="45.44342" lon="4.58452">
        <ele>559.14404296875</ele>
        <time>2009-09-12T09:20:20Z</time>
      </trkpt>
      <trkpt lat="45.44352" lon="4.5845">
        <ele>556.26000976562</ele>
        <time>2009-09-12T09:20:24Z</time>
      </trkpt>
      <trkpt lat="45.44361" lon="4.58447">
        <ele>554.33740234375</ele>
        <time>2009-09-12T09:20:27Z</time>
      </trkpt>
      <trkpt lat="45.44373" lon="4.58443">
        <ele>550.97265625</ele>
        <time>2009-09-12T09:20:31Z</time>
      </trkpt>
      <trkpt lat="45.44381" lon="4.58436">
        <ele>548.0888671875</ele>
        <time>2009-09-12T09:20:34Z</time>
      </trkpt>
      <trkpt lat="45.44391" lon="4.58433">
        <ele>544.24365234375</ele>
        <time>2009-09-12T09:20:37Z</time>
      </trkpt>
      <trkpt lat="45.44394" lon="4.58432">
        <ele>543.76281738281</ele>
        <time>2009-09-12T09:20:38Z</time>
      </trkpt>
      <trkpt lat="45.44408" lon="4.58426">
        <ele>540.39831542969</ele>
        <time>2009-09-12T09:20:42Z</time>
      </trkpt>
      <trkpt lat="45.44419" lon="4.58424">
        <ele>536.07238769531</ele>
        <time>2009-09-12T09:20:45Z</time>
      </trkpt>
      <trkpt lat="45.44432" lon="4.58416">
        <ele>532.22705078125</ele>
        <time>2009-09-12T09:20:49Z</time>
      </trkpt>
      <trkpt lat="45.4445" lon="4.58408">
        <ele>528.86254882812</ele>
        <time>2009-09-12T09:20:53Z</time>
      </trkpt>
      <trkpt lat="45.44463" lon="4.58403">
        <ele>525.49780273438</ele>
        <time>2009-09-12T09:20:56Z</time>
      </trkpt>
      <trkpt lat="45.44481" lon="4.58394">
        <ele>521.65258789062</ele>
        <time>2009-09-12T09:21:00Z</time>
      </trkpt>
      <trkpt lat="45.44499" lon="4.58387">
        <ele>517.80725097656</ele>
        <time>2009-09-12T09:21:04Z</time>
      </trkpt>
      <trkpt lat="45.44516" lon="4.58381">
        <ele>514.44262695312</ele>
        <time>2009-09-12T09:21:07Z</time>
      </trkpt>
      <trkpt lat="45.44532" lon="4.58375">
        <ele>511.55871582031</ele>
        <time>2009-09-12T09:21:10Z</time>
      </trkpt>
      <trkpt lat="45.44545" lon="4.58371">
        <ele>510.11669921875</ele>
        <time>2009-09-12T09:21:13Z</time>
      </trkpt>
      <trkpt lat="45.44548" lon="4.5837">
        <ele>509.63610839844</ele>
        <time>2009-09-12T09:21:14Z</time>
      </trkpt>
      <trkpt lat="45.4455" lon="4.58378">
        <ele>509.15539550781</ele>
        <time>2009-09-12T09:21:20Z</time>
      </trkpt>
      <trkpt lat="45.4455" lon="4.58398">
        <ele>508.67468261719</ele>
        <time>2009-09-12T09:21:26Z</time>
      </trkpt>
      <trkpt lat="45.4455" lon="4.5843">
        <ele>508.67468261719</ele>
        <time>2009-09-12T09:21:35Z</time>
      </trkpt>
      <trkpt lat="45.44548" lon="4.58455">
        <ele>507.23278808594</ele>
        <time>2009-09-12T09:21:40Z</time>
      </trkpt>
      <trkpt lat="45.44545" lon="4.58481">
        <ele>505.79089355469</ele>
        <time>2009-09-12T09:21:46Z</time>
      </trkpt>
      <trkpt lat="45.44545" lon="4.58484">
        <ele>505.31018066406</ele>
        <time>2009-09-12T09:21:50Z</time>
      </trkpt>
      <trkpt lat="45.44543" lon="4.58487">
        <ele>505.31018066406</ele>
        <time>2009-09-12T09:22:04Z</time>
      </trkpt>
      <trkpt lat="45.44542" lon="4.58486">
        <ele>505.31018066406</ele>
        <time>2009-09-12T09:22:09Z</time>
      </trkpt>
      <trkpt lat="45.44543" lon="4.58485">
        <ele>505.79089355469</ele>
        <time>2009-09-12T09:22:14Z</time>
      </trkpt>
      <trkpt lat="45.44543" lon="4.58485">
        <ele>505.31018066406</ele>
        <time>2009-09-12T09:22:20Z</time>
      </trkpt>
      <trkpt lat="45.44543" lon="4.58485">
        <ele>504.82946777344</ele>
        <time>2009-09-12T09:22:33Z</time>
      </trkpt>
      <trkpt lat="45.44543" lon="4.58484">
        <ele>504.82946777344</ele>
        <time>2009-09-12T09:22:40Z</time>
      </trkpt>
      <trkpt lat="45.44544" lon="4.58485">
        <ele>504.34887695312</ele>
        <time>2009-09-12T09:22:59Z</time>
      </trkpt>
      <trkpt lat="45.44543" lon="4.58487">
        <ele>504.82946777344</ele>
        <time>2009-09-12T09:23:09Z</time>
      </trkpt>
      <trkpt lat="45.44542" lon="4.58487">
        <ele>504.34887695312</ele>
        <time>2009-09-12T09:23:20Z</time>
      </trkpt>
      <trkpt lat="45.44542" lon="4.58487">
        <ele>504.82946777344</ele>
        <time>2009-09-12T09:23:35Z</time>
      </trkpt>
      <trkpt lat="45.44542" lon="4.5849">
        <ele>504.82946777344</ele>
        <time>2009-09-12T09:23:41Z</time>
      </trkpt>
      <trkpt lat="45.44542" lon="4.58495">
        <ele>504.34887695312</ele>
        <time>2009-09-12T09:23:54Z</time>
      </trkpt>
      <trkpt lat="45.4454" lon="4.585">
        <ele>503.8681640625</ele>
        <time>2009-09-12T09:23:56Z</time>
      </trkpt>
      <trkpt lat="45.44537" lon="4.58522">
        <ele>503.38745117188</ele>
        <time>2009-09-12T09:24:03Z</time>
      </trkpt>
      <trkpt lat="45.44535" lon="4.58542">
        <ele>503.38745117188</ele>
        <time>2009-09-12T09:24:08Z</time>
      </trkpt>
      <trkpt lat="45.44532" lon="4.58576">
        <ele>502.42614746094</ele>
        <time>2009-09-12T09:24:15Z</time>
      </trkpt>
      <trkpt lat="45.4453" lon="4.58609">
        <ele>500.50354003906</ele>
        <time>2009-09-12T09:24:21Z</time>
      </trkpt>
      <trkpt lat="45.44527" lon="4.58623">
        <ele>500.02294921875</ele>
        <time>2009-09-12T09:24:23Z</time>
      </trkpt>
      <trkpt lat="45.44523" lon="4.58672">
        <ele>496.65832519531</ele>
        <time>2009-09-12T09:24:29Z</time>
      </trkpt>
      <trkpt lat="45.44521" lon="4.58689">
        <ele>496.177734375</ele>
        <time>2009-09-12T09:24:31Z</time>
      </trkpt>
      <trkpt lat="45.44518" lon="4.58711">
        <ele>493.77429199219</ele>
        <time>2009-09-12T09:24:34Z</time>
      </trkpt>
      <trkpt lat="45.44516" lon="4.58726">
        <ele>492.81298828125</ele>
        <time>2009-09-12T09:24:36Z</time>
      </trkpt>
      <trkpt lat="45.44511" lon="4.5874">
        <ele>491.37097167969</ele>
        <time>2009-09-12T09:24:38Z</time>
      </trkpt>
      <trkpt lat="45.44503" lon="4.58764">
        <ele>488.48718261719</ele>
        <time>2009-09-12T09:24:42Z</time>
      </trkpt>
      <trkpt lat="45.44505" lon="4.58773">
        <ele>488.48718261719</ele>
        <time>2009-09-12T09:24:44Z</time>
      </trkpt>
      <trkpt lat="45.44516" lon="4.58792">
        <ele>489.44836425781</ele>
        <time>2009-09-12T09:24:50Z</time>
      </trkpt>
      <trkpt lat="45.44528" lon="4.58798">
        <ele>490.89038085938</ele>
        <time>2009-09-12T09:24:55Z</time>
      </trkpt>
      <trkpt lat="45.44538" lon="4.58801">
        <ele>491.85168457031</ele>
        <time>2009-09-12T09:25:00Z</time>
      </trkpt>
      <trkpt lat="45.44541" lon="4.58796">
        <ele>491.85168457031</ele>
        <time>2009-09-12T09:25:05Z</time>
      </trkpt>
      <trkpt lat="45.44542" lon="4.58792">
        <ele>491.85168457031</ele>
        <time>2009-09-12T09:25:11Z</time>
      </trkpt>
      <trkpt lat="45.44545" lon="4.58781">
        <ele>490.89038085938</ele>
        <time>2009-09-12T09:25:17Z</time>
      </trkpt>
      <trkpt lat="45.44549" lon="4.58773">
        <ele>490.89038085938</ele>
        <time>2009-09-12T09:25:19Z</time>
      </trkpt>
      <trkpt lat="45.44559" lon="4.58748">
        <ele>489.44836425781</ele>
        <time>2009-09-12T09:25:23Z</time>
      </trkpt>
      <trkpt lat="45.44565" lon="4.58712">
        <ele>487.04504394531</ele>
        <time>2009-09-12T09:25:27Z</time>
      </trkpt>
      <trkpt lat="45.44567" lon="4.58681">
        <ele>486.08374023438</ele>
        <time>2009-09-12T09:25:30Z</time>
      </trkpt>
      <trkpt lat="45.44568" lon="4.58658">
        <ele>485.60302734375</ele>
        <time>2009-09-12T09:25:32Z</time>
      </trkpt>
      <trkpt lat="45.44578" lon="4.58616">
        <ele>487.04504394531</ele>
        <time>2009-09-12T09:25:37Z</time>
      </trkpt>
      <trkpt lat="45.44589" lon="4.58589">
        <ele>488.00646972656</ele>
        <time>2009-09-12T09:25:42Z</time>
      </trkpt>
      <trkpt lat="45.44605" lon="4.58553">
        <ele>488.9677734375</ele>
        <time>2009-09-12T09:25:50Z</time>
      </trkpt>
      <trkpt lat="45.44609" lon="4.58547">
        <ele>489.44836425781</ele>
        <time>2009-09-12T09:25:53Z</time>
      </trkpt>
      <trkpt lat="45.44615" lon="4.58524">
        <ele>488.00646972656</ele>
        <time>2009-09-12T09:25:58Z</time>
      </trkpt>
      <trkpt lat="45.44621" lon="4.58508">
        <ele>487.04504394531</ele>
        <time>2009-09-12T09:26:00Z</time>
      </trkpt>
      <trkpt lat="45.44653" lon="4.58471">
        <ele>481.7578125</ele>
        <time>2009-09-12T09:26:05Z</time>
      </trkpt>
      <trkpt lat="45.44662" lon="4.58464">
        <ele>480.79663085938</ele>
        <time>2009-09-12T09:26:06Z</time>
      </trkpt>
      <trkpt lat="45.44697" lon="4.58426">
        <ele>476.47058105469</ele>
        <time>2009-09-12T09:26:11Z</time>
      </trkpt>
      <trkpt lat="45.44715" lon="4.58405">
        <ele>473.10607910156</ele>
        <time>2009-09-12T09:26:14Z</time>
      </trkpt>
      <trkpt lat="45.44723" lon="4.58393">
        <ele>472.62536621094</ele>
        <time>2009-09-12T09:26:16Z</time>
      </trkpt>
      <trkpt lat="45.44728" lon="4.58384">
        <ele>471.66394042969</ele>
        <time>2009-09-12T09:26:19Z</time>
      </trkpt>
      <trkpt lat="45.44733" lon="4.58378">
        <ele>471.66394042969</ele>
        <time>2009-09-12T09:26:26Z</time>
      </trkpt>
      <trkpt lat="45.44732" lon="4.58369">
        <ele>471.66394042969</ele>
        <time>2009-09-12T09:26:31Z</time>
      </trkpt>
      <trkpt lat="45.44729" lon="4.58356">
        <ele>471.18334960938</ele>
        <time>2009-09-12T09:26:39Z</time>
      </trkpt>
      <trkpt lat="45.44728" lon="4.58356">
        <ele>471.66394042969</ele>
        <time>2009-09-12T09:26:46Z</time>
      </trkpt>
      <trkpt lat="45.44725" lon="4.58344">
        <ele>471.66394042969</ele>
        <time>2009-09-12T09:26:51Z</time>
      </trkpt>
      <trkpt lat="45.44726" lon="4.58335">
        <ele>472.14465332031</ele>
        <time>2009-09-12T09:26:54Z</time>
      </trkpt>
      <trkpt lat="45.44727" lon="4.58312">
        <ele>472.62536621094</ele>
        <time>2009-09-12T09:27:00Z</time>
      </trkpt>
      <trkpt lat="45.44728" lon="4.58298">
        <ele>472.62536621094</ele>
        <time>2009-09-12T09:27:04Z</time>
      </trkpt>
      <trkpt lat="45.44733" lon="4.58286">
        <ele>473.10607910156</ele>
        <time>2009-09-12T09:27:09Z</time>
      </trkpt>
      <trkpt lat="45.4474" lon="4.58283">
        <ele>473.58666992188</ele>
        <time>2009-09-12T09:27:14Z</time>
      </trkpt>
      <trkpt lat="45.44748" lon="4.58279">
        <ele>474.06726074219</ele>
        <time>2009-09-12T09:27:19Z</time>
      </trkpt>
      <trkpt lat="45.44759" lon="4.58272">
        <ele>475.50927734375</ele>
        <time>2009-09-12T09:27:25Z</time>
      </trkpt>
      <trkpt lat="45.44769" lon="4.5827">
        <ele>476.47058105469</ele>
        <time>2009-09-12T09:27:30Z</time>
      </trkpt>
      <trkpt lat="45.44789" lon="4.58264">
        <ele>478.87390136719</ele>
        <time>2009-09-12T09:27:39Z</time>
      </trkpt>
      <trkpt lat="45.44801" lon="4.58264">
        <ele>479.83508300781</ele>
        <time>2009-09-12T09:27:45Z</time>
      </trkpt>
      <trkpt lat="45.44815" lon="4.58264">
        <ele>480.79663085938</ele>
        <time>2009-09-12T09:27:52Z</time>
      </trkpt>
      <trkpt lat="45.44831" lon="4.58268">
        <ele>482.71923828125</ele>
        <time>2009-09-12T09:28:00Z</time>
      </trkpt>
      <trkpt lat="45.44847" lon="4.58269">
        <ele>484.64184570312</ele>
        <time>2009-09-12T09:28:08Z</time>
      </trkpt>
      <trkpt lat="45.44857" lon="4.58265">
        <ele>486.08374023438</ele>
        <time>2009-09-12T09:28:14Z</time>
      </trkpt>
      <trkpt lat="45.44871" lon="4.58262">
        <ele>487.04504394531</ele>
        <time>2009-09-12T09:28:22Z</time>
      </trkpt>
      <trkpt lat="45.44883" lon="4.58251">
        <ele>488.48718261719</ele>
        <time>2009-09-12T09:28:29Z</time>
      </trkpt>
      <trkpt lat="45.44896" lon="4.58236">
        <ele>490.40979003906</ele>
        <time>2009-09-12T09:28:37Z</time>
      </trkpt>
      <trkpt lat="45.4491" lon="4.58224">
        <ele>490.89038085938</ele>
        <time>2009-09-12T09:28:45Z</time>
      </trkpt>
      <trkpt lat="45.44912" lon="4.58217">
        <ele>490.89038085938</ele>
        <time>2009-09-12T09:28:48Z</time>
      </trkpt>
      <trkpt lat="45.44905" lon="4.5821">
        <ele>492.33239746094</ele>
        <time>2009-09-12T09:28:54Z</time>
      </trkpt>
      <trkpt lat="45.44904" lon="4.5821">
        <ele>492.81298828125</ele>
        <time>2009-09-12T09:28:55Z</time>
      </trkpt>
      <trkpt lat="45.44889" lon="4.58208">
        <ele>494.25500488281</ele>
        <time>2009-09-12T09:29:03Z</time>
      </trkpt>
      <trkpt lat="45.4487" lon="4.58203">
        <ele>495.21618652344</ele>
        <time>2009-09-12T09:29:11Z</time>
      </trkpt>
      <trkpt lat="45.44844" lon="4.58199">
        <ele>495.21618652344</ele>
        <time>2009-09-12T09:29:20Z</time>
      </trkpt>
      <trkpt lat="45.4482" lon="4.58195">
        <ele>495.21618652344</ele>
        <time>2009-09-12T09:29:28Z</time>
      </trkpt>
      <trkpt lat="45.44799" lon="4.58191">
        <ele>496.65832519531</ele>
        <time>2009-09-12T09:29:36Z</time>
      </trkpt>
      <trkpt lat="45.44779" lon="4.58188">
        <ele>498.10034179688</ele>
        <time>2009-09-12T09:29:45Z</time>
      </trkpt>
      <trkpt lat="45.44764" lon="4.58184">
        <ele>499.54223632812</ele>
        <time>2009-09-12T09:29:52Z</time>
      </trkpt>
      <trkpt lat="45.44751" lon="4.58182">
        <ele>500.98413085938</ele>
        <time>2009-09-12T09:29:58Z</time>
      </trkpt>
      <trkpt lat="45.44744" lon="4.58181">
        <ele>500.98413085938</ele>
        <time>2009-09-12T09:30:01Z</time>
      </trkpt>
      <trkpt lat="45.44727" lon="4.58178">
        <ele>501.46484375</ele>
        <time>2009-09-12T09:43:55Z</time>
      </trkpt>
      <trkpt lat="45.44727" lon="4.58178">
        <ele>501.46484375</ele>
        <time>2009-09-12T09:43:56Z</time>
      </trkpt>
      <trkpt lat="45.44725" lon="4.58177">
        <ele>500.98413085938</ele>
        <time>2009-09-12T09:43:58Z</time>
      </trkpt>
      <trkpt lat="45.44723" lon="4.58175">
        <ele>500.98413085938</ele>
        <time>2009-09-12T09:44:00Z</time>
      </trkpt>
      <trkpt lat="45.44704" lon="4.58174">
        <ele>500.50354003906</ele>
        <time>2009-09-12T09:44:07Z</time>
      </trkpt>
      <trkpt lat="45.447" lon="4.58174">
        <ele>500.50354003906</ele>
        <time>2009-09-12T09:44:08Z</time>
      </trkpt>
      <trkpt lat="45.44676" lon="4.58171">
        <ele>498.10034179688</ele>
        <time>2009-09-12T09:44:13Z</time>
      </trkpt>
      <trkpt lat="45.44663" lon="4.58168">
        <ele>496.65832519531</ele>
        <time>2009-09-12T09:44:16Z</time>
      </trkpt>
      <trkpt lat="45.44661" lon="4.58157">
        <ele>498.58093261719</ele>
        <time>2009-09-12T09:44:21Z</time>
      </trkpt>
      <trkpt lat="45.4466" lon="4.58151">
        <ele>499.54223632812</ele>
        <time>2009-09-12T09:44:24Z</time>
      </trkpt>
      <trkpt lat="45.44661" lon="4.58139">
        <ele>501.46484375</ele>
        <time>2009-09-12T09:44:30Z</time>
      </trkpt>
      <trkpt lat="45.44659" lon="4.58129">
        <ele>503.38745117188</ele>
        <time>2009-09-12T09:44:37Z</time>
      </trkpt>
      <trkpt lat="45.44659" lon="4.58117">
        <ele>506.75207519531</ele>
        <time>2009-09-12T09:44:44Z</time>
      </trkpt>
      <trkpt lat="45.44659" lon="4.58115">
        <ele>506.75207519531</ele>
        <time>2009-09-12T09:44:45Z</time>
      </trkpt>
      <trkpt lat="45.44658" lon="4.5811">
        <ele>507.23278808594</ele>
        <time>2009-09-12T09:44:47Z</time>
      </trkpt>
      <trkpt lat="45.44657" lon="4.58096">
        <ele>510.11669921875</ele>
        <time>2009-09-12T09:44:53Z</time>
      </trkpt>
      <trkpt lat="45.44655" lon="4.58082">
        <ele>512.03942871094</ele>
        <time>2009-09-12T09:45:00Z</time>
      </trkpt>
      <trkpt lat="45.44653" lon="4.58065">
        <ele>514.44262695312</ele>
        <time>2009-09-12T09:45:09Z</time>
      </trkpt>
      <trkpt lat="45.4465" lon="4.58053">
        <ele>515.88464355469</ele>
        <time>2009-09-12T09:45:16Z</time>
      </trkpt>
      <trkpt lat="45.44647" lon="4.58041">
        <ele>517.32666015625</ele>
        <time>2009-09-12T09:45:23Z</time>
      </trkpt>
      <trkpt lat="45.44644" lon="4.58029">
        <ele>518.7685546875</ele>
        <time>2009-09-12T09:45:30Z</time>
      </trkpt>
      <trkpt lat="45.4464" lon="4.58019">
        <ele>520.69128417969</ele>
        <time>2009-09-12T09:45:37Z</time>
      </trkpt>
      <trkpt lat="45.44632" lon="4.58008">
        <ele>521.65258789062</ele>
        <time>2009-09-12T09:45:44Z</time>
      </trkpt>
      <trkpt lat="45.44628" lon="4.57997">
        <ele>522.13317871094</ele>
        <time>2009-09-12T09:45:49Z</time>
      </trkpt>
      <trkpt lat="45.44622" lon="4.57987">
        <ele>522.61389160156</ele>
        <time>2009-09-12T09:45:55Z</time>
      </trkpt>
      <trkpt lat="45.44616" lon="4.57973">
        <ele>524.05578613281</ele>
        <time>2009-09-12T09:46:01Z</time>
      </trkpt>
      <trkpt lat="45.44609" lon="4.5796">
        <ele>525.49780273438</ele>
        <time>2009-09-12T09:46:06Z</time>
      </trkpt>
      <trkpt lat="45.44601" lon="4.57953">
        <ele>526.45910644531</ele>
        <time>2009-09-12T09:46:11Z</time>
      </trkpt>
      <trkpt lat="45.44596" lon="4.57942">
        <ele>527.42041015625</ele>
        <time>2009-09-12T09:46:17Z</time>
      </trkpt>
      <trkpt lat="45.44594" lon="4.57928">
        <ele>528.86254882812</ele>
        <time>2009-09-12T09:46:24Z</time>
      </trkpt>
      <trkpt lat="45.44593" lon="4.57916">
        <ele>529.82373046875</ele>
        <time>2009-09-12T09:46:30Z</time>
      </trkpt>
      <trkpt lat="45.44582" lon="4.57895">
        <ele>530.78515625</ele>
        <time>2009-09-12T09:46:38Z</time>
      </trkpt>
      <trkpt lat="45.44575" lon="4.57888">
        <ele>531.74633789062</ele>
        <time>2009-09-12T09:46:43Z</time>
      </trkpt>
      <trkpt lat="45.44566" lon="4.57876">
        <ele>532.70776367188</ele>
        <time>2009-09-12T09:46:49Z</time>
      </trkpt>
      <trkpt lat="45.44558" lon="4.57859">
        <ele>534.14965820312</ele>
        <time>2009-09-12T09:46:56Z</time>
      </trkpt>
      <trkpt lat="45.44555" lon="4.57841">
        <ele>535.59155273438</ele>
        <time>2009-09-12T09:47:02Z</time>
      </trkpt>
      <trkpt lat="45.44555" lon="4.5782">
        <ele>537.03369140625</ele>
        <time>2009-09-12T09:47:08Z</time>
      </trkpt>
      <trkpt lat="45.44554" lon="4.57798">
        <ele>537.03369140625</ele>
        <time>2009-09-12T09:47:12Z</time>
      </trkpt>
      <trkpt lat="45.44558" lon="4.57764">
        <ele>537.03369140625</ele>
        <time>2009-09-12T09:47:17Z</time>
      </trkpt>
      <trkpt lat="45.44562" lon="4.57729">
        <ele>537.51428222656</ele>
        <time>2009-09-12T09:47:22Z</time>
      </trkpt>
      <trkpt lat="45.44564" lon="4.57707">
        <ele>537.51428222656</ele>
        <time>2009-09-12T09:47:25Z</time>
      </trkpt>
      <trkpt lat="45.44566" lon="4.57685">
        <ele>538.47570800781</ele>
        <time>2009-09-12T09:47:28Z</time>
      </trkpt>
      <trkpt lat="45.44564" lon="4.57652">
        <ele>539.91760253906</ele>
        <time>2009-09-12T09:47:34Z</time>
      </trkpt>
      <trkpt lat="45.4456" lon="4.57646">
        <ele>539.91760253906</ele>
        <time>2009-09-12T09:47:37Z</time>
      </trkpt>
      <trkpt lat="45.44552" lon="4.57645">
        <ele>541.35949707031</ele>
        <time>2009-09-12T09:47:43Z</time>
      </trkpt>
      <trkpt lat="45.44543" lon="4.57647">
        <ele>544.24365234375</ele>
        <time>2009-09-12T09:47:50Z</time>
      </trkpt>
      <trkpt lat="45.44541" lon="4.57648">
        <ele>545.20483398438</ele>
        <time>2009-09-12T09:47:53Z</time>
      </trkpt>
      <trkpt lat="45.44535" lon="4.5765">
        <ele>547.12744140625</ele>
        <time>2009-09-12T09:47:59Z</time>
      </trkpt>
      <trkpt lat="45.44527" lon="4.57649">
        <ele>549.05004882812</ele>
        <time>2009-09-12T09:48:06Z</time>
      </trkpt>
      <trkpt lat="45.44516" lon="4.5765">
        <ele>551.93408203125</ele>
        <time>2009-09-12T09:48:14Z</time>
      </trkpt>
      <trkpt lat="45.44512" lon="4.5765">
        <ele>552.89526367188</ele>
        <time>2009-09-12T09:48:17Z</time>
      </trkpt>
      <trkpt lat="45.44503" lon="4.57647">
        <ele>554.33740234375</ele>
        <time>2009-09-12T09:48:24Z</time>
      </trkpt>
      <trkpt lat="45.44493" lon="4.57638">
        <ele>556.26000976562</ele>
        <time>2009-09-12T09:48:33Z</time>
      </trkpt>
      <trkpt lat="45.44483" lon="4.57627">
        <ele>558.18286132812</ele>
        <time>2009-09-12T09:48:42Z</time>
      </trkpt>
      <trkpt lat="45.44482" lon="4.57626">
        <ele>558.18286132812</ele>
        <time>2009-09-12T09:48:43Z</time>
      </trkpt>
      <trkpt lat="45.44471" lon="4.57615">
        <ele>560.5859375</ele>
        <time>2009-09-12T09:48:52Z</time>
      </trkpt>
      <trkpt lat="45.4447" lon="4.57614">
        <ele>560.5859375</ele>
        <time>2009-09-12T09:48:53Z</time>
      </trkpt>
      <trkpt lat="45.44464" lon="4.57607">
        <ele>561.54736328125</ele>
        <time>2009-09-12T09:48:58Z</time>
      </trkpt>
      <trkpt lat="45.44458" lon="4.57598">
        <ele>563.46997070312</ele>
        <time>2009-09-12T09:49:03Z</time>
      </trkpt>
      <trkpt lat="45.44447" lon="4.57584">
        <ele>565.87329101562</ele>
        <time>2009-09-12T09:49:12Z</time>
      </trkpt>
      <trkpt lat="45.44441" lon="4.57574">
        <ele>566.83447265625</ele>
        <time>2009-09-12T09:49:19Z</time>
      </trkpt>
      <trkpt lat="45.44435" lon="4.57565">
        <ele>568.2763671875</ele>
        <time>2009-09-12T09:49:26Z</time>
      </trkpt>
      <trkpt lat="45.44429" lon="4.57556">
        <ele>570.19897460938</ele>
        <time>2009-09-12T09:49:33Z</time>
      </trkpt>
      <trkpt lat="45.4443" lon="4.57545">
        <ele>571.64086914062</ele>
        <time>2009-09-12T09:49:39Z</time>
      </trkpt>
      <trkpt lat="45.44434" lon="4.57541">
        <ele>572.6025390625</ele>
        <time>2009-09-12T09:49:43Z</time>
      </trkpt>
      <trkpt lat="45.44443" lon="4.57543">
        <ele>574.04443359375</ele>
        <time>2009-09-12T09:49:51Z</time>
      </trkpt>
      <trkpt lat="45.44449" lon="4.57542">
        <ele>574.52514648438</ele>
        <time>2009-09-12T09:49:56Z</time>
      </trkpt>
      <trkpt lat="45.44451" lon="4.57542">
        <ele>575.005859375</ele>
        <time>2009-09-12T09:49:57Z</time>
      </trkpt>
      <trkpt lat="45.44452" lon="4.57541">
        <ele>575.005859375</ele>
        <time>2009-09-12T09:49:58Z</time>
      </trkpt>
      <trkpt lat="45.44463" lon="4.57537">
        <ele>577.4091796875</ele>
        <time>2009-09-12T09:50:06Z</time>
      </trkpt>
      <trkpt lat="45.4447" lon="4.57532">
        <ele>579.33154296875</ele>
        <time>2009-09-12T09:50:13Z</time>
      </trkpt>
      <trkpt lat="45.44477" lon="4.57529">
        <ele>581.25439453125</ele>
        <time>2009-09-12T09:50:20Z</time>
      </trkpt>
      <trkpt lat="45.44484" lon="4.57524">
        <ele>583.1767578125</ele>
        <time>2009-09-12T09:50:26Z</time>
      </trkpt>
      <trkpt lat="45.44485" lon="4.57524">
        <ele>583.65747070312</ele>
        <time>2009-09-12T09:50:27Z</time>
      </trkpt>
      <trkpt lat="45.44492" lon="4.57516">
        <ele>585.099609375</ele>
        <time>2009-09-12T09:50:34Z</time>
      </trkpt>
      <trkpt lat="45.44499" lon="4.57512">
        <ele>587.02197265625</ele>
        <time>2009-09-12T09:50:40Z</time>
      </trkpt>
      <trkpt lat="45.4451" lon="4.57502">
        <ele>588.94506835938</ele>
        <time>2009-09-12T09:50:49Z</time>
      </trkpt>
      <trkpt lat="45.44516" lon="4.57497">
        <ele>590.86743164062</ele>
        <time>2009-09-12T09:50:56Z</time>
      </trkpt>
      <trkpt lat="45.44521" lon="4.57492">
        <ele>591.34814453125</ele>
        <time>2009-09-12T09:51:02Z</time>
      </trkpt>
      <trkpt lat="45.44528" lon="4.57484">
        <ele>592.79028320312</ele>
        <time>2009-09-12T09:51:08Z</time>
      </trkpt>
      <trkpt lat="45.44532" lon="4.5748">
        <ele>593.75146484375</ele>
        <time>2009-09-12T09:51:13Z</time>
      </trkpt>
      <trkpt lat="45.4454" lon="4.57471">
        <ele>595.193359375</ele>
        <time>2009-09-12T09:51:21Z</time>
      </trkpt>
      <trkpt lat="45.44542" lon="4.57457">
        <ele>596.63549804688</ele>
        <time>2009-09-12T09:51:27Z</time>
      </trkpt>
      <trkpt lat="45.44541" lon="4.57451">
        <ele>598.55786132812</ele>
        <time>2009-09-12T09:51:32Z</time>
      </trkpt>
      <trkpt lat="45.44541" lon="4.57451">
        <ele>599.03857421875</ele>
        <time>2009-09-12T09:51:33Z</time>
      </trkpt>
      <trkpt lat="45.44539" lon="4.5745">
        <ele>599.51928710938</ele>
        <time>2009-09-12T09:51:37Z</time>
      </trkpt>
      <trkpt lat="45.4453" lon="4.57447">
        <ele>600.96118164062</ele>
        <time>2009-09-12T09:51:45Z</time>
      </trkpt>
      <trkpt lat="45.44523" lon="4.57443">
        <ele>602.8837890625</ele>
        <time>2009-09-12T09:51:52Z</time>
      </trkpt>
      <trkpt lat="45.44516" lon="4.5744">
        <ele>604.326171875</ele>
        <time>2009-09-12T09:51:58Z</time>
      </trkpt>
      <trkpt lat="45.44506" lon="4.57435">
        <ele>605.76806640625</ele>
        <time>2009-09-12T09:52:06Z</time>
      </trkpt>
      <trkpt lat="45.445" lon="4.57434">
        <ele>606.72924804688</ele>
        <time>2009-09-12T09:52:11Z</time>
      </trkpt>
      <trkpt lat="45.4449" lon="4.57433">
        <ele>607.2099609375</ele>
        <time>2009-09-12T09:52:17Z</time>
      </trkpt>
      <trkpt lat="45.44478" lon="4.57429">
        <ele>607.69067382812</ele>
        <time>2009-09-12T09:52:23Z</time>
      </trkpt>
      <trkpt lat="45.44462" lon="4.57425">
        <ele>608.17138671875</ele>
        <time>2009-09-12T09:52:30Z</time>
      </trkpt>
      <trkpt lat="45.44448" lon="4.57421">
        <ele>608.65185546875</ele>
        <time>2009-09-12T09:52:36Z</time>
      </trkpt>
      <trkpt lat="45.44431" lon="4.57415">
        <ele>609.61328125</ele>
        <time>2009-09-12T09:52:43Z</time>
      </trkpt>
      <trkpt lat="45.44417" lon="4.57411">
        <ele>610.09375</ele>
        <time>2009-09-12T09:52:49Z</time>
      </trkpt>
      <trkpt lat="45.44409" lon="4.5741">
        <ele>611.53588867188</ele>
        <time>2009-09-12T09:52:52Z</time>
      </trkpt>
      <trkpt lat="45.44393" lon="4.57401">
        <ele>612.97778320312</ele>
        <time>2009-09-12T09:52:59Z</time>
      </trkpt>
      <trkpt lat="45.44375" lon="4.5739">
        <ele>614.41967773438</ele>
        <time>2009-09-12T09:53:07Z</time>
      </trkpt>
      <trkpt lat="45.44364" lon="4.57383">
        <ele>614.41967773438</ele>
        <time>2009-09-12T09:53:12Z</time>
      </trkpt>
      <trkpt lat="45.44358" lon="4.57377">
        <ele>613.93896484375</ele>
        <time>2009-09-12T09:53:16Z</time>
      </trkpt>
      <trkpt lat="45.44356" lon="4.57376">
        <ele>612.97778320312</ele>
        <time>2009-09-12T09:53:27Z</time>
      </trkpt>
      <trkpt lat="45.44349" lon="4.5738">
        <ele>613.93896484375</ele>
        <time>2009-09-12T09:59:13Z</time>
      </trkpt>
      <trkpt lat="45.4435" lon="4.57379">
        <ele>614.41967773438</ele>
        <time>2009-09-12T09:59:19Z</time>
      </trkpt>
      <trkpt lat="45.4435" lon="4.5738">
        <ele>614.41967773438</ele>
        <time>2009-09-12T09:59:49Z</time>
      </trkpt>
      <trkpt lat="45.44348" lon="4.57381">
        <ele>614.41967773438</ele>
        <time>2009-09-12T09:59:51Z</time>
      </trkpt>
      <trkpt lat="45.44335" lon="4.5737">
        <ele>612.97778320312</ele>
        <time>2009-09-12T09:59:58Z</time>
      </trkpt>
      <trkpt lat="45.44321" lon="4.57357">
        <ele>612.0166015625</ele>
        <time>2009-09-12T10:00:03Z</time>
      </trkpt>
      <trkpt lat="45.44318" lon="4.57353">
        <ele>611.53588867188</ele>
        <time>2009-09-12T10:00:04Z</time>
      </trkpt>
      <trkpt lat="45.44307" lon="4.57337">
        <ele>610.09375</ele>
        <time>2009-09-12T10:00:07Z</time>
      </trkpt>
      <trkpt lat="45.44299" lon="4.57321">
        <ele>609.13256835938</ele>
        <time>2009-09-12T10:00:09Z</time>
      </trkpt>
      <trkpt lat="45.44296" lon="4.57313">
        <ele>608.65185546875</ele>
        <time>2009-09-12T10:00:10Z</time>
      </trkpt>
      <trkpt lat="45.44286" lon="4.57273">
        <ele>607.2099609375</ele>
        <time>2009-09-12T10:00:14Z</time>
      </trkpt>
      <trkpt lat="45.44285" lon="4.57245">
        <ele>606.24853515625</ele>
        <time>2009-09-12T10:00:17Z</time>
      </trkpt>
      <trkpt lat="45.44285" lon="4.57218">
        <ele>605.76806640625</ele>
        <time>2009-09-12T10:00:20Z</time>
      </trkpt>
      <trkpt lat="45.44278" lon="4.57169">
        <ele>604.806640625</ele>
        <time>2009-09-12T10:00:26Z</time>
      </trkpt>
      <trkpt lat="45.44267" lon="4.57131">
        <ele>604.806640625</ele>
        <time>2009-09-12T10:00:32Z</time>
      </trkpt>
      <trkpt lat="45.44259" lon="4.57114">
        <ele>604.806640625</ele>
        <time>2009-09-12T10:00:35Z</time>
      </trkpt>
      <trkpt lat="45.44242" lon="4.57098">
        <ele>605.76806640625</ele>
        <time>2009-09-12T10:00:40Z</time>
      </trkpt>
      <trkpt lat="45.44237" lon="4.57097">
        <ele>607.2099609375</ele>
        <time>2009-09-12T10:00:42Z</time>
      </trkpt>
      <trkpt lat="45.44231" lon="4.57098">
        <ele>608.17138671875</ele>
        <time>2009-09-12T10:00:45Z</time>
      </trkpt>
      <trkpt lat="45.44218" lon="4.57102">
        <ele>610.09375</ele>
        <time>2009-09-12T10:00:52Z</time>
      </trkpt>
      <trkpt lat="45.44203" lon="4.5711">
        <ele>609.13256835938</ele>
        <time>2009-09-12T10:00:58Z</time>
      </trkpt>
      <trkpt lat="45.44187" lon="4.57119">
        <ele>608.17138671875</ele>
        <time>2009-09-12T10:01:03Z</time>
      </trkpt>
      <trkpt lat="45.44167" lon="4.57132">
        <ele>607.2099609375</ele>
        <time>2009-09-12T10:01:09Z</time>
      </trkpt>
      <trkpt lat="45.44147" lon="4.57131">
        <ele>606.72924804688</ele>
        <time>2009-09-12T10:01:14Z</time>
      </trkpt>
      <trkpt lat="45.44144" lon="4.57129">
        <ele>606.72924804688</ele>
        <time>2009-09-12T10:01:15Z</time>
      </trkpt>
      <trkpt lat="45.4413" lon="4.57116">
        <ele>607.69067382812</ele>
        <time>2009-09-12T10:01:22Z</time>
      </trkpt>
      <trkpt lat="45.4412" lon="4.57103">
        <ele>610.09375</ele>
        <time>2009-09-12T10:01:29Z</time>
      </trkpt>
      <trkpt lat="45.44112" lon="4.57089">
        <ele>611.53588867188</ele>
        <time>2009-09-12T10:01:35Z</time>
      </trkpt>
      <trkpt lat="45.44105" lon="4.57075">
        <ele>612.4970703125</ele>
        <time>2009-09-12T10:01:41Z</time>
      </trkpt>
      <trkpt lat="45.44098" lon="4.57058">
        <ele>612.97778320312</ele>
        <time>2009-09-12T10:01:47Z</time>
      </trkpt>
      <trkpt lat="45.44086" lon="4.57037">
        <ele>614.41967773438</ele>
        <time>2009-09-12T10:01:56Z</time>
      </trkpt>
      <trkpt lat="45.44081" lon="4.57024">
        <ele>614.900390625</ele>
        <time>2009-09-12T10:02:02Z</time>
      </trkpt>
      <trkpt lat="45.44078" lon="4.5701">
        <ele>616.82299804688</ele>
        <time>2009-09-12T10:02:08Z</time>
      </trkpt>
      <trkpt lat="45.44076" lon="4.57003">
        <ele>616.82299804688</ele>
        <time>2009-09-12T10:02:11Z</time>
      </trkpt>
      <trkpt lat="45.44075" lon="4.56986">
        <ele>618.74560546875</ele>
        <time>2009-09-12T10:02:18Z</time>
      </trkpt>
      <trkpt lat="45.44074" lon="4.56966">
        <ele>618.74560546875</ele>
        <time>2009-09-12T10:02:25Z</time>
      </trkpt>
      <trkpt lat="45.44073" lon="4.56951">
        <ele>619.22631835938</ele>
        <time>2009-09-12T10:02:30Z</time>
      </trkpt>
      <trkpt lat="45.44073" lon="4.56926">
        <ele>619.22631835938</ele>
        <time>2009-09-12T10:02:37Z</time>
      </trkpt>
      <trkpt lat="45.44077" lon="4.56914">
        <ele>618.74560546875</ele>
        <time>2009-09-12T10:02:40Z</time>
      </trkpt>
      <trkpt lat="45.44081" lon="4.56895">
        <ele>619.70703125</ele>
        <time>2009-09-12T10:02:45Z</time>
      </trkpt>
      <trkpt lat="45.44081" lon="4.56891">
        <ele>619.70703125</ele>
        <time>2009-09-12T10:02:46Z</time>
      </trkpt>
      <trkpt lat="45.44083" lon="4.56859">
        <ele>620.66845703125</ele>
        <time>2009-09-12T10:02:54Z</time>
      </trkpt>
      <trkpt lat="45.44085" lon="4.56838">
        <ele>622.1103515625</ele>
        <time>2009-09-12T10:03:00Z</time>
      </trkpt>
      <trkpt lat="45.44088" lon="4.56817">
        <ele>622.59106445312</ele>
        <time>2009-09-12T10:03:06Z</time>
      </trkpt>
      <trkpt lat="45.44086" lon="4.56788">
        <ele>623.55249023438</ele>
        <time>2009-09-12T10:03:14Z</time>
      </trkpt>
      <trkpt lat="45.44077" lon="4.56774">
        <ele>624.03295898438</ele>
        <time>2009-09-12T10:03:20Z</time>
      </trkpt>
      <trkpt lat="45.44073" lon="4.5677">
        <ele>624.513671875</ele>
        <time>2009-09-12T10:03:24Z</time>
      </trkpt>
      <trkpt lat="45.44067" lon="4.56766">
        <ele>625.95556640625</ele>
        <time>2009-09-12T10:03:29Z</time>
      </trkpt>
      <trkpt lat="45.44054" lon="4.56764">
        <ele>627.39770507812</ele>
        <time>2009-09-12T10:03:37Z</time>
      </trkpt>
      <trkpt lat="45.4404" lon="4.56758">
        <ele>629.32006835938</ele>
        <time>2009-09-12T10:03:44Z</time>
      </trkpt>
      <trkpt lat="45.44028" lon="4.56747">
        <ele>630.28149414062</ele>
        <time>2009-09-12T10:03:50Z</time>
      </trkpt>
      <trkpt lat="45.44017" lon="4.56731">
        <ele>629.80078125</ele>
        <time>2009-09-12T10:03:56Z</time>
      </trkpt>
      <trkpt lat="45.44007" lon="4.56712">
        <ele>630.28149414062</ele>
        <time>2009-09-12T10:04:02Z</time>
      </trkpt>
      <trkpt lat="45.44001" lon="4.56694">
        <ele>631.24291992188</ele>
        <time>2009-09-12T10:04:08Z</time>
      </trkpt>
      <trkpt lat="45.43997" lon="4.56672">
        <ele>631.72338867188</ele>
        <time>2009-09-12T10:04:15Z</time>
      </trkpt>
      <trkpt lat="45.43995" lon="4.56647">
        <ele>633.16528320312</ele>
        <time>2009-09-12T10:04:23Z</time>
      </trkpt>
      <trkpt lat="45.43996" lon="4.5663">
        <ele>634.12670898438</ele>
        <time>2009-09-12T10:04:29Z</time>
      </trkpt>
      <trkpt lat="45.43999" lon="4.56611">
        <ele>634.12670898438</ele>
        <time>2009-09-12T10:04:35Z</time>
      </trkpt>
      <trkpt lat="45.44004" lon="4.56588">
        <ele>635.56860351562</ele>
        <time>2009-09-12T10:04:42Z</time>
      </trkpt>
      <trkpt lat="45.44006" lon="4.56572">
        <ele>635.56860351562</ele>
        <time>2009-09-12T10:04:47Z</time>
      </trkpt>
      <trkpt lat="45.44013" lon="4.56555">
        <ele>636.5302734375</ele>
        <time>2009-09-12T10:04:52Z</time>
      </trkpt>
      <trkpt lat="45.44021" lon="4.56536">
        <ele>637.0107421875</ele>
        <time>2009-09-12T10:04:58Z</time>
      </trkpt>
      <trkpt lat="45.44026" lon="4.56516">
        <ele>637.97216796875</ele>
        <time>2009-09-12T10:05:04Z</time>
      </trkpt>
      <trkpt lat="45.44033" lon="4.56489">
        <ele>638.93359375</ele>
        <time>2009-09-12T10:05:12Z</time>
      </trkpt>
      <trkpt lat="45.44039" lon="4.56463">
        <ele>639.4140625</ele>
        <time>2009-09-12T10:05:20Z</time>
      </trkpt>
      <trkpt lat="45.44045" lon="4.56439">
        <ele>640.37548828125</ele>
        <time>2009-09-12T10:05:28Z</time>
      </trkpt>
      <trkpt lat="45.44053" lon="4.56413">
        <ele>642.29809570312</ele>
        <time>2009-09-12T10:05:38Z</time>
      </trkpt>
      <trkpt lat="45.44057" lon="4.56392">
        <ele>643.25927734375</ele>
        <time>2009-09-12T10:05:46Z</time>
      </trkpt>
      <trkpt lat="45.44064" lon="4.5636">
        <ele>644.220703125</ele>
        <time>2009-09-12T10:05:58Z</time>
      </trkpt>
      <trkpt lat="45.4407" lon="4.56336">
        <ele>646.14331054688</ele>
        <time>2009-09-12T10:06:08Z</time>
      </trkpt>
      <trkpt lat="45.44075" lon="4.56324">
        <ele>647.1044921875</ele>
        <time>2009-09-12T10:06:13Z</time>
      </trkpt>
      <trkpt lat="45.44079" lon="4.5631">
        <ele>648.06591796875</ele>
        <time>2009-09-12T10:06:20Z</time>
      </trkpt>
      <trkpt lat="45.44079" lon="4.56293">
        <ele>649.5078125</ele>
        <time>2009-09-12T10:06:27Z</time>
      </trkpt>
      <trkpt lat="45.44072" lon="4.56275">
        <ele>650.46923828125</ele>
        <time>2009-09-12T10:06:35Z</time>
      </trkpt>
      <trkpt lat="45.44065" lon="4.56265">
        <ele>651.43041992188</ele>
        <time>2009-09-12T10:06:40Z</time>
      </trkpt>
      <trkpt lat="45.44059" lon="4.56257">
        <ele>652.87255859375</ele>
        <time>2009-09-12T10:06:45Z</time>
      </trkpt>
      <trkpt lat="45.4405" lon="4.56244">
        <ele>653.833984375</ele>
        <time>2009-09-12T10:06:51Z</time>
      </trkpt>
      <trkpt lat="45.44041" lon="4.56231">
        <ele>655.27587890625</ele>
        <time>2009-09-12T10:06:57Z</time>
      </trkpt>
      <trkpt lat="45.44034" lon="4.56217">
        <ele>655.27587890625</ele>
        <time>2009-09-12T10:07:03Z</time>
      </trkpt>
      <trkpt lat="45.44028" lon="4.56203">
        <ele>655.75659179688</ele>
        <time>2009-09-12T10:07:08Z</time>
      </trkpt>
      <trkpt lat="45.44022" lon="4.56182">
        <ele>657.67919921875</ele>
        <time>2009-09-12T10:07:15Z</time>
      </trkpt>
      <trkpt lat="45.44012" lon="4.56157">
        <ele>658.64038085938</ele>
        <time>2009-09-12T10:07:23Z</time>
      </trkpt>
      <trkpt lat="45.44004" lon="4.56133">
        <ele>659.12109375</ele>
        <time>2009-09-12T10:07:31Z</time>
      </trkpt>
      <trkpt lat="45.43995" lon="4.56121">
        <ele>660.08227539062</ele>
        <time>2009-09-12T10:07:38Z</time>
      </trkpt>
      <trkpt lat="45.43989" lon="4.56119">
        <ele>661.5244140625</ele>
        <time>2009-09-12T10:07:42Z</time>
      </trkpt>
      <trkpt lat="45.4398" lon="4.56115">
        <ele>663.92749023438</ele>
        <time>2009-09-12T10:07:48Z</time>
      </trkpt>
      <trkpt lat="45.43977" lon="4.5611">
        <ele>663.92749023438</ele>
        <time>2009-09-12T10:07:53Z</time>
      </trkpt>
      <trkpt lat="45.43981" lon="4.56106">
        <ele>664.408203125</ele>
        <time>2009-09-12T10:07:59Z</time>
      </trkpt>
      <trkpt lat="45.43983" lon="4.56106">
        <ele>663.92749023438</ele>
        <time>2009-09-12T10:08:00Z</time>
      </trkpt>
      <trkpt lat="45.43995" lon="4.56108">
        <ele>664.88891601562</ele>
        <time>2009-09-12T10:08:07Z</time>
      </trkpt>
      <trkpt lat="45.44001" lon="4.56111">
        <ele>664.88891601562</ele>
        <time>2009-09-12T10:08:12Z</time>
      </trkpt>
      <trkpt lat="45.44004" lon="4.56113">
        <ele>664.88891601562</ele>
        <time>2009-09-12T10:08:14Z</time>
      </trkpt>
      <trkpt lat="45.44012" lon="4.56123">
        <ele>664.88891601562</ele>
        <time>2009-09-12T10:08:21Z</time>
      </trkpt>
      <trkpt lat="45.44014" lon="4.56124">
        <ele>665.36962890625</ele>
        <time>2009-09-12T10:08:22Z</time>
      </trkpt>
      <trkpt lat="45.44023" lon="4.56138">
        <ele>665.85034179688</ele>
        <time>2009-09-12T10:08:29Z</time>
      </trkpt>
      <trkpt lat="45.44035" lon="4.56154">
        <ele>666.8115234375</ele>
        <time>2009-09-12T10:08:36Z</time>
      </trkpt>
      <trkpt lat="45.44045" lon="4.56167">
        <ele>668.25366210938</ele>
        <time>2009-09-12T10:08:43Z</time>
      </trkpt>
      <trkpt lat="45.44053" lon="4.56175">
        <ele>669.69580078125</ele>
        <time>2009-09-12T10:08:48Z</time>
      </trkpt>
      <trkpt lat="45.44064" lon="4.56185">
        <ele>671.1376953125</ele>
        <time>2009-09-12T10:08:54Z</time>
      </trkpt>
      <trkpt lat="45.44074" lon="4.56194">
        <ele>672.57958984375</ele>
        <time>2009-09-12T10:09:00Z</time>
      </trkpt>
      <trkpt lat="45.44088" lon="4.56203">
        <ele>674.98291015625</ele>
        <time>2009-09-12T10:09:08Z</time>
      </trkpt>
      <trkpt lat="45.4409" lon="4.56204">
        <ele>674.98291015625</ele>
        <time>2009-09-12T10:09:09Z</time>
      </trkpt>
      <trkpt lat="45.44109" lon="4.56211">
        <ele>676.4248046875</ele>
        <time>2009-09-12T10:09:17Z</time>
      </trkpt>
      <trkpt lat="45.44121" lon="4.56217">
        <ele>676.90551757812</ele>
        <time>2009-09-12T10:09:23Z</time>
      </trkpt>
      <trkpt lat="45.44132" lon="4.56222">
        <ele>677.86669921875</ele>
        <time>2009-09-12T10:09:28Z</time>
      </trkpt>
      <trkpt lat="45.44141" lon="4.56229">
        <ele>678.828125</ele>
        <time>2009-09-12T10:09:33Z</time>
      </trkpt>
      <trkpt lat="45.44157" lon="4.56245">
        <ele>680.27001953125</ele>
        <time>2009-09-12T10:09:42Z</time>
      </trkpt>
      <trkpt lat="45.44167" lon="4.56263">
        <ele>681.7119140625</ele>
        <time>2009-09-12T10:09:50Z</time>
      </trkpt>
      <trkpt lat="45.44172" lon="4.56284">
        <ele>682.67333984375</ele>
        <time>2009-09-12T10:09:57Z</time>
      </trkpt>
      <trkpt lat="45.44175" lon="4.56302">
        <ele>684.11547851562</ele>
        <time>2009-09-12T10:10:03Z</time>
      </trkpt>
      <trkpt lat="45.44177" lon="4.56326">
        <ele>685.07690429688</ele>
        <time>2009-09-12T10:10:10Z</time>
      </trkpt>
      <trkpt lat="45.44175" lon="4.5635">
        <ele>685.55737304688</ele>
        <time>2009-09-12T10:10:17Z</time>
      </trkpt>
      <trkpt lat="45.44171" lon="4.56367">
        <ele>685.55737304688</ele>
        <time>2009-09-12T10:10:24Z</time>
      </trkpt>
      <trkpt lat="45.44173" lon="4.56369">
        <ele>686.0380859375</ele>
        <time>2009-09-12T10:10:26Z</time>
      </trkpt>
      <trkpt lat="45.44176" lon="4.56367">
        <ele>686.0380859375</ele>
        <time>2009-09-12T10:10:30Z</time>
      </trkpt>
      <trkpt lat="45.44182" lon="4.56352">
        <ele>686.99926757812</ele>
        <time>2009-09-12T10:10:38Z</time>
      </trkpt>
      <trkpt lat="45.44186" lon="4.56334">
        <ele>687.47998046875</ele>
        <time>2009-09-12T10:10:46Z</time>
      </trkpt>
      <trkpt lat="45.44191" lon="4.56314">
        <ele>687.96069335938</ele>
        <time>2009-09-12T10:10:53Z</time>
      </trkpt>
      <trkpt lat="45.44197" lon="4.5629">
        <ele>690.36401367188</ele>
        <time>2009-09-12T10:11:01Z</time>
      </trkpt>
      <trkpt lat="45.44202" lon="4.56263">
        <ele>691.80590820312</ele>
        <time>2009-09-12T10:11:10Z</time>
      </trkpt>
      <trkpt lat="45.44207" lon="4.56231">
        <ele>694.20922851562</ele>
        <time>2009-09-12T10:11:20Z</time>
      </trkpt>
      <trkpt lat="45.44205" lon="4.56212">
        <ele>695.17041015625</ele>
        <time>2009-09-12T10:11:27Z</time>
      </trkpt>
      <trkpt lat="45.44204" lon="4.56211">
        <ele>695.17041015625</ele>
        <time>2009-09-12T10:11:29Z</time>
      </trkpt>
      <trkpt lat="45.44208" lon="4.56222">
        <ele>694.68969726562</ele>
        <time>2009-09-12T10:11:35Z</time>
      </trkpt>
      <trkpt lat="45.4421" lon="4.56225">
        <ele>694.20922851562</ele>
        <time>2009-09-12T10:11:37Z</time>
      </trkpt>
      <trkpt lat="45.44212" lon="4.56229">
        <ele>694.68969726562</ele>
        <time>2009-09-12T10:11:39Z</time>
      </trkpt>
      <trkpt lat="45.44209" lon="4.56232">
        <ele>694.20922851562</ele>
        <time>2009-09-12T10:11:45Z</time>
      </trkpt>
      <trkpt lat="45.44208" lon="4.56229">
        <ele>694.68969726562</ele>
        <time>2009-09-12T10:11:51Z</time>
      </trkpt>
      <trkpt lat="45.44207" lon="4.56228">
        <ele>694.20922851562</ele>
        <time>2009-09-12T10:11:59Z</time>
      </trkpt>
      <trkpt lat="45.44207" lon="4.56229">
        <ele>694.20922851562</ele>
        <time>2009-09-12T10:12:08Z</time>
      </trkpt>
      <trkpt lat="45.44207" lon="4.56228">
        <ele>694.20922851562</ele>
        <time>2009-09-12T10:12:16Z</time>
      </trkpt>
      <trkpt lat="45.44205" lon="4.56215">
        <ele>695.17041015625</ele>
        <time>2009-09-12T10:12:22Z</time>
      </trkpt>
      <trkpt lat="45.44198" lon="4.56195">
        <ele>696.1318359375</ele>
        <time>2009-09-12T10:12:31Z</time>
      </trkpt>
      <trkpt lat="45.44191" lon="4.56177">
        <ele>697.57373046875</ele>
        <time>2009-09-12T10:12:40Z</time>
      </trkpt>
      <trkpt lat="45.44185" lon="4.56165">
        <ele>698.53491210938</ele>
        <time>2009-09-12T10:12:46Z</time>
      </trkpt>
      <trkpt lat="45.44181" lon="4.56152">
        <ele>699.015625</ele>
        <time>2009-09-12T10:12:53Z</time>
      </trkpt>
      <trkpt lat="45.44173" lon="4.56137">
        <ele>699.97705078125</ele>
        <time>2009-09-12T10:13:02Z</time>
      </trkpt>
      <trkpt lat="45.44164" lon="4.56125">
        <ele>701.41918945312</ele>
        <time>2009-09-12T10:13:10Z</time>
      </trkpt>
      <trkpt lat="45.44156" lon="4.56114">
        <ele>702.38037109375</ele>
        <time>2009-09-12T10:13:18Z</time>
      </trkpt>
      <trkpt lat="45.44146" lon="4.56101">
        <ele>703.341796875</ele>
        <time>2009-09-12T10:13:27Z</time>
      </trkpt>
      <trkpt lat="45.44136" lon="4.56081">
        <ele>705.26440429688</ele>
        <time>2009-09-12T10:13:38Z</time>
      </trkpt>
      <trkpt lat="45.44132" lon="4.56069">
        <ele>706.2255859375</ele>
        <time>2009-09-12T10:13:45Z</time>
      </trkpt>
      <trkpt lat="45.44126" lon="4.5605">
        <ele>706.70629882812</ele>
        <time>2009-09-12T10:13:54Z</time>
      </trkpt>
      <trkpt lat="45.44121" lon="4.56036">
        <ele>708.1484375</ele>
        <time>2009-09-12T10:14:01Z</time>
      </trkpt>
      <trkpt lat="45.44118" lon="4.56025">
        <ele>709.10961914062</ele>
        <time>2009-09-12T10:14:07Z</time>
      </trkpt>
      <trkpt lat="45.44109" lon="4.56009">
        <ele>709.59033203125</ele>
        <time>2009-09-12T10:14:15Z</time>
      </trkpt>
      <trkpt lat="45.44109" lon="4.56008">
        <ele>710.07080078125</ele>
        <time>2009-09-12T10:14:16Z</time>
      </trkpt>
      <trkpt lat="45.44107" lon="4.56001">
        <ele>711.0322265625</ele>
        <time>2009-09-12T10:14:20Z</time>
      </trkpt>
      <trkpt lat="45.44099" lon="4.55991">
        <ele>711.51293945312</ele>
        <time>2009-09-12T10:14:28Z</time>
      </trkpt>
      <trkpt lat="45.44093" lon="4.55985">
        <ele>712.47412109375</ele>
        <time>2009-09-12T10:14:34Z</time>
      </trkpt>
      <trkpt lat="45.44085" lon="4.55979">
        <ele>713.435546875</ele>
        <time>2009-09-12T10:14:40Z</time>
      </trkpt>
      <trkpt lat="45.4408" lon="4.55974">
        <ele>713.916015625</ele>
        <time>2009-09-12T10:14:46Z</time>
      </trkpt>
      <trkpt lat="45.44072" lon="4.55967">
        <ele>714.87744140625</ele>
        <time>2009-09-12T10:14:53Z</time>
      </trkpt>
      <trkpt lat="45.44064" lon="4.55961">
        <ele>714.87744140625</ele>
        <time>2009-09-12T10:14:59Z</time>
      </trkpt>
      <trkpt lat="45.44053" lon="4.55953">
        <ele>716.80029296875</ele>
        <time>2009-09-12T10:15:07Z</time>
      </trkpt>
      <trkpt lat="45.44043" lon="4.55945">
        <ele>718.2421875</ele>
        <time>2009-09-12T10:15:14Z</time>
      </trkpt>
      <trkpt lat="45.44033" lon="4.55936">
        <ele>719.20361328125</ele>
        <time>2009-09-12T10:15:20Z</time>
      </trkpt>
      <trkpt lat="45.44023" lon="4.55926">
        <ele>720.6455078125</ele>
        <time>2009-09-12T10:15:28Z</time>
      </trkpt>
      <trkpt lat="45.44018" lon="4.55922">
        <ele>721.60668945312</ele>
        <time>2009-09-12T10:15:33Z</time>
      </trkpt>
      <trkpt lat="45.4401" lon="4.55916">
        <ele>722.56811523438</ele>
        <time>2009-09-12T10:15:40Z</time>
      </trkpt>
      <trkpt lat="45.43999" lon="4.55908">
        <ele>723.52954101562</ele>
        <time>2009-09-12T10:15:48Z</time>
      </trkpt>
      <trkpt lat="45.4399" lon="4.55902">
        <ele>724.01000976562</ele>
        <time>2009-09-12T10:15:54Z</time>
      </trkpt>
      <trkpt lat="45.43986" lon="4.55897">
        <ele>724.97143554688</ele>
        <time>2009-09-12T10:15:58Z</time>
      </trkpt>
      <trkpt lat="45.43979" lon="4.55891">
        <ele>725.9326171875</ele>
        <time>2009-09-12T10:16:05Z</time>
      </trkpt>
      <trkpt lat="45.43971" lon="4.55883">
        <ele>726.89404296875</ele>
        <time>2009-09-12T10:16:13Z</time>
      </trkpt>
      <trkpt lat="45.43964" lon="4.55878">
        <ele>727.85522460938</ele>
        <time>2009-09-12T10:16:18Z</time>
      </trkpt>
      <trkpt lat="45.43956" lon="4.55869">
        <ele>728.81665039062</ele>
        <time>2009-09-12T10:16:25Z</time>
      </trkpt>
      <trkpt lat="45.43947" lon="4.55859">
        <ele>730.25854492188</ele>
        <time>2009-09-12T10:16:33Z</time>
      </trkpt>
      <trkpt lat="45.43939" lon="4.5585">
        <ele>731.21997070312</ele>
        <time>2009-09-12T10:16:40Z</time>
      </trkpt>
      <trkpt lat="45.43929" lon="4.55839">
        <ele>731.70043945312</ele>
        <time>2009-09-12T10:16:48Z</time>
      </trkpt>
      <trkpt lat="45.43919" lon="4.55829">
        <ele>733.142578125</ele>
        <time>2009-09-12T10:16:56Z</time>
      </trkpt>
      <trkpt lat="45.43911" lon="4.55822">
        <ele>733.62329101562</ele>
        <time>2009-09-12T10:17:02Z</time>
      </trkpt>
      <trkpt lat="45.43902" lon="4.55812">
        <ele>734.58471679688</ele>
        <time>2009-09-12T10:17:10Z</time>
      </trkpt>
      <trkpt lat="45.43891" lon="4.55798">
        <ele>735.5458984375</ele>
        <time>2009-09-12T10:17:19Z</time>
      </trkpt>
      <trkpt lat="45.43884" lon="4.5579">
        <ele>736.02661132812</ele>
        <time>2009-09-12T10:17:24Z</time>
      </trkpt>
      <trkpt lat="45.43874" lon="4.55779">
        <ele>736.98779296875</ele>
        <time>2009-09-12T10:17:31Z</time>
      </trkpt>
      <trkpt lat="45.43862" lon="4.5577">
        <ele>737.46850585938</ele>
        <time>2009-09-12T10:17:38Z</time>
      </trkpt>
      <trkpt lat="45.43849" lon="4.55765">
        <ele>736.98779296875</ele>
        <time>2009-09-12T10:17:44Z</time>
      </trkpt>
      <trkpt lat="45.43836" lon="4.55762">
        <ele>736.98779296875</ele>
        <time>2009-09-12T10:17:49Z</time>
      </trkpt>
      <trkpt lat="45.43822" lon="4.5576">
        <ele>736.98779296875</ele>
        <time>2009-09-12T10:17:55Z</time>
      </trkpt>
      <trkpt lat="45.43805" lon="4.55765">
        <ele>736.98779296875</ele>
        <time>2009-09-12T10:18:01Z</time>
      </trkpt>
      <trkpt lat="45.43786" lon="4.55777">
        <ele>736.50732421875</ele>
        <time>2009-09-12T10:18:07Z</time>
      </trkpt>
      <trkpt lat="45.43771" lon="4.55792">
        <ele>736.50732421875</ele>
        <time>2009-09-12T10:18:12Z</time>
      </trkpt>
      <trkpt lat="45.4375" lon="4.55816">
        <ele>736.50732421875</ele>
        <time>2009-09-12T10:18:19Z</time>
      </trkpt>
      <trkpt lat="45.43729" lon="4.55848">
        <ele>736.50732421875</ele>
        <time>2009-09-12T10:18:26Z</time>
      </trkpt>
      <trkpt lat="45.43723" lon="4.55865">
        <ele>736.50732421875</ele>
        <time>2009-09-12T10:18:29Z</time>
      </trkpt>
      <trkpt lat="45.43712" lon="4.55918">
        <ele>733.62329101562</ele>
        <time>2009-09-12T10:18:36Z</time>
      </trkpt>
      <trkpt lat="45.43703" lon="4.55966">
        <ele>730.7392578125</ele>
        <time>2009-09-12T10:18:41Z</time>
      </trkpt>
      <trkpt lat="45.43695" lon="4.55996">
        <ele>730.25854492188</ele>
        <time>2009-09-12T10:18:44Z</time>
      </trkpt>
      <trkpt lat="45.43678" lon="4.56027">
        <ele>730.25854492188</ele>
        <time>2009-09-12T10:18:48Z</time>
      </trkpt>
      <trkpt lat="45.43658" lon="4.56054">
        <ele>731.21997070312</ele>
        <time>2009-09-12T10:18:54Z</time>
      </trkpt>
      <trkpt lat="45.43649" lon="4.56072">
        <ele>732.18139648438</ele>
        <time>2009-09-12T10:18:59Z</time>
      </trkpt>
      <trkpt lat="45.4364" lon="4.56093">
        <ele>734.10400390625</ele>
        <time>2009-09-12T10:19:05Z</time>
      </trkpt>
      <trkpt lat="45.43634" lon="4.56108">
        <ele>736.02661132812</ele>
        <time>2009-09-12T10:19:10Z</time>
      </trkpt>
      <trkpt lat="45.43631" lon="4.5613">
        <ele>736.98779296875</ele>
        <time>2009-09-12T10:19:17Z</time>
      </trkpt>
      <trkpt lat="45.43622" lon="4.56157">
        <ele>738.42993164062</ele>
        <time>2009-09-12T10:19:26Z</time>
      </trkpt>
      <trkpt lat="45.43613" lon="4.56176">
        <ele>739.39111328125</ele>
        <time>2009-09-12T10:19:33Z</time>
      </trkpt>
      <trkpt lat="45.43604" lon="4.56197">
        <ele>740.3525390625</ele>
        <time>2009-09-12T10:19:41Z</time>
      </trkpt>
      <trkpt lat="45.43595" lon="4.56211">
        <ele>739.87182617188</ele>
        <time>2009-09-12T10:19:48Z</time>
      </trkpt>
      <trkpt lat="45.43586" lon="4.56224">
        <ele>740.3525390625</ele>
        <time>2009-09-12T10:19:55Z</time>
      </trkpt>
      <trkpt lat="45.43583" lon="4.56228">
        <ele>740.3525390625</ele>
        <time>2009-09-12T10:19:58Z</time>
      </trkpt>
      <trkpt lat="45.43575" lon="4.56234">
        <ele>740.3525390625</ele>
        <time>2009-09-12T10:20:04Z</time>
      </trkpt>
      <trkpt lat="45.43562" lon="4.56242">
        <ele>740.8330078125</ele>
        <time>2009-09-12T10:20:11Z</time>
      </trkpt>
      <trkpt lat="45.43551" lon="4.56244">
        <ele>741.79443359375</ele>
        <time>2009-09-12T10:20:16Z</time>
      </trkpt>
      <trkpt lat="45.43537" lon="4.5624">
        <ele>743.236328125</ele>
        <time>2009-09-12T10:20:22Z</time>
      </trkpt>
      <trkpt lat="45.43525" lon="4.5623">
        <ele>744.19775390625</ele>
        <time>2009-09-12T10:20:28Z</time>
      </trkpt>
      <trkpt lat="45.43515" lon="4.5621">
        <ele>744.67822265625</ele>
        <time>2009-09-12T10:20:35Z</time>
      </trkpt>
      <trkpt lat="45.43511" lon="4.56188">
        <ele>745.6396484375</ele>
        <time>2009-09-12T10:20:41Z</time>
      </trkpt>
      <trkpt lat="45.43508" lon="4.56157">
        <ele>747.56225585938</ele>
        <time>2009-09-12T10:20:50Z</time>
      </trkpt>
      <trkpt lat="45.43502" lon="4.56137">
        <ele>749.48510742188</ele>
        <time>2009-09-12T10:20:56Z</time>
      </trkpt>
      <trkpt lat="45.43496" lon="4.56117">
        <ele>749.9658203125</ele>
        <time>2009-09-12T10:21:02Z</time>
      </trkpt>
      <trkpt lat="45.43488" lon="4.56091">
        <ele>752.36889648438</ele>
        <time>2009-09-12T10:21:10Z</time>
      </trkpt>
      <trkpt lat="45.43481" lon="4.56068">
        <ele>753.33032226562</ele>
        <time>2009-09-12T10:21:17Z</time>
      </trkpt>
      <trkpt lat="45.43479" lon="4.56055">
        <ele>754.29174804688</ele>
        <time>2009-09-12T10:21:21Z</time>
      </trkpt>
      <trkpt lat="45.43475" lon="4.56034">
        <ele>755.73364257812</ele>
        <time>2009-09-12T10:21:28Z</time>
      </trkpt>
      <trkpt lat="45.4347" lon="4.56012">
        <ele>757.17553710938</ele>
        <time>2009-09-12T10:21:35Z</time>
      </trkpt>
      <trkpt lat="45.43468" lon="4.55995">
        <ele>758.61743164062</ele>
        <time>2009-09-12T10:21:41Z</time>
      </trkpt>
      <trkpt lat="45.43462" lon="4.55972">
        <ele>760.5400390625</ele>
        <time>2009-09-12T10:21:49Z</time>
      </trkpt>
      <trkpt lat="45.43454" lon="4.55951">
        <ele>762.46264648438</ele>
        <time>2009-09-12T10:21:57Z</time>
      </trkpt>
      <trkpt lat="45.43446" lon="4.55931">
        <ele>763.90454101562</ele>
        <time>2009-09-12T10:22:05Z</time>
      </trkpt>
      <trkpt lat="45.43441" lon="4.55915">
        <ele>765.34692382812</ele>
        <time>2009-09-12T10:22:13Z</time>
      </trkpt>
      <trkpt lat="45.43429" lon="4.55901">
        <ele>764.8662109375</ele>
        <time>2009-09-12T10:22:19Z</time>
      </trkpt>
      <trkpt lat="45.43412" lon="4.55887">
        <ele>765.34692382812</ele>
        <time>2009-09-12T10:22:26Z</time>
      </trkpt>
      <trkpt lat="45.43396" lon="4.55877">
        <ele>765.34692382812</ele>
        <time>2009-09-12T10:22:32Z</time>
      </trkpt>
      <trkpt lat="45.43381" lon="4.55861">
        <ele>765.82763671875</ele>
        <time>2009-09-12T10:22:38Z</time>
      </trkpt>
      <trkpt lat="45.43363" lon="4.55842">
        <ele>767.75</ele>
        <time>2009-09-12T10:22:45Z</time>
      </trkpt>
      <trkpt lat="45.43349" lon="4.55831">
        <ele>769.6728515625</ele>
        <time>2009-09-12T10:22:52Z</time>
      </trkpt>
      <trkpt lat="45.43344" lon="4.55828">
        <ele>770.1533203125</ele>
        <time>2009-09-12T10:22:55Z</time>
      </trkpt>
      <trkpt lat="45.43338" lon="4.55824">
        <ele>771.59521484375</ele>
        <time>2009-09-12T10:22:59Z</time>
      </trkpt>
      <trkpt lat="45.43323" lon="4.55819">
        <ele>773.03735351562</ele>
        <time>2009-09-12T10:23:06Z</time>
      </trkpt>
      <trkpt lat="45.4331" lon="4.5581">
        <ele>774.47924804688</ele>
        <time>2009-09-12T10:23:12Z</time>
      </trkpt>
      <trkpt lat="45.43299" lon="4.55803">
        <ele>775.4404296875</ele>
        <time>2009-09-12T10:23:17Z</time>
      </trkpt>
      <trkpt lat="45.43285" lon="4.55793">
        <ele>776.88256835938</ele>
        <time>2009-09-12T10:23:23Z</time>
      </trkpt>
      <trkpt lat="45.43274" lon="4.55784">
        <ele>778.32446289062</ele>
        <time>2009-09-12T10:23:29Z</time>
      </trkpt>
      <trkpt lat="45.43261" lon="4.5577">
        <ele>778.80517578125</ele>
        <time>2009-09-12T10:23:35Z</time>
      </trkpt>
      <trkpt lat="45.43248" lon="4.55754">
        <ele>779.76635742188</ele>
        <time>2009-09-12T10:23:41Z</time>
      </trkpt>
      <trkpt lat="45.43237" lon="4.55735">
        <ele>780.24731445312</ele>
        <time>2009-09-12T10:23:47Z</time>
      </trkpt>
      <trkpt lat="45.43223" lon="4.55712">
        <ele>779.76635742188</ele>
        <time>2009-09-12T10:23:53Z</time>
      </trkpt>
      <trkpt lat="45.43212" lon="4.55684">
        <ele>779.76635742188</ele>
        <time>2009-09-12T10:23:58Z</time>
      </trkpt>
      <trkpt lat="45.43203" lon="4.5565">
        <ele>780.72802734375</ele>
        <time>2009-09-12T10:24:05Z</time>
      </trkpt>
      <trkpt lat="45.43195" lon="4.55618">
        <ele>781.68920898438</ele>
        <time>2009-09-12T10:24:12Z</time>
      </trkpt>
      <trkpt lat="45.4319" lon="4.55592">
        <ele>782.65063476562</ele>
        <time>2009-09-12T10:24:18Z</time>
      </trkpt>
      <trkpt lat="45.43187" lon="4.55579">
        <ele>784.09252929688</ele>
        <time>2009-09-12T10:24:21Z</time>
      </trkpt>
      <trkpt lat="45.43179" lon="4.55546">
        <ele>785.53442382812</ele>
        <time>2009-09-12T10:24:29Z</time>
      </trkpt>
      <trkpt lat="45.43173" lon="4.55514">
        <ele>787.93774414062</ele>
        <time>2009-09-12T10:24:37Z</time>
      </trkpt>
      <trkpt lat="45.43166" lon="4.5549">
        <ele>789.37963867188</ele>
        <time>2009-09-12T10:24:43Z</time>
      </trkpt>
      <trkpt lat="45.43166" lon="4.55462">
        <ele>790.82153320312</ele>
        <time>2009-09-12T10:24:51Z</time>
      </trkpt>
      <trkpt lat="45.43165" lon="4.55442">
        <ele>791.78295898438</ele>
        <time>2009-09-12T10:24:56Z</time>
      </trkpt>
      <trkpt lat="45.43165" lon="4.55421">
        <ele>793.22485351562</ele>
        <time>2009-09-12T10:25:02Z</time>
      </trkpt>
      <trkpt lat="45.43166" lon="4.554">
        <ele>794.18627929688</ele>
        <time>2009-09-12T10:25:08Z</time>
      </trkpt>
      <trkpt lat="45.43169" lon="4.5538">
        <ele>795.1474609375</ele>
        <time>2009-09-12T10:25:14Z</time>
      </trkpt>
      <trkpt lat="45.43178" lon="4.55366">
        <ele>797.55102539062</ele>
        <time>2009-09-12T10:25:19Z</time>
      </trkpt>
      <trkpt lat="45.43186" lon="4.55353">
        <ele>798.99291992188</ele>
        <time>2009-09-12T10:25:24Z</time>
      </trkpt>
      <trkpt lat="45.43196" lon="4.55337">
        <ele>801.39624023438</ele>
        <time>2009-09-12T10:25:30Z</time>
      </trkpt>
      <trkpt lat="45.43206" lon="4.55321">
        <ele>803.31884765625</ele>
        <time>2009-09-12T10:25:36Z</time>
      </trkpt>
      <trkpt lat="45.43217" lon="4.55305">
        <ele>803.79956054688</ele>
        <time>2009-09-12T10:25:42Z</time>
      </trkpt>
      <trkpt lat="45.43221" lon="4.55278">
        <ele>805.72216796875</ele>
        <time>2009-09-12T10:25:51Z</time>
      </trkpt>
      <trkpt lat="45.43231" lon="4.5526">
        <ele>806.68334960938</ele>
        <time>2009-09-12T10:25:57Z</time>
      </trkpt>
      <trkpt lat="45.43242" lon="4.55237">
        <ele>807.64477539062</ele>
        <time>2009-09-12T10:26:04Z</time>
      </trkpt>
      <trkpt lat="45.43249" lon="4.5522">
        <ele>808.12548828125</ele>
        <time>2009-09-12T10:26:09Z</time>
      </trkpt>
      <trkpt lat="45.43258" lon="4.55193">
        <ele>809.5673828125</ele>
        <time>2009-09-12T10:26:16Z</time>
      </trkpt>
      <trkpt lat="45.43266" lon="4.55165">
        <ele>810.0478515625</ele>
        <time>2009-09-12T10:26:23Z</time>
      </trkpt>
      <trkpt lat="45.43273" lon="4.55139">
        <ele>809.5673828125</ele>
        <time>2009-09-12T10:26:29Z</time>
      </trkpt>
      <trkpt lat="45.43276" lon="4.55113">
        <ele>810.0478515625</ele>
        <time>2009-09-12T10:26:35Z</time>
      </trkpt>
      <trkpt lat="45.43279" lon="4.55085">
        <ele>808.60595703125</ele>
        <time>2009-09-12T10:26:40Z</time>
      </trkpt>
      <trkpt lat="45.43285" lon="4.55054">
        <ele>808.12548828125</ele>
        <time>2009-09-12T10:26:45Z</time>
      </trkpt>
      <trkpt lat="45.43289" lon="4.55034">
        <ele>807.1640625</ele>
        <time>2009-09-12T10:26:48Z</time>
      </trkpt>
      <trkpt lat="45.43303" lon="4.54985">
        <ele>806.20263671875</ele>
        <time>2009-09-12T10:26:55Z</time>
      </trkpt>
      <trkpt lat="45.43317" lon="4.54938">
        <ele>806.20263671875</ele>
        <time>2009-09-12T10:27:02Z</time>
      </trkpt>
      <trkpt lat="45.43323" lon="4.5492">
        <ele>806.68334960938</ele>
        <time>2009-09-12T10:27:05Z</time>
      </trkpt>
      <trkpt lat="45.43333" lon="4.54895">
        <ele>807.1640625</ele>
        <time>2009-09-12T10:27:11Z</time>
      </trkpt>
      <trkpt lat="45.4333" lon="4.54889">
        <ele>806.68334960938</ele>
        <time>2009-09-12T10:27:15Z</time>
      </trkpt>
      <trkpt lat="45.43328" lon="4.54897">
        <ele>806.68334960938</ele>
        <time>2009-09-12T10:27:17Z</time>
      </trkpt>
      <trkpt lat="45.43326" lon="4.54909">
        <ele>806.68334960938</ele>
        <time>2009-09-12T10:27:19Z</time>
      </trkpt>
      <trkpt lat="45.43312" lon="4.54958">
        <ele>806.68334960938</ele>
        <time>2009-09-12T10:27:25Z</time>
      </trkpt>
      <trkpt lat="45.43299" lon="4.55002">
        <ele>806.20263671875</ele>
        <time>2009-09-12T10:27:30Z</time>
      </trkpt>
      <trkpt lat="45.43291" lon="4.55041">
        <ele>807.64477539062</ele>
        <time>2009-09-12T10:27:35Z</time>
      </trkpt>
      <trkpt lat="45.43288" lon="4.55061">
        <ele>808.60595703125</ele>
        <time>2009-09-12T10:27:38Z</time>
      </trkpt>
      <trkpt lat="45.43288" lon="4.55075">
        <ele>809.08666992188</ele>
        <time>2009-09-12T10:27:40Z</time>
      </trkpt>
      <trkpt lat="45.43287" lon="4.55097">
        <ele>810.0478515625</ele>
        <time>2009-09-12T10:27:43Z</time>
      </trkpt>
      <trkpt lat="45.43277" lon="4.55147">
        <ele>810.0478515625</ele>
        <time>2009-09-12T10:27:50Z</time>
      </trkpt>
      <trkpt lat="45.4327" lon="4.55168">
        <ele>810.0478515625</ele>
        <time>2009-09-12T10:27:53Z</time>
      </trkpt>
      <trkpt lat="45.43253" lon="4.55219">
        <ele>808.60595703125</ele>
        <time>2009-09-12T10:28:01Z</time>
      </trkpt>
      <trkpt lat="45.4325" lon="4.55227">
        <ele>807.64477539062</ele>
        <time>2009-09-12T10:28:04Z</time>
      </trkpt>
      <trkpt lat="45.4325" lon="4.55227">
        <ele>808.12548828125</ele>
        <time>2009-09-12T10:28:05Z</time>
      </trkpt>
      <trkpt lat="45.43258" lon="4.5522">
        <ele>808.12548828125</ele>
        <time>2009-09-12T10:28:09Z</time>
      </trkpt>
      <trkpt lat="45.43262" lon="4.55205">
        <ele>808.60595703125</ele>
        <time>2009-09-12T10:28:13Z</time>
      </trkpt>
      <trkpt lat="45.43264" lon="4.55193">
        <ele>809.08666992188</ele>
        <time>2009-09-12T10:28:17Z</time>
      </trkpt>
      <trkpt lat="45.43264" lon="4.5519">
        <ele>809.08666992188</ele>
        <time>2009-09-12T10:28:18Z</time>
      </trkpt>
      <trkpt lat="45.43269" lon="4.55164">
        <ele>809.5673828125</ele>
        <time>2009-09-12T10:28:25Z</time>
      </trkpt>
      <trkpt lat="45.43274" lon="4.55145">
        <ele>810.0478515625</ele>
        <time>2009-09-12T10:28:30Z</time>
      </trkpt>
      <trkpt lat="45.43278" lon="4.55127">
        <ele>810.0478515625</ele>
        <time>2009-09-12T10:28:35Z</time>
      </trkpt>
      <trkpt lat="45.43277" lon="4.55104">
        <ele>809.5673828125</ele>
        <time>2009-09-12T10:28:40Z</time>
      </trkpt>
      <trkpt lat="45.43279" lon="4.5508">
        <ele>808.12548828125</ele>
        <time>2009-09-12T10:28:45Z</time>
      </trkpt>
      <trkpt lat="45.4328" lon="4.55068">
        <ele>808.60595703125</ele>
        <time>2009-09-12T10:28:47Z</time>
      </trkpt>
      <trkpt lat="45.43285" lon="4.55047">
        <ele>807.64477539062</ele>
        <time>2009-09-12T10:28:50Z</time>
      </trkpt>
      <trkpt lat="45.43289" lon="4.55016">
        <ele>806.68334960938</ele>
        <time>2009-09-12T10:28:54Z</time>
      </trkpt>
      <trkpt lat="45.43306" lon="4.54967">
        <ele>806.20263671875</ele>
        <time>2009-09-12T10:29:01Z</time>
      </trkpt>
      <trkpt lat="45.43317" lon="4.54931">
        <ele>806.68334960938</ele>
        <time>2009-09-12T10:29:08Z</time>
      </trkpt>
      <trkpt lat="45.43325" lon="4.54896">
        <ele>806.68334960938</ele>
        <time>2009-09-12T10:29:16Z</time>
      </trkpt>
      <trkpt lat="45.43331" lon="4.54882">
        <ele>806.68334960938</ele>
        <time>2009-09-12T10:29:22Z</time>
      </trkpt>
      <trkpt lat="45.43332" lon="4.54882">
        <ele>806.20263671875</ele>
        <time>2009-09-12T10:29:34Z</time>
      </trkpt>
      <trkpt lat="45.43331" lon="4.54884">
        <ele>806.68334960938</ele>
        <time>2009-09-12T10:30:10Z</time>
      </trkpt>
      <trkpt lat="45.43331" lon="4.54883">
        <ele>806.20263671875</ele>
        <time>2009-09-12T10:30:12Z</time>
      </trkpt>
      <trkpt lat="45.43328" lon="4.54882">
        <ele>804.7607421875</ele>
        <time>2009-09-12T10:30:17Z</time>
      </trkpt>
      <trkpt lat="45.43328" lon="4.54881">
        <ele>804.7607421875</ele>
        <time>2009-09-12T10:30:18Z</time>
      </trkpt>
      <trkpt lat="45.43327" lon="4.54881">
        <ele>806.20263671875</ele>
        <time>2009-09-12T10:30:47Z</time>
      </trkpt>
      <trkpt lat="45.43329" lon="4.54883">
        <ele>805.72216796875</ele>
        <time>2009-09-12T10:30:52Z</time>
      </trkpt>
      <trkpt lat="45.43328" lon="4.54884">
        <ele>806.20263671875</ele>
        <time>2009-09-12T10:31:41Z</time>
      </trkpt>
      <trkpt lat="45.43328" lon="4.54884">
        <ele>805.24145507812</ele>
        <time>2009-09-12T10:32:08Z</time>
      </trkpt>
      <trkpt lat="45.43328" lon="4.54883">
        <ele>805.24145507812</ele>
        <time>2009-09-12T10:32:21Z</time>
      </trkpt>
      <trkpt lat="45.4333" lon="4.54867">
        <ele>804.2802734375</ele>
        <time>2009-09-12T10:32:26Z</time>
      </trkpt>
      <trkpt lat="45.43335" lon="4.54849">
        <ele>802.357421875</ele>
        <time>2009-09-12T10:32:30Z</time>
      </trkpt>
      <trkpt lat="45.4334" lon="4.5483">
        <ele>800.91552734375</ele>
        <time>2009-09-12T10:32:33Z</time>
      </trkpt>
      <trkpt lat="45.43349" lon="4.54796">
        <ele>797.55102539062</ele>
        <time>2009-09-12T10:32:38Z</time>
      </trkpt>
      <trkpt lat="45.43352" lon="4.54779">
        <ele>795.62817382812</ele>
        <time>2009-09-12T10:32:41Z</time>
      </trkpt>
      <trkpt lat="45.43355" lon="4.54756">
        <ele>793.22485351562</ele>
        <time>2009-09-12T10:32:46Z</time>
      </trkpt>
      <trkpt lat="45.43364" lon="4.54756">
        <ele>793.22485351562</ele>
        <time>2009-09-12T10:32:51Z</time>
      </trkpt>
      <trkpt lat="45.43369" lon="4.54764">
        <ele>793.70556640625</ele>
        <time>2009-09-12T10:32:55Z</time>
      </trkpt>
      <trkpt lat="45.43381" lon="4.5478">
        <ele>794.66674804688</ele>
        <time>2009-09-12T10:33:03Z</time>
      </trkpt>
      <trkpt lat="45.43392" lon="4.54798">
        <ele>795.62817382812</ele>
        <time>2009-09-12T10:33:11Z</time>
      </trkpt>
      <trkpt lat="45.43408" lon="4.54821">
        <ele>797.0703125</ele>
        <time>2009-09-12T10:33:21Z</time>
      </trkpt>
      <trkpt lat="45.43422" lon="4.54842">
        <ele>797.55102539062</ele>
        <time>2009-09-12T10:33:30Z</time>
      </trkpt>
      <trkpt lat="45.43435" lon="4.5486">
        <ele>799.4736328125</ele>
        <time>2009-09-12T10:33:38Z</time>
      </trkpt>
      <trkpt lat="45.43445" lon="4.54876">
        <ele>799.95434570312</ele>
        <time>2009-09-12T10:33:45Z</time>
      </trkpt>
      <trkpt lat="45.43461" lon="4.54904">
        <ele>801.39624023438</ele>
        <time>2009-09-12T10:33:56Z</time>
      </trkpt>
      <trkpt lat="45.43471" lon="4.54924">
        <ele>801.876953125</ele>
        <time>2009-09-12T10:34:04Z</time>
      </trkpt>
      <trkpt lat="45.43481" lon="4.54945">
        <ele>802.357421875</ele>
        <time>2009-09-12T10:34:12Z</time>
      </trkpt>
      <trkpt lat="45.43492" lon="4.54971">
        <ele>803.31884765625</ele>
        <time>2009-09-12T10:34:21Z</time>
      </trkpt>
      <trkpt lat="45.43501" lon="4.5499">
        <ele>803.79956054688</ele>
        <time>2009-09-12T10:34:28Z</time>
      </trkpt>
      <trkpt lat="45.43511" lon="4.55012">
        <ele>804.7607421875</ele>
        <time>2009-09-12T10:34:36Z</time>
      </trkpt>
      <trkpt lat="45.43519" lon="4.55031">
        <ele>805.24145507812</ele>
        <time>2009-09-12T10:34:43Z</time>
      </trkpt>
      <trkpt lat="45.43528" lon="4.5505">
        <ele>805.72216796875</ele>
        <time>2009-09-12T10:34:50Z</time>
      </trkpt>
      <trkpt lat="45.43536" lon="4.55068">
        <ele>806.68334960938</ele>
        <time>2009-09-12T10:34:57Z</time>
      </trkpt>
      <trkpt lat="45.43543" lon="4.55083">
        <ele>807.64477539062</ele>
        <time>2009-09-12T10:35:03Z</time>
      </trkpt>
      <trkpt lat="45.43552" lon="4.55101">
        <ele>809.08666992188</ele>
        <time>2009-09-12T10:35:10Z</time>
      </trkpt>
      <trkpt lat="45.43563" lon="4.5512">
        <ele>810.52856445312</ele>
        <time>2009-09-12T10:35:18Z</time>
      </trkpt>
      <trkpt lat="45.43571" lon="4.55132">
        <ele>810.52856445312</ele>
        <time>2009-09-12T10:35:24Z</time>
      </trkpt>
      <trkpt lat="45.43586" lon="4.55149">
        <ele>811.48999023438</ele>
        <time>2009-09-12T10:35:32Z</time>
      </trkpt>
      <trkpt lat="45.43597" lon="4.55161">
        <ele>812.45141601562</ele>
        <time>2009-09-12T10:35:38Z</time>
      </trkpt>
      <trkpt lat="45.43613" lon="4.55174">
        <ele>813.89331054688</ele>
        <time>2009-09-12T10:35:46Z</time>
      </trkpt>
      <trkpt lat="45.43626" lon="4.55185">
        <ele>814.85473632812</ele>
        <time>2009-09-12T10:35:52Z</time>
      </trkpt>
      <trkpt lat="45.43637" lon="4.55192">
        <ele>815.33544921875</ele>
        <time>2009-09-12T10:35:57Z</time>
      </trkpt>
      <trkpt lat="45.43649" lon="4.55201">
        <ele>816.29663085938</ele>
        <time>2009-09-12T10:36:03Z</time>
      </trkpt>
      <trkpt lat="45.43664" lon="4.55211">
        <ele>816.29663085938</ele>
        <time>2009-09-12T10:36:09Z</time>
      </trkpt>
      <trkpt lat="45.43676" lon="4.5522">
        <ele>816.29663085938</ele>
        <time>2009-09-12T10:36:14Z</time>
      </trkpt>
      <trkpt lat="45.43694" lon="4.55231">
        <ele>816.77734375</ele>
        <time>2009-09-12T10:36:21Z</time>
      </trkpt>
      <trkpt lat="45.43718" lon="4.55246">
        <ele>817.73852539062</ele>
        <time>2009-09-12T10:36:30Z</time>
      </trkpt>
      <trkpt lat="45.43739" lon="4.5526">
        <ele>817.73852539062</ele>
        <time>2009-09-12T10:36:38Z</time>
      </trkpt>
      <trkpt lat="45.43763" lon="4.55274">
        <ele>817.73852539062</ele>
        <time>2009-09-12T10:36:46Z</time>
      </trkpt>
      <trkpt lat="45.43792" lon="4.55286">
        <ele>818.21923828125</ele>
        <time>2009-09-12T10:36:55Z</time>
      </trkpt>
      <trkpt lat="45.43819" lon="4.553">
        <ele>819.1806640625</ele>
        <time>2009-09-12T10:37:04Z</time>
      </trkpt>
      <trkpt lat="45.43836" lon="4.55311">
        <ele>820.14184570312</ele>
        <time>2009-09-12T10:37:10Z</time>
      </trkpt>
      <trkpt lat="45.43863" lon="4.55328">
        <ele>820.62255859375</ele>
        <time>2009-09-12T10:37:19Z</time>
      </trkpt>
      <trkpt lat="45.43885" lon="4.5534">
        <ele>821.10327148438</ele>
        <time>2009-09-12T10:37:26Z</time>
      </trkpt>
      <trkpt lat="45.4391" lon="4.55353">
        <ele>822.064453125</ele>
        <time>2009-09-12T10:37:34Z</time>
      </trkpt>
      <trkpt lat="45.4393" lon="4.55364">
        <ele>821.58374023438</ele>
        <time>2009-09-12T10:37:40Z</time>
      </trkpt>
      <trkpt lat="45.43951" lon="4.55377">
        <ele>821.58374023438</ele>
        <time>2009-09-12T10:37:46Z</time>
      </trkpt>
      <trkpt lat="45.4397" lon="4.55395">
        <ele>821.10327148438</ele>
        <time>2009-09-12T10:37:52Z</time>
      </trkpt>
      <trkpt lat="45.4399" lon="4.55421">
        <ele>819.66137695312</ele>
        <time>2009-09-12T10:37:58Z</time>
      </trkpt>
      <trkpt lat="45.44001" lon="4.55437">
        <ele>819.1806640625</ele>
        <time>2009-09-12T10:38:01Z</time>
      </trkpt>
      <trkpt lat="45.44024" lon="4.55469">
        <ele>816.77734375</ele>
        <time>2009-09-12T10:38:07Z</time>
      </trkpt>
      <trkpt lat="45.44037" lon="4.55487">
        <ele>816.29663085938</ele>
        <time>2009-09-12T10:38:10Z</time>
      </trkpt>
      <trkpt lat="45.4406" lon="4.55535">
        <ele>814.85473632812</ele>
        <time>2009-09-12T10:38:16Z</time>
      </trkpt>
      <trkpt lat="45.44067" lon="4.55552">
        <ele>813.41284179688</ele>
        <time>2009-09-12T10:38:18Z</time>
      </trkpt>
      <trkpt lat="45.44075" lon="4.5558">
        <ele>811.970703125</ele>
        <time>2009-09-12T10:38:21Z</time>
      </trkpt>
      <trkpt lat="45.44092" lon="4.5561">
        <ele>808.12548828125</ele>
        <time>2009-09-12T10:38:25Z</time>
      </trkpt>
      <trkpt lat="45.44118" lon="4.55647">
        <ele>802.83813476562</ele>
        <time>2009-09-12T10:38:30Z</time>
      </trkpt>
      <trkpt lat="45.44135" lon="4.55664">
        <ele>799.4736328125</ele>
        <time>2009-09-12T10:38:33Z</time>
      </trkpt>
      <trkpt lat="45.44141" lon="4.55669">
        <ele>798.03173828125</ele>
        <time>2009-09-12T10:38:34Z</time>
      </trkpt>
      <trkpt lat="45.44152" lon="4.55681">
        <ele>796.10913085938</ele>
        <time>2009-09-12T10:38:36Z</time>
      </trkpt>
      <trkpt lat="45.44172" lon="4.55707">
        <ele>791.30224609375</ele>
        <time>2009-09-12T10:38:40Z</time>
      </trkpt>
      <trkpt lat="45.44189" lon="4.55723">
        <ele>788.41845703125</ele>
        <time>2009-09-12T10:38:43Z</time>
      </trkpt>
      <trkpt lat="45.44195" lon="4.55729">
        <ele>786.49584960938</ele>
        <time>2009-09-12T10:38:44Z</time>
      </trkpt>
      <trkpt lat="45.4421" lon="4.55749">
        <ele>782.65063476562</ele>
        <time>2009-09-12T10:38:47Z</time>
      </trkpt>
      <trkpt lat="45.44215" lon="4.55756">
        <ele>782.169921875</ele>
        <time>2009-09-12T10:38:48Z</time>
      </trkpt>
      <trkpt lat="45.44228" lon="4.55778">
        <ele>778.80517578125</ele>
        <time>2009-09-12T10:38:51Z</time>
      </trkpt>
      <trkpt lat="45.44247" lon="4.55805">
        <ele>776.40185546875</ele>
        <time>2009-09-12T10:38:55Z</time>
      </trkpt>
      <trkpt lat="45.44272" lon="4.55852">
        <ele>771.59521484375</ele>
        <time>2009-09-12T10:39:00Z</time>
      </trkpt>
      <trkpt lat="45.44286" lon="4.5588">
        <ele>769.19213867188</ele>
        <time>2009-09-12T10:39:03Z</time>
      </trkpt>
      <trkpt lat="45.44311" lon="4.55908">
        <ele>767.26953125</ele>
        <time>2009-09-12T10:39:07Z</time>
      </trkpt>
      <trkpt lat="45.44348" lon="4.55938">
        <ele>762.943359375</ele>
        <time>2009-09-12T10:39:12Z</time>
      </trkpt>
      <trkpt lat="45.44356" lon="4.55944">
        <ele>762.943359375</ele>
        <time>2009-09-12T10:39:13Z</time>
      </trkpt>
      <trkpt lat="45.44385" lon="4.55966">
        <ele>761.50146484375</ele>
        <time>2009-09-12T10:39:17Z</time>
      </trkpt>
      <trkpt lat="45.44399" lon="4.55974">
        <ele>761.50146484375</ele>
        <time>2009-09-12T10:39:19Z</time>
      </trkpt>
      <trkpt lat="45.44449" lon="4.55996">
        <ele>760.05932617188</ele>
        <time>2009-09-12T10:39:27Z</time>
      </trkpt>
      <trkpt lat="45.44485" lon="4.56006">
        <ele>759.09814453125</ele>
        <time>2009-09-12T10:39:34Z</time>
      </trkpt>
      <trkpt lat="45.44528" lon="4.56017">
        <ele>760.05932617188</ele>
        <time>2009-09-12T10:39:43Z</time>
      </trkpt>
      <trkpt lat="45.44574" lon="4.56029">
        <ele>758.13696289062</ele>
        <time>2009-09-12T10:39:53Z</time>
      </trkpt>
      <trkpt lat="45.44588" lon="4.56033">
        <ele>758.13696289062</ele>
        <time>2009-09-12T10:39:56Z</time>
      </trkpt>
      <trkpt lat="45.44617" lon="4.56044">
        <ele>758.13696289062</ele>
        <time>2009-09-12T10:40:03Z</time>
      </trkpt>
      <trkpt lat="45.44657" lon="4.56058">
        <ele>758.61743164062</ele>
        <time>2009-09-12T10:40:11Z</time>
      </trkpt>
      <trkpt lat="45.44707" lon="4.5608">
        <ele>758.61743164062</ele>
        <time>2009-09-12T10:40:21Z</time>
      </trkpt>
      <trkpt lat="45.44732" lon="4.56095">
        <ele>758.61743164062</ele>
        <time>2009-09-12T10:40:26Z</time>
      </trkpt>
      <trkpt lat="45.4477" lon="4.56108">
        <ele>758.13696289062</ele>
        <time>2009-09-12T10:40:32Z</time>
      </trkpt>
      <trkpt lat="45.44776" lon="4.5611">
        <ele>757.65625</ele>
        <time>2009-09-12T10:40:33Z</time>
      </trkpt>
      <trkpt lat="45.44806" lon="4.56119">
        <ele>756.21411132812</ele>
        <time>2009-09-12T10:40:38Z</time>
      </trkpt>
      <trkpt lat="45.44811" lon="4.56123">
        <ele>756.21411132812</ele>
        <time>2009-09-12T10:40:39Z</time>
      </trkpt>
      <trkpt lat="45.4483" lon="4.56135">
        <ele>753.81103515625</ele>
        <time>2009-09-12T10:40:43Z</time>
      </trkpt>
      <trkpt lat="45.44856" lon="4.56149">
        <ele>749.00439453125</ele>
        <time>2009-09-12T10:40:47Z</time>
      </trkpt>
      <trkpt lat="45.44901" lon="4.56171">
        <ele>743.71704101562</ele>
        <time>2009-09-12T10:40:53Z</time>
      </trkpt>
      <trkpt lat="45.44935" lon="4.56189">
        <ele>739.39111328125</ele>
        <time>2009-09-12T10:40:57Z</time>
      </trkpt>
      <trkpt lat="45.44944" lon="4.56193">
        <ele>739.87182617188</ele>
        <time>2009-09-12T10:40:58Z</time>
      </trkpt>
      <trkpt lat="45.44978" lon="4.56207">
        <ele>737.46850585938</ele>
        <time>2009-09-12T10:41:01Z</time>
      </trkpt>
      <trkpt lat="45.44995" lon="4.56217">
        <ele>736.50732421875</ele>
        <time>2009-09-12T10:41:03Z</time>
      </trkpt>
      <trkpt lat="45.45004" lon="4.56224">
        <ele>735.5458984375</ele>
        <time>2009-09-12T10:41:04Z</time>
      </trkpt>
      <trkpt lat="45.45018" lon="4.56237">
        <ele>734.10400390625</ele>
        <time>2009-09-12T10:41:06Z</time>
      </trkpt>
      <trkpt lat="45.45042" lon="4.56255">
        <ele>730.7392578125</ele>
        <time>2009-09-12T10:41:09Z</time>
      </trkpt>
      <trkpt lat="45.45061" lon="4.56271">
        <ele>727.37475585938</ele>
        <time>2009-09-12T10:41:12Z</time>
      </trkpt>
      <trkpt lat="45.45087" lon="4.56293">
        <ele>723.52954101562</ele>
        <time>2009-09-12T10:41:16Z</time>
      </trkpt>
      <trkpt lat="45.45094" lon="4.56299">
        <ele>722.56811523438</ele>
        <time>2009-09-12T10:41:17Z</time>
      </trkpt>
      <trkpt lat="45.45121" lon="4.5633">
        <ele>718.72290039062</ele>
        <time>2009-09-12T10:41:22Z</time>
      </trkpt>
      <trkpt lat="45.45126" lon="4.56336">
        <ele>717.76147460938</ele>
        <time>2009-09-12T10:41:23Z</time>
      </trkpt>
      <trkpt lat="45.45147" lon="4.56367">
        <ele>713.435546875</ele>
        <time>2009-09-12T10:41:27Z</time>
      </trkpt>
      <trkpt lat="45.45165" lon="4.56384">
        <ele>711.0322265625</ele>
        <time>2009-09-12T10:41:30Z</time>
      </trkpt>
      <trkpt lat="45.45185" lon="4.56396">
        <ele>707.18701171875</ele>
        <time>2009-09-12T10:41:33Z</time>
      </trkpt>
      <trkpt lat="45.45215" lon="4.5641">
        <ele>701.41918945312</ele>
        <time>2009-09-12T10:41:37Z</time>
      </trkpt>
      <trkpt lat="45.4525" lon="4.56419">
        <ele>696.61254882812</ele>
        <time>2009-09-12T10:41:42Z</time>
      </trkpt>
      <trkpt lat="45.4528" lon="4.56419">
        <ele>691.80590820312</ele>
        <time>2009-09-12T10:41:46Z</time>
      </trkpt>
      <trkpt lat="45.45307" lon="4.56417">
        <ele>687.47998046875</ele>
        <time>2009-09-12T10:41:50Z</time>
      </trkpt>
      <trkpt lat="45.45327" lon="4.56416">
        <ele>684.59619140625</ele>
        <time>2009-09-12T10:41:53Z</time>
      </trkpt>
      <trkpt lat="45.45356" lon="4.56423">
        <ele>678.828125</ele>
        <time>2009-09-12T10:41:57Z</time>
      </trkpt>
      <trkpt lat="45.45378" lon="4.56433">
        <ele>674.98291015625</ele>
        <time>2009-09-12T10:42:00Z</time>
      </trkpt>
      <trkpt lat="45.45398" lon="4.56442">
        <ele>671.1376953125</ele>
        <time>2009-09-12T10:42:03Z</time>
      </trkpt>
      <trkpt lat="45.45405" lon="4.56445">
        <ele>670.65698242188</ele>
        <time>2009-09-12T10:42:04Z</time>
      </trkpt>
      <trkpt lat="45.45418" lon="4.56449">
        <ele>668.25366210938</ele>
        <time>2009-09-12T10:42:06Z</time>
      </trkpt>
      <trkpt lat="45.4544" lon="4.5646">
        <ele>665.36962890625</ele>
        <time>2009-09-12T10:42:09Z</time>
      </trkpt>
      <trkpt lat="45.45464" lon="4.56475">
        <ele>662.96630859375</ele>
        <time>2009-09-12T10:42:12Z</time>
      </trkpt>
      <trkpt lat="45.45495" lon="4.56496">
        <ele>661.5244140625</ele>
        <time>2009-09-12T10:42:16Z</time>
      </trkpt>
      <trkpt lat="45.45533" lon="4.56519">
        <ele>658.15991210938</ele>
        <time>2009-09-12T10:42:21Z</time>
      </trkpt>
      <trkpt lat="45.45555" lon="4.56532">
        <ele>659.60180664062</ele>
        <time>2009-09-12T10:42:25Z</time>
      </trkpt>
      <trkpt lat="45.45559" lon="4.56535">
        <ele>660.56298828125</ele>
        <time>2009-09-12T10:42:26Z</time>
      </trkpt>
      <trkpt lat="45.45569" lon="4.56547">
        <ele>662.00512695312</ele>
        <time>2009-09-12T10:42:29Z</time>
      </trkpt>
      <trkpt lat="45.45575" lon="4.56558">
        <ele>662.48559570312</ele>
        <time>2009-09-12T10:42:31Z</time>
      </trkpt>
      <trkpt lat="45.45594" lon="4.56581">
        <ele>663.44702148438</ele>
        <time>2009-09-12T10:42:38Z</time>
      </trkpt>
      <trkpt lat="45.45608" lon="4.56598">
        <ele>663.92749023438</ele>
        <time>2009-09-12T10:42:45Z</time>
      </trkpt>
      <trkpt lat="45.45618" lon="4.5661">
        <ele>664.408203125</ele>
        <time>2009-09-12T10:42:52Z</time>
      </trkpt>
      <trkpt lat="45.45627" lon="4.56621">
        <ele>664.408203125</ele>
        <time>2009-09-12T10:42:58Z</time>
      </trkpt>
      <trkpt lat="45.45636" lon="4.56631">
        <ele>664.88891601562</ele>
        <time>2009-09-12T10:43:04Z</time>
      </trkpt>
      <trkpt lat="45.45644" lon="4.5664">
        <ele>664.88891601562</ele>
        <time>2009-09-12T10:43:11Z</time>
      </trkpt>
      <trkpt lat="45.45657" lon="4.56654">
        <ele>665.85034179688</ele>
        <time>2009-09-12T10:43:18Z</time>
      </trkpt>
      <trkpt lat="45.45675" lon="4.56675">
        <ele>665.85034179688</ele>
        <time>2009-09-12T10:43:26Z</time>
      </trkpt>
      <trkpt lat="45.45692" lon="4.56695">
        <ele>664.408203125</ele>
        <time>2009-09-12T10:43:32Z</time>
      </trkpt>
      <trkpt lat="45.45715" lon="4.56716">
        <ele>661.5244140625</ele>
        <time>2009-09-12T10:43:38Z</time>
      </trkpt>
      <trkpt lat="45.45723" lon="4.56723">
        <ele>661.04370117188</ele>
        <time>2009-09-12T10:43:40Z</time>
      </trkpt>
      <trkpt lat="45.45738" lon="4.56742">
        <ele>660.08227539062</ele>
        <time>2009-09-12T10:43:44Z</time>
      </trkpt>
      <trkpt lat="45.45748" lon="4.56758">
        <ele>659.60180664062</ele>
        <time>2009-09-12T10:43:47Z</time>
      </trkpt>
      <trkpt lat="45.45782" lon="4.56791">
        <ele>657.19848632812</ele>
        <time>2009-09-12T10:43:54Z</time>
      </trkpt>
      <trkpt lat="45.45823" lon="4.5683">
        <ele>655.75659179688</ele>
        <time>2009-09-12T10:44:02Z</time>
      </trkpt>
      <trkpt lat="45.45851" lon="4.56858">
        <ele>655.75659179688</ele>
        <time>2009-09-12T10:44:09Z</time>
      </trkpt>
      <trkpt lat="45.45873" lon="4.56878">
        <ele>655.75659179688</ele>
        <time>2009-09-12T10:44:16Z</time>
      </trkpt>
      <trkpt lat="45.45896" lon="4.56895">
        <ele>656.7177734375</ele>
        <time>2009-09-12T10:44:23Z</time>
      </trkpt>
      <trkpt lat="45.45929" lon="4.56909">
        <ele>657.19848632812</ele>
        <time>2009-09-12T10:44:32Z</time>
      </trkpt>
      <trkpt lat="45.45961" lon="4.56917">
        <ele>657.67919921875</ele>
        <time>2009-09-12T10:44:40Z</time>
      </trkpt>
      <trkpt lat="45.45988" lon="4.56915">
        <ele>658.15991210938</ele>
        <time>2009-09-12T10:44:47Z</time>
      </trkpt>
      <trkpt lat="45.46015" lon="4.56905">
        <ele>658.15991210938</ele>
        <time>2009-09-12T10:44:54Z</time>
      </trkpt>
      <trkpt lat="45.46045" lon="4.56897">
        <ele>657.67919921875</ele>
        <time>2009-09-12T10:45:00Z</time>
      </trkpt>
      <trkpt lat="45.46094" lon="4.56884">
        <ele>656.7177734375</ele>
        <time>2009-09-12T10:45:09Z</time>
      </trkpt>
      <trkpt lat="45.46129" lon="4.56884">
        <ele>655.75659179688</ele>
        <time>2009-09-12T10:45:15Z</time>
      </trkpt>
      <trkpt lat="45.46171" lon="4.56904">
        <ele>653.35327148438</ele>
        <time>2009-09-12T10:45:22Z</time>
      </trkpt>
      <trkpt lat="45.46193" lon="4.569">
        <ele>652.87255859375</ele>
        <time>2009-09-12T10:45:26Z</time>
      </trkpt>
      <trkpt lat="45.46214" lon="4.56877">
        <ele>651.43041992188</ele>
        <time>2009-09-12T10:45:30Z</time>
      </trkpt>
      <trkpt lat="45.46231" lon="4.5686">
        <ele>649.5078125</ele>
        <time>2009-09-12T10:45:33Z</time>
      </trkpt>
      <trkpt lat="45.46265" lon="4.56843">
        <ele>644.701171875</ele>
        <time>2009-09-12T10:45:38Z</time>
      </trkpt>
      <trkpt lat="45.46296" lon="4.56829">
        <ele>640.85595703125</ele>
        <time>2009-09-12T10:45:42Z</time>
      </trkpt>
      <trkpt lat="45.46309" lon="4.56821">
        <ele>639.89477539062</ele>
        <time>2009-09-12T10:45:44Z</time>
      </trkpt>
      <trkpt lat="45.46329" lon="4.56805">
        <ele>637.97216796875</ele>
        <time>2009-09-12T10:45:47Z</time>
      </trkpt>
      <trkpt lat="45.46352" lon="4.56777">
        <ele>635.08813476562</ele>
        <time>2009-09-12T10:45:51Z</time>
      </trkpt>
      <trkpt lat="45.46373" lon="4.56745">
        <ele>633.16528320312</ele>
        <time>2009-09-12T10:45:55Z</time>
      </trkpt>
      <trkpt lat="45.46391" lon="4.56716">
        <ele>629.32006835938</ele>
        <time>2009-09-12T10:45:59Z</time>
      </trkpt>
      <trkpt lat="45.46406" lon="4.56691">
        <ele>626.43627929688</ele>
        <time>2009-09-12T10:46:03Z</time>
      </trkpt>
      <trkpt lat="45.4642" lon="4.56654">
        <ele>623.07177734375</ele>
        <time>2009-09-12T10:46:08Z</time>
      </trkpt>
      <trkpt lat="45.46426" lon="4.56641">
        <ele>622.1103515625</ele>
        <time>2009-09-12T10:46:10Z</time>
      </trkpt>
      <trkpt lat="45.46436" lon="4.5662">
        <ele>620.18774414062</ele>
        <time>2009-09-12T10:46:13Z</time>
      </trkpt>
      <trkpt lat="45.46446" lon="4.56592">
        <ele>617.7841796875</ele>
        <time>2009-09-12T10:46:16Z</time>
      </trkpt>
      <trkpt lat="45.46455" lon="4.56574">
        <ele>616.34228515625</ele>
        <time>2009-09-12T10:46:18Z</time>
      </trkpt>
      <trkpt lat="45.46467" lon="4.56545">
        <ele>614.41967773438</ele>
        <time>2009-09-12T10:46:21Z</time>
      </trkpt>
      <trkpt lat="45.46473" lon="4.56523">
        <ele>612.0166015625</ele>
        <time>2009-09-12T10:46:23Z</time>
      </trkpt>
      <trkpt lat="45.46476" lon="4.56512">
        <ele>611.53588867188</ele>
        <time>2009-09-12T10:46:24Z</time>
      </trkpt>
      <trkpt lat="45.4649" lon="4.56473">
        <ele>609.13256835938</ele>
        <time>2009-09-12T10:46:28Z</time>
      </trkpt>
      <trkpt lat="45.46492" lon="4.56464">
        <ele>609.13256835938</ele>
        <time>2009-09-12T10:46:29Z</time>
      </trkpt>
      <trkpt lat="45.46497" lon="4.5644">
        <ele>607.2099609375</ele>
        <time>2009-09-12T10:46:32Z</time>
      </trkpt>
      <trkpt lat="45.46502" lon="4.56418">
        <ele>605.76806640625</ele>
        <time>2009-09-12T10:46:35Z</time>
      </trkpt>
      <trkpt lat="45.46503" lon="4.56384">
        <ele>603.36450195312</ele>
        <time>2009-09-12T10:46:39Z</time>
      </trkpt>
      <trkpt lat="45.46505" lon="4.56358">
        <ele>601.92260742188</ele>
        <time>2009-09-12T10:46:42Z</time>
      </trkpt>
      <trkpt lat="45.46505" lon="4.56334">
        <ele>600</ele>
        <time>2009-09-12T10:46:45Z</time>
      </trkpt>
      <trkpt lat="45.46509" lon="4.56303">
        <ele>597.11596679688</ele>
        <time>2009-09-12T10:46:49Z</time>
      </trkpt>
      <trkpt lat="45.46513" lon="4.56278">
        <ele>594.71264648438</ele>
        <time>2009-09-12T10:46:52Z</time>
      </trkpt>
      <trkpt lat="45.46514" lon="4.56254">
        <ele>593.27075195312</ele>
        <time>2009-09-12T10:46:55Z</time>
      </trkpt>
      <trkpt lat="45.46519" lon="4.56238">
        <ele>592.3095703125</ele>
        <time>2009-09-12T10:46:57Z</time>
      </trkpt>
      <trkpt lat="45.46521" lon="4.5623">
        <ele>591.34814453125</ele>
        <time>2009-09-12T10:46:58Z</time>
      </trkpt>
      <trkpt lat="45.46531" lon="4.56198">
        <ele>588.46435546875</ele>
        <time>2009-09-12T10:47:02Z</time>
      </trkpt>
      <trkpt lat="45.46542" lon="4.56172">
        <ele>587.02197265625</ele>
        <time>2009-09-12T10:47:06Z</time>
      </trkpt>
      <trkpt lat="45.4655" lon="4.56157">
        <ele>585.099609375</ele>
        <time>2009-09-12T10:47:09Z</time>
      </trkpt>
      <trkpt lat="45.46553" lon="4.56141">
        <ele>583.1767578125</ele>
        <time>2009-09-12T10:47:12Z</time>
      </trkpt>
      <trkpt lat="45.46549" lon="4.56133">
        <ele>582.6962890625</ele>
        <time>2009-09-12T10:47:15Z</time>
      </trkpt>
      <trkpt lat="45.46538" lon="4.56131">
        <ele>581.25439453125</ele>
        <time>2009-09-12T10:47:19Z</time>
      </trkpt>
      <trkpt lat="45.46526" lon="4.56141">
        <ele>580.29296875</ele>
        <time>2009-09-12T10:47:23Z</time>
      </trkpt>
      <trkpt lat="45.46489" lon="4.56178">
        <ele>578.85107421875</ele>
        <time>2009-09-12T10:47:33Z</time>
      </trkpt>
      <trkpt lat="45.46457" lon="4.56216">
        <ele>576.44775390625</ele>
        <time>2009-09-12T10:47:41Z</time>
      </trkpt>
      <trkpt lat="45.46453" lon="4.56222">
        <ele>575.96704101562</ele>
        <time>2009-09-12T10:47:42Z</time>
      </trkpt>
      <trkpt lat="45.46421" lon="4.56251">
        <ele>572.6025390625</ele>
        <time>2009-09-12T10:47:48Z</time>
      </trkpt>
      <trkpt lat="45.46416" lon="4.56257">
        <ele>572.6025390625</ele>
        <time>2009-09-12T10:47:49Z</time>
      </trkpt>
      <trkpt lat="45.46393" lon="4.56279">
        <ele>570.6796875</ele>
        <time>2009-09-12T10:47:53Z</time>
      </trkpt>
      <trkpt lat="45.46381" lon="4.56288">
        <ele>569.71850585938</ele>
        <time>2009-09-12T10:47:55Z</time>
      </trkpt>
      <trkpt lat="45.46371" lon="4.56299">
        <ele>569.23779296875</ele>
        <time>2009-09-12T10:47:57Z</time>
      </trkpt>
      <trkpt lat="45.4636" lon="4.56302">
        <ele>566.83447265625</ele>
        <time>2009-09-12T10:48:00Z</time>
      </trkpt>
      <trkpt lat="45.4636" lon="4.56287">
        <ele>565.392578125</ele>
        <time>2009-09-12T10:48:02Z</time>
      </trkpt>
      <trkpt lat="45.46368" lon="4.56273">
        <ele>564.43115234375</ele>
        <time>2009-09-12T10:48:04Z</time>
      </trkpt>
      <trkpt lat="45.46382" lon="4.56248">
        <ele>562.02807617188</ele>
        <time>2009-09-12T10:48:07Z</time>
      </trkpt>
      <trkpt lat="45.46392" lon="4.56206">
        <ele>560.10522460938</ele>
        <time>2009-09-12T10:48:11Z</time>
      </trkpt>
      <trkpt lat="45.46408" lon="4.56147">
        <ele>558.18286132812</ele>
        <time>2009-09-12T10:48:17Z</time>
      </trkpt>
      <trkpt lat="45.46426" lon="4.56093">
        <ele>555.779296875</ele>
        <time>2009-09-12T10:48:23Z</time>
      </trkpt>
      <trkpt lat="45.46432" lon="4.56073">
        <ele>554.33740234375</ele>
        <time>2009-09-12T10:48:25Z</time>
      </trkpt>
      <trkpt lat="45.46457" lon="4.56024">
        <ele>551.45336914062</ele>
        <time>2009-09-12T10:48:30Z</time>
      </trkpt>
      <trkpt lat="45.46475" lon="4.55974">
        <ele>549.05004882812</ele>
        <time>2009-09-12T10:48:35Z</time>
      </trkpt>
      <trkpt lat="45.4649" lon="4.55933">
        <ele>546.64685058594</ele>
        <time>2009-09-12T10:48:39Z</time>
      </trkpt>
      <trkpt lat="45.46506" lon="4.55894">
        <ele>542.80151367188</ele>
        <time>2009-09-12T10:48:43Z</time>
      </trkpt>
      <trkpt lat="45.46522" lon="4.55852">
        <ele>538.47570800781</ele>
        <time>2009-09-12T10:48:47Z</time>
      </trkpt>
      <trkpt lat="45.46529" lon="4.5583">
        <ele>537.03369140625</ele>
        <time>2009-09-12T10:48:49Z</time>
      </trkpt>
      <trkpt lat="45.46533" lon="4.55819">
        <ele>535.11096191406</ele>
        <time>2009-09-12T10:48:50Z</time>
      </trkpt>
      <trkpt lat="45.46548" lon="4.55778">
        <ele>531.74633789062</ele>
        <time>2009-09-12T10:48:54Z</time>
      </trkpt>
      <trkpt lat="45.46568" lon="4.55723">
        <ele>527.42041015625</ele>
        <time>2009-09-12T10:48:59Z</time>
      </trkpt>
      <trkpt lat="45.46579" lon="4.55692">
        <ele>525.49780273438</ele>
        <time>2009-09-12T10:49:02Z</time>
      </trkpt>
      <trkpt lat="45.46592" lon="4.55651">
        <ele>522.13317871094</ele>
        <time>2009-09-12T10:49:06Z</time>
      </trkpt>
      <trkpt lat="45.46598" lon="4.5563">
        <ele>520.69128417969</ele>
        <time>2009-09-12T10:49:08Z</time>
      </trkpt>
      <trkpt lat="45.46604" lon="4.55596">
        <ele>517.32666015625</ele>
        <time>2009-09-12T10:49:11Z</time>
      </trkpt>
      <trkpt lat="45.46608" lon="4.55544">
        <ele>514.44262695312</ele>
        <time>2009-09-12T10:49:16Z</time>
      </trkpt>
      <trkpt lat="45.46608" lon="4.55523">
        <ele>512.52001953125</ele>
        <time>2009-09-12T10:49:18Z</time>
      </trkpt>
      <trkpt lat="45.46608" lon="4.5549">
        <ele>511.07800292969</ele>
        <time>2009-09-12T10:49:21Z</time>
      </trkpt>
      <trkpt lat="45.46609" lon="4.55469">
        <ele>509.15539550781</ele>
        <time>2009-09-12T10:49:23Z</time>
      </trkpt>
      <trkpt lat="45.46609" lon="4.55436">
        <ele>506.75207519531</ele>
        <time>2009-09-12T10:49:26Z</time>
      </trkpt>
      <trkpt lat="45.46609" lon="4.55403">
        <ele>504.34887695312</ele>
        <time>2009-09-12T10:49:29Z</time>
      </trkpt>
      <trkpt lat="45.46609" lon="4.55392">
        <ele>503.8681640625</ele>
        <time>2009-09-12T10:49:30Z</time>
      </trkpt>
      <trkpt lat="45.46609" lon="4.55341">
        <ele>499.0615234375</ele>
        <time>2009-09-12T10:49:35Z</time>
      </trkpt>
      <trkpt lat="45.46606" lon="4.55312">
        <ele>497.13891601562</ele>
        <time>2009-09-12T10:49:39Z</time>
      </trkpt>
      <trkpt lat="45.46608" lon="4.55299">
        <ele>496.65832519531</ele>
        <time>2009-09-12T10:49:43Z</time>
      </trkpt>
      <trkpt lat="45.46603" lon="4.55297">
        <ele>496.177734375</ele>
        <time>2009-09-12T10:49:46Z</time>
      </trkpt>
      <trkpt lat="45.46605" lon="4.55304">
        <ele>496.65832519531</ele>
        <time>2009-09-12T10:49:49Z</time>
      </trkpt>
      <trkpt lat="45.46609" lon="4.55306">
        <ele>496.65832519531</ele>
        <time>2009-09-12T10:49:54Z</time>
      </trkpt>
      <trkpt lat="45.4661" lon="4.55308">
        <ele>496.65832519531</ele>
        <time>2009-09-12T10:49:56Z</time>
      </trkpt>
      <trkpt lat="45.46612" lon="4.5531">
        <ele>497.13891601562</ele>
        <time>2009-09-12T10:49:58Z</time>
      </trkpt>
      <trkpt lat="45.46618" lon="4.55323">
        <ele>498.10034179688</ele>
        <time>2009-09-12T10:50:06Z</time>
      </trkpt>
      <trkpt lat="45.46628" lon="4.55338">
        <ele>499.54223632812</ele>
        <time>2009-09-12T10:50:14Z</time>
      </trkpt>
      <trkpt lat="45.46638" lon="4.55354">
        <ele>501.46484375</ele>
        <time>2009-09-12T10:50:22Z</time>
      </trkpt>
      <trkpt lat="45.46642" lon="4.55358">
        <ele>501.46484375</ele>
        <time>2009-09-12T10:50:25Z</time>
      </trkpt>
      <trkpt lat="45.46647" lon="4.55361">
        <ele>502.42614746094</ele>
        <time>2009-09-12T10:50:29Z</time>
      </trkpt>
      <trkpt lat="45.46649" lon="4.55366">
        <ele>502.90673828125</ele>
        <time>2009-09-12T10:50:33Z</time>
      </trkpt>
      <trkpt lat="45.46655" lon="4.55372">
        <ele>503.38745117188</ele>
        <time>2009-09-12T10:50:38Z</time>
      </trkpt>
      <trkpt lat="45.46663" lon="4.55386">
        <ele>504.82946777344</ele>
        <time>2009-09-12T10:50:45Z</time>
      </trkpt>
      <trkpt lat="45.46665" lon="4.55387">
        <ele>505.31018066406</ele>
        <time>2009-09-12T10:50:46Z</time>
      </trkpt>
      <trkpt lat="45.46673" lon="4.554">
        <ele>506.75207519531</ele>
        <time>2009-09-12T10:50:53Z</time>
      </trkpt>
      <trkpt lat="45.46682" lon="4.55413">
        <ele>508.67468261719</ele>
        <time>2009-09-12T10:51:00Z</time>
      </trkpt>
      <trkpt lat="45.46693" lon="4.55426">
        <ele>509.15539550781</ele>
        <time>2009-09-12T10:51:07Z</time>
      </trkpt>
      <trkpt lat="45.46705" lon="4.55444">
        <ele>510.59729003906</ele>
        <time>2009-09-12T10:51:16Z</time>
      </trkpt>
      <trkpt lat="45.46718" lon="4.55462">
        <ele>511.07800292969</ele>
        <time>2009-09-12T10:51:24Z</time>
      </trkpt>
      <trkpt lat="45.4673" lon="4.55478">
        <ele>511.55871582031</ele>
        <time>2009-09-12T10:51:31Z</time>
      </trkpt>
      <trkpt lat="45.4674" lon="4.55494">
        <ele>511.55871582031</ele>
        <time>2009-09-12T10:51:38Z</time>
      </trkpt>
      <trkpt lat="45.46749" lon="4.55511">
        <ele>511.07800292969</ele>
        <time>2009-09-12T10:51:44Z</time>
      </trkpt>
      <trkpt lat="45.4676" lon="4.55534">
        <ele>510.59729003906</ele>
        <time>2009-09-12T10:51:51Z</time>
      </trkpt>
      <trkpt lat="45.46767" lon="4.55554">
        <ele>510.11669921875</ele>
        <time>2009-09-12T10:51:56Z</time>
      </trkpt>
      <trkpt lat="45.46776" lon="4.55583">
        <ele>508.67468261719</ele>
        <time>2009-09-12T10:52:02Z</time>
      </trkpt>
      <trkpt lat="45.46783" lon="4.55624">
        <ele>508.19409179688</ele>
        <time>2009-09-12T10:52:08Z</time>
      </trkpt>
      <trkpt lat="45.4679" lon="4.55678">
        <ele>507.71350097656</ele>
        <time>2009-09-12T10:52:15Z</time>
      </trkpt>
      <trkpt lat="45.46799" lon="4.55722">
        <ele>506.75207519531</ele>
        <time>2009-09-12T10:52:21Z</time>
      </trkpt>
      <trkpt lat="45.46806" lon="4.55744">
        <ele>506.75207519531</ele>
        <time>2009-09-12T10:52:24Z</time>
      </trkpt>
      <trkpt lat="45.46823" lon="4.55796">
        <ele>504.82946777344</ele>
        <time>2009-09-12T10:52:31Z</time>
      </trkpt>
      <trkpt lat="45.46844" lon="4.55854">
        <ele>503.38745117188</ele>
        <time>2009-09-12T10:52:38Z</time>
      </trkpt>
      <trkpt lat="45.46857" lon="4.55889">
        <ele>502.42614746094</ele>
        <time>2009-09-12T10:52:42Z</time>
      </trkpt>
      <trkpt lat="45.46883" lon="4.55958">
        <ele>500.50354003906</ele>
        <time>2009-09-12T10:52:50Z</time>
      </trkpt>
      <trkpt lat="45.4691" lon="4.56028">
        <ele>497.13891601562</ele>
        <time>2009-09-12T10:52:57Z</time>
      </trkpt>
      <trkpt lat="45.4692" lon="4.5605">
        <ele>496.177734375</ele>
        <time>2009-09-12T10:52:59Z</time>
      </trkpt>
      <trkpt lat="45.46947" lon="4.56084">
        <ele>495.21618652344</ele>
        <time>2009-09-12T10:53:03Z</time>
      </trkpt>
      <trkpt lat="45.46979" lon="4.56093">
        <ele>495.69689941406</ele>
        <time>2009-09-12T10:53:07Z</time>
      </trkpt>
      <trkpt lat="45.46993" lon="4.56092">
        <ele>495.21618652344</ele>
        <time>2009-09-12T10:53:09Z</time>
      </trkpt>
      <trkpt lat="45.47034" lon="4.56088">
        <ele>496.65832519531</ele>
        <time>2009-09-12T10:53:16Z</time>
      </trkpt>
      <trkpt lat="45.47051" lon="4.56086">
        <ele>497.13891601562</ele>
        <time>2009-09-12T10:53:19Z</time>
      </trkpt>
      <trkpt lat="45.47084" lon="4.56093">
        <ele>498.10034179688</ele>
        <time>2009-09-12T10:53:25Z</time>
      </trkpt>
      <trkpt lat="45.4709" lon="4.56095">
        <ele>498.10034179688</ele>
        <time>2009-09-12T10:53:26Z</time>
      </trkpt>
      <trkpt lat="45.47125" lon="4.56108">
        <ele>497.13891601562</ele>
        <time>2009-09-12T10:53:32Z</time>
      </trkpt>
      <trkpt lat="45.47143" lon="4.56118">
        <ele>496.177734375</ele>
        <time>2009-09-12T10:53:35Z</time>
      </trkpt>
      <trkpt lat="45.47162" lon="4.56137">
        <ele>494.73559570312</ele>
        <time>2009-09-12T10:53:38Z</time>
      </trkpt>
      <trkpt lat="45.47183" lon="4.5616">
        <ele>492.81298828125</ele>
        <time>2009-09-12T10:53:41Z</time>
      </trkpt>
      <trkpt lat="45.47198" lon="4.56178">
        <ele>490.40979003906</ele>
        <time>2009-09-12T10:53:43Z</time>
      </trkpt>
      <trkpt lat="45.47212" lon="4.562">
        <ele>488.9677734375</ele>
        <time>2009-09-12T10:53:45Z</time>
      </trkpt>
      <trkpt lat="45.47234" lon="4.56249">
        <ele>485.12243652344</ele>
        <time>2009-09-12T10:53:49Z</time>
      </trkpt>
      <trkpt lat="45.47252" lon="4.56296">
        <ele>481.7578125</ele>
        <time>2009-09-12T10:53:53Z</time>
      </trkpt>
      <trkpt lat="45.47256" lon="4.56306">
        <ele>480.79663085938</ele>
        <time>2009-09-12T10:53:54Z</time>
      </trkpt>
      <trkpt lat="45.47267" lon="4.56319">
        <ele>476.95129394531</ele>
        <time>2009-09-12T10:53:58Z</time>
      </trkpt>
      <trkpt lat="45.47268" lon="4.56319">
        <ele>477.43188476562</ele>
        <time>2009-09-12T10:53:59Z</time>
      </trkpt>
      <trkpt lat="45.47267" lon="4.56332">
        <ele>476.47058105469</ele>
        <time>2009-09-12T10:54:05Z</time>
      </trkpt>
      <trkpt lat="45.47269" lon="4.56338">
        <ele>476.95129394531</ele>
        <time>2009-09-12T10:54:08Z</time>
      </trkpt>
      <trkpt lat="45.4727" lon="4.56328">
        <ele>476.47058105469</ele>
        <time>2009-09-12T10:54:12Z</time>
      </trkpt>
      <trkpt lat="45.4727" lon="4.56325">
        <ele>476.95129394531</ele>
        <time>2009-09-12T10:54:13Z</time>
      </trkpt>
      <trkpt lat="45.47269" lon="4.56298">
        <ele>476.95129394531</ele>
        <time>2009-09-12T10:54:20Z</time>
      </trkpt>
      <trkpt lat="45.47273" lon="4.5628">
        <ele>475.98986816406</ele>
        <time>2009-09-12T10:54:23Z</time>
      </trkpt>
      <trkpt lat="45.47276" lon="4.56267">
        <ele>475.50927734375</ele>
        <time>2009-09-12T10:54:25Z</time>
      </trkpt>
      <trkpt lat="45.47291" lon="4.56235">
        <ele>473.58666992188</ele>
        <time>2009-09-12T10:54:30Z</time>
      </trkpt>
      <trkpt lat="45.47309" lon="4.56211">
        <ele>471.66394042969</ele>
        <time>2009-09-12T10:54:34Z</time>
      </trkpt>
      <trkpt lat="45.47339" lon="4.56179">
        <ele>468.29931640625</ele>
        <time>2009-09-12T10:54:39Z</time>
      </trkpt>
      <trkpt lat="45.47357" lon="4.56162">
        <ele>466.857421875</ele>
        <time>2009-09-12T10:54:42Z</time>
      </trkpt>
      <trkpt lat="45.47385" lon="4.56136">
        <ele>463.49279785156</ele>
        <time>2009-09-12T10:54:46Z</time>
      </trkpt>
      <trkpt lat="45.47412" lon="4.56104">
        <ele>460.60876464844</ele>
        <time>2009-09-12T10:54:50Z</time>
      </trkpt>
      <trkpt lat="45.47437" lon="4.5608">
        <ele>456.76354980469</ele>
        <time>2009-09-12T10:54:53Z</time>
      </trkpt>
      <trkpt lat="45.47469" lon="4.56046">
        <ele>453.87963867188</ele>
        <time>2009-09-12T10:54:57Z</time>
      </trkpt>
      <trkpt lat="45.47477" lon="4.56037">
        <ele>453.39892578125</ele>
        <time>2009-09-12T10:54:58Z</time>
      </trkpt>
      <trkpt lat="45.47507" lon="4.56002">
        <ele>450.51501464844</ele>
        <time>2009-09-12T10:55:02Z</time>
      </trkpt>
      <trkpt lat="45.4753" lon="4.55973">
        <ele>447.15026855469</ele>
        <time>2009-09-12T10:55:05Z</time>
      </trkpt>
      <trkpt lat="45.47552" lon="4.55943">
        <ele>445.70837402344</ele>
        <time>2009-09-12T10:55:08Z</time>
      </trkpt>
      <trkpt lat="45.47588" lon="4.55887">
        <ele>443.30505371094</ele>
        <time>2009-09-12T10:55:14Z</time>
      </trkpt>
      <trkpt lat="45.47621" lon="4.55845">
        <ele>441.38244628906</ele>
        <time>2009-09-12T10:55:20Z</time>
      </trkpt>
      <trkpt lat="45.47632" lon="4.55831">
        <ele>440.42126464844</ele>
        <time>2009-09-12T10:55:23Z</time>
      </trkpt>
      <trkpt lat="45.47638" lon="4.55834">
        <ele>439.45971679688</ele>
        <time>2009-09-12T10:55:27Z</time>
      </trkpt>
      <trkpt lat="45.47639" lon="4.55848">
        <ele>438.49853515625</ele>
        <time>2009-09-12T10:55:31Z</time>
      </trkpt>
      <trkpt lat="45.47642" lon="4.55859">
        <ele>437.05651855469</ele>
        <time>2009-09-12T10:55:37Z</time>
      </trkpt>
      <trkpt lat="45.47645" lon="4.5587">
        <ele>436.57592773438</ele>
        <time>2009-09-12T10:55:41Z</time>
      </trkpt>
      <trkpt lat="45.47655" lon="4.55904">
        <ele>435.13391113281</ele>
        <time>2009-09-12T10:55:46Z</time>
      </trkpt>
      <trkpt lat="45.47662" lon="4.5593">
        <ele>432.73071289062</ele>
        <time>2009-09-12T10:55:49Z</time>
      </trkpt>
      <trkpt lat="45.47666" lon="4.5595">
        <ele>431.76916503906</ele>
        <time>2009-09-12T10:55:51Z</time>
      </trkpt>
      <trkpt lat="45.47671" lon="4.55978">
        <ele>429.84655761719</ele>
        <time>2009-09-12T10:55:54Z</time>
      </trkpt>
      <trkpt lat="45.47674" lon="4.56019">
        <ele>426.00134277344</ele>
        <time>2009-09-12T10:55:58Z</time>
      </trkpt>
      <trkpt lat="45.47675" lon="4.56029">
        <ele>426.00134277344</ele>
        <time>2009-09-12T10:55:59Z</time>
      </trkpt>
      <trkpt lat="45.47676" lon="4.56039">
        <ele>425.04016113281</ele>
        <time>2009-09-12T10:56:00Z</time>
      </trkpt>
      <trkpt lat="45.47685" lon="4.56078">
        <ele>422.15600585938</ele>
        <time>2009-09-12T10:56:04Z</time>
      </trkpt>
      <trkpt lat="45.47688" lon="4.56087">
        <ele>420.71411132812</ele>
        <time>2009-09-12T10:56:05Z</time>
      </trkpt>
      <trkpt lat="45.477" lon="4.56134">
        <ele>416.86889648438</ele>
        <time>2009-09-12T10:56:10Z</time>
      </trkpt>
      <trkpt lat="45.47711" lon="4.56185">
        <ele>412.54284667969</ele>
        <time>2009-09-12T10:56:15Z</time>
      </trkpt>
      <trkpt lat="45.4771" lon="4.56198">
        <ele>411.58166503906</ele>
        <time>2009-09-12T10:56:16Z</time>
      </trkpt>
      <trkpt lat="45.47718" lon="4.5625">
        <ele>412.06225585938</ele>
        <time>2009-09-12T10:56:21Z</time>
      </trkpt>
      <trkpt lat="45.47721" lon="4.56255">
        <ele>412.06225585938</ele>
        <time>2009-09-12T10:56:22Z</time>
      </trkpt>
      <trkpt lat="45.47725" lon="4.56259">
        <ele>412.54284667969</ele>
        <time>2009-09-12T10:56:23Z</time>
      </trkpt>
      <trkpt lat="45.47734" lon="4.56274">
        <ele>414.94616699219</ele>
        <time>2009-09-12T10:56:26Z</time>
      </trkpt>
      <trkpt lat="45.47744" lon="4.56302">
        <ele>416.86889648438</ele>
        <time>2009-09-12T10:56:31Z</time>
      </trkpt>
      <trkpt lat="45.47764" lon="4.56348">
        <ele>419.27221679688</ele>
        <time>2009-09-12T10:56:39Z</time>
      </trkpt>
      <trkpt lat="45.47776" lon="4.56377">
        <ele>420.71411132812</ele>
        <time>2009-09-12T10:56:45Z</time>
      </trkpt>
      <trkpt lat="45.47794" lon="4.56416">
        <ele>421.67541503906</ele>
        <time>2009-09-12T10:56:54Z</time>
      </trkpt>
      <trkpt lat="45.4781" lon="4.56446">
        <ele>422.63671875</ele>
        <time>2009-09-12T10:57:01Z</time>
      </trkpt>
      <trkpt lat="45.47825" lon="4.56478">
        <ele>423.59802246094</ele>
        <time>2009-09-12T10:57:08Z</time>
      </trkpt>
      <trkpt lat="45.47837" lon="4.56508">
        <ele>423.59802246094</ele>
        <time>2009-09-12T10:57:15Z</time>
      </trkpt>
      <trkpt lat="45.47853" lon="4.56539">
        <ele>424.55944824219</ele>
        <time>2009-09-12T10:57:22Z</time>
      </trkpt>
      <trkpt lat="45.47863" lon="4.5655">
        <ele>424.55944824219</ele>
        <time>2009-09-12T10:57:25Z</time>
      </trkpt>
      <trkpt lat="45.47881" lon="4.56561">
        <ele>423.59802246094</ele>
        <time>2009-09-12T10:57:29Z</time>
      </trkpt>
      <trkpt lat="45.47916" lon="4.56582">
        <ele>423.11743164062</ele>
        <time>2009-09-12T10:57:37Z</time>
      </trkpt>
      <trkpt lat="45.47945" lon="4.56606">
        <ele>422.63671875</ele>
        <time>2009-09-12T10:57:44Z</time>
      </trkpt>
      <trkpt lat="45.47976" lon="4.56636">
        <ele>422.63671875</ele>
        <time>2009-09-12T10:57:52Z</time>
      </trkpt>
      <trkpt lat="45.47996" lon="4.5666">
        <ele>422.63671875</ele>
        <time>2009-09-12T10:57:59Z</time>
      </trkpt>
      <trkpt lat="45.48017" lon="4.56686">
        <ele>422.63671875</ele>
        <time>2009-09-12T10:58:07Z</time>
      </trkpt>
      <trkpt lat="45.4803" lon="4.56702">
        <ele>423.59802246094</ele>
        <time>2009-09-12T10:58:12Z</time>
      </trkpt>
      <trkpt lat="45.48048" lon="4.56728">
        <ele>425.04016113281</ele>
        <time>2009-09-12T10:58:20Z</time>
      </trkpt>
      <trkpt lat="45.48048" lon="4.56736">
        <ele>425.52075195312</ele>
        <time>2009-09-12T10:58:23Z</time>
      </trkpt>
      <trkpt lat="45.48048" lon="4.5674">
        <ele>425.04016113281</ele>
        <time>2009-09-12T10:58:26Z</time>
      </trkpt>
      <trkpt lat="45.4805" lon="4.56736">
        <ele>425.52075195312</ele>
        <time>2009-09-12T10:58:29Z</time>
      </trkpt>
      <trkpt lat="45.48056" lon="4.56735">
        <ele>424.55944824219</ele>
        <time>2009-09-12T10:58:34Z</time>
      </trkpt>
      <trkpt lat="45.48066" lon="4.56744">
        <ele>425.04016113281</ele>
        <time>2009-09-12T10:58:39Z</time>
      </trkpt>
      <trkpt lat="45.48084" lon="4.56753">
        <ele>424.55944824219</ele>
        <time>2009-09-12T10:58:46Z</time>
      </trkpt>
      <trkpt lat="45.48091" lon="4.56756">
        <ele>424.55944824219</ele>
        <time>2009-09-12T10:58:48Z</time>
      </trkpt>
      <trkpt lat="45.48117" lon="4.5677">
        <ele>423.59802246094</ele>
        <time>2009-09-12T10:58:54Z</time>
      </trkpt>
      <trkpt lat="45.48133" lon="4.56789">
        <ele>423.59802246094</ele>
        <time>2009-09-12T10:58:58Z</time>
      </trkpt>
      <trkpt lat="45.48137" lon="4.56804">
        <ele>423.59802246094</ele>
        <time>2009-09-12T10:59:00Z</time>
      </trkpt>
      <trkpt lat="45.48137" lon="4.5684">
        <ele>425.04016113281</ele>
        <time>2009-09-12T10:59:06Z</time>
      </trkpt>
      <trkpt lat="45.48142" lon="4.56888">
        <ele>426.48205566406</ele>
        <time>2009-09-12T10:59:14Z</time>
      </trkpt>
      <trkpt lat="45.48149" lon="4.56939">
        <ele>426.48205566406</ele>
        <time>2009-09-12T10:59:22Z</time>
      </trkpt>
      <trkpt lat="45.48152" lon="4.56974">
        <ele>426.48205566406</ele>
        <time>2009-09-12T10:59:27Z</time>
      </trkpt>
      <trkpt lat="45.48148" lon="4.57032">
        <ele>425.04016113281</ele>
        <time>2009-09-12T10:59:35Z</time>
      </trkpt>
      <trkpt lat="45.48146" lon="4.57068">
        <ele>424.07873535156</ele>
        <time>2009-09-12T10:59:39Z</time>
      </trkpt>
      <trkpt lat="45.48146" lon="4.57088">
        <ele>423.11743164062</ele>
        <time>2009-09-12T10:59:41Z</time>
      </trkpt>
      <trkpt lat="45.48146" lon="4.57098">
        <ele>422.63671875</ele>
        <time>2009-09-12T10:59:42Z</time>
      </trkpt>
      <trkpt lat="45.48161" lon="4.57173">
        <ele>421.67541503906</ele>
        <time>2009-09-12T10:59:49Z</time>
      </trkpt>
      <trkpt lat="45.48161" lon="4.5724">
        <ele>422.63671875</ele>
        <time>2009-09-12T10:59:55Z</time>
      </trkpt>
      <trkpt lat="45.48163" lon="4.57256">
        <ele>423.11743164062</ele>
        <time>2009-09-12T10:59:57Z</time>
      </trkpt>
      <trkpt lat="45.48172" lon="4.57278">
        <ele>422.63671875</ele>
        <time>2009-09-12T11:00:02Z</time>
      </trkpt>
      <trkpt lat="45.4818" lon="4.57298">
        <ele>422.15600585938</ele>
        <time>2009-09-12T11:00:06Z</time>
      </trkpt>
      <trkpt lat="45.48209" lon="4.57334">
        <ele>418.79150390625</ele>
        <time>2009-09-12T11:00:11Z</time>
      </trkpt>
      <trkpt lat="45.48223" lon="4.57346">
        <ele>418.31079101562</ele>
        <time>2009-09-12T11:00:13Z</time>
      </trkpt>
      <trkpt lat="45.48224" lon="4.57386">
        <ele>418.31079101562</ele>
        <time>2009-09-12T11:00:17Z</time>
      </trkpt>
      <trkpt lat="45.48222" lon="4.57396">
        <ele>417.83020019531</ele>
        <time>2009-09-12T11:00:18Z</time>
      </trkpt>
      <trkpt lat="45.48225" lon="4.57443">
        <ele>416.38818359375</ele>
        <time>2009-09-12T11:00:23Z</time>
      </trkpt>
      <trkpt lat="45.48227" lon="4.57451">
        <ele>415.90747070312</ele>
        <time>2009-09-12T11:00:24Z</time>
      </trkpt>
      <trkpt lat="45.4824" lon="4.57473">
        <ele>414.46545410156</ele>
        <time>2009-09-12T11:00:28Z</time>
      </trkpt>
      <trkpt lat="45.48245" lon="4.57476">
        <ele>414.46545410156</ele>
        <time>2009-09-12T11:00:29Z</time>
      </trkpt>
      <trkpt lat="45.48256" lon="4.5748">
        <ele>413.98486328125</ele>
        <time>2009-09-12T11:00:31Z</time>
      </trkpt>
      <trkpt lat="45.48284" lon="4.57477">
        <ele>413.02355957031</ele>
        <time>2009-09-12T11:00:36Z</time>
      </trkpt>
      <trkpt lat="45.48291" lon="4.57471">
        <ele>412.54284667969</ele>
        <time>2009-09-12T11:00:38Z</time>
      </trkpt>
      <trkpt lat="45.48302" lon="4.57459">
        <ele>412.06225585938</ele>
        <time>2009-09-12T11:00:41Z</time>
      </trkpt>
      <trkpt lat="45.48322" lon="4.57423">
        <ele>411.58166503906</ele>
        <time>2009-09-12T11:00:48Z</time>
      </trkpt>
      <trkpt lat="45.48324" lon="4.57413">
        <ele>411.10095214844</ele>
        <time>2009-09-12T11:00:50Z</time>
      </trkpt>
      <trkpt lat="45.48316" lon="4.5739">
        <ele>411.58166503906</ele>
        <time>2009-09-12T11:00:56Z</time>
      </trkpt>
      <trkpt lat="45.48306" lon="4.57375">
        <ele>411.58166503906</ele>
        <time>2009-09-12T11:01:01Z</time>
      </trkpt>
      <trkpt lat="45.48286" lon="4.57357">
        <ele>412.54284667969</ele>
        <time>2009-09-12T11:01:06Z</time>
      </trkpt>
      <trkpt lat="45.48275" lon="4.57349">
        <ele>413.02355957031</ele>
        <time>2009-09-12T11:01:08Z</time>
      </trkpt>
      <trkpt lat="45.48254" lon="4.57343">
        <ele>414.46545410156</ele>
        <time>2009-09-12T11:01:13Z</time>
      </trkpt>
      <trkpt lat="45.48234" lon="4.57351">
        <ele>416.86889648438</ele>
        <time>2009-09-12T11:01:19Z</time>
      </trkpt>
      <trkpt lat="45.48225" lon="4.57364">
        <ele>416.86889648438</ele>
        <time>2009-09-12T11:01:23Z</time>
      </trkpt>
      <trkpt lat="45.4822" lon="4.57381">
        <ele>417.349609375</ele>
        <time>2009-09-12T11:01:28Z</time>
      </trkpt>
      <trkpt lat="45.48218" lon="4.57388">
        <ele>417.349609375</ele>
        <time>2009-09-12T11:01:31Z</time>
      </trkpt>
      <trkpt lat="45.48219" lon="4.57398">
        <ele>417.349609375</ele>
        <time>2009-09-12T11:01:36Z</time>
      </trkpt>
      <trkpt lat="45.48218" lon="4.57402">
        <ele>417.349609375</ele>
        <time>2009-09-12T11:01:41Z</time>
      </trkpt>
      <trkpt lat="45.4822" lon="4.57406">
        <ele>417.349609375</ele>
        <time>2009-09-12T11:01:56Z</time>
      </trkpt>
      <trkpt lat="45.48222" lon="4.57425">
        <ele>416.38818359375</ele>
        <time>2009-09-12T11:02:01Z</time>
      </trkpt>
      <trkpt lat="45.48228" lon="4.5745">
        <ele>415.90747070312</ele>
        <time>2009-09-12T11:02:05Z</time>
      </trkpt>
      <trkpt lat="45.48239" lon="4.57472">
        <ele>414.46545410156</ele>
        <time>2009-09-12T11:02:10Z</time>
      </trkpt>
      <trkpt lat="45.48249" lon="4.57474">
        <ele>413.98486328125</ele>
        <time>2009-09-12T11:02:13Z</time>
      </trkpt>
      <trkpt lat="45.48267" lon="4.5748">
        <ele>413.02355957031</ele>
        <time>2009-09-12T11:02:18Z</time>
      </trkpt>
      <trkpt lat="45.48283" lon="4.57474">
        <ele>413.02355957031</ele>
        <time>2009-09-12T11:02:22Z</time>
      </trkpt>
      <trkpt lat="45.48307" lon="4.57449">
        <ele>411.10095214844</ele>
        <time>2009-09-12T11:02:29Z</time>
      </trkpt>
      <trkpt lat="45.48326" lon="4.57417">
        <ele>410.62023925781</ele>
        <time>2009-09-12T11:02:35Z</time>
      </trkpt>
      <trkpt lat="45.48348" lon="4.57407">
        <ele>409.17834472656</ele>
        <time>2009-09-12T11:02:39Z</time>
      </trkpt>
      <trkpt lat="45.48388" lon="4.57404">
        <ele>405.81372070312</ele>
        <time>2009-09-12T11:02:45Z</time>
      </trkpt>
      <trkpt lat="45.48399" lon="4.57408">
        <ele>404.85229492188</ele>
        <time>2009-09-12T11:02:49Z</time>
      </trkpt>
      <trkpt lat="45.48399" lon="4.57408">
        <ele>404.85229492188</ele>
        <time>2009-09-12T11:02:55Z</time>
      </trkpt>
      <trkpt lat="45.48399" lon="4.5741">
        <ele>404.85229492188</ele>
        <time>2009-09-12T11:03:53Z</time>
      </trkpt>
      <trkpt lat="45.48399" lon="4.57402">
        <ele>404.37170410156</ele>
        <time>2009-09-12T11:03:57Z</time>
      </trkpt>
      <trkpt lat="45.48395" lon="4.57401">
        <ele>404.37170410156</ele>
        <time>2009-09-12T11:03:59Z</time>
      </trkpt>
      <trkpt lat="45.48383" lon="4.57404">
        <ele>406.29431152344</ele>
        <time>2009-09-12T11:04:04Z</time>
      </trkpt>
      <trkpt lat="45.48364" lon="4.57407">
        <ele>407.25561523438</ele>
        <time>2009-09-12T11:04:10Z</time>
      </trkpt>
      <trkpt lat="45.48351" lon="4.57411">
        <ele>408.69763183594</ele>
        <time>2009-09-12T11:04:15Z</time>
      </trkpt>
      <trkpt lat="45.48342" lon="4.57413">
        <ele>409.17834472656</ele>
        <time>2009-09-12T11:04:18Z</time>
      </trkpt>
      <trkpt lat="45.48328" lon="4.57408">
        <ele>410.62023925781</ele>
        <time>2009-09-12T11:04:23Z</time>
      </trkpt>
      <trkpt lat="45.48324" lon="4.57403">
        <ele>411.10095214844</ele>
        <time>2009-09-12T11:04:24Z</time>
      </trkpt>
      <trkpt lat="45.48303" lon="4.57373">
        <ele>411.10095214844</ele>
        <time>2009-09-12T11:04:31Z</time>
      </trkpt>
      <trkpt lat="45.48278" lon="4.57351">
        <ele>412.54284667969</ele>
        <time>2009-09-12T11:04:38Z</time>
      </trkpt>
      <trkpt lat="45.48256" lon="4.57341">
        <ele>414.46545410156</ele>
        <time>2009-09-12T11:04:44Z</time>
      </trkpt>
      <trkpt lat="45.48241" lon="4.57349">
        <ele>414.94616699219</ele>
        <time>2009-09-12T11:04:49Z</time>
      </trkpt>
      <trkpt lat="45.48232" lon="4.57354">
        <ele>416.86889648438</ele>
        <time>2009-09-12T11:04:54Z</time>
      </trkpt>
      <trkpt lat="45.48224" lon="4.57351">
        <ele>417.83020019531</ele>
        <time>2009-09-12T11:04:59Z</time>
      </trkpt>
      <trkpt lat="45.48223" lon="4.57347">
        <ele>417.83020019531</ele>
        <time>2009-09-12T11:05:02Z</time>
      </trkpt>
      <trkpt lat="45.48226" lon="4.57354">
        <ele>417.349609375</ele>
        <time>2009-09-12T11:05:07Z</time>
      </trkpt>
      <trkpt lat="45.48226" lon="4.57364">
        <ele>417.349609375</ele>
        <time>2009-09-12T11:05:10Z</time>
      </trkpt>
      <trkpt lat="45.48223" lon="4.57397">
        <ele>417.83020019531</ele>
        <time>2009-09-12T11:05:17Z</time>
      </trkpt>
      <trkpt lat="45.48223" lon="4.57408">
        <ele>416.86889648438</ele>
        <time>2009-09-12T11:05:19Z</time>
      </trkpt>
      <trkpt lat="45.48229" lon="4.57442">
        <ele>415.90747070312</ele>
        <time>2009-09-12T11:05:24Z</time>
      </trkpt>
      <trkpt lat="45.48236" lon="4.57472">
        <ele>414.94616699219</ele>
        <time>2009-09-12T11:05:28Z</time>
      </trkpt>
      <trkpt lat="45.48232" lon="4.57508">
        <ele>414.94616699219</ele>
        <time>2009-09-12T11:05:34Z</time>
      </trkpt>
      <trkpt lat="45.48232" lon="4.57514">
        <ele>414.94616699219</ele>
        <time>2009-09-12T11:05:35Z</time>
      </trkpt>
      <trkpt lat="45.48226" lon="4.57558">
        <ele>413.98486328125</ele>
        <time>2009-09-12T11:05:43Z</time>
      </trkpt>
      <trkpt lat="45.48223" lon="4.57568">
        <ele>414.46545410156</ele>
        <time>2009-09-12T11:05:45Z</time>
      </trkpt>
      <trkpt lat="45.48215" lon="4.5759">
        <ele>413.98486328125</ele>
        <time>2009-09-12T11:05:49Z</time>
      </trkpt>
      <trkpt lat="45.48203" lon="4.57621">
        <ele>414.46545410156</ele>
        <time>2009-09-12T11:05:56Z</time>
      </trkpt>
      <trkpt lat="45.48203" lon="4.57623">
        <ele>414.46545410156</ele>
        <time>2009-09-12T11:05:59Z</time>
      </trkpt>
      <trkpt lat="45.48204" lon="4.57623">
        <ele>413.98486328125</ele>
        <time>2009-09-12T11:06:02Z</time>
      </trkpt>
      <trkpt lat="45.48214" lon="4.5763">
        <ele>413.02355957031</ele>
        <time>2009-09-12T11:06:07Z</time>
      </trkpt>
      <trkpt lat="45.4823" lon="4.57643">
        <ele>410.62023925781</ele>
        <time>2009-09-12T11:06:11Z</time>
      </trkpt>
      <trkpt lat="45.48246" lon="4.57655">
        <ele>407.736328125</ele>
        <time>2009-09-12T11:06:14Z</time>
      </trkpt>
      <trkpt lat="45.48268" lon="4.57673">
        <ele>404.37170410156</ele>
        <time>2009-09-12T11:06:18Z</time>
      </trkpt>
      <trkpt lat="45.48284" lon="4.57689">
        <ele>403.89111328125</ele>
        <time>2009-09-12T11:06:22Z</time>
      </trkpt>
      <trkpt lat="45.48284" lon="4.57689">
        <ele>403.89111328125</ele>
        <time>2009-09-12T11:06:25Z</time>
      </trkpt>
      <trkpt lat="45.48284" lon="4.57689">
        <ele>403.89111328125</ele>
        <time>2009-09-12T11:06:27Z</time>
      </trkpt>
      <trkpt lat="45.48289" lon="4.57686">
        <ele>403.89111328125</ele>
        <time>2009-09-12T11:06:30Z</time>
      </trkpt>
      <trkpt lat="45.48299" lon="4.57674">
        <ele>402.9296875</ele>
        <time>2009-09-12T11:06:33Z</time>
      </trkpt>
      <trkpt lat="45.48314" lon="4.57661">
        <ele>401.96850585938</ele>
        <time>2009-09-12T11:06:36Z</time>
      </trkpt>
      <trkpt lat="45.48338" lon="4.57652">
        <ele>400.0458984375</ele>
        <time>2009-09-12T11:06:40Z</time>
      </trkpt>
      <trkpt lat="45.48378" lon="4.57653">
        <ele>398.60375976562</ele>
        <time>2009-09-12T11:06:46Z</time>
      </trkpt>
      <trkpt lat="45.48392" lon="4.57668">
        <ele>396.20056152344</ele>
        <time>2009-09-12T11:06:49Z</time>
      </trkpt>
      <trkpt lat="45.48394" lon="4.57678">
        <ele>395.23913574219</ele>
        <time>2009-09-12T11:06:50Z</time>
      </trkpt>
      <trkpt lat="45.48401" lon="4.57747">
        <ele>388.99060058594</ele>
        <time>2009-09-12T11:06:55Z</time>
      </trkpt>
      <trkpt lat="45.48403" lon="4.57779">
        <ele>385.6259765625</ele>
        <time>2009-09-12T11:06:57Z</time>
      </trkpt>
      <trkpt lat="45.48419" lon="4.57839">
        <ele>381.78063964844</ele>
        <time>2009-09-12T11:07:01Z</time>
      </trkpt>
      <trkpt lat="45.48431" lon="4.57868">
        <ele>378.41613769531</ele>
        <time>2009-09-12T11:07:03Z</time>
      </trkpt>
      <trkpt lat="45.48449" lon="4.57906">
        <ele>373.60949707031</ele>
        <time>2009-09-12T11:07:06Z</time>
      </trkpt>
      <trkpt lat="45.48462" lon="4.57927">
        <ele>370.7255859375</ele>
        <time>2009-09-12T11:07:08Z</time>
      </trkpt>
      <trkpt lat="45.48476" lon="4.57986">
        <ele>365.43835449219</ele>
        <time>2009-09-12T11:07:12Z</time>
      </trkpt>
      <trkpt lat="45.48478" lon="4.57999">
        <ele>363.99633789062</ele>
        <time>2009-09-12T11:07:13Z</time>
      </trkpt>
      <trkpt lat="45.48483" lon="4.5802">
        <ele>363.03503417969</ele>
        <time>2009-09-12T11:07:15Z</time>
      </trkpt>
      <trkpt lat="45.48505" lon="4.58041">
        <ele>360.15112304688</ele>
        <time>2009-09-12T11:07:19Z</time>
      </trkpt>
      <trkpt lat="45.48551" lon="4.58061">
        <ele>361.11242675781</ele>
        <time>2009-09-12T11:07:26Z</time>
      </trkpt>
      <trkpt lat="45.486" lon="4.58096">
        <ele>361.11242675781</ele>
        <time>2009-09-12T11:07:34Z</time>
      </trkpt>
      <trkpt lat="45.48617" lon="4.5811">
        <ele>360.63171386719</ele>
        <time>2009-09-12T11:07:37Z</time>
      </trkpt>
      <trkpt lat="45.48647" lon="4.58121">
        <ele>360.63171386719</ele>
        <time>2009-09-12T11:07:42Z</time>
      </trkpt>
      <trkpt lat="45.48671" lon="4.58118">
        <ele>360.15112304688</ele>
        <time>2009-09-12T11:07:46Z</time>
      </trkpt>
      <trkpt lat="45.48692" lon="4.58122">
        <ele>359.18969726562</ele>
        <time>2009-09-12T11:07:50Z</time>
      </trkpt>
      <trkpt lat="45.48716" lon="4.58125">
        <ele>359.67041015625</ele>
        <time>2009-09-12T11:07:54Z</time>
      </trkpt>
      <trkpt lat="45.48734" lon="4.58125">
        <ele>359.18969726562</ele>
        <time>2009-09-12T11:07:57Z</time>
      </trkpt>
      <trkpt lat="45.48755" lon="4.5811">
        <ele>356.78637695312</ele>
        <time>2009-09-12T11:08:01Z</time>
      </trkpt>
      <trkpt lat="45.48788" lon="4.58072">
        <ele>354.86376953125</ele>
        <time>2009-09-12T11:08:07Z</time>
      </trkpt>
      <trkpt lat="45.48811" lon="4.58052">
        <ele>353.90258789062</ele>
        <time>2009-09-12T11:08:11Z</time>
      </trkpt>
      <trkpt lat="45.48837" lon="4.58034">
        <ele>352.46057128906</ele>
        <time>2009-09-12T11:08:15Z</time>
      </trkpt>
      <trkpt lat="45.48868" lon="4.58002">
        <ele>351.01843261719</ele>
        <time>2009-09-12T11:08:20Z</time>
      </trkpt>
      <trkpt lat="45.48901" lon="4.5797">
        <ele>350.53784179688</ele>
        <time>2009-09-12T11:08:25Z</time>
      </trkpt>
      <trkpt lat="45.48933" lon="4.57941">
        <ele>349.57653808594</ele>
        <time>2009-09-12T11:08:29Z</time>
      </trkpt>
      <trkpt lat="45.48941" lon="4.57935">
        <ele>350.53784179688</ele>
        <time>2009-09-12T11:08:30Z</time>
      </trkpt>
      <trkpt lat="45.48993" lon="4.57904">
        <ele>349.57653808594</ele>
        <time>2009-09-12T11:08:36Z</time>
      </trkpt>
      <trkpt lat="45.49009" lon="4.57898">
        <ele>348.615234375</ele>
        <time>2009-09-12T11:08:38Z</time>
      </trkpt>
      <trkpt lat="45.49046" lon="4.57891">
        <ele>348.13464355469</ele>
        <time>2009-09-12T11:08:42Z</time>
      </trkpt>
      <trkpt lat="45.491" lon="4.57893">
        <ele>347.65393066406</ele>
        <time>2009-09-12T11:08:48Z</time>
      </trkpt>
      <trkpt lat="45.49141" lon="4.579">
        <ele>346.69262695312</ele>
        <time>2009-09-12T11:08:53Z</time>
      </trkpt>
      <trkpt lat="45.49158" lon="4.57901">
        <ele>345.73132324219</ele>
        <time>2009-09-12T11:08:55Z</time>
      </trkpt>
      <trkpt lat="45.49202" lon="4.57919">
        <ele>345.73132324219</ele>
        <time>2009-09-12T11:09:00Z</time>
      </trkpt>
      <trkpt lat="45.49261" lon="4.57969">
        <ele>345.73132324219</ele>
        <time>2009-09-12T11:09:08Z</time>
      </trkpt>
      <trkpt lat="45.49287" lon="4.57994">
        <ele>347.17321777344</ele>
        <time>2009-09-12T11:09:12Z</time>
      </trkpt>
      <trkpt lat="45.49324" lon="4.58011">
        <ele>348.615234375</ele>
        <time>2009-09-12T11:09:18Z</time>
      </trkpt>
      <trkpt lat="45.49331" lon="4.58011">
        <ele>349.09582519531</ele>
        <time>2009-09-12T11:09:19Z</time>
      </trkpt>
      <trkpt lat="45.49376" lon="4.58008">
        <ele>351.01843261719</ele>
        <time>2009-09-12T11:09:27Z</time>
      </trkpt>
      <trkpt lat="45.49395" lon="4.58012">
        <ele>351.97985839844</ele>
        <time>2009-09-12T11:09:31Z</time>
      </trkpt>
      <trkpt lat="45.49431" lon="4.58014">
        <ele>351.49914550781</ele>
        <time>2009-09-12T11:09:39Z</time>
      </trkpt>
      <trkpt lat="45.49456" lon="4.58012">
        <ele>350.05725097656</ele>
        <time>2009-09-12T11:09:43Z</time>
      </trkpt>
      <trkpt lat="45.49501" lon="4.58007">
        <ele>349.09582519531</ele>
        <time>2009-09-12T11:09:49Z</time>
      </trkpt>
      <trkpt lat="45.49553" lon="4.57997">
        <ele>348.13464355469</ele>
        <time>2009-09-12T11:09:56Z</time>
      </trkpt>
      <trkpt lat="45.49603" lon="4.57996">
        <ele>347.65393066406</ele>
        <time>2009-09-12T11:10:02Z</time>
      </trkpt>
      <trkpt lat="45.4967" lon="4.57998">
        <ele>346.21203613281</ele>
        <time>2009-09-12T11:10:09Z</time>
      </trkpt>
      <trkpt lat="45.4974" lon="4.58001">
        <ele>343.80859375</ele>
        <time>2009-09-12T11:10:16Z</time>
      </trkpt>
      <trkpt lat="45.49831" lon="4.57992">
        <ele>341.88598632812</ele>
        <time>2009-09-12T11:10:25Z</time>
      </trkpt>
      <trkpt lat="45.49901" lon="4.57976">
        <ele>341.88598632812</ele>
        <time>2009-09-12T11:10:32Z</time>
      </trkpt>
      <trkpt lat="45.49959" lon="4.57953">
        <ele>339.96337890625</ele>
        <time>2009-09-12T11:10:38Z</time>
      </trkpt>
      <trkpt lat="45.50019" lon="4.57929">
        <ele>338.521484375</ele>
        <time>2009-09-12T11:10:44Z</time>
      </trkpt>
      <trkpt lat="45.50095" lon="4.57909">
        <ele>334.19543457031</ele>
        <time>2009-09-12T11:10:51Z</time>
      </trkpt>
      <trkpt lat="45.50105" lon="4.57907">
        <ele>335.15673828125</ele>
        <time>2009-09-12T11:10:52Z</time>
      </trkpt>
      <trkpt lat="45.50136" lon="4.57903">
        <ele>333.23413085938</ele>
        <time>2009-09-12T11:10:55Z</time>
      </trkpt>
      <trkpt lat="45.50156" lon="4.579">
        <ele>332.75354003906</ele>
        <time>2009-09-12T11:10:57Z</time>
      </trkpt>
      <trkpt lat="45.50175" lon="4.5791">
        <ele>331.79211425781</ele>
        <time>2009-09-12T11:10:59Z</time>
      </trkpt>
      <trkpt lat="45.50188" lon="4.57932">
        <ele>331.79211425781</ele>
        <time>2009-09-12T11:11:01Z</time>
      </trkpt>
      <trkpt lat="45.50223" lon="4.57954">
        <ele>331.3115234375</ele>
        <time>2009-09-12T11:11:05Z</time>
      </trkpt>
      <trkpt lat="45.50261" lon="4.57952">
        <ele>330.83093261719</ele>
        <time>2009-09-12T11:11:09Z</time>
      </trkpt>
      <trkpt lat="45.50338" lon="4.57932">
        <ele>330.35021972656</ele>
        <time>2009-09-12T11:11:17Z</time>
      </trkpt>
      <trkpt lat="45.50359" lon="4.57927">
        <ele>329.38891601562</ele>
        <time>2009-09-12T11:11:19Z</time>
      </trkpt>
      <trkpt lat="45.5043" lon="4.57909">
        <ele>328.90832519531</ele>
        <time>2009-09-12T11:11:26Z</time>
      </trkpt>
      <trkpt lat="45.50459" lon="4.57909">
        <ele>327.94677734375</ele>
        <time>2009-09-12T11:11:29Z</time>
      </trkpt>
      <trkpt lat="45.50535" lon="4.57923">
        <ele>327.94677734375</ele>
        <time>2009-09-12T11:11:37Z</time>
      </trkpt>
      <trkpt lat="45.50603" lon="4.57932">
        <ele>326.98559570312</ele>
        <time>2009-09-12T11:11:44Z</time>
      </trkpt>
      <trkpt lat="45.50682" lon="4.57935">
        <ele>325.54357910156</ele>
        <time>2009-09-12T11:11:52Z</time>
      </trkpt>
      <trkpt lat="45.5073" lon="4.57943">
        <ele>325.06298828125</ele>
        <time>2009-09-12T11:11:57Z</time>
      </trkpt>
      <trkpt lat="45.50739" lon="4.57946">
        <ele>325.06298828125</ele>
        <time>2009-09-12T11:11:58Z</time>
      </trkpt>
      <trkpt lat="45.50777" lon="4.57973">
        <ele>324.58227539062</ele>
        <time>2009-09-12T11:12:03Z</time>
      </trkpt>
      <trkpt lat="45.50803" lon="4.58">
        <ele>325.06298828125</ele>
        <time>2009-09-12T11:12:07Z</time>
      </trkpt>
      <trkpt lat="45.5084" lon="4.58025">
        <ele>326.5048828125</ele>
        <time>2009-09-12T11:12:12Z</time>
      </trkpt>
      <trkpt lat="45.50862" lon="4.58035">
        <ele>326.98559570312</ele>
        <time>2009-09-12T11:12:15Z</time>
      </trkpt>
      <trkpt lat="45.50919" lon="4.58044">
        <ele>326.5048828125</ele>
        <time>2009-09-12T11:12:22Z</time>
      </trkpt>
      <trkpt lat="45.50971" lon="4.58056">
        <ele>324.58227539062</ele>
        <time>2009-09-12T11:12:28Z</time>
      </trkpt>
      <trkpt lat="45.51044" lon="4.5808">
        <ele>324.1015625</ele>
        <time>2009-09-12T11:12:36Z</time>
      </trkpt>
      <trkpt lat="45.51089" lon="4.58102">
        <ele>324.1015625</ele>
        <time>2009-09-12T11:12:41Z</time>
      </trkpt>
      <trkpt lat="45.51119" lon="4.58124">
        <ele>322.65966796875</ele>
        <time>2009-09-12T11:12:45Z</time>
      </trkpt>
      <trkpt lat="45.51131" lon="4.58152">
        <ele>322.17895507812</ele>
        <time>2009-09-12T11:12:48Z</time>
      </trkpt>
      <trkpt lat="45.51148" lon="4.58152">
        <ele>321.69836425781</ele>
        <time>2009-09-12T11:12:51Z</time>
      </trkpt>
      <trkpt lat="45.51161" lon="4.5814">
        <ele>320.73706054688</ele>
        <time>2009-09-12T11:12:54Z</time>
      </trkpt>
      <trkpt lat="45.51179" lon="4.58137">
        <ele>320.73706054688</ele>
        <time>2009-09-12T11:12:58Z</time>
      </trkpt>
    </trkseg>
  </trk>
</gpx>